<?xml version="1.0" encoding="UTF-8" standalone="no" ?>
<gpx xmlns="http://www.topografix.com/GPX/1/1" xmlns:xsi="http://www.w3.org/2001/XMLSchema-instance" xsi:schemaLocation="http://www.topografix.com/GPX/1/1 http://www.topografix.com/GPX/1/1/gpx.xsd" version="1.1" creator="VisuGPX - https://www.visugpx.com">
  <metadata>
    <name>Peyruis Cyclisme</name>
    <desc><![CDATA[que des sentiers sur 30 km maurice, vincent, bruno, christian]]></desc>
  </metadata>
  <trk>
    <name><![CDATA[Peyruis Cyclisme]]></name>
    <trkseg>
      <trkpt lat="44.02873" lon="5.93846">
        <ele>461.79998779297</ele>
        <time>2021-02-11T09:39:32.000Z</time>
      </trkpt>
      <trkpt lat="44.0287" lon="5.93845">
        <ele>461.60000610352</ele>
        <time>2021-02-11T09:39:44.000Z</time>
      </trkpt>
      <trkpt lat="44.02869" lon="5.93846">
        <ele>461.39999389648</ele>
        <time>2021-02-11T09:39:45.000Z</time>
      </trkpt>
      <trkpt lat="44.02862" lon="5.93861">
        <ele>461.79998779297</ele>
        <time>2021-02-11T09:39:50.000Z</time>
      </trkpt>
      <trkpt lat="44.02858" lon="5.93873">
        <ele>461.79998779297</ele>
        <time>2021-02-11T09:39:55.000Z</time>
      </trkpt>
      <trkpt lat="44.02845" lon="5.93878">
        <ele>462.20001220703</ele>
        <time>2021-02-11T09:40:00.000Z</time>
      </trkpt>
      <trkpt lat="44.02837" lon="5.93881">
        <ele>462.20001220703</ele>
        <time>2021-02-11T09:40:05.000Z</time>
      </trkpt>
      <trkpt lat="44.02831" lon="5.93883">
        <ele>462</ele>
        <time>2021-02-11T09:40:11.000Z</time>
      </trkpt>
      <trkpt lat="44.02831" lon="5.93884">
        <ele>462.20001220703</ele>
        <time>2021-02-11T09:40:28.000Z</time>
      </trkpt>
      <trkpt lat="44.02831" lon="5.93884">
        <ele>462</ele>
        <time>2021-02-11T09:40:44.000Z</time>
      </trkpt>
      <trkpt lat="44.02831" lon="5.93884">
        <ele>462</ele>
        <time>2021-02-11T09:40:49.000Z</time>
      </trkpt>
      <trkpt lat="44.02828" lon="5.93882">
        <ele>462</ele>
        <time>2021-02-11T09:41:01.000Z</time>
      </trkpt>
      <trkpt lat="44.02822" lon="5.93878">
        <ele>462</ele>
        <time>2021-02-11T09:41:04.000Z</time>
      </trkpt>
      <trkpt lat="44.0282" lon="5.93874">
        <ele>462</ele>
        <time>2021-02-11T09:41:06.000Z</time>
      </trkpt>
      <trkpt lat="44.02822" lon="5.9387">
        <ele>462</ele>
        <time>2021-02-11T09:41:08.000Z</time>
      </trkpt>
      <trkpt lat="44.02824" lon="5.93864">
        <ele>461.79998779297</ele>
        <time>2021-02-11T09:41:11.000Z</time>
      </trkpt>
      <trkpt lat="44.02825" lon="5.93861">
        <ele>461.79998779297</ele>
        <time>2021-02-11T09:41:13.000Z</time>
      </trkpt>
      <trkpt lat="44.02827" lon="5.9386">
        <ele>461.79998779297</ele>
        <time>2021-02-11T09:41:16.000Z</time>
      </trkpt>
      <trkpt lat="44.02827" lon="5.93858">
        <ele>461.79998779297</ele>
        <time>2021-02-11T09:41:26.000Z</time>
      </trkpt>
      <trkpt lat="44.02829" lon="5.93856">
        <ele>461.79998779297</ele>
        <time>2021-02-11T09:41:28.000Z</time>
      </trkpt>
      <trkpt lat="44.02836" lon="5.93862">
        <ele>461.79998779297</ele>
        <time>2021-02-11T09:41:33.000Z</time>
      </trkpt>
      <trkpt lat="44.02841" lon="5.93872">
        <ele>462</ele>
        <time>2021-02-11T09:41:38.000Z</time>
      </trkpt>
      <trkpt lat="44.02852" lon="5.93885">
        <ele>462.79998779297</ele>
        <time>2021-02-11T09:41:46.000Z</time>
      </trkpt>
      <trkpt lat="44.02853" lon="5.93886">
        <ele>462.79998779297</ele>
        <time>2021-02-11T09:41:47.000Z</time>
      </trkpt>
      <trkpt lat="44.0286" lon="5.93886">
        <ele>463</ele>
        <time>2021-02-11T09:41:52.000Z</time>
      </trkpt>
      <trkpt lat="44.02865" lon="5.93878">
        <ele>463.20001220703</ele>
        <time>2021-02-11T09:41:57.000Z</time>
      </trkpt>
      <trkpt lat="44.02865" lon="5.93875">
        <ele>463.20001220703</ele>
        <time>2021-02-11T09:41:58.000Z</time>
      </trkpt>
      <trkpt lat="44.02864" lon="5.9387">
        <ele>463.20001220703</ele>
        <time>2021-02-11T09:42:01.000Z</time>
      </trkpt>
      <trkpt lat="44.02865" lon="5.93869">
        <ele>463.20001220703</ele>
        <time>2021-02-11T09:42:02.000Z</time>
      </trkpt>
      <trkpt lat="44.02868" lon="5.93866">
        <ele>463</ele>
        <time>2021-02-11T09:42:07.000Z</time>
      </trkpt>
      <trkpt lat="44.02872" lon="5.9386">
        <ele>462.60000610352</ele>
        <time>2021-02-11T09:42:11.000Z</time>
      </trkpt>
      <trkpt lat="44.02875" lon="5.93858">
        <ele>462.60000610352</ele>
        <time>2021-02-11T09:42:13.000Z</time>
      </trkpt>
      <trkpt lat="44.02876" lon="5.93859">
        <ele>462.39999389648</ele>
        <time>2021-02-11T09:42:15.000Z</time>
      </trkpt>
      <trkpt lat="44.02879" lon="5.93859">
        <ele>462.39999389648</ele>
        <time>2021-02-11T09:42:18.000Z</time>
      </trkpt>
      <trkpt lat="44.0288" lon="5.93855">
        <ele>462.60000610352</ele>
        <time>2021-02-11T09:42:20.000Z</time>
      </trkpt>
      <trkpt lat="44.02876" lon="5.93856">
        <ele>462.39999389648</ele>
        <time>2021-02-11T09:42:23.000Z</time>
      </trkpt>
      <trkpt lat="44.02877" lon="5.93858">
        <ele>462.39999389648</ele>
        <time>2021-02-11T09:42:24.000Z</time>
      </trkpt>
      <trkpt lat="44.02877" lon="5.93863">
        <ele>462.39999389648</ele>
        <time>2021-02-11T09:42:29.000Z</time>
      </trkpt>
      <trkpt lat="44.02877" lon="5.93862">
        <ele>462.60000610352</ele>
        <time>2021-02-11T09:42:49.000Z</time>
      </trkpt>
      <trkpt lat="44.02877" lon="5.93862">
        <ele>462.39999389648</ele>
        <time>2021-02-11T09:43:08.000Z</time>
      </trkpt>
      <trkpt lat="44.02877" lon="5.93862">
        <ele>462.60000610352</ele>
        <time>2021-02-11T09:43:26.000Z</time>
      </trkpt>
      <trkpt lat="44.02879" lon="5.9386">
        <ele>462.60000610352</ele>
        <time>2021-02-11T09:43:44.000Z</time>
      </trkpt>
      <trkpt lat="44.02879" lon="5.93853">
        <ele>462.60000610352</ele>
        <time>2021-02-11T09:43:48.000Z</time>
      </trkpt>
      <trkpt lat="44.02877" lon="5.93853">
        <ele>462.60000610352</ele>
        <time>2021-02-11T09:43:50.000Z</time>
      </trkpt>
      <trkpt lat="44.02875" lon="5.93853">
        <ele>462.39999389648</ele>
        <time>2021-02-11T09:43:52.000Z</time>
      </trkpt>
      <trkpt lat="44.02871" lon="5.93853">
        <ele>462.20001220703</ele>
        <time>2021-02-11T09:43:58.000Z</time>
      </trkpt>
      <trkpt lat="44.02869" lon="5.93853">
        <ele>462.20001220703</ele>
        <time>2021-02-11T09:44:03.000Z</time>
      </trkpt>
      <trkpt lat="44.02868" lon="5.93854">
        <ele>462.20001220703</ele>
        <time>2021-02-11T09:44:06.000Z</time>
      </trkpt>
      <trkpt lat="44.02867" lon="5.93857">
        <ele>462.20001220703</ele>
        <time>2021-02-11T09:44:09.000Z</time>
      </trkpt>
      <trkpt lat="44.02868" lon="5.93857">
        <ele>462.20001220703</ele>
        <time>2021-02-11T09:44:15.000Z</time>
      </trkpt>
      <trkpt lat="44.02869" lon="5.93857">
        <ele>462</ele>
        <time>2021-02-11T09:44:29.000Z</time>
      </trkpt>
      <trkpt lat="44.02869" lon="5.93857">
        <ele>462.20001220703</ele>
        <time>2021-02-11T09:44:49.000Z</time>
      </trkpt>
      <trkpt lat="44.02869" lon="5.93857">
        <ele>462</ele>
        <time>2021-02-11T09:45:11.000Z</time>
      </trkpt>
      <trkpt lat="44.02869" lon="5.93857">
        <ele>462</ele>
        <time>2021-02-11T09:45:30.000Z</time>
      </trkpt>
      <trkpt lat="44.02869" lon="5.93858">
        <ele>462</ele>
        <time>2021-02-11T09:46:04.000Z</time>
      </trkpt>
      <trkpt lat="44.0287" lon="5.9386">
        <ele>462</ele>
        <time>2021-02-11T09:46:06.000Z</time>
      </trkpt>
      <trkpt lat="44.02877" lon="5.93859">
        <ele>462.20001220703</ele>
        <time>2021-02-11T09:46:11.000Z</time>
      </trkpt>
      <trkpt lat="44.02878" lon="5.93858">
        <ele>462.20001220703</ele>
        <time>2021-02-11T09:46:12.000Z</time>
      </trkpt>
      <trkpt lat="44.02891" lon="5.93856">
        <ele>462</ele>
        <time>2021-02-11T09:46:19.000Z</time>
      </trkpt>
      <trkpt lat="44.02908" lon="5.93855">
        <ele>461.79998779297</ele>
        <time>2021-02-11T09:46:26.000Z</time>
      </trkpt>
      <trkpt lat="44.02911" lon="5.93855">
        <ele>461.60000610352</ele>
        <time>2021-02-11T09:46:27.000Z</time>
      </trkpt>
      <trkpt lat="44.02924" lon="5.93861">
        <ele>461.39999389648</ele>
        <time>2021-02-11T09:46:32.000Z</time>
      </trkpt>
      <trkpt lat="44.02945" lon="5.93867">
        <ele>461.60000610352</ele>
        <time>2021-02-11T09:46:40.000Z</time>
      </trkpt>
      <trkpt lat="44.0297" lon="5.93872">
        <ele>462.39999389648</ele>
        <time>2021-02-11T09:46:50.000Z</time>
      </trkpt>
      <trkpt lat="44.02985" lon="5.93873">
        <ele>462.79998779297</ele>
        <time>2021-02-11T09:46:56.000Z</time>
      </trkpt>
      <trkpt lat="44.02987" lon="5.93874">
        <ele>462.60000610352</ele>
        <time>2021-02-11T09:46:57.000Z</time>
      </trkpt>
      <trkpt lat="44.03002" lon="5.93874">
        <ele>463.20001220703</ele>
        <time>2021-02-11T09:47:03.000Z</time>
      </trkpt>
      <trkpt lat="44.03021" lon="5.93877">
        <ele>463.20001220703</ele>
        <time>2021-02-11T09:47:10.000Z</time>
      </trkpt>
      <trkpt lat="44.03043" lon="5.93884">
        <ele>463.39999389648</ele>
        <time>2021-02-11T09:47:18.000Z</time>
      </trkpt>
      <trkpt lat="44.03063" lon="5.93892">
        <ele>463.79998779297</ele>
        <time>2021-02-11T09:47:25.000Z</time>
      </trkpt>
      <trkpt lat="44.03072" lon="5.93894">
        <ele>464</ele>
        <time>2021-02-11T09:47:28.000Z</time>
      </trkpt>
      <trkpt lat="44.03077" lon="5.93892">
        <ele>464.20001220703</ele>
        <time>2021-02-11T09:47:30.000Z</time>
      </trkpt>
      <trkpt lat="44.0308" lon="5.93887">
        <ele>464.20001220703</ele>
        <time>2021-02-11T09:47:32.000Z</time>
      </trkpt>
      <trkpt lat="44.03083" lon="5.93881">
        <ele>464.20001220703</ele>
        <time>2021-02-11T09:47:34.000Z</time>
      </trkpt>
      <trkpt lat="44.03091" lon="5.93858">
        <ele>464.39999389648</ele>
        <time>2021-02-11T09:47:41.000Z</time>
      </trkpt>
      <trkpt lat="44.03098" lon="5.93838">
        <ele>464.79998779297</ele>
        <time>2021-02-11T09:47:47.000Z</time>
      </trkpt>
      <trkpt lat="44.03099" lon="5.93835">
        <ele>465</ele>
        <time>2021-02-11T09:47:48.000Z</time>
      </trkpt>
      <trkpt lat="44.03107" lon="5.9382">
        <ele>466.20001220703</ele>
        <time>2021-02-11T09:47:53.000Z</time>
      </trkpt>
      <trkpt lat="44.0311" lon="5.93818">
        <ele>466.39999389648</ele>
        <time>2021-02-11T09:47:54.000Z</time>
      </trkpt>
      <trkpt lat="44.03125" lon="5.93818">
        <ele>467</ele>
        <time>2021-02-11T09:47:59.000Z</time>
      </trkpt>
      <trkpt lat="44.03142" lon="5.93827">
        <ele>467</ele>
        <time>2021-02-11T09:48:05.000Z</time>
      </trkpt>
      <trkpt lat="44.03164" lon="5.93845">
        <ele>466.79998779297</ele>
        <time>2021-02-11T09:48:13.000Z</time>
      </trkpt>
      <trkpt lat="44.03184" lon="5.93855">
        <ele>466.79998779297</ele>
        <time>2021-02-11T09:48:20.000Z</time>
      </trkpt>
      <trkpt lat="44.03196" lon="5.93858">
        <ele>467.20001220703</ele>
        <time>2021-02-11T09:48:24.000Z</time>
      </trkpt>
      <trkpt lat="44.0321" lon="5.9386">
        <ele>468.20001220703</ele>
        <time>2021-02-11T09:48:29.000Z</time>
      </trkpt>
      <trkpt lat="44.03213" lon="5.93861">
        <ele>468.60000610352</ele>
        <time>2021-02-11T09:48:30.000Z</time>
      </trkpt>
      <trkpt lat="44.03226" lon="5.93862">
        <ele>469.79998779297</ele>
        <time>2021-02-11T09:48:34.000Z</time>
      </trkpt>
      <trkpt lat="44.03244" lon="5.93859">
        <ele>470.79998779297</ele>
        <time>2021-02-11T09:48:40.000Z</time>
      </trkpt>
      <trkpt lat="44.03254" lon="5.93849">
        <ele>471.39999389648</ele>
        <time>2021-02-11T09:48:44.000Z</time>
      </trkpt>
      <trkpt lat="44.03259" lon="5.93833">
        <ele>472</ele>
        <time>2021-02-11T09:48:48.000Z</time>
      </trkpt>
      <trkpt lat="44.0326" lon="5.93829">
        <ele>472</ele>
        <time>2021-02-11T09:48:49.000Z</time>
      </trkpt>
      <trkpt lat="44.03263" lon="5.93816">
        <ele>473.20001220703</ele>
        <time>2021-02-11T09:48:53.000Z</time>
      </trkpt>
      <trkpt lat="44.03265" lon="5.93805">
        <ele>474.39999389648</ele>
        <time>2021-02-11T09:48:56.000Z</time>
      </trkpt>
      <trkpt lat="44.03265" lon="5.93801">
        <ele>474.60000610352</ele>
        <time>2021-02-11T09:48:57.000Z</time>
      </trkpt>
      <trkpt lat="44.0327" lon="5.93772">
        <ele>475</ele>
        <time>2021-02-11T09:49:04.000Z</time>
      </trkpt>
      <trkpt lat="44.03271" lon="5.93768">
        <ele>475.60000610352</ele>
        <time>2021-02-11T09:49:05.000Z</time>
      </trkpt>
      <trkpt lat="44.03275" lon="5.93749">
        <ele>476.79998779297</ele>
        <time>2021-02-11T09:49:10.000Z</time>
      </trkpt>
      <trkpt lat="44.03277" lon="5.93738">
        <ele>477.39999389648</ele>
        <time>2021-02-11T09:49:13.000Z</time>
      </trkpt>
      <trkpt lat="44.03278" lon="5.9373">
        <ele>478</ele>
        <time>2021-02-11T09:49:15.000Z</time>
      </trkpt>
      <trkpt lat="44.03281" lon="5.93715">
        <ele>479.39999389648</ele>
        <time>2021-02-11T09:49:19.000Z</time>
      </trkpt>
      <trkpt lat="44.03283" lon="5.93701">
        <ele>480.39999389648</ele>
        <time>2021-02-11T09:49:23.000Z</time>
      </trkpt>
      <trkpt lat="44.03287" lon="5.93684">
        <ele>481.60000610352</ele>
        <time>2021-02-11T09:49:28.000Z</time>
      </trkpt>
      <trkpt lat="44.0329" lon="5.93667">
        <ele>482.39999389648</ele>
        <time>2021-02-11T09:49:33.000Z</time>
      </trkpt>
      <trkpt lat="44.03291" lon="5.93664">
        <ele>483</ele>
        <time>2021-02-11T09:49:34.000Z</time>
      </trkpt>
      <trkpt lat="44.03296" lon="5.93644">
        <ele>484.39999389648</ele>
        <time>2021-02-11T09:49:40.000Z</time>
      </trkpt>
      <trkpt lat="44.03297" lon="5.93642">
        <ele>484.60000610352</ele>
        <time>2021-02-11T09:49:41.000Z</time>
      </trkpt>
      <trkpt lat="44.03305" lon="5.93634">
        <ele>485.39999389648</ele>
        <time>2021-02-11T09:49:45.000Z</time>
      </trkpt>
      <trkpt lat="44.03307" lon="5.93633">
        <ele>485.60000610352</ele>
        <time>2021-02-11T09:49:46.000Z</time>
      </trkpt>
      <trkpt lat="44.0331" lon="5.93633">
        <ele>486</ele>
        <time>2021-02-11T09:49:47.000Z</time>
      </trkpt>
      <trkpt lat="44.03323" lon="5.93631">
        <ele>486.39999389648</ele>
        <time>2021-02-11T09:49:52.000Z</time>
      </trkpt>
      <trkpt lat="44.03328" lon="5.93629">
        <ele>486.79998779297</ele>
        <time>2021-02-11T09:49:54.000Z</time>
      </trkpt>
      <trkpt lat="44.03336" lon="5.93625">
        <ele>487.39999389648</ele>
        <time>2021-02-11T09:49:57.000Z</time>
      </trkpt>
      <trkpt lat="44.03347" lon="5.93617">
        <ele>488</ele>
        <time>2021-02-11T09:50:02.000Z</time>
      </trkpt>
      <trkpt lat="44.03351" lon="5.93613">
        <ele>488.60000610352</ele>
        <time>2021-02-11T09:50:04.000Z</time>
      </trkpt>
      <trkpt lat="44.03356" lon="5.93608">
        <ele>489.60000610352</ele>
        <time>2021-02-11T09:50:07.000Z</time>
      </trkpt>
      <trkpt lat="44.0336" lon="5.93601">
        <ele>490.20001220703</ele>
        <time>2021-02-11T09:50:10.000Z</time>
      </trkpt>
      <trkpt lat="44.03365" lon="5.93589">
        <ele>490.79998779297</ele>
        <time>2021-02-11T09:50:14.000Z</time>
      </trkpt>
      <trkpt lat="44.03368" lon="5.93578">
        <ele>491.39999389648</ele>
        <time>2021-02-11T09:50:17.000Z</time>
      </trkpt>
      <trkpt lat="44.03373" lon="5.93559">
        <ele>492.20001220703</ele>
        <time>2021-02-11T09:50:22.000Z</time>
      </trkpt>
      <trkpt lat="44.03377" lon="5.93549">
        <ele>493.39999389648</ele>
        <time>2021-02-11T09:50:25.000Z</time>
      </trkpt>
      <trkpt lat="44.03387" lon="5.93529">
        <ele>494.20001220703</ele>
        <time>2021-02-11T09:50:32.000Z</time>
      </trkpt>
      <trkpt lat="44.03389" lon="5.93527">
        <ele>494.39999389648</ele>
        <time>2021-02-11T09:50:33.000Z</time>
      </trkpt>
      <trkpt lat="44.03396" lon="5.93527">
        <ele>494.60000610352</ele>
        <time>2021-02-11T09:50:36.000Z</time>
      </trkpt>
      <trkpt lat="44.03402" lon="5.93529">
        <ele>495.79998779297</ele>
        <time>2021-02-11T09:50:38.000Z</time>
      </trkpt>
      <trkpt lat="44.03409" lon="5.93534">
        <ele>496.39999389648</ele>
        <time>2021-02-11T09:50:40.000Z</time>
      </trkpt>
      <trkpt lat="44.03414" lon="5.93537">
        <ele>496.79998779297</ele>
        <time>2021-02-11T09:50:41.000Z</time>
      </trkpt>
      <trkpt lat="44.03428" lon="5.93541">
        <ele>497.39999389648</ele>
        <time>2021-02-11T09:50:44.000Z</time>
      </trkpt>
      <trkpt lat="44.03432" lon="5.93541">
        <ele>497.60000610352</ele>
        <time>2021-02-11T09:50:45.000Z</time>
      </trkpt>
      <trkpt lat="44.03442" lon="5.93542">
        <ele>497.60000610352</ele>
        <time>2021-02-11T09:50:47.000Z</time>
      </trkpt>
      <trkpt lat="44.03453" lon="5.93547">
        <ele>497.79998779297</ele>
        <time>2021-02-11T09:50:49.000Z</time>
      </trkpt>
      <trkpt lat="44.03459" lon="5.9355">
        <ele>497.79998779297</ele>
        <time>2021-02-11T09:50:50.000Z</time>
      </trkpt>
      <trkpt lat="44.03486" lon="5.93566">
        <ele>498</ele>
        <time>2021-02-11T09:50:55.000Z</time>
      </trkpt>
      <trkpt lat="44.03514" lon="5.93579">
        <ele>498.20001220703</ele>
        <time>2021-02-11T09:51:01.000Z</time>
      </trkpt>
      <trkpt lat="44.03524" lon="5.93582">
        <ele>498.20001220703</ele>
        <time>2021-02-11T09:51:03.000Z</time>
      </trkpt>
      <trkpt lat="44.03539" lon="5.93583">
        <ele>499</ele>
        <time>2021-02-11T09:51:06.000Z</time>
      </trkpt>
      <trkpt lat="44.03543" lon="5.93583">
        <ele>499.60000610352</ele>
        <time>2021-02-11T09:51:07.000Z</time>
      </trkpt>
      <trkpt lat="44.03552" lon="5.93583">
        <ele>500.20001220703</ele>
        <time>2021-02-11T09:51:09.000Z</time>
      </trkpt>
      <trkpt lat="44.03566" lon="5.93585">
        <ele>500.79998779297</ele>
        <time>2021-02-11T09:51:12.000Z</time>
      </trkpt>
      <trkpt lat="44.0357" lon="5.93584">
        <ele>500.79998779297</ele>
        <time>2021-02-11T09:51:13.000Z</time>
      </trkpt>
      <trkpt lat="44.03581" lon="5.93582">
        <ele>501.20001220703</ele>
        <time>2021-02-11T09:51:16.000Z</time>
      </trkpt>
      <trkpt lat="44.0359" lon="5.93579">
        <ele>502.39999389648</ele>
        <time>2021-02-11T09:51:19.000Z</time>
      </trkpt>
      <trkpt lat="44.03593" lon="5.93577">
        <ele>502.79998779297</ele>
        <time>2021-02-11T09:51:20.000Z</time>
      </trkpt>
      <trkpt lat="44.03599" lon="5.93572">
        <ele>503.79998779297</ele>
        <time>2021-02-11T09:51:22.000Z</time>
      </trkpt>
      <trkpt lat="44.03603" lon="5.93567">
        <ele>504.60000610352</ele>
        <time>2021-02-11T09:51:24.000Z</time>
      </trkpt>
      <trkpt lat="44.03605" lon="5.93565">
        <ele>504.79998779297</ele>
        <time>2021-02-11T09:51:25.000Z</time>
      </trkpt>
      <trkpt lat="44.03616" lon="5.93552">
        <ele>505.20001220703</ele>
        <time>2021-02-11T09:51:30.000Z</time>
      </trkpt>
      <trkpt lat="44.03621" lon="5.93548">
        <ele>506</ele>
        <time>2021-02-11T09:51:32.000Z</time>
      </trkpt>
      <trkpt lat="44.03625" lon="5.93542">
        <ele>507.20001220703</ele>
        <time>2021-02-11T09:51:34.000Z</time>
      </trkpt>
      <trkpt lat="44.03626" lon="5.93539">
        <ele>507.60000610352</ele>
        <time>2021-02-11T09:51:35.000Z</time>
      </trkpt>
      <trkpt lat="44.03631" lon="5.93534">
        <ele>508.39999389648</ele>
        <time>2021-02-11T09:51:37.000Z</time>
      </trkpt>
      <trkpt lat="44.03637" lon="5.9353">
        <ele>509.39999389648</ele>
        <time>2021-02-11T09:51:39.000Z</time>
      </trkpt>
      <trkpt lat="44.0364" lon="5.93529">
        <ele>509.60000610352</ele>
        <time>2021-02-11T09:51:40.000Z</time>
      </trkpt>
      <trkpt lat="44.03651" lon="5.93527">
        <ele>510.60000610352</ele>
        <time>2021-02-11T09:51:44.000Z</time>
      </trkpt>
      <trkpt lat="44.03653" lon="5.93529">
        <ele>510.79998779297</ele>
        <time>2021-02-11T09:51:45.000Z</time>
      </trkpt>
      <trkpt lat="44.03655" lon="5.93534">
        <ele>510.79998779297</ele>
        <time>2021-02-11T09:51:47.000Z</time>
      </trkpt>
      <trkpt lat="44.03655" lon="5.93539">
        <ele>510.79998779297</ele>
        <time>2021-02-11T09:51:48.000Z</time>
      </trkpt>
      <trkpt lat="44.03657" lon="5.93561">
        <ele>511</ele>
        <time>2021-02-11T09:51:52.000Z</time>
      </trkpt>
      <trkpt lat="44.03662" lon="5.93572">
        <ele>511</ele>
        <time>2021-02-11T09:51:56.000Z</time>
      </trkpt>
      <trkpt lat="44.03664" lon="5.93575">
        <ele>511</ele>
        <time>2021-02-11T09:51:57.000Z</time>
      </trkpt>
      <trkpt lat="44.03672" lon="5.93589">
        <ele>512.20001220703</ele>
        <time>2021-02-11T09:52:02.000Z</time>
      </trkpt>
      <trkpt lat="44.03674" lon="5.93592">
        <ele>513.59997558594</ele>
        <time>2021-02-11T09:52:03.000Z</time>
      </trkpt>
      <trkpt lat="44.03679" lon="5.936">
        <ele>515</ele>
        <time>2021-02-11T09:52:06.000Z</time>
      </trkpt>
      <trkpt lat="44.03683" lon="5.93606">
        <ele>516</ele>
        <time>2021-02-11T09:52:08.000Z</time>
      </trkpt>
      <trkpt lat="44.03684" lon="5.93608">
        <ele>516.20001220703</ele>
        <time>2021-02-11T09:52:09.000Z</time>
      </trkpt>
      <trkpt lat="44.03694" lon="5.93615">
        <ele>517.59997558594</ele>
        <time>2021-02-11T09:52:12.000Z</time>
      </trkpt>
      <trkpt lat="44.03699" lon="5.93621">
        <ele>518.59997558594</ele>
        <time>2021-02-11T09:52:14.000Z</time>
      </trkpt>
      <trkpt lat="44.03702" lon="5.93624">
        <ele>519</ele>
        <time>2021-02-11T09:52:15.000Z</time>
      </trkpt>
      <trkpt lat="44.0371" lon="5.93633">
        <ele>520.40002441406</ele>
        <time>2021-02-11T09:52:18.000Z</time>
      </trkpt>
      <trkpt lat="44.03717" lon="5.93638">
        <ele>521.40002441406</ele>
        <time>2021-02-11T09:52:20.000Z</time>
      </trkpt>
      <trkpt lat="44.03719" lon="5.93641">
        <ele>521.79998779297</ele>
        <time>2021-02-11T09:52:21.000Z</time>
      </trkpt>
      <trkpt lat="44.03736" lon="5.93658">
        <ele>522.79998779297</ele>
        <time>2021-02-11T09:52:27.000Z</time>
      </trkpt>
      <trkpt lat="44.03749" lon="5.93668">
        <ele>524.59997558594</ele>
        <time>2021-02-11T09:52:32.000Z</time>
      </trkpt>
      <trkpt lat="44.03754" lon="5.93671">
        <ele>525.40002441406</ele>
        <time>2021-02-11T09:52:34.000Z</time>
      </trkpt>
      <trkpt lat="44.03756" lon="5.93673">
        <ele>525.79998779297</ele>
        <time>2021-02-11T09:52:35.000Z</time>
      </trkpt>
      <trkpt lat="44.03763" lon="5.93677">
        <ele>526.79998779297</ele>
        <time>2021-02-11T09:52:38.000Z</time>
      </trkpt>
      <trkpt lat="44.03773" lon="5.93683">
        <ele>527.59997558594</ele>
        <time>2021-02-11T09:52:42.000Z</time>
      </trkpt>
      <trkpt lat="44.03787" lon="5.9369">
        <ele>528.20001220703</ele>
        <time>2021-02-11T09:52:47.000Z</time>
      </trkpt>
      <trkpt lat="44.03791" lon="5.93691">
        <ele>528.40002441406</ele>
        <time>2021-02-11T09:52:48.000Z</time>
      </trkpt>
      <trkpt lat="44.03814" lon="5.93707">
        <ele>528.59997558594</ele>
        <time>2021-02-11T09:52:55.000Z</time>
      </trkpt>
      <trkpt lat="44.0384" lon="5.93723">
        <ele>529</ele>
        <time>2021-02-11T09:53:02.000Z</time>
      </trkpt>
      <trkpt lat="44.03858" lon="5.93736">
        <ele>529</ele>
        <time>2021-02-11T09:53:07.000Z</time>
      </trkpt>
      <trkpt lat="44.03881" lon="5.93749">
        <ele>528.79998779297</ele>
        <time>2021-02-11T09:53:12.000Z</time>
      </trkpt>
      <trkpt lat="44.03906" lon="5.93765">
        <ele>527.59997558594</ele>
        <time>2021-02-11T09:53:17.000Z</time>
      </trkpt>
      <trkpt lat="44.03931" lon="5.93785">
        <ele>527</ele>
        <time>2021-02-11T09:53:22.000Z</time>
      </trkpt>
      <trkpt lat="44.03935" lon="5.93789">
        <ele>526.79998779297</ele>
        <time>2021-02-11T09:53:23.000Z</time>
      </trkpt>
      <trkpt lat="44.03967" lon="5.93817">
        <ele>526.40002441406</ele>
        <time>2021-02-11T09:53:30.000Z</time>
      </trkpt>
      <trkpt lat="44.03996" lon="5.93842">
        <ele>526.59997558594</ele>
        <time>2021-02-11T09:53:36.000Z</time>
      </trkpt>
      <trkpt lat="44.04025" lon="5.93865">
        <ele>526.20001220703</ele>
        <time>2021-02-11T09:53:42.000Z</time>
      </trkpt>
      <trkpt lat="44.0403" lon="5.9387">
        <ele>526.20001220703</ele>
        <time>2021-02-11T09:53:43.000Z</time>
      </trkpt>
      <trkpt lat="44.04051" lon="5.93886">
        <ele>524.59997558594</ele>
        <time>2021-02-11T09:53:47.000Z</time>
      </trkpt>
      <trkpt lat="44.04063" lon="5.93896">
        <ele>523.79998779297</ele>
        <time>2021-02-11T09:53:50.000Z</time>
      </trkpt>
      <trkpt lat="44.04069" lon="5.939">
        <ele>523.59997558594</ele>
        <time>2021-02-11T09:53:52.000Z</time>
      </trkpt>
      <trkpt lat="44.04083" lon="5.93911">
        <ele>523.79998779297</ele>
        <time>2021-02-11T09:53:58.000Z</time>
      </trkpt>
      <trkpt lat="44.04094" lon="5.93913">
        <ele>524.20001220703</ele>
        <time>2021-02-11T09:54:03.000Z</time>
      </trkpt>
      <trkpt lat="44.04102" lon="5.93915">
        <ele>524.79998779297</ele>
        <time>2021-02-11T09:54:06.000Z</time>
      </trkpt>
      <trkpt lat="44.04108" lon="5.93916">
        <ele>525</ele>
        <time>2021-02-11T09:54:08.000Z</time>
      </trkpt>
      <trkpt lat="44.04116" lon="5.93918">
        <ele>526</ele>
        <time>2021-02-11T09:54:11.000Z</time>
      </trkpt>
      <trkpt lat="44.04121" lon="5.9392">
        <ele>526.40002441406</ele>
        <time>2021-02-11T09:54:13.000Z</time>
      </trkpt>
      <trkpt lat="44.04126" lon="5.93922">
        <ele>527.20001220703</ele>
        <time>2021-02-11T09:54:15.000Z</time>
      </trkpt>
      <trkpt lat="44.04134" lon="5.93928">
        <ele>528.20001220703</ele>
        <time>2021-02-11T09:54:18.000Z</time>
      </trkpt>
      <trkpt lat="44.04137" lon="5.9393">
        <ele>528.40002441406</ele>
        <time>2021-02-11T09:54:19.000Z</time>
      </trkpt>
      <trkpt lat="44.04141" lon="5.93932">
        <ele>529.59997558594</ele>
        <time>2021-02-11T09:54:21.000Z</time>
      </trkpt>
      <trkpt lat="44.04146" lon="5.93935">
        <ele>530.79998779297</ele>
        <time>2021-02-11T09:54:23.000Z</time>
      </trkpt>
      <trkpt lat="44.04149" lon="5.93936">
        <ele>531.20001220703</ele>
        <time>2021-02-11T09:54:24.000Z</time>
      </trkpt>
      <trkpt lat="44.0416" lon="5.93941">
        <ele>532.20001220703</ele>
        <time>2021-02-11T09:54:28.000Z</time>
      </trkpt>
      <trkpt lat="44.04163" lon="5.93942">
        <ele>532.20001220703</ele>
        <time>2021-02-11T09:54:29.000Z</time>
      </trkpt>
      <trkpt lat="44.04168" lon="5.93944">
        <ele>533.59997558594</ele>
        <time>2021-02-11T09:54:31.000Z</time>
      </trkpt>
      <trkpt lat="44.04173" lon="5.93946">
        <ele>534.79998779297</ele>
        <time>2021-02-11T09:54:33.000Z</time>
      </trkpt>
      <trkpt lat="44.04179" lon="5.93948">
        <ele>535.59997558594</ele>
        <time>2021-02-11T09:54:35.000Z</time>
      </trkpt>
      <trkpt lat="44.04182" lon="5.93949">
        <ele>536.20001220703</ele>
        <time>2021-02-11T09:54:36.000Z</time>
      </trkpt>
      <trkpt lat="44.04191" lon="5.93954">
        <ele>537.40002441406</ele>
        <time>2021-02-11T09:54:39.000Z</time>
      </trkpt>
      <trkpt lat="44.04194" lon="5.93957">
        <ele>538</ele>
        <time>2021-02-11T09:54:40.000Z</time>
      </trkpt>
      <trkpt lat="44.04197" lon="5.9396">
        <ele>538.79998779297</ele>
        <time>2021-02-11T09:54:41.000Z</time>
      </trkpt>
      <trkpt lat="44.04205" lon="5.93968">
        <ele>540.40002441406</ele>
        <time>2021-02-11T09:54:44.000Z</time>
      </trkpt>
      <trkpt lat="44.04207" lon="5.9397">
        <ele>540.79998779297</ele>
        <time>2021-02-11T09:54:45.000Z</time>
      </trkpt>
      <trkpt lat="44.04216" lon="5.9398">
        <ele>541.40002441406</ele>
        <time>2021-02-11T09:54:48.000Z</time>
      </trkpt>
      <trkpt lat="44.04219" lon="5.93983">
        <ele>541.40002441406</ele>
        <time>2021-02-11T09:54:49.000Z</time>
      </trkpt>
      <trkpt lat="44.04235" lon="5.94001">
        <ele>541.79998779297</ele>
        <time>2021-02-11T09:54:54.000Z</time>
      </trkpt>
      <trkpt lat="44.04251" lon="5.94018">
        <ele>542</ele>
        <time>2021-02-11T09:54:59.000Z</time>
      </trkpt>
      <trkpt lat="44.04271" lon="5.94037">
        <ele>542.20001220703</ele>
        <time>2021-02-11T09:55:05.000Z</time>
      </trkpt>
      <trkpt lat="44.0428" lon="5.94048">
        <ele>542.59997558594</ele>
        <time>2021-02-11T09:55:08.000Z</time>
      </trkpt>
      <trkpt lat="44.04285" lon="5.94055">
        <ele>543.20001220703</ele>
        <time>2021-02-11T09:55:10.000Z</time>
      </trkpt>
      <trkpt lat="44.04291" lon="5.94067">
        <ele>543.79998779297</ele>
        <time>2021-02-11T09:55:13.000Z</time>
      </trkpt>
      <trkpt lat="44.04297" lon="5.94074">
        <ele>543.79998779297</ele>
        <time>2021-02-11T09:55:15.000Z</time>
      </trkpt>
      <trkpt lat="44.04311" lon="5.94092">
        <ele>544</ele>
        <time>2021-02-11T09:55:20.000Z</time>
      </trkpt>
      <trkpt lat="44.04324" lon="5.94108">
        <ele>544</ele>
        <time>2021-02-11T09:55:24.000Z</time>
      </trkpt>
      <trkpt lat="44.0433" lon="5.94116">
        <ele>544</ele>
        <time>2021-02-11T09:55:26.000Z</time>
      </trkpt>
      <trkpt lat="44.04337" lon="5.9412">
        <ele>543.79998779297</ele>
        <time>2021-02-11T09:55:28.000Z</time>
      </trkpt>
      <trkpt lat="44.04353" lon="5.94133">
        <ele>543.59997558594</ele>
        <time>2021-02-11T09:55:33.000Z</time>
      </trkpt>
      <trkpt lat="44.04369" lon="5.94142">
        <ele>543.79998779297</ele>
        <time>2021-02-11T09:55:38.000Z</time>
      </trkpt>
      <trkpt lat="44.04384" lon="5.94149">
        <ele>544.40002441406</ele>
        <time>2021-02-11T09:55:43.000Z</time>
      </trkpt>
      <trkpt lat="44.04386" lon="5.94149">
        <ele>544.79998779297</ele>
        <time>2021-02-11T09:55:44.000Z</time>
      </trkpt>
      <trkpt lat="44.04396" lon="5.94149">
        <ele>545.59997558594</ele>
        <time>2021-02-11T09:55:47.000Z</time>
      </trkpt>
      <trkpt lat="44.04406" lon="5.94142">
        <ele>545.79998779297</ele>
        <time>2021-02-11T09:55:51.000Z</time>
      </trkpt>
      <trkpt lat="44.04413" lon="5.94137">
        <ele>545.79998779297</ele>
        <time>2021-02-11T09:55:53.000Z</time>
      </trkpt>
      <trkpt lat="44.04419" lon="5.94131">
        <ele>545.79998779297</ele>
        <time>2021-02-11T09:55:55.000Z</time>
      </trkpt>
      <trkpt lat="44.04423" lon="5.94121">
        <ele>544.59997558594</ele>
        <time>2021-02-11T09:55:59.000Z</time>
      </trkpt>
      <trkpt lat="44.04423" lon="5.94118">
        <ele>542.59997558594</ele>
        <time>2021-02-11T09:56:00.000Z</time>
      </trkpt>
      <trkpt lat="44.04425" lon="5.94112">
        <ele>541.79998779297</ele>
        <time>2021-02-11T09:56:01.000Z</time>
      </trkpt>
      <trkpt lat="44.04426" lon="5.94106">
        <ele>541.40002441406</ele>
        <time>2021-02-11T09:56:02.000Z</time>
      </trkpt>
      <trkpt lat="44.04428" lon="5.9409">
        <ele>540.40002441406</ele>
        <time>2021-02-11T09:56:05.000Z</time>
      </trkpt>
      <trkpt lat="44.04428" lon="5.94084">
        <ele>540</ele>
        <time>2021-02-11T09:56:06.000Z</time>
      </trkpt>
      <trkpt lat="44.04428" lon="5.94079">
        <ele>539.79998779297</ele>
        <time>2021-02-11T09:56:07.000Z</time>
      </trkpt>
      <trkpt lat="44.04428" lon="5.94049">
        <ele>539.40002441406</ele>
        <time>2021-02-11T09:56:13.000Z</time>
      </trkpt>
      <trkpt lat="44.04429" lon="5.94037">
        <ele>539.40002441406</ele>
        <time>2021-02-11T09:56:17.000Z</time>
      </trkpt>
      <trkpt lat="44.04429" lon="5.94035">
        <ele>539.59997558594</ele>
        <time>2021-02-11T09:56:28.000Z</time>
      </trkpt>
      <trkpt lat="44.04429" lon="5.94033">
        <ele>539.79998779297</ele>
        <time>2021-02-11T09:56:35.000Z</time>
      </trkpt>
      <trkpt lat="44.04428" lon="5.94027">
        <ele>539.79998779297</ele>
        <time>2021-02-11T09:56:37.000Z</time>
      </trkpt>
      <trkpt lat="44.04427" lon="5.94009">
        <ele>539.59997558594</ele>
        <time>2021-02-11T09:56:41.000Z</time>
      </trkpt>
      <trkpt lat="44.04425" lon="5.93988">
        <ele>539.59997558594</ele>
        <time>2021-02-11T09:56:45.000Z</time>
      </trkpt>
      <trkpt lat="44.04425" lon="5.93961">
        <ele>538.59997558594</ele>
        <time>2021-02-11T09:56:50.000Z</time>
      </trkpt>
      <trkpt lat="44.04427" lon="5.93947">
        <ele>537.40002441406</ele>
        <time>2021-02-11T09:56:53.000Z</time>
      </trkpt>
      <trkpt lat="44.04427" lon="5.93943">
        <ele>537.40002441406</ele>
        <time>2021-02-11T09:56:54.000Z</time>
      </trkpt>
      <trkpt lat="44.04429" lon="5.93925">
        <ele>537</ele>
        <time>2021-02-11T09:56:58.000Z</time>
      </trkpt>
      <trkpt lat="44.04433" lon="5.939">
        <ele>536.79998779297</ele>
        <time>2021-02-11T09:57:03.000Z</time>
      </trkpt>
      <trkpt lat="44.04432" lon="5.93881">
        <ele>536</ele>
        <time>2021-02-11T09:57:06.000Z</time>
      </trkpt>
      <trkpt lat="44.0443" lon="5.93872">
        <ele>535.79998779297</ele>
        <time>2021-02-11T09:57:08.000Z</time>
      </trkpt>
      <trkpt lat="44.04425" lon="5.93848">
        <ele>535.59997558594</ele>
        <time>2021-02-11T09:57:13.000Z</time>
      </trkpt>
      <trkpt lat="44.0442" lon="5.93825">
        <ele>536.20001220703</ele>
        <time>2021-02-11T09:57:18.000Z</time>
      </trkpt>
      <trkpt lat="44.04413" lon="5.93803">
        <ele>537</ele>
        <time>2021-02-11T09:57:23.000Z</time>
      </trkpt>
      <trkpt lat="44.04412" lon="5.93799">
        <ele>537.20001220703</ele>
        <time>2021-02-11T09:57:24.000Z</time>
      </trkpt>
      <trkpt lat="44.04411" lon="5.93787">
        <ele>537.79998779297</ele>
        <time>2021-02-11T09:57:27.000Z</time>
      </trkpt>
      <trkpt lat="44.04408" lon="5.93777">
        <ele>538.20001220703</ele>
        <time>2021-02-11T09:57:29.000Z</time>
      </trkpt>
      <trkpt lat="44.04405" lon="5.93768">
        <ele>538.79998779297</ele>
        <time>2021-02-11T09:57:31.000Z</time>
      </trkpt>
      <trkpt lat="44.04404" lon="5.93752">
        <ele>539.20001220703</ele>
        <time>2021-02-11T09:57:35.000Z</time>
      </trkpt>
      <trkpt lat="44.04403" lon="5.93747">
        <ele>539.20001220703</ele>
        <time>2021-02-11T09:57:36.000Z</time>
      </trkpt>
      <trkpt lat="44.04397" lon="5.93729">
        <ele>539.59997558594</ele>
        <time>2021-02-11T09:57:40.000Z</time>
      </trkpt>
      <trkpt lat="44.04391" lon="5.93715">
        <ele>540.59997558594</ele>
        <time>2021-02-11T09:57:44.000Z</time>
      </trkpt>
      <trkpt lat="44.04387" lon="5.9369">
        <ele>541.79998779297</ele>
        <time>2021-02-11T09:57:49.000Z</time>
      </trkpt>
      <trkpt lat="44.04386" lon="5.93673">
        <ele>542.40002441406</ele>
        <time>2021-02-11T09:57:53.000Z</time>
      </trkpt>
      <trkpt lat="44.04381" lon="5.93655">
        <ele>542.40002441406</ele>
        <time>2021-02-11T09:57:57.000Z</time>
      </trkpt>
      <trkpt lat="44.04372" lon="5.93634">
        <ele>542.40002441406</ele>
        <time>2021-02-11T09:58:02.000Z</time>
      </trkpt>
      <trkpt lat="44.04363" lon="5.93611">
        <ele>542.40002441406</ele>
        <time>2021-02-11T09:58:08.000Z</time>
      </trkpt>
      <trkpt lat="44.04358" lon="5.93601">
        <ele>542.79998779297</ele>
        <time>2021-02-11T09:58:11.000Z</time>
      </trkpt>
      <trkpt lat="44.04353" lon="5.93592">
        <ele>544</ele>
        <time>2021-02-11T09:58:14.000Z</time>
      </trkpt>
      <trkpt lat="44.0435" lon="5.93579">
        <ele>545.20001220703</ele>
        <time>2021-02-11T09:58:18.000Z</time>
      </trkpt>
      <trkpt lat="44.04349" lon="5.93575">
        <ele>545.59997558594</ele>
        <time>2021-02-11T09:58:19.000Z</time>
      </trkpt>
      <trkpt lat="44.04347" lon="5.93564">
        <ele>546.40002441406</ele>
        <time>2021-02-11T09:58:22.000Z</time>
      </trkpt>
      <trkpt lat="44.04347" lon="5.93556">
        <ele>547.20001220703</ele>
        <time>2021-02-11T09:58:24.000Z</time>
      </trkpt>
      <trkpt lat="44.04347" lon="5.93552">
        <ele>547.40002441406</ele>
        <time>2021-02-11T09:58:25.000Z</time>
      </trkpt>
      <trkpt lat="44.04346" lon="5.93549">
        <ele>547.79998779297</ele>
        <time>2021-02-11T09:58:26.000Z</time>
      </trkpt>
      <trkpt lat="44.04342" lon="5.93541">
        <ele>548.40002441406</ele>
        <time>2021-02-11T09:58:29.000Z</time>
      </trkpt>
      <trkpt lat="44.04341" lon="5.93538">
        <ele>548.59997558594</ele>
        <time>2021-02-11T09:58:30.000Z</time>
      </trkpt>
      <trkpt lat="44.04339" lon="5.93535">
        <ele>549</ele>
        <time>2021-02-11T09:58:31.000Z</time>
      </trkpt>
      <trkpt lat="44.04338" lon="5.93523">
        <ele>549.79998779297</ele>
        <time>2021-02-11T09:58:34.000Z</time>
      </trkpt>
      <trkpt lat="44.04334" lon="5.93509">
        <ele>551.20001220703</ele>
        <time>2021-02-11T09:58:38.000Z</time>
      </trkpt>
      <trkpt lat="44.04333" lon="5.93506">
        <ele>551.40002441406</ele>
        <time>2021-02-11T09:58:39.000Z</time>
      </trkpt>
      <trkpt lat="44.04331" lon="5.93501">
        <ele>552.40002441406</ele>
        <time>2021-02-11T09:58:41.000Z</time>
      </trkpt>
      <trkpt lat="44.04326" lon="5.93492">
        <ele>553.59997558594</ele>
        <time>2021-02-11T09:58:44.000Z</time>
      </trkpt>
      <trkpt lat="44.04325" lon="5.9349">
        <ele>554</ele>
        <time>2021-02-11T09:58:45.000Z</time>
      </trkpt>
      <trkpt lat="44.04324" lon="5.9349">
        <ele>554.59997558594</ele>
        <time>2021-02-11T09:58:46.000Z</time>
      </trkpt>
      <trkpt lat="44.04323" lon="5.93491">
        <ele>555.40002441406</ele>
        <time>2021-02-11T09:58:47.000Z</time>
      </trkpt>
      <trkpt lat="44.04321" lon="5.93492">
        <ele>555.79998779297</ele>
        <time>2021-02-11T09:58:48.000Z</time>
      </trkpt>
      <trkpt lat="44.0432" lon="5.93493">
        <ele>556.20001220703</ele>
        <time>2021-02-11T09:58:49.000Z</time>
      </trkpt>
      <trkpt lat="44.04314" lon="5.93496">
        <ele>557.20001220703</ele>
        <time>2021-02-11T09:58:53.000Z</time>
      </trkpt>
      <trkpt lat="44.04313" lon="5.93495">
        <ele>557.40002441406</ele>
        <time>2021-02-11T09:58:54.000Z</time>
      </trkpt>
      <trkpt lat="44.04312" lon="5.93488">
        <ele>558.20001220703</ele>
        <time>2021-02-11T09:58:57.000Z</time>
      </trkpt>
      <trkpt lat="44.04311" lon="5.93487">
        <ele>558.40002441406</ele>
        <time>2021-02-11T09:58:58.000Z</time>
      </trkpt>
      <trkpt lat="44.04306" lon="5.93492">
        <ele>559.20001220703</ele>
        <time>2021-02-11T09:59:02.000Z</time>
      </trkpt>
      <trkpt lat="44.04305" lon="5.93494">
        <ele>559.40002441406</ele>
        <time>2021-02-11T09:59:03.000Z</time>
      </trkpt>
      <trkpt lat="44.04304" lon="5.93495">
        <ele>559.59997558594</ele>
        <time>2021-02-11T09:59:04.000Z</time>
      </trkpt>
      <trkpt lat="44.04296" lon="5.935">
        <ele>560.40002441406</ele>
        <time>2021-02-11T09:59:08.000Z</time>
      </trkpt>
      <trkpt lat="44.04294" lon="5.93499">
        <ele>560.59997558594</ele>
        <time>2021-02-11T09:59:09.000Z</time>
      </trkpt>
      <trkpt lat="44.04292" lon="5.93494">
        <ele>560.79998779297</ele>
        <time>2021-02-11T09:59:12.000Z</time>
      </trkpt>
      <trkpt lat="44.04294" lon="5.93488">
        <ele>561.40002441406</ele>
        <time>2021-02-11T09:59:14.000Z</time>
      </trkpt>
      <trkpt lat="44.04294" lon="5.93484">
        <ele>561.79998779297</ele>
        <time>2021-02-11T09:59:15.000Z</time>
      </trkpt>
      <trkpt lat="44.04296" lon="5.93473">
        <ele>563.40002441406</ele>
        <time>2021-02-11T09:59:18.000Z</time>
      </trkpt>
      <trkpt lat="44.04296" lon="5.93459">
        <ele>564.40002441406</ele>
        <time>2021-02-11T09:59:22.000Z</time>
      </trkpt>
      <trkpt lat="44.04295" lon="5.93457">
        <ele>564.59997558594</ele>
        <time>2021-02-11T09:59:23.000Z</time>
      </trkpt>
      <trkpt lat="44.04293" lon="5.93454">
        <ele>564.59997558594</ele>
        <time>2021-02-11T09:59:24.000Z</time>
      </trkpt>
      <trkpt lat="44.04285" lon="5.93451">
        <ele>565.59997558594</ele>
        <time>2021-02-11T09:59:28.000Z</time>
      </trkpt>
      <trkpt lat="44.04282" lon="5.93452">
        <ele>565.79998779297</ele>
        <time>2021-02-11T09:59:29.000Z</time>
      </trkpt>
      <trkpt lat="44.04278" lon="5.93453">
        <ele>566.59997558594</ele>
        <time>2021-02-11T09:59:31.000Z</time>
      </trkpt>
      <trkpt lat="44.0427" lon="5.93449">
        <ele>568.20001220703</ele>
        <time>2021-02-11T09:59:34.000Z</time>
      </trkpt>
      <trkpt lat="44.04265" lon="5.93444">
        <ele>569.20001220703</ele>
        <time>2021-02-11T09:59:36.000Z</time>
      </trkpt>
      <trkpt lat="44.04256" lon="5.93431">
        <ele>570.20001220703</ele>
        <time>2021-02-11T09:59:40.000Z</time>
      </trkpt>
      <trkpt lat="44.04241" lon="5.93403">
        <ele>570</ele>
        <time>2021-02-11T09:59:47.000Z</time>
      </trkpt>
      <trkpt lat="44.04237" lon="5.93387">
        <ele>569.79998779297</ele>
        <time>2021-02-11T09:59:51.000Z</time>
      </trkpt>
      <trkpt lat="44.04238" lon="5.93383">
        <ele>569</ele>
        <time>2021-02-11T09:59:56.000Z</time>
      </trkpt>
      <trkpt lat="44.04239" lon="5.93381">
        <ele>568.79998779297</ele>
        <time>2021-02-11T10:00:09.000Z</time>
      </trkpt>
      <trkpt lat="44.0424" lon="5.93381">
        <ele>568.79998779297</ele>
        <time>2021-02-11T10:00:10.000Z</time>
      </trkpt>
      <trkpt lat="44.04246" lon="5.93376">
        <ele>568.59997558594</ele>
        <time>2021-02-11T10:00:15.000Z</time>
      </trkpt>
      <trkpt lat="44.04244" lon="5.93366">
        <ele>568.40002441406</ele>
        <time>2021-02-11T10:00:18.000Z</time>
      </trkpt>
      <trkpt lat="44.04245" lon="5.9336">
        <ele>568.40002441406</ele>
        <time>2021-02-11T10:00:20.000Z</time>
      </trkpt>
      <trkpt lat="44.04249" lon="5.93344">
        <ele>568.40002441406</ele>
        <time>2021-02-11T10:00:25.000Z</time>
      </trkpt>
      <trkpt lat="44.04249" lon="5.93328">
        <ele>569.40002441406</ele>
        <time>2021-02-11T10:00:30.000Z</time>
      </trkpt>
      <trkpt lat="44.0425" lon="5.93325">
        <ele>569.79998779297</ele>
        <time>2021-02-11T10:00:31.000Z</time>
      </trkpt>
      <trkpt lat="44.04253" lon="5.93316">
        <ele>570.79998779297</ele>
        <time>2021-02-11T10:00:34.000Z</time>
      </trkpt>
      <trkpt lat="44.04254" lon="5.93314">
        <ele>570.79998779297</ele>
        <time>2021-02-11T10:00:35.000Z</time>
      </trkpt>
      <trkpt lat="44.04261" lon="5.93319">
        <ele>571</ele>
        <time>2021-02-11T10:00:38.000Z</time>
      </trkpt>
      <trkpt lat="44.04264" lon="5.93322">
        <ele>571</ele>
        <time>2021-02-11T10:00:39.000Z</time>
      </trkpt>
      <trkpt lat="44.04276" lon="5.93332">
        <ele>571.20001220703</ele>
        <time>2021-02-11T10:00:43.000Z</time>
      </trkpt>
      <trkpt lat="44.04288" lon="5.93333">
        <ele>571.40002441406</ele>
        <time>2021-02-11T10:00:48.000Z</time>
      </trkpt>
      <trkpt lat="44.04294" lon="5.93332">
        <ele>571.40002441406</ele>
        <time>2021-02-11T10:00:51.000Z</time>
      </trkpt>
      <trkpt lat="44.04296" lon="5.93332">
        <ele>571.59997558594</ele>
        <time>2021-02-11T10:00:52.000Z</time>
      </trkpt>
      <trkpt lat="44.04301" lon="5.93334">
        <ele>572</ele>
        <time>2021-02-11T10:00:54.000Z</time>
      </trkpt>
      <trkpt lat="44.04307" lon="5.93334">
        <ele>572.79998779297</ele>
        <time>2021-02-11T10:00:57.000Z</time>
      </trkpt>
      <trkpt lat="44.04309" lon="5.93335">
        <ele>573.20001220703</ele>
        <time>2021-02-11T10:00:58.000Z</time>
      </trkpt>
      <trkpt lat="44.04317" lon="5.93338">
        <ele>574.40002441406</ele>
        <time>2021-02-11T10:01:02.000Z</time>
      </trkpt>
      <trkpt lat="44.04319" lon="5.93339">
        <ele>574.79998779297</ele>
        <time>2021-02-11T10:01:03.000Z</time>
      </trkpt>
      <trkpt lat="44.04324" lon="5.93341">
        <ele>575.59997558594</ele>
        <time>2021-02-11T10:01:05.000Z</time>
      </trkpt>
      <trkpt lat="44.04328" lon="5.93344">
        <ele>576.20001220703</ele>
        <time>2021-02-11T10:01:07.000Z</time>
      </trkpt>
      <trkpt lat="44.04332" lon="5.93348">
        <ele>576.59997558594</ele>
        <time>2021-02-11T10:01:09.000Z</time>
      </trkpt>
      <trkpt lat="44.0434" lon="5.93355">
        <ele>577.79998779297</ele>
        <time>2021-02-11T10:01:12.000Z</time>
      </trkpt>
      <trkpt lat="44.04342" lon="5.93357">
        <ele>578</ele>
        <time>2021-02-11T10:01:13.000Z</time>
      </trkpt>
      <trkpt lat="44.04345" lon="5.93359">
        <ele>578.20001220703</ele>
        <time>2021-02-11T10:01:14.000Z</time>
      </trkpt>
      <trkpt lat="44.04355" lon="5.93364">
        <ele>578.40002441406</ele>
        <time>2021-02-11T10:01:18.000Z</time>
      </trkpt>
      <trkpt lat="44.04373" lon="5.93373">
        <ele>579</ele>
        <time>2021-02-11T10:01:24.000Z</time>
      </trkpt>
      <trkpt lat="44.04376" lon="5.93374">
        <ele>579</ele>
        <time>2021-02-11T10:01:25.000Z</time>
      </trkpt>
      <trkpt lat="44.04397" lon="5.93372">
        <ele>580</ele>
        <time>2021-02-11T10:01:30.000Z</time>
      </trkpt>
      <trkpt lat="44.04413" lon="5.93365">
        <ele>581.20001220703</ele>
        <time>2021-02-11T10:01:34.000Z</time>
      </trkpt>
      <trkpt lat="44.0442" lon="5.93357">
        <ele>581.20001220703</ele>
        <time>2021-02-11T10:01:36.000Z</time>
      </trkpt>
      <trkpt lat="44.04433" lon="5.93348">
        <ele>581.40002441406</ele>
        <time>2021-02-11T10:01:39.000Z</time>
      </trkpt>
      <trkpt lat="44.04436" lon="5.93344">
        <ele>581.40002441406</ele>
        <time>2021-02-11T10:01:40.000Z</time>
      </trkpt>
      <trkpt lat="44.04444" lon="5.93339">
        <ele>581</ele>
        <time>2021-02-11T10:01:43.000Z</time>
      </trkpt>
      <trkpt lat="44.04455" lon="5.93328">
        <ele>580.59997558594</ele>
        <time>2021-02-11T10:01:48.000Z</time>
      </trkpt>
      <trkpt lat="44.04456" lon="5.93325">
        <ele>580.40002441406</ele>
        <time>2021-02-11T10:01:49.000Z</time>
      </trkpt>
      <trkpt lat="44.04454" lon="5.9332">
        <ele>580.40002441406</ele>
        <time>2021-02-11T10:01:52.000Z</time>
      </trkpt>
      <trkpt lat="44.04451" lon="5.93313">
        <ele>580.59997558594</ele>
        <time>2021-02-11T10:01:56.000Z</time>
      </trkpt>
      <trkpt lat="44.04454" lon="5.93306">
        <ele>580.59997558594</ele>
        <time>2021-02-11T10:01:58.000Z</time>
      </trkpt>
      <trkpt lat="44.04455" lon="5.93301">
        <ele>580.79998779297</ele>
        <time>2021-02-11T10:01:59.000Z</time>
      </trkpt>
      <trkpt lat="44.04456" lon="5.93295">
        <ele>581</ele>
        <time>2021-02-11T10:02:00.000Z</time>
      </trkpt>
      <trkpt lat="44.04456" lon="5.93273">
        <ele>581.20001220703</ele>
        <time>2021-02-11T10:02:04.000Z</time>
      </trkpt>
      <trkpt lat="44.04456" lon="5.9326">
        <ele>581.79998779297</ele>
        <time>2021-02-11T10:02:07.000Z</time>
      </trkpt>
      <trkpt lat="44.04456" lon="5.93256">
        <ele>581.79998779297</ele>
        <time>2021-02-11T10:02:08.000Z</time>
      </trkpt>
      <trkpt lat="44.04457" lon="5.93244">
        <ele>582.20001220703</ele>
        <time>2021-02-11T10:02:11.000Z</time>
      </trkpt>
      <trkpt lat="44.04459" lon="5.93235">
        <ele>582.40002441406</ele>
        <time>2021-02-11T10:02:13.000Z</time>
      </trkpt>
      <trkpt lat="44.04461" lon="5.93226">
        <ele>582.40002441406</ele>
        <time>2021-02-11T10:02:15.000Z</time>
      </trkpt>
      <trkpt lat="44.04464" lon="5.93217">
        <ele>582.20001220703</ele>
        <time>2021-02-11T10:02:17.000Z</time>
      </trkpt>
      <trkpt lat="44.04467" lon="5.93208">
        <ele>582.20001220703</ele>
        <time>2021-02-11T10:02:19.000Z</time>
      </trkpt>
      <trkpt lat="44.04473" lon="5.93192">
        <ele>582.40002441406</ele>
        <time>2021-02-11T10:02:22.000Z</time>
      </trkpt>
      <trkpt lat="44.04476" lon="5.93169">
        <ele>581.59997558594</ele>
        <time>2021-02-11T10:02:26.000Z</time>
      </trkpt>
      <trkpt lat="44.04476" lon="5.93163">
        <ele>581.59997558594</ele>
        <time>2021-02-11T10:02:27.000Z</time>
      </trkpt>
      <trkpt lat="44.04476" lon="5.93139">
        <ele>581.59997558594</ele>
        <time>2021-02-11T10:02:32.000Z</time>
      </trkpt>
      <trkpt lat="44.04477" lon="5.93135">
        <ele>581.59997558594</ele>
        <time>2021-02-11T10:02:33.000Z</time>
      </trkpt>
      <trkpt lat="44.0448" lon="5.9313">
        <ele>581.59997558594</ele>
        <time>2021-02-11T10:02:35.000Z</time>
      </trkpt>
      <trkpt lat="44.04483" lon="5.93129">
        <ele>581.40002441406</ele>
        <time>2021-02-11T10:02:37.000Z</time>
      </trkpt>
      <trkpt lat="44.04486" lon="5.93133">
        <ele>581.40002441406</ele>
        <time>2021-02-11T10:02:39.000Z</time>
      </trkpt>
      <trkpt lat="44.04489" lon="5.93142">
        <ele>581.20001220703</ele>
        <time>2021-02-11T10:02:41.000Z</time>
      </trkpt>
      <trkpt lat="44.04493" lon="5.93153">
        <ele>581.20001220703</ele>
        <time>2021-02-11T10:02:43.000Z</time>
      </trkpt>
      <trkpt lat="44.04497" lon="5.93175">
        <ele>580.20001220703</ele>
        <time>2021-02-11T10:02:47.000Z</time>
      </trkpt>
      <trkpt lat="44.04497" lon="5.93178">
        <ele>579.59997558594</ele>
        <time>2021-02-11T10:02:48.000Z</time>
      </trkpt>
      <trkpt lat="44.04497" lon="5.93182">
        <ele>578.59997558594</ele>
        <time>2021-02-11T10:02:49.000Z</time>
      </trkpt>
      <trkpt lat="44.04497" lon="5.93189">
        <ele>577.40002441406</ele>
        <time>2021-02-11T10:02:51.000Z</time>
      </trkpt>
      <trkpt lat="44.04495" lon="5.932">
        <ele>576.59997558594</ele>
        <time>2021-02-11T10:02:53.000Z</time>
      </trkpt>
      <trkpt lat="44.04494" lon="5.93205">
        <ele>576.20001220703</ele>
        <time>2021-02-11T10:02:54.000Z</time>
      </trkpt>
      <trkpt lat="44.04493" lon="5.9322">
        <ele>575.59997558594</ele>
        <time>2021-02-11T10:02:57.000Z</time>
      </trkpt>
      <trkpt lat="44.04496" lon="5.93229">
        <ele>575.40002441406</ele>
        <time>2021-02-11T10:03:00.000Z</time>
      </trkpt>
      <trkpt lat="44.04497" lon="5.93229">
        <ele>575.20001220703</ele>
        <time>2021-02-11T10:03:01.000Z</time>
      </trkpt>
      <trkpt lat="44.04501" lon="5.93223">
        <ele>574.79998779297</ele>
        <time>2021-02-11T10:03:04.000Z</time>
      </trkpt>
      <trkpt lat="44.04505" lon="5.93216">
        <ele>574.20001220703</ele>
        <time>2021-02-11T10:03:06.000Z</time>
      </trkpt>
      <trkpt lat="44.04508" lon="5.93211">
        <ele>574</ele>
        <time>2021-02-11T10:03:07.000Z</time>
      </trkpt>
      <trkpt lat="44.04511" lon="5.93206">
        <ele>573.59997558594</ele>
        <time>2021-02-11T10:03:08.000Z</time>
      </trkpt>
      <trkpt lat="44.04516" lon="5.93195">
        <ele>572.79998779297</ele>
        <time>2021-02-11T10:03:10.000Z</time>
      </trkpt>
      <trkpt lat="44.04522" lon="5.93188">
        <ele>571.59997558594</ele>
        <time>2021-02-11T10:03:12.000Z</time>
      </trkpt>
      <trkpt lat="44.04525" lon="5.9318">
        <ele>570.20001220703</ele>
        <time>2021-02-11T10:03:14.000Z</time>
      </trkpt>
      <trkpt lat="44.04526" lon="5.93176">
        <ele>569.40002441406</ele>
        <time>2021-02-11T10:03:15.000Z</time>
      </trkpt>
      <trkpt lat="44.04527" lon="5.93172">
        <ele>569</ele>
        <time>2021-02-11T10:03:16.000Z</time>
      </trkpt>
      <trkpt lat="44.04531" lon="5.93164">
        <ele>568.40002441406</ele>
        <time>2021-02-11T10:03:18.000Z</time>
      </trkpt>
      <trkpt lat="44.04534" lon="5.93161">
        <ele>568</ele>
        <time>2021-02-11T10:03:19.000Z</time>
      </trkpt>
      <trkpt lat="44.04538" lon="5.9316">
        <ele>567.40002441406</ele>
        <time>2021-02-11T10:03:20.000Z</time>
      </trkpt>
      <trkpt lat="44.0454" lon="5.93158">
        <ele>566.79998779297</ele>
        <time>2021-02-11T10:03:21.000Z</time>
      </trkpt>
      <trkpt lat="44.04542" lon="5.93154">
        <ele>566</ele>
        <time>2021-02-11T10:03:23.000Z</time>
      </trkpt>
      <trkpt lat="44.04544" lon="5.93151">
        <ele>565.79998779297</ele>
        <time>2021-02-11T10:03:24.000Z</time>
      </trkpt>
      <trkpt lat="44.04548" lon="5.93146">
        <ele>564.59997558594</ele>
        <time>2021-02-11T10:03:26.000Z</time>
      </trkpt>
      <trkpt lat="44.04555" lon="5.93141">
        <ele>564</ele>
        <time>2021-02-11T10:03:28.000Z</time>
      </trkpt>
      <trkpt lat="44.0456" lon="5.93134">
        <ele>563.59997558594</ele>
        <time>2021-02-11T10:03:30.000Z</time>
      </trkpt>
      <trkpt lat="44.04564" lon="5.93127">
        <ele>563</ele>
        <time>2021-02-11T10:03:32.000Z</time>
      </trkpt>
      <trkpt lat="44.04569" lon="5.9312">
        <ele>562.59997558594</ele>
        <time>2021-02-11T10:03:34.000Z</time>
      </trkpt>
      <trkpt lat="44.04573" lon="5.93114">
        <ele>562.20001220703</ele>
        <time>2021-02-11T10:03:36.000Z</time>
      </trkpt>
      <trkpt lat="44.04578" lon="5.93112">
        <ele>561.79998779297</ele>
        <time>2021-02-11T10:03:41.000Z</time>
      </trkpt>
      <trkpt lat="44.04579" lon="5.93111">
        <ele>561.40002441406</ele>
        <time>2021-02-11T10:03:43.000Z</time>
      </trkpt>
      <trkpt lat="44.04581" lon="5.93111">
        <ele>560.79998779297</ele>
        <time>2021-02-11T10:03:48.000Z</time>
      </trkpt>
      <trkpt lat="44.04581" lon="5.93111">
        <ele>560</ele>
        <time>2021-02-11T10:03:50.000Z</time>
      </trkpt>
      <trkpt lat="44.04582" lon="5.93113">
        <ele>559.20001220703</ele>
        <time>2021-02-11T10:03:57.000Z</time>
      </trkpt>
      <trkpt lat="44.04583" lon="5.93113">
        <ele>559</ele>
        <time>2021-02-11T10:03:59.000Z</time>
      </trkpt>
      <trkpt lat="44.04588" lon="5.93108">
        <ele>558.79998779297</ele>
        <time>2021-02-11T10:04:03.000Z</time>
      </trkpt>
      <trkpt lat="44.04588" lon="5.93104">
        <ele>558</ele>
        <time>2021-02-11T10:04:07.000Z</time>
      </trkpt>
      <trkpt lat="44.04588" lon="5.93104">
        <ele>558.40002441406</ele>
        <time>2021-02-11T10:04:17.000Z</time>
      </trkpt>
      <trkpt lat="44.04588" lon="5.93104">
        <ele>559.40002441406</ele>
        <time>2021-02-11T10:04:35.000Z</time>
      </trkpt>
      <trkpt lat="44.04588" lon="5.93104">
        <ele>559.40002441406</ele>
        <time>2021-02-11T10:04:48.000Z</time>
      </trkpt>
      <trkpt lat="44.04588" lon="5.93104">
        <ele>559.40002441406</ele>
        <time>2021-02-11T10:05:11.000Z</time>
      </trkpt>
      <trkpt lat="44.04588" lon="5.93098">
        <ele>559.20001220703</ele>
        <time>2021-02-11T10:05:26.000Z</time>
      </trkpt>
      <trkpt lat="44.04586" lon="5.93091">
        <ele>559.20001220703</ele>
        <time>2021-02-11T10:05:32.000Z</time>
      </trkpt>
      <trkpt lat="44.04586" lon="5.93084">
        <ele>559.40002441406</ele>
        <time>2021-02-11T10:05:40.000Z</time>
      </trkpt>
      <trkpt lat="44.04584" lon="5.93076">
        <ele>559.40002441406</ele>
        <time>2021-02-11T10:05:48.000Z</time>
      </trkpt>
      <trkpt lat="44.04582" lon="5.93064">
        <ele>559.40002441406</ele>
        <time>2021-02-11T10:05:55.000Z</time>
      </trkpt>
      <trkpt lat="44.04584" lon="5.93057">
        <ele>559.40002441406</ele>
        <time>2021-02-11T10:05:58.000Z</time>
      </trkpt>
      <trkpt lat="44.04586" lon="5.93054">
        <ele>559.20001220703</ele>
        <time>2021-02-11T10:05:59.000Z</time>
      </trkpt>
      <trkpt lat="44.04596" lon="5.93054">
        <ele>558.79998779297</ele>
        <time>2021-02-11T10:06:03.000Z</time>
      </trkpt>
      <trkpt lat="44.04597" lon="5.93055">
        <ele>558.59997558594</ele>
        <time>2021-02-11T10:06:04.000Z</time>
      </trkpt>
      <trkpt lat="44.04602" lon="5.93058">
        <ele>558.40002441406</ele>
        <time>2021-02-11T10:06:08.000Z</time>
      </trkpt>
      <trkpt lat="44.04611" lon="5.93065">
        <ele>558.79998779297</ele>
        <time>2021-02-11T10:06:15.000Z</time>
      </trkpt>
      <trkpt lat="44.04624" lon="5.93073">
        <ele>559.40002441406</ele>
        <time>2021-02-11T10:06:24.000Z</time>
      </trkpt>
      <trkpt lat="44.04631" lon="5.93079">
        <ele>559.59997558594</ele>
        <time>2021-02-11T10:06:29.000Z</time>
      </trkpt>
      <trkpt lat="44.04632" lon="5.9308">
        <ele>559.59997558594</ele>
        <time>2021-02-11T10:06:30.000Z</time>
      </trkpt>
      <trkpt lat="44.04636" lon="5.93082">
        <ele>559.79998779297</ele>
        <time>2021-02-11T10:06:37.000Z</time>
      </trkpt>
      <trkpt lat="44.04636" lon="5.93082">
        <ele>560.59997558594</ele>
        <time>2021-02-11T10:06:47.000Z</time>
      </trkpt>
      <trkpt lat="44.04638" lon="5.93081">
        <ele>560.79998779297</ele>
        <time>2021-02-11T10:06:51.000Z</time>
      </trkpt>
      <trkpt lat="44.04644" lon="5.93076">
        <ele>560.79998779297</ele>
        <time>2021-02-11T10:07:01.000Z</time>
      </trkpt>
      <trkpt lat="44.04645" lon="5.93075">
        <ele>561.59997558594</ele>
        <time>2021-02-11T10:07:10.000Z</time>
      </trkpt>
      <trkpt lat="44.04645" lon="5.93075">
        <ele>561.79998779297</ele>
        <time>2021-02-11T10:07:12.000Z</time>
      </trkpt>
      <trkpt lat="44.04649" lon="5.93075">
        <ele>561.79998779297</ele>
        <time>2021-02-11T10:07:27.000Z</time>
      </trkpt>
      <trkpt lat="44.0465" lon="5.93076">
        <ele>561.79998779297</ele>
        <time>2021-02-11T10:07:28.000Z</time>
      </trkpt>
      <trkpt lat="44.04654" lon="5.93075">
        <ele>561.79998779297</ele>
        <time>2021-02-11T10:07:32.000Z</time>
      </trkpt>
      <trkpt lat="44.04654" lon="5.93073">
        <ele>561.79998779297</ele>
        <time>2021-02-11T10:07:33.000Z</time>
      </trkpt>
      <trkpt lat="44.04653" lon="5.93061">
        <ele>562.40002441406</ele>
        <time>2021-02-11T10:07:37.000Z</time>
      </trkpt>
      <trkpt lat="44.04653" lon="5.93057">
        <ele>562.79998779297</ele>
        <time>2021-02-11T10:07:39.000Z</time>
      </trkpt>
      <trkpt lat="44.04652" lon="5.93054">
        <ele>563</ele>
        <time>2021-02-11T10:07:41.000Z</time>
      </trkpt>
      <trkpt lat="44.04647" lon="5.93047">
        <ele>563.20001220703</ele>
        <time>2021-02-11T10:07:44.000Z</time>
      </trkpt>
      <trkpt lat="44.04645" lon="5.93045">
        <ele>564</ele>
        <time>2021-02-11T10:07:45.000Z</time>
      </trkpt>
      <trkpt lat="44.0464" lon="5.93044">
        <ele>565.20001220703</ele>
        <time>2021-02-11T10:07:47.000Z</time>
      </trkpt>
      <trkpt lat="44.04638" lon="5.93043">
        <ele>565.40002441406</ele>
        <time>2021-02-11T10:07:48.000Z</time>
      </trkpt>
      <trkpt lat="44.04634" lon="5.93032">
        <ele>565.79998779297</ele>
        <time>2021-02-11T10:07:52.000Z</time>
      </trkpt>
      <trkpt lat="44.04635" lon="5.93024">
        <ele>566.20001220703</ele>
        <time>2021-02-11T10:07:55.000Z</time>
      </trkpt>
      <trkpt lat="44.0464" lon="5.93022">
        <ele>566.59997558594</ele>
        <time>2021-02-11T10:07:57.000Z</time>
      </trkpt>
      <trkpt lat="44.04649" lon="5.93022">
        <ele>567.40002441406</ele>
        <time>2021-02-11T10:08:00.000Z</time>
      </trkpt>
      <trkpt lat="44.04651" lon="5.9302">
        <ele>567.59997558594</ele>
        <time>2021-02-11T10:08:01.000Z</time>
      </trkpt>
      <trkpt lat="44.04652" lon="5.93018">
        <ele>567.79998779297</ele>
        <time>2021-02-11T10:08:02.000Z</time>
      </trkpt>
      <trkpt lat="44.04652" lon="5.93013">
        <ele>568.40002441406</ele>
        <time>2021-02-11T10:08:04.000Z</time>
      </trkpt>
      <trkpt lat="44.04652" lon="5.93011">
        <ele>568.59997558594</ele>
        <time>2021-02-11T10:08:05.000Z</time>
      </trkpt>
      <trkpt lat="44.04646" lon="5.93001">
        <ele>569.20001220703</ele>
        <time>2021-02-11T10:08:09.000Z</time>
      </trkpt>
      <trkpt lat="44.04646" lon="5.92992">
        <ele>569.79998779297</ele>
        <time>2021-02-11T10:08:13.000Z</time>
      </trkpt>
      <trkpt lat="44.04648" lon="5.92977">
        <ele>571.20001220703</ele>
        <time>2021-02-11T10:08:18.000Z</time>
      </trkpt>
      <trkpt lat="44.04649" lon="5.92974">
        <ele>571.79998779297</ele>
        <time>2021-02-11T10:08:19.000Z</time>
      </trkpt>
      <trkpt lat="44.0465" lon="5.9297">
        <ele>572.20001220703</ele>
        <time>2021-02-11T10:08:20.000Z</time>
      </trkpt>
      <trkpt lat="44.0465" lon="5.92967">
        <ele>572.59997558594</ele>
        <time>2021-02-11T10:08:21.000Z</time>
      </trkpt>
      <trkpt lat="44.04649" lon="5.92959">
        <ele>573.20001220703</ele>
        <time>2021-02-11T10:08:24.000Z</time>
      </trkpt>
      <trkpt lat="44.04646" lon="5.92955">
        <ele>573.79998779297</ele>
        <time>2021-02-11T10:08:26.000Z</time>
      </trkpt>
      <trkpt lat="44.04641" lon="5.92949">
        <ele>575</ele>
        <time>2021-02-11T10:08:29.000Z</time>
      </trkpt>
      <trkpt lat="44.04641" lon="5.92942">
        <ele>576</ele>
        <time>2021-02-11T10:08:32.000Z</time>
      </trkpt>
      <trkpt lat="44.04642" lon="5.92941">
        <ele>576.59997558594</ele>
        <time>2021-02-11T10:08:33.000Z</time>
      </trkpt>
      <trkpt lat="44.04644" lon="5.92941">
        <ele>577.20001220703</ele>
        <time>2021-02-11T10:08:34.000Z</time>
      </trkpt>
      <trkpt lat="44.04651" lon="5.92938">
        <ele>578.20001220703</ele>
        <time>2021-02-11T10:08:38.000Z</time>
      </trkpt>
      <trkpt lat="44.04653" lon="5.92938">
        <ele>578.20001220703</ele>
        <time>2021-02-11T10:08:39.000Z</time>
      </trkpt>
      <trkpt lat="44.04667" lon="5.92935">
        <ele>578.20001220703</ele>
        <time>2021-02-11T10:08:44.000Z</time>
      </trkpt>
      <trkpt lat="44.0468" lon="5.92929">
        <ele>577.79998779297</ele>
        <time>2021-02-11T10:08:48.000Z</time>
      </trkpt>
      <trkpt lat="44.04689" lon="5.9293">
        <ele>577</ele>
        <time>2021-02-11T10:08:50.000Z</time>
      </trkpt>
      <trkpt lat="44.04696" lon="5.92929">
        <ele>576.59997558594</ele>
        <time>2021-02-11T10:08:52.000Z</time>
      </trkpt>
      <trkpt lat="44.04712" lon="5.92921">
        <ele>576.59997558594</ele>
        <time>2021-02-11T10:08:57.000Z</time>
      </trkpt>
      <trkpt lat="44.04718" lon="5.92917">
        <ele>576.59997558594</ele>
        <time>2021-02-11T10:08:59.000Z</time>
      </trkpt>
      <trkpt lat="44.04721" lon="5.92911">
        <ele>576.79998779297</ele>
        <time>2021-02-11T10:09:01.000Z</time>
      </trkpt>
      <trkpt lat="44.04723" lon="5.92901">
        <ele>577.20001220703</ele>
        <time>2021-02-11T10:09:05.000Z</time>
      </trkpt>
      <trkpt lat="44.04727" lon="5.92892">
        <ele>578</ele>
        <time>2021-02-11T10:09:10.000Z</time>
      </trkpt>
      <trkpt lat="44.04726" lon="5.9289">
        <ele>579.20001220703</ele>
        <time>2021-02-11T10:09:11.000Z</time>
      </trkpt>
      <trkpt lat="44.04725" lon="5.92885">
        <ele>580.59997558594</ele>
        <time>2021-02-11T10:09:13.000Z</time>
      </trkpt>
      <trkpt lat="44.04725" lon="5.9288">
        <ele>581.59997558594</ele>
        <time>2021-02-11T10:09:15.000Z</time>
      </trkpt>
      <trkpt lat="44.04725" lon="5.92878">
        <ele>582.20001220703</ele>
        <time>2021-02-11T10:09:16.000Z</time>
      </trkpt>
      <trkpt lat="44.04726" lon="5.92875">
        <ele>583</ele>
        <time>2021-02-11T10:09:17.000Z</time>
      </trkpt>
      <trkpt lat="44.04726" lon="5.92862">
        <ele>584.40002441406</ele>
        <time>2021-02-11T10:09:20.000Z</time>
      </trkpt>
      <trkpt lat="44.04726" lon="5.92856">
        <ele>585.79998779297</ele>
        <time>2021-02-11T10:09:22.000Z</time>
      </trkpt>
      <trkpt lat="44.04728" lon="5.92843">
        <ele>586.59997558594</ele>
        <time>2021-02-11T10:09:26.000Z</time>
      </trkpt>
      <trkpt lat="44.04731" lon="5.92836">
        <ele>586.79998779297</ele>
        <time>2021-02-11T10:09:28.000Z</time>
      </trkpt>
      <trkpt lat="44.04733" lon="5.92829">
        <ele>587</ele>
        <time>2021-02-11T10:09:30.000Z</time>
      </trkpt>
      <trkpt lat="44.04733" lon="5.92826">
        <ele>587</ele>
        <time>2021-02-11T10:09:31.000Z</time>
      </trkpt>
      <trkpt lat="44.04736" lon="5.92815">
        <ele>588</ele>
        <time>2021-02-11T10:09:35.000Z</time>
      </trkpt>
      <trkpt lat="44.04729" lon="5.92802">
        <ele>589.40002441406</ele>
        <time>2021-02-11T10:09:40.000Z</time>
      </trkpt>
      <trkpt lat="44.04726" lon="5.92801">
        <ele>589.59997558594</ele>
        <time>2021-02-11T10:09:41.000Z</time>
      </trkpt>
      <trkpt lat="44.04724" lon="5.92799">
        <ele>589.79998779297</ele>
        <time>2021-02-11T10:09:42.000Z</time>
      </trkpt>
      <trkpt lat="44.04722" lon="5.92791">
        <ele>590.40002441406</ele>
        <time>2021-02-11T10:09:45.000Z</time>
      </trkpt>
      <trkpt lat="44.04721" lon="5.92781">
        <ele>591.40002441406</ele>
        <time>2021-02-11T10:09:48.000Z</time>
      </trkpt>
      <trkpt lat="44.0472" lon="5.92778">
        <ele>591.59997558594</ele>
        <time>2021-02-11T10:09:49.000Z</time>
      </trkpt>
      <trkpt lat="44.0472" lon="5.92771">
        <ele>591.79998779297</ele>
        <time>2021-02-11T10:09:51.000Z</time>
      </trkpt>
      <trkpt lat="44.04718" lon="5.92761">
        <ele>592.40002441406</ele>
        <time>2021-02-11T10:09:54.000Z</time>
      </trkpt>
      <trkpt lat="44.04719" lon="5.92758">
        <ele>592.59997558594</ele>
        <time>2021-02-11T10:09:55.000Z</time>
      </trkpt>
      <trkpt lat="44.0472" lon="5.92756">
        <ele>593</ele>
        <time>2021-02-11T10:09:56.000Z</time>
      </trkpt>
      <trkpt lat="44.04722" lon="5.92753">
        <ele>593.59997558594</ele>
        <time>2021-02-11T10:09:58.000Z</time>
      </trkpt>
      <trkpt lat="44.04724" lon="5.92745">
        <ele>594.20001220703</ele>
        <time>2021-02-11T10:10:01.000Z</time>
      </trkpt>
      <trkpt lat="44.04728" lon="5.92739">
        <ele>594.20001220703</ele>
        <time>2021-02-11T10:10:04.000Z</time>
      </trkpt>
      <trkpt lat="44.04732" lon="5.92741">
        <ele>594.20001220703</ele>
        <time>2021-02-11T10:10:06.000Z</time>
      </trkpt>
      <trkpt lat="44.04736" lon="5.92745">
        <ele>594.40002441406</ele>
        <time>2021-02-11T10:10:08.000Z</time>
      </trkpt>
      <trkpt lat="44.04739" lon="5.92745">
        <ele>594.59997558594</ele>
        <time>2021-02-11T10:10:09.000Z</time>
      </trkpt>
      <trkpt lat="44.04746" lon="5.92746">
        <ele>594.40002441406</ele>
        <time>2021-02-11T10:10:12.000Z</time>
      </trkpt>
      <trkpt lat="44.04759" lon="5.92743">
        <ele>594.40002441406</ele>
        <time>2021-02-11T10:10:17.000Z</time>
      </trkpt>
      <trkpt lat="44.04769" lon="5.92729">
        <ele>594.40002441406</ele>
        <time>2021-02-11T10:10:22.000Z</time>
      </trkpt>
      <trkpt lat="44.04771" lon="5.92724">
        <ele>594.40002441406</ele>
        <time>2021-02-11T10:10:23.000Z</time>
      </trkpt>
      <trkpt lat="44.04776" lon="5.92712">
        <ele>594.59997558594</ele>
        <time>2021-02-11T10:10:26.000Z</time>
      </trkpt>
      <trkpt lat="44.04777" lon="5.92709">
        <ele>594.79998779297</ele>
        <time>2021-02-11T10:10:27.000Z</time>
      </trkpt>
      <trkpt lat="44.04779" lon="5.92705">
        <ele>594.79998779297</ele>
        <time>2021-02-11T10:10:28.000Z</time>
      </trkpt>
      <trkpt lat="44.04782" lon="5.9269">
        <ele>595.20001220703</ele>
        <time>2021-02-11T10:10:32.000Z</time>
      </trkpt>
      <trkpt lat="44.04782" lon="5.92678">
        <ele>595.59997558594</ele>
        <time>2021-02-11T10:10:35.000Z</time>
      </trkpt>
      <trkpt lat="44.04781" lon="5.92676">
        <ele>595.79998779297</ele>
        <time>2021-02-11T10:10:36.000Z</time>
      </trkpt>
      <trkpt lat="44.0478" lon="5.92673">
        <ele>596.20001220703</ele>
        <time>2021-02-11T10:10:37.000Z</time>
      </trkpt>
      <trkpt lat="44.04777" lon="5.92668">
        <ele>597.40002441406</ele>
        <time>2021-02-11T10:10:39.000Z</time>
      </trkpt>
      <trkpt lat="44.04769" lon="5.92659">
        <ele>598.40002441406</ele>
        <time>2021-02-11T10:10:43.000Z</time>
      </trkpt>
      <trkpt lat="44.04763" lon="5.92653">
        <ele>599.40002441406</ele>
        <time>2021-02-11T10:10:46.000Z</time>
      </trkpt>
      <trkpt lat="44.04759" lon="5.92651">
        <ele>599.79998779297</ele>
        <time>2021-02-11T10:10:48.000Z</time>
      </trkpt>
      <trkpt lat="44.04756" lon="5.92646">
        <ele>600.59997558594</ele>
        <time>2021-02-11T10:10:50.000Z</time>
      </trkpt>
      <trkpt lat="44.04756" lon="5.9264">
        <ele>601.59997558594</ele>
        <time>2021-02-11T10:10:52.000Z</time>
      </trkpt>
      <trkpt lat="44.04756" lon="5.92636">
        <ele>601.79998779297</ele>
        <time>2021-02-11T10:10:53.000Z</time>
      </trkpt>
      <trkpt lat="44.04756" lon="5.92632">
        <ele>602.20001220703</ele>
        <time>2021-02-11T10:10:54.000Z</time>
      </trkpt>
      <trkpt lat="44.04753" lon="5.92623">
        <ele>602.79998779297</ele>
        <time>2021-02-11T10:10:56.000Z</time>
      </trkpt>
      <trkpt lat="44.04751" lon="5.92619">
        <ele>603</ele>
        <time>2021-02-11T10:10:57.000Z</time>
      </trkpt>
      <trkpt lat="44.04744" lon="5.92601">
        <ele>603.59997558594</ele>
        <time>2021-02-11T10:11:03.000Z</time>
      </trkpt>
      <trkpt lat="44.04744" lon="5.92591">
        <ele>604.40002441406</ele>
        <time>2021-02-11T10:11:06.000Z</time>
      </trkpt>
      <trkpt lat="44.04741" lon="5.92582">
        <ele>605.40002441406</ele>
        <time>2021-02-11T10:11:09.000Z</time>
      </trkpt>
      <trkpt lat="44.04739" lon="5.92576">
        <ele>606.59997558594</ele>
        <time>2021-02-11T10:11:11.000Z</time>
      </trkpt>
      <trkpt lat="44.04738" lon="5.92572">
        <ele>607.20001220703</ele>
        <time>2021-02-11T10:11:12.000Z</time>
      </trkpt>
      <trkpt lat="44.04736" lon="5.92571">
        <ele>607.40002441406</ele>
        <time>2021-02-11T10:11:13.000Z</time>
      </trkpt>
      <trkpt lat="44.04734" lon="5.92571">
        <ele>607.59997558594</ele>
        <time>2021-02-11T10:11:14.000Z</time>
      </trkpt>
      <trkpt lat="44.04729" lon="5.92576">
        <ele>609</ele>
        <time>2021-02-11T10:11:17.000Z</time>
      </trkpt>
      <trkpt lat="44.04727" lon="5.92577">
        <ele>609.40002441406</ele>
        <time>2021-02-11T10:11:18.000Z</time>
      </trkpt>
      <trkpt lat="44.04724" lon="5.92578">
        <ele>609.59997558594</ele>
        <time>2021-02-11T10:11:19.000Z</time>
      </trkpt>
      <trkpt lat="44.04719" lon="5.92576">
        <ele>610</ele>
        <time>2021-02-11T10:11:21.000Z</time>
      </trkpt>
      <trkpt lat="44.04717" lon="5.92576">
        <ele>610.40002441406</ele>
        <time>2021-02-11T10:11:22.000Z</time>
      </trkpt>
      <trkpt lat="44.0471" lon="5.92572">
        <ele>611</ele>
        <time>2021-02-11T10:11:26.000Z</time>
      </trkpt>
      <trkpt lat="44.04709" lon="5.92565">
        <ele>611.59997558594</ele>
        <time>2021-02-11T10:11:29.000Z</time>
      </trkpt>
      <trkpt lat="44.04709" lon="5.92558">
        <ele>612</ele>
        <time>2021-02-11T10:11:31.000Z</time>
      </trkpt>
      <trkpt lat="44.04709" lon="5.92552">
        <ele>612.59997558594</ele>
        <time>2021-02-11T10:11:33.000Z</time>
      </trkpt>
      <trkpt lat="44.0471" lon="5.92545">
        <ele>613.59997558594</ele>
        <time>2021-02-11T10:11:37.000Z</time>
      </trkpt>
      <trkpt lat="44.0471" lon="5.92544">
        <ele>613.79998779297</ele>
        <time>2021-02-11T10:11:39.000Z</time>
      </trkpt>
      <trkpt lat="44.04709" lon="5.92543">
        <ele>615</ele>
        <time>2021-02-11T10:11:44.000Z</time>
      </trkpt>
      <trkpt lat="44.0471" lon="5.92542">
        <ele>615.20001220703</ele>
        <time>2021-02-11T10:11:47.000Z</time>
      </trkpt>
      <trkpt lat="44.0471" lon="5.9254">
        <ele>615.20001220703</ele>
        <time>2021-02-11T10:11:48.000Z</time>
      </trkpt>
      <trkpt lat="44.04712" lon="5.92532">
        <ele>615.40002441406</ele>
        <time>2021-02-11T10:11:52.000Z</time>
      </trkpt>
      <trkpt lat="44.04717" lon="5.92524">
        <ele>615.40002441406</ele>
        <time>2021-02-11T10:11:55.000Z</time>
      </trkpt>
      <trkpt lat="44.04722" lon="5.92515">
        <ele>615.59997558594</ele>
        <time>2021-02-11T10:11:58.000Z</time>
      </trkpt>
      <trkpt lat="44.04724" lon="5.92509">
        <ele>616</ele>
        <time>2021-02-11T10:12:00.000Z</time>
      </trkpt>
      <trkpt lat="44.04725" lon="5.92501">
        <ele>616</ele>
        <time>2021-02-11T10:12:02.000Z</time>
      </trkpt>
      <trkpt lat="44.04725" lon="5.92498">
        <ele>616.20001220703</ele>
        <time>2021-02-11T10:12:03.000Z</time>
      </trkpt>
      <trkpt lat="44.04732" lon="5.92489">
        <ele>616.59997558594</ele>
        <time>2021-02-11T10:12:07.000Z</time>
      </trkpt>
      <trkpt lat="44.04735" lon="5.92485">
        <ele>616.79998779297</ele>
        <time>2021-02-11T10:12:08.000Z</time>
      </trkpt>
      <trkpt lat="44.0474" lon="5.92477">
        <ele>617.20001220703</ele>
        <time>2021-02-11T10:12:11.000Z</time>
      </trkpt>
      <trkpt lat="44.04741" lon="5.92474">
        <ele>617.40002441406</ele>
        <time>2021-02-11T10:12:12.000Z</time>
      </trkpt>
      <trkpt lat="44.0475" lon="5.92461">
        <ele>618</ele>
        <time>2021-02-11T10:12:17.000Z</time>
      </trkpt>
      <trkpt lat="44.0476" lon="5.92456">
        <ele>618.40002441406</ele>
        <time>2021-02-11T10:12:21.000Z</time>
      </trkpt>
      <trkpt lat="44.04765" lon="5.92453">
        <ele>618.59997558594</ele>
        <time>2021-02-11T10:12:23.000Z</time>
      </trkpt>
      <trkpt lat="44.04775" lon="5.92442">
        <ele>619</ele>
        <time>2021-02-11T10:12:28.000Z</time>
      </trkpt>
      <trkpt lat="44.04775" lon="5.9244">
        <ele>619.20001220703</ele>
        <time>2021-02-11T10:12:29.000Z</time>
      </trkpt>
      <trkpt lat="44.04769" lon="5.92432">
        <ele>619.59997558594</ele>
        <time>2021-02-11T10:12:34.000Z</time>
      </trkpt>
      <trkpt lat="44.04765" lon="5.92428">
        <ele>620.79998779297</ele>
        <time>2021-02-11T10:12:36.000Z</time>
      </trkpt>
      <trkpt lat="44.04755" lon="5.92425">
        <ele>621.79998779297</ele>
        <time>2021-02-11T10:12:40.000Z</time>
      </trkpt>
      <trkpt lat="44.04748" lon="5.92423">
        <ele>622.40002441406</ele>
        <time>2021-02-11T10:12:43.000Z</time>
      </trkpt>
      <trkpt lat="44.04745" lon="5.92419">
        <ele>622.79998779297</ele>
        <time>2021-02-11T10:12:45.000Z</time>
      </trkpt>
      <trkpt lat="44.04745" lon="5.92416">
        <ele>623.20001220703</ele>
        <time>2021-02-11T10:12:46.000Z</time>
      </trkpt>
      <trkpt lat="44.04746" lon="5.92411">
        <ele>623.79998779297</ele>
        <time>2021-02-11T10:12:48.000Z</time>
      </trkpt>
      <trkpt lat="44.04746" lon="5.92408">
        <ele>624.20001220703</ele>
        <time>2021-02-11T10:12:49.000Z</time>
      </trkpt>
      <trkpt lat="44.04746" lon="5.92406">
        <ele>624.20001220703</ele>
        <time>2021-02-11T10:12:50.000Z</time>
      </trkpt>
      <trkpt lat="44.04747" lon="5.92397">
        <ele>625.79998779297</ele>
        <time>2021-02-11T10:12:53.000Z</time>
      </trkpt>
      <trkpt lat="44.04746" lon="5.92391">
        <ele>626.40002441406</ele>
        <time>2021-02-11T10:12:55.000Z</time>
      </trkpt>
      <trkpt lat="44.04745" lon="5.92385">
        <ele>627</ele>
        <time>2021-02-11T10:12:57.000Z</time>
      </trkpt>
      <trkpt lat="44.04743" lon="5.9238">
        <ele>628.59997558594</ele>
        <time>2021-02-11T10:12:59.000Z</time>
      </trkpt>
      <trkpt lat="44.04743" lon="5.92375">
        <ele>629.20001220703</ele>
        <time>2021-02-11T10:13:01.000Z</time>
      </trkpt>
      <trkpt lat="44.04743" lon="5.92369">
        <ele>629.79998779297</ele>
        <time>2021-02-11T10:13:03.000Z</time>
      </trkpt>
      <trkpt lat="44.04741" lon="5.9236">
        <ele>630.59997558594</ele>
        <time>2021-02-11T10:13:06.000Z</time>
      </trkpt>
      <trkpt lat="44.04741" lon="5.92357">
        <ele>631</ele>
        <time>2021-02-11T10:13:07.000Z</time>
      </trkpt>
      <trkpt lat="44.04735" lon="5.92346">
        <ele>631.79998779297</ele>
        <time>2021-02-11T10:13:12.000Z</time>
      </trkpt>
      <trkpt lat="44.04732" lon="5.92342">
        <ele>632</ele>
        <time>2021-02-11T10:13:14.000Z</time>
      </trkpt>
      <trkpt lat="44.04724" lon="5.92334">
        <ele>632.59997558594</ele>
        <time>2021-02-11T10:13:19.000Z</time>
      </trkpt>
      <trkpt lat="44.04716" lon="5.92326">
        <ele>632.79998779297</ele>
        <time>2021-02-11T10:13:24.000Z</time>
      </trkpt>
      <trkpt lat="44.04712" lon="5.92319">
        <ele>633</ele>
        <time>2021-02-11T10:13:28.000Z</time>
      </trkpt>
      <trkpt lat="44.04712" lon="5.92317">
        <ele>633.20001220703</ele>
        <time>2021-02-11T10:13:29.000Z</time>
      </trkpt>
      <trkpt lat="44.04713" lon="5.92315">
        <ele>633.40002441406</ele>
        <time>2021-02-11T10:13:30.000Z</time>
      </trkpt>
      <trkpt lat="44.04717" lon="5.92308">
        <ele>633.40002441406</ele>
        <time>2021-02-11T10:13:34.000Z</time>
      </trkpt>
      <trkpt lat="44.04722" lon="5.92296">
        <ele>632.79998779297</ele>
        <time>2021-02-11T10:13:39.000Z</time>
      </trkpt>
      <trkpt lat="44.04724" lon="5.92289">
        <ele>632.20001220703</ele>
        <time>2021-02-11T10:13:41.000Z</time>
      </trkpt>
      <trkpt lat="44.04727" lon="5.92283">
        <ele>631.79998779297</ele>
        <time>2021-02-11T10:13:43.000Z</time>
      </trkpt>
      <trkpt lat="44.04729" lon="5.92282">
        <ele>631.59997558594</ele>
        <time>2021-02-11T10:13:44.000Z</time>
      </trkpt>
      <trkpt lat="44.04738" lon="5.92274">
        <ele>631.40002441406</ele>
        <time>2021-02-11T10:13:49.000Z</time>
      </trkpt>
      <trkpt lat="44.0474" lon="5.92265">
        <ele>631.20001220703</ele>
        <time>2021-02-11T10:13:52.000Z</time>
      </trkpt>
      <trkpt lat="44.04741" lon="5.92255">
        <ele>631.40002441406</ele>
        <time>2021-02-11T10:13:55.000Z</time>
      </trkpt>
      <trkpt lat="44.04742" lon="5.92239">
        <ele>631.40002441406</ele>
        <time>2021-02-11T10:13:59.000Z</time>
      </trkpt>
      <trkpt lat="44.04743" lon="5.92233">
        <ele>631.40002441406</ele>
        <time>2021-02-11T10:14:01.000Z</time>
      </trkpt>
      <trkpt lat="44.04746" lon="5.92227">
        <ele>631.40002441406</ele>
        <time>2021-02-11T10:14:03.000Z</time>
      </trkpt>
      <trkpt lat="44.0475" lon="5.92222">
        <ele>631.20001220703</ele>
        <time>2021-02-11T10:14:05.000Z</time>
      </trkpt>
      <trkpt lat="44.04757" lon="5.92213">
        <ele>630.20001220703</ele>
        <time>2021-02-11T10:14:08.000Z</time>
      </trkpt>
      <trkpt lat="44.04762" lon="5.92206">
        <ele>629.20001220703</ele>
        <time>2021-02-11T10:14:10.000Z</time>
      </trkpt>
      <trkpt lat="44.0477" lon="5.92195">
        <ele>628</ele>
        <time>2021-02-11T10:14:13.000Z</time>
      </trkpt>
      <trkpt lat="44.04772" lon="5.92192">
        <ele>627.40002441406</ele>
        <time>2021-02-11T10:14:14.000Z</time>
      </trkpt>
      <trkpt lat="44.04773" lon="5.92187">
        <ele>627</ele>
        <time>2021-02-11T10:14:15.000Z</time>
      </trkpt>
      <trkpt lat="44.04777" lon="5.92174">
        <ele>626</ele>
        <time>2021-02-11T10:14:18.000Z</time>
      </trkpt>
      <trkpt lat="44.04778" lon="5.92168">
        <ele>626</ele>
        <time>2021-02-11T10:14:19.000Z</time>
      </trkpt>
      <trkpt lat="44.04778" lon="5.92154">
        <ele>625.79998779297</ele>
        <time>2021-02-11T10:14:22.000Z</time>
      </trkpt>
      <trkpt lat="44.04783" lon="5.92141">
        <ele>625.79998779297</ele>
        <time>2021-02-11T10:14:26.000Z</time>
      </trkpt>
      <trkpt lat="44.04784" lon="5.92137">
        <ele>625.79998779297</ele>
        <time>2021-02-11T10:14:27.000Z</time>
      </trkpt>
      <trkpt lat="44.04786" lon="5.92125">
        <ele>625.59997558594</ele>
        <time>2021-02-11T10:14:30.000Z</time>
      </trkpt>
      <trkpt lat="44.04785" lon="5.92121">
        <ele>625.59997558594</ele>
        <time>2021-02-11T10:14:31.000Z</time>
      </trkpt>
      <trkpt lat="44.04778" lon="5.92105">
        <ele>625.40002441406</ele>
        <time>2021-02-11T10:14:36.000Z</time>
      </trkpt>
      <trkpt lat="44.04778" lon="5.92084">
        <ele>625.40002441406</ele>
        <time>2021-02-11T10:14:41.000Z</time>
      </trkpt>
      <trkpt lat="44.0478" lon="5.92059">
        <ele>625.59997558594</ele>
        <time>2021-02-11T10:14:46.000Z</time>
      </trkpt>
      <trkpt lat="44.04782" lon="5.92049">
        <ele>627</ele>
        <time>2021-02-11T10:14:50.000Z</time>
      </trkpt>
      <trkpt lat="44.04785" lon="5.92042">
        <ele>628.40002441406</ele>
        <time>2021-02-11T10:14:56.000Z</time>
      </trkpt>
      <trkpt lat="44.04786" lon="5.92041">
        <ele>628.79998779297</ele>
        <time>2021-02-11T10:14:57.000Z</time>
      </trkpt>
      <trkpt lat="44.04787" lon="5.92039">
        <ele>629.40002441406</ele>
        <time>2021-02-11T10:15:00.000Z</time>
      </trkpt>
      <trkpt lat="44.04787" lon="5.92039">
        <ele>629.79998779297</ele>
        <time>2021-02-11T10:15:03.000Z</time>
      </trkpt>
      <trkpt lat="44.04787" lon="5.92034">
        <ele>629.79998779297</ele>
        <time>2021-02-11T10:15:06.000Z</time>
      </trkpt>
      <trkpt lat="44.04786" lon="5.92027">
        <ele>630</ele>
        <time>2021-02-11T10:15:09.000Z</time>
      </trkpt>
      <trkpt lat="44.04786" lon="5.92017">
        <ele>630</ele>
        <time>2021-02-11T10:15:13.000Z</time>
      </trkpt>
      <trkpt lat="44.04791" lon="5.92013">
        <ele>630.40002441406</ele>
        <time>2021-02-11T10:15:16.000Z</time>
      </trkpt>
      <trkpt lat="44.04792" lon="5.92011">
        <ele>630.59997558594</ele>
        <time>2021-02-11T10:15:17.000Z</time>
      </trkpt>
      <trkpt lat="44.04791" lon="5.91999">
        <ele>630.59997558594</ele>
        <time>2021-02-11T10:15:22.000Z</time>
      </trkpt>
      <trkpt lat="44.0479" lon="5.91997">
        <ele>630.59997558594</ele>
        <time>2021-02-11T10:15:23.000Z</time>
      </trkpt>
      <trkpt lat="44.04785" lon="5.91984">
        <ele>630.79998779297</ele>
        <time>2021-02-11T10:15:28.000Z</time>
      </trkpt>
      <trkpt lat="44.04783" lon="5.91968">
        <ele>631</ele>
        <time>2021-02-11T10:15:33.000Z</time>
      </trkpt>
      <trkpt lat="44.04782" lon="5.91965">
        <ele>631.20001220703</ele>
        <time>2021-02-11T10:15:34.000Z</time>
      </trkpt>
      <trkpt lat="44.0478" lon="5.91959">
        <ele>631.79998779297</ele>
        <time>2021-02-11T10:15:36.000Z</time>
      </trkpt>
      <trkpt lat="44.04779" lon="5.91957">
        <ele>632</ele>
        <time>2021-02-11T10:15:37.000Z</time>
      </trkpt>
      <trkpt lat="44.04776" lon="5.91942">
        <ele>632.79998779297</ele>
        <time>2021-02-11T10:15:41.000Z</time>
      </trkpt>
      <trkpt lat="44.04775" lon="5.91939">
        <ele>632.79998779297</ele>
        <time>2021-02-11T10:15:42.000Z</time>
      </trkpt>
      <trkpt lat="44.04775" lon="5.91927">
        <ele>634</ele>
        <time>2021-02-11T10:15:46.000Z</time>
      </trkpt>
      <trkpt lat="44.04775" lon="5.91925">
        <ele>634.20001220703</ele>
        <time>2021-02-11T10:15:47.000Z</time>
      </trkpt>
      <trkpt lat="44.04774" lon="5.91922">
        <ele>634.20001220703</ele>
        <time>2021-02-11T10:15:48.000Z</time>
      </trkpt>
      <trkpt lat="44.0477" lon="5.91918">
        <ele>635.20001220703</ele>
        <time>2021-02-11T10:15:51.000Z</time>
      </trkpt>
      <trkpt lat="44.0477" lon="5.91918">
        <ele>636.40002441406</ele>
        <time>2021-02-11T10:15:52.000Z</time>
      </trkpt>
      <trkpt lat="44.04768" lon="5.91924">
        <ele>636.79998779297</ele>
        <time>2021-02-11T10:15:55.000Z</time>
      </trkpt>
      <trkpt lat="44.04768" lon="5.91928">
        <ele>637.20001220703</ele>
        <time>2021-02-11T10:15:56.000Z</time>
      </trkpt>
      <trkpt lat="44.04768" lon="5.91932">
        <ele>637.59997558594</ele>
        <time>2021-02-11T10:15:57.000Z</time>
      </trkpt>
      <trkpt lat="44.04769" lon="5.91934">
        <ele>637.79998779297</ele>
        <time>2021-02-11T10:15:58.000Z</time>
      </trkpt>
      <trkpt lat="44.04771" lon="5.91937">
        <ele>637.79998779297</ele>
        <time>2021-02-11T10:15:59.000Z</time>
      </trkpt>
      <trkpt lat="44.04772" lon="5.9195">
        <ele>637.79998779297</ele>
        <time>2021-02-11T10:16:03.000Z</time>
      </trkpt>
      <trkpt lat="44.04766" lon="5.91954">
        <ele>638</ele>
        <time>2021-02-11T10:16:07.000Z</time>
      </trkpt>
      <trkpt lat="44.04766" lon="5.91949">
        <ele>638</ele>
        <time>2021-02-11T10:16:09.000Z</time>
      </trkpt>
      <trkpt lat="44.04765" lon="5.91945">
        <ele>638</ele>
        <time>2021-02-11T10:16:11.000Z</time>
      </trkpt>
      <trkpt lat="44.04765" lon="5.91944">
        <ele>638</ele>
        <time>2021-02-11T10:16:12.000Z</time>
      </trkpt>
      <trkpt lat="44.04759" lon="5.91937">
        <ele>638.20001220703</ele>
        <time>2021-02-11T10:16:16.000Z</time>
      </trkpt>
      <trkpt lat="44.04756" lon="5.91923">
        <ele>639.59997558594</ele>
        <time>2021-02-11T10:16:21.000Z</time>
      </trkpt>
      <trkpt lat="44.04756" lon="5.91917">
        <ele>640.20001220703</ele>
        <time>2021-02-11T10:16:23.000Z</time>
      </trkpt>
      <trkpt lat="44.04753" lon="5.91906">
        <ele>640.79998779297</ele>
        <time>2021-02-11T10:16:26.000Z</time>
      </trkpt>
      <trkpt lat="44.04751" lon="5.91892">
        <ele>642</ele>
        <time>2021-02-11T10:16:30.000Z</time>
      </trkpt>
      <trkpt lat="44.04749" lon="5.91888">
        <ele>642.40002441406</ele>
        <time>2021-02-11T10:16:32.000Z</time>
      </trkpt>
      <trkpt lat="44.04744" lon="5.91869">
        <ele>642.40002441406</ele>
        <time>2021-02-11T10:16:38.000Z</time>
      </trkpt>
      <trkpt lat="44.04746" lon="5.91865">
        <ele>642.40002441406</ele>
        <time>2021-02-11T10:16:41.000Z</time>
      </trkpt>
      <trkpt lat="44.04747" lon="5.91864">
        <ele>642</ele>
        <time>2021-02-11T10:16:42.000Z</time>
      </trkpt>
      <trkpt lat="44.04748" lon="5.91864">
        <ele>640.40002441406</ele>
        <time>2021-02-11T10:16:44.000Z</time>
      </trkpt>
      <trkpt lat="44.04752" lon="5.91861">
        <ele>639.40002441406</ele>
        <time>2021-02-11T10:16:48.000Z</time>
      </trkpt>
      <trkpt lat="44.04758" lon="5.9186">
        <ele>639.20001220703</ele>
        <time>2021-02-11T10:16:52.000Z</time>
      </trkpt>
      <trkpt lat="44.04762" lon="5.91857">
        <ele>639.59997558594</ele>
        <time>2021-02-11T10:16:54.000Z</time>
      </trkpt>
      <trkpt lat="44.04774" lon="5.91852">
        <ele>640.40002441406</ele>
        <time>2021-02-11T10:16:59.000Z</time>
      </trkpt>
      <trkpt lat="44.04782" lon="5.9185">
        <ele>640.59997558594</ele>
        <time>2021-02-11T10:17:03.000Z</time>
      </trkpt>
      <trkpt lat="44.04786" lon="5.91847">
        <ele>640.59997558594</ele>
        <time>2021-02-11T10:17:05.000Z</time>
      </trkpt>
      <trkpt lat="44.04794" lon="5.91844">
        <ele>640.59997558594</ele>
        <time>2021-02-11T10:17:08.000Z</time>
      </trkpt>
      <trkpt lat="44.04802" lon="5.91843">
        <ele>640.59997558594</ele>
        <time>2021-02-11T10:17:11.000Z</time>
      </trkpt>
      <trkpt lat="44.04804" lon="5.91841">
        <ele>640.59997558594</ele>
        <time>2021-02-11T10:17:13.000Z</time>
      </trkpt>
      <trkpt lat="44.04806" lon="5.91839">
        <ele>640.59997558594</ele>
        <time>2021-02-11T10:17:14.000Z</time>
      </trkpt>
      <trkpt lat="44.04812" lon="5.91838">
        <ele>640.79998779297</ele>
        <time>2021-02-11T10:17:17.000Z</time>
      </trkpt>
      <trkpt lat="44.04819" lon="5.91835">
        <ele>642</ele>
        <time>2021-02-11T10:17:20.000Z</time>
      </trkpt>
      <trkpt lat="44.0482" lon="5.91834">
        <ele>642.40002441406</ele>
        <time>2021-02-11T10:17:21.000Z</time>
      </trkpt>
      <trkpt lat="44.04824" lon="5.91832">
        <ele>643</ele>
        <time>2021-02-11T10:17:23.000Z</time>
      </trkpt>
      <trkpt lat="44.04835" lon="5.91827">
        <ele>643.79998779297</ele>
        <time>2021-02-11T10:17:27.000Z</time>
      </trkpt>
      <trkpt lat="44.04841" lon="5.91825">
        <ele>644.20001220703</ele>
        <time>2021-02-11T10:17:29.000Z</time>
      </trkpt>
      <trkpt lat="44.04854" lon="5.91815">
        <ele>644.59997558594</ele>
        <time>2021-02-11T10:17:33.000Z</time>
      </trkpt>
      <trkpt lat="44.04865" lon="5.91804">
        <ele>645.20001220703</ele>
        <time>2021-02-11T10:17:38.000Z</time>
      </trkpt>
      <trkpt lat="44.04874" lon="5.91787">
        <ele>644.59997558594</ele>
        <time>2021-02-11T10:17:43.000Z</time>
      </trkpt>
      <trkpt lat="44.04884" lon="5.91769">
        <ele>644.59997558594</ele>
        <time>2021-02-11T10:17:47.000Z</time>
      </trkpt>
      <trkpt lat="44.04885" lon="5.91765">
        <ele>644.59997558594</ele>
        <time>2021-02-11T10:17:48.000Z</time>
      </trkpt>
      <trkpt lat="44.04885" lon="5.91755">
        <ele>644.59997558594</ele>
        <time>2021-02-11T10:17:51.000Z</time>
      </trkpt>
      <trkpt lat="44.04885" lon="5.91743">
        <ele>644.59997558594</ele>
        <time>2021-02-11T10:17:54.000Z</time>
      </trkpt>
      <trkpt lat="44.04886" lon="5.91737">
        <ele>644.59997558594</ele>
        <time>2021-02-11T10:17:56.000Z</time>
      </trkpt>
      <trkpt lat="44.04887" lon="5.91723">
        <ele>644.40002441406</ele>
        <time>2021-02-11T10:18:01.000Z</time>
      </trkpt>
      <trkpt lat="44.04887" lon="5.91706">
        <ele>644</ele>
        <time>2021-02-11T10:18:05.000Z</time>
      </trkpt>
      <trkpt lat="44.04891" lon="5.91685">
        <ele>643.40002441406</ele>
        <time>2021-02-11T10:18:11.000Z</time>
      </trkpt>
      <trkpt lat="44.04892" lon="5.91682">
        <ele>643.20001220703</ele>
        <time>2021-02-11T10:18:12.000Z</time>
      </trkpt>
      <trkpt lat="44.04895" lon="5.91675">
        <ele>643.20001220703</ele>
        <time>2021-02-11T10:18:15.000Z</time>
      </trkpt>
      <trkpt lat="44.04889" lon="5.91657">
        <ele>643.20001220703</ele>
        <time>2021-02-11T10:18:20.000Z</time>
      </trkpt>
      <trkpt lat="44.04884" lon="5.91644">
        <ele>643.20001220703</ele>
        <time>2021-02-11T10:18:24.000Z</time>
      </trkpt>
      <trkpt lat="44.04883" lon="5.91642">
        <ele>643.20001220703</ele>
        <time>2021-02-11T10:18:25.000Z</time>
      </trkpt>
      <trkpt lat="44.04876" lon="5.91628">
        <ele>643.20001220703</ele>
        <time>2021-02-11T10:18:30.000Z</time>
      </trkpt>
      <trkpt lat="44.04879" lon="5.91621">
        <ele>643</ele>
        <time>2021-02-11T10:18:34.000Z</time>
      </trkpt>
      <trkpt lat="44.04883" lon="5.91616">
        <ele>642.40002441406</ele>
        <time>2021-02-11T10:18:38.000Z</time>
      </trkpt>
      <trkpt lat="44.04881" lon="5.91611">
        <ele>641.79998779297</ele>
        <time>2021-02-11T10:18:40.000Z</time>
      </trkpt>
      <trkpt lat="44.04882" lon="5.91606">
        <ele>640.79998779297</ele>
        <time>2021-02-11T10:18:43.000Z</time>
      </trkpt>
      <trkpt lat="44.04883" lon="5.91603">
        <ele>640.59997558594</ele>
        <time>2021-02-11T10:18:44.000Z</time>
      </trkpt>
      <trkpt lat="44.04889" lon="5.91601">
        <ele>639.79998779297</ele>
        <time>2021-02-11T10:18:47.000Z</time>
      </trkpt>
      <trkpt lat="44.04891" lon="5.916">
        <ele>639.40002441406</ele>
        <time>2021-02-11T10:18:48.000Z</time>
      </trkpt>
      <trkpt lat="44.04894" lon="5.91596">
        <ele>638.59997558594</ele>
        <time>2021-02-11T10:18:50.000Z</time>
      </trkpt>
      <trkpt lat="44.04895" lon="5.91593">
        <ele>638.20001220703</ele>
        <time>2021-02-11T10:18:51.000Z</time>
      </trkpt>
      <trkpt lat="44.04895" lon="5.91589">
        <ele>638</ele>
        <time>2021-02-11T10:18:52.000Z</time>
      </trkpt>
      <trkpt lat="44.04894" lon="5.91584">
        <ele>637.59997558594</ele>
        <time>2021-02-11T10:18:54.000Z</time>
      </trkpt>
      <trkpt lat="44.04894" lon="5.9158">
        <ele>637.40002441406</ele>
        <time>2021-02-11T10:18:56.000Z</time>
      </trkpt>
      <trkpt lat="44.04897" lon="5.91578">
        <ele>637.20001220703</ele>
        <time>2021-02-11T10:18:58.000Z</time>
      </trkpt>
      <trkpt lat="44.04899" lon="5.91574">
        <ele>635.79998779297</ele>
        <time>2021-02-11T10:19:00.000Z</time>
      </trkpt>
      <trkpt lat="44.04899" lon="5.91571">
        <ele>635.40002441406</ele>
        <time>2021-02-11T10:19:01.000Z</time>
      </trkpt>
      <trkpt lat="44.04899" lon="5.9157">
        <ele>634.79998779297</ele>
        <time>2021-02-11T10:19:02.000Z</time>
      </trkpt>
      <trkpt lat="44.04896" lon="5.91564">
        <ele>633.79998779297</ele>
        <time>2021-02-11T10:19:05.000Z</time>
      </trkpt>
      <trkpt lat="44.04893" lon="5.9156">
        <ele>632.20001220703</ele>
        <time>2021-02-11T10:19:07.000Z</time>
      </trkpt>
      <trkpt lat="44.0489" lon="5.9155">
        <ele>631.40002441406</ele>
        <time>2021-02-11T10:19:11.000Z</time>
      </trkpt>
      <trkpt lat="44.04894" lon="5.91532">
        <ele>631.59997558594</ele>
        <time>2021-02-11T10:19:17.000Z</time>
      </trkpt>
      <trkpt lat="44.04901" lon="5.91519">
        <ele>632.79998779297</ele>
        <time>2021-02-11T10:19:21.000Z</time>
      </trkpt>
      <trkpt lat="44.04902" lon="5.91516">
        <ele>633</ele>
        <time>2021-02-11T10:19:22.000Z</time>
      </trkpt>
      <trkpt lat="44.04904" lon="5.91512">
        <ele>633.20001220703</ele>
        <time>2021-02-11T10:19:23.000Z</time>
      </trkpt>
      <trkpt lat="44.04907" lon="5.91507">
        <ele>634.20001220703</ele>
        <time>2021-02-11T10:19:25.000Z</time>
      </trkpt>
      <trkpt lat="44.04909" lon="5.91503">
        <ele>634.79998779297</ele>
        <time>2021-02-11T10:19:26.000Z</time>
      </trkpt>
      <trkpt lat="44.04911" lon="5.91499">
        <ele>635.40002441406</ele>
        <time>2021-02-11T10:19:27.000Z</time>
      </trkpt>
      <trkpt lat="44.04914" lon="5.91492">
        <ele>636</ele>
        <time>2021-02-11T10:19:29.000Z</time>
      </trkpt>
      <trkpt lat="44.04915" lon="5.91481">
        <ele>637.40002441406</ele>
        <time>2021-02-11T10:19:32.000Z</time>
      </trkpt>
      <trkpt lat="44.04914" lon="5.91469">
        <ele>638.59997558594</ele>
        <time>2021-02-11T10:19:36.000Z</time>
      </trkpt>
      <trkpt lat="44.04913" lon="5.91463">
        <ele>639</ele>
        <time>2021-02-11T10:19:38.000Z</time>
      </trkpt>
      <trkpt lat="44.04912" lon="5.91461">
        <ele>639</ele>
        <time>2021-02-11T10:19:39.000Z</time>
      </trkpt>
      <trkpt lat="44.04909" lon="5.9145">
        <ele>639.20001220703</ele>
        <time>2021-02-11T10:19:43.000Z</time>
      </trkpt>
      <trkpt lat="44.04909" lon="5.91447">
        <ele>639.20001220703</ele>
        <time>2021-02-11T10:19:44.000Z</time>
      </trkpt>
      <trkpt lat="44.04905" lon="5.91435">
        <ele>639.20001220703</ele>
        <time>2021-02-11T10:19:48.000Z</time>
      </trkpt>
      <trkpt lat="44.049" lon="5.91416">
        <ele>639.20001220703</ele>
        <time>2021-02-11T10:19:54.000Z</time>
      </trkpt>
      <trkpt lat="44.04893" lon="5.91409">
        <ele>639.20001220703</ele>
        <time>2021-02-11T10:19:57.000Z</time>
      </trkpt>
      <trkpt lat="44.0489" lon="5.91406">
        <ele>639.20001220703</ele>
        <time>2021-02-11T10:19:58.000Z</time>
      </trkpt>
      <trkpt lat="44.04889" lon="5.91404">
        <ele>639.20001220703</ele>
        <time>2021-02-11T10:19:59.000Z</time>
      </trkpt>
      <trkpt lat="44.04886" lon="5.91392">
        <ele>639.59997558594</ele>
        <time>2021-02-11T10:20:02.000Z</time>
      </trkpt>
      <trkpt lat="44.04884" lon="5.91384">
        <ele>639.79998779297</ele>
        <time>2021-02-11T10:20:04.000Z</time>
      </trkpt>
      <trkpt lat="44.0488" lon="5.91379">
        <ele>640</ele>
        <time>2021-02-11T10:20:07.000Z</time>
      </trkpt>
      <trkpt lat="44.04873" lon="5.91369">
        <ele>640.79998779297</ele>
        <time>2021-02-11T10:20:12.000Z</time>
      </trkpt>
      <trkpt lat="44.04872" lon="5.91366">
        <ele>641.20001220703</ele>
        <time>2021-02-11T10:20:13.000Z</time>
      </trkpt>
      <trkpt lat="44.04867" lon="5.91356">
        <ele>642.20001220703</ele>
        <time>2021-02-11T10:20:16.000Z</time>
      </trkpt>
      <trkpt lat="44.04863" lon="5.91345">
        <ele>642.59997558594</ele>
        <time>2021-02-11T10:20:19.000Z</time>
      </trkpt>
      <trkpt lat="44.04859" lon="5.91341">
        <ele>642.59997558594</ele>
        <time>2021-02-11T10:20:21.000Z</time>
      </trkpt>
      <trkpt lat="44.04852" lon="5.91339">
        <ele>642.59997558594</ele>
        <time>2021-02-11T10:20:24.000Z</time>
      </trkpt>
      <trkpt lat="44.04844" lon="5.91332">
        <ele>642.59997558594</ele>
        <time>2021-02-11T10:20:29.000Z</time>
      </trkpt>
      <trkpt lat="44.04844" lon="5.9133">
        <ele>642.59997558594</ele>
        <time>2021-02-11T10:20:30.000Z</time>
      </trkpt>
      <trkpt lat="44.0484" lon="5.9132">
        <ele>642.59997558594</ele>
        <time>2021-02-11T10:20:34.000Z</time>
      </trkpt>
      <trkpt lat="44.04839" lon="5.91318">
        <ele>642.59997558594</ele>
        <time>2021-02-11T10:20:35.000Z</time>
      </trkpt>
      <trkpt lat="44.04839" lon="5.91314">
        <ele>642.79998779297</ele>
        <time>2021-02-11T10:20:37.000Z</time>
      </trkpt>
      <trkpt lat="44.04838" lon="5.91311">
        <ele>643</ele>
        <time>2021-02-11T10:20:38.000Z</time>
      </trkpt>
      <trkpt lat="44.04838" lon="5.91308">
        <ele>643.20001220703</ele>
        <time>2021-02-11T10:20:39.000Z</time>
      </trkpt>
      <trkpt lat="44.04839" lon="5.91305">
        <ele>643.59997558594</ele>
        <time>2021-02-11T10:20:40.000Z</time>
      </trkpt>
      <trkpt lat="44.04842" lon="5.91303">
        <ele>644</ele>
        <time>2021-02-11T10:20:43.000Z</time>
      </trkpt>
      <trkpt lat="44.04852" lon="5.91296">
        <ele>644.59997558594</ele>
        <time>2021-02-11T10:20:48.000Z</time>
      </trkpt>
      <trkpt lat="44.04854" lon="5.91295">
        <ele>644.79998779297</ele>
        <time>2021-02-11T10:20:49.000Z</time>
      </trkpt>
      <trkpt lat="44.04862" lon="5.9129">
        <ele>645</ele>
        <time>2021-02-11T10:20:52.000Z</time>
      </trkpt>
      <trkpt lat="44.04861" lon="5.91277">
        <ele>645.20001220703</ele>
        <time>2021-02-11T10:20:56.000Z</time>
      </trkpt>
      <trkpt lat="44.04857" lon="5.91272">
        <ele>645.79998779297</ele>
        <time>2021-02-11T10:20:59.000Z</time>
      </trkpt>
      <trkpt lat="44.04854" lon="5.9127">
        <ele>646.20001220703</ele>
        <time>2021-02-11T10:21:01.000Z</time>
      </trkpt>
      <trkpt lat="44.04848" lon="5.9127">
        <ele>646.79998779297</ele>
        <time>2021-02-11T10:21:04.000Z</time>
      </trkpt>
      <trkpt lat="44.04844" lon="5.9127">
        <ele>647.40002441406</ele>
        <time>2021-02-11T10:21:06.000Z</time>
      </trkpt>
      <trkpt lat="44.04842" lon="5.91269">
        <ele>647.79998779297</ele>
        <time>2021-02-11T10:21:07.000Z</time>
      </trkpt>
      <trkpt lat="44.04838" lon="5.91268">
        <ele>648.79998779297</ele>
        <time>2021-02-11T10:21:09.000Z</time>
      </trkpt>
      <trkpt lat="44.04833" lon="5.91268">
        <ele>649.40002441406</ele>
        <time>2021-02-11T10:21:12.000Z</time>
      </trkpt>
      <trkpt lat="44.0483" lon="5.91267">
        <ele>650.20001220703</ele>
        <time>2021-02-11T10:21:14.000Z</time>
      </trkpt>
      <trkpt lat="44.04827" lon="5.91264">
        <ele>651.20001220703</ele>
        <time>2021-02-11T10:21:16.000Z</time>
      </trkpt>
      <trkpt lat="44.04825" lon="5.91262">
        <ele>651.59997558594</ele>
        <time>2021-02-11T10:21:17.000Z</time>
      </trkpt>
      <trkpt lat="44.04819" lon="5.91254">
        <ele>652.40002441406</ele>
        <time>2021-02-11T10:21:21.000Z</time>
      </trkpt>
      <trkpt lat="44.04814" lon="5.9125">
        <ele>652.59997558594</ele>
        <time>2021-02-11T10:21:24.000Z</time>
      </trkpt>
      <trkpt lat="44.04809" lon="5.91248">
        <ele>653.59997558594</ele>
        <time>2021-02-11T10:21:27.000Z</time>
      </trkpt>
      <trkpt lat="44.048" lon="5.91244">
        <ele>654.59997558594</ele>
        <time>2021-02-11T10:21:32.000Z</time>
      </trkpt>
      <trkpt lat="44.04791" lon="5.91243">
        <ele>655.79998779297</ele>
        <time>2021-02-11T10:21:36.000Z</time>
      </trkpt>
      <trkpt lat="44.04787" lon="5.91244">
        <ele>656.40002441406</ele>
        <time>2021-02-11T10:21:38.000Z</time>
      </trkpt>
      <trkpt lat="44.04782" lon="5.91245">
        <ele>656.79998779297</ele>
        <time>2021-02-11T10:21:40.000Z</time>
      </trkpt>
      <trkpt lat="44.04779" lon="5.91244">
        <ele>657.20001220703</ele>
        <time>2021-02-11T10:21:41.000Z</time>
      </trkpt>
      <trkpt lat="44.04776" lon="5.9124">
        <ele>657.79998779297</ele>
        <time>2021-02-11T10:21:43.000Z</time>
      </trkpt>
      <trkpt lat="44.04773" lon="5.91231">
        <ele>658.79998779297</ele>
        <time>2021-02-11T10:21:47.000Z</time>
      </trkpt>
      <trkpt lat="44.04772" lon="5.91229">
        <ele>659</ele>
        <time>2021-02-11T10:21:48.000Z</time>
      </trkpt>
      <trkpt lat="44.04768" lon="5.9123">
        <ele>660.40002441406</ele>
        <time>2021-02-11T10:21:51.000Z</time>
      </trkpt>
      <trkpt lat="44.04763" lon="5.91229">
        <ele>661.59997558594</ele>
        <time>2021-02-11T10:21:54.000Z</time>
      </trkpt>
      <trkpt lat="44.04761" lon="5.91226">
        <ele>662.40002441406</ele>
        <time>2021-02-11T10:21:56.000Z</time>
      </trkpt>
      <trkpt lat="44.04761" lon="5.91223">
        <ele>662.79998779297</ele>
        <time>2021-02-11T10:21:57.000Z</time>
      </trkpt>
      <trkpt lat="44.0476" lon="5.91216">
        <ele>663.20001220703</ele>
        <time>2021-02-11T10:21:59.000Z</time>
      </trkpt>
      <trkpt lat="44.04759" lon="5.9121">
        <ele>663.79998779297</ele>
        <time>2021-02-11T10:22:01.000Z</time>
      </trkpt>
      <trkpt lat="44.04757" lon="5.91207">
        <ele>664</ele>
        <time>2021-02-11T10:22:02.000Z</time>
      </trkpt>
      <trkpt lat="44.04751" lon="5.91196">
        <ele>665.40002441406</ele>
        <time>2021-02-11T10:22:07.000Z</time>
      </trkpt>
      <trkpt lat="44.04751" lon="5.91193">
        <ele>665.59997558594</ele>
        <time>2021-02-11T10:22:08.000Z</time>
      </trkpt>
      <trkpt lat="44.04748" lon="5.91187">
        <ele>666.59997558594</ele>
        <time>2021-02-11T10:22:11.000Z</time>
      </trkpt>
      <trkpt lat="44.04743" lon="5.91181">
        <ele>667.59997558594</ele>
        <time>2021-02-11T10:22:14.000Z</time>
      </trkpt>
      <trkpt lat="44.04741" lon="5.91182">
        <ele>668</ele>
        <time>2021-02-11T10:22:16.000Z</time>
      </trkpt>
      <trkpt lat="44.04741" lon="5.91183">
        <ele>668.20001220703</ele>
        <time>2021-02-11T10:22:17.000Z</time>
      </trkpt>
      <trkpt lat="44.04736" lon="5.9119">
        <ele>668.79998779297</ele>
        <time>2021-02-11T10:22:21.000Z</time>
      </trkpt>
      <trkpt lat="44.04734" lon="5.91191">
        <ele>669</ele>
        <time>2021-02-11T10:22:22.000Z</time>
      </trkpt>
      <trkpt lat="44.04732" lon="5.91192">
        <ele>669.40002441406</ele>
        <time>2021-02-11T10:22:23.000Z</time>
      </trkpt>
      <trkpt lat="44.04731" lon="5.91194">
        <ele>669.79998779297</ele>
        <time>2021-02-11T10:22:24.000Z</time>
      </trkpt>
      <trkpt lat="44.04729" lon="5.91194">
        <ele>670.20001220703</ele>
        <time>2021-02-11T10:22:25.000Z</time>
      </trkpt>
      <trkpt lat="44.04728" lon="5.91196">
        <ele>670.20001220703</ele>
        <time>2021-02-11T10:22:26.000Z</time>
      </trkpt>
      <trkpt lat="44.04724" lon="5.91204">
        <ele>670.79998779297</ele>
        <time>2021-02-11T10:22:29.000Z</time>
      </trkpt>
      <trkpt lat="44.04723" lon="5.91207">
        <ele>671.20001220703</ele>
        <time>2021-02-11T10:22:30.000Z</time>
      </trkpt>
      <trkpt lat="44.04722" lon="5.91214">
        <ele>671.79998779297</ele>
        <time>2021-02-11T10:22:33.000Z</time>
      </trkpt>
      <trkpt lat="44.04721" lon="5.91216">
        <ele>672</ele>
        <time>2021-02-11T10:22:34.000Z</time>
      </trkpt>
      <trkpt lat="44.04719" lon="5.91217">
        <ele>672</ele>
        <time>2021-02-11T10:22:35.000Z</time>
      </trkpt>
      <trkpt lat="44.04707" lon="5.91223">
        <ele>672.40002441406</ele>
        <time>2021-02-11T10:22:41.000Z</time>
      </trkpt>
      <trkpt lat="44.04705" lon="5.91217">
        <ele>672.40002441406</ele>
        <time>2021-02-11T10:22:45.000Z</time>
      </trkpt>
      <trkpt lat="44.04705" lon="5.91216">
        <ele>672.40002441406</ele>
        <time>2021-02-11T10:22:46.000Z</time>
      </trkpt>
      <trkpt lat="44.04704" lon="5.9121">
        <ele>673.20001220703</ele>
        <time>2021-02-11T10:22:49.000Z</time>
      </trkpt>
      <trkpt lat="44.04706" lon="5.91206">
        <ele>673.79998779297</ele>
        <time>2021-02-11T10:22:51.000Z</time>
      </trkpt>
      <trkpt lat="44.04707" lon="5.91194">
        <ele>674.20001220703</ele>
        <time>2021-02-11T10:22:55.000Z</time>
      </trkpt>
      <trkpt lat="44.04705" lon="5.91185">
        <ele>674.79998779297</ele>
        <time>2021-02-11T10:22:59.000Z</time>
      </trkpt>
      <trkpt lat="44.04702" lon="5.91184">
        <ele>674.79998779297</ele>
        <time>2021-02-11T10:23:02.000Z</time>
      </trkpt>
      <trkpt lat="44.04702" lon="5.91185">
        <ele>675</ele>
        <time>2021-02-11T10:23:03.000Z</time>
      </trkpt>
      <trkpt lat="44.04698" lon="5.91191">
        <ele>675.40002441406</ele>
        <time>2021-02-11T10:23:07.000Z</time>
      </trkpt>
      <trkpt lat="44.04696" lon="5.91192">
        <ele>675.79998779297</ele>
        <time>2021-02-11T10:23:08.000Z</time>
      </trkpt>
      <trkpt lat="44.0469" lon="5.91201">
        <ele>676.40002441406</ele>
        <time>2021-02-11T10:23:13.000Z</time>
      </trkpt>
      <trkpt lat="44.04687" lon="5.91205">
        <ele>676.79998779297</ele>
        <time>2021-02-11T10:23:15.000Z</time>
      </trkpt>
      <trkpt lat="44.04685" lon="5.91205">
        <ele>677</ele>
        <time>2021-02-11T10:23:16.000Z</time>
      </trkpt>
      <trkpt lat="44.04682" lon="5.91205">
        <ele>677.40002441406</ele>
        <time>2021-02-11T10:23:18.000Z</time>
      </trkpt>
      <trkpt lat="44.04681" lon="5.91202">
        <ele>677.59997558594</ele>
        <time>2021-02-11T10:23:20.000Z</time>
      </trkpt>
      <trkpt lat="44.04681" lon="5.912">
        <ele>677.79998779297</ele>
        <time>2021-02-11T10:23:21.000Z</time>
      </trkpt>
      <trkpt lat="44.0468" lon="5.91194">
        <ele>678.20001220703</ele>
        <time>2021-02-11T10:23:23.000Z</time>
      </trkpt>
      <trkpt lat="44.0468" lon="5.91188">
        <ele>678.79998779297</ele>
        <time>2021-02-11T10:23:26.000Z</time>
      </trkpt>
      <trkpt lat="44.04679" lon="5.91187">
        <ele>679.20001220703</ele>
        <time>2021-02-11T10:23:27.000Z</time>
      </trkpt>
      <trkpt lat="44.04677" lon="5.91186">
        <ele>679.20001220703</ele>
        <time>2021-02-11T10:23:28.000Z</time>
      </trkpt>
      <trkpt lat="44.04672" lon="5.9119">
        <ele>679.79998779297</ele>
        <time>2021-02-11T10:23:31.000Z</time>
      </trkpt>
      <trkpt lat="44.04671" lon="5.91191">
        <ele>680</ele>
        <time>2021-02-11T10:23:32.000Z</time>
      </trkpt>
      <trkpt lat="44.04663" lon="5.912">
        <ele>680.79998779297</ele>
        <time>2021-02-11T10:23:36.000Z</time>
      </trkpt>
      <trkpt lat="44.04659" lon="5.91201">
        <ele>681.20001220703</ele>
        <time>2021-02-11T10:23:38.000Z</time>
      </trkpt>
      <trkpt lat="44.04658" lon="5.91199">
        <ele>681.59997558594</ele>
        <time>2021-02-11T10:23:39.000Z</time>
      </trkpt>
      <trkpt lat="44.04657" lon="5.91197">
        <ele>681.79998779297</ele>
        <time>2021-02-11T10:23:40.000Z</time>
      </trkpt>
      <trkpt lat="44.04655" lon="5.91188">
        <ele>682.20001220703</ele>
        <time>2021-02-11T10:23:43.000Z</time>
      </trkpt>
      <trkpt lat="44.04655" lon="5.91185">
        <ele>682.40002441406</ele>
        <time>2021-02-11T10:23:44.000Z</time>
      </trkpt>
      <trkpt lat="44.04653" lon="5.91175">
        <ele>683.40002441406</ele>
        <time>2021-02-11T10:23:47.000Z</time>
      </trkpt>
      <trkpt lat="44.04652" lon="5.91171">
        <ele>683.59997558594</ele>
        <time>2021-02-11T10:23:48.000Z</time>
      </trkpt>
      <trkpt lat="44.04647" lon="5.91149">
        <ele>684.59997558594</ele>
        <time>2021-02-11T10:23:53.000Z</time>
      </trkpt>
      <trkpt lat="44.04646" lon="5.91144">
        <ele>684.79998779297</ele>
        <time>2021-02-11T10:23:54.000Z</time>
      </trkpt>
      <trkpt lat="44.04646" lon="5.91119">
        <ele>685.59997558594</ele>
        <time>2021-02-11T10:23:59.000Z</time>
      </trkpt>
      <trkpt lat="44.04647" lon="5.91116">
        <ele>685.59997558594</ele>
        <time>2021-02-11T10:24:00.000Z</time>
      </trkpt>
      <trkpt lat="44.04651" lon="5.91107">
        <ele>686</ele>
        <time>2021-02-11T10:24:03.000Z</time>
      </trkpt>
      <trkpt lat="44.04652" lon="5.911">
        <ele>686</ele>
        <time>2021-02-11T10:24:05.000Z</time>
      </trkpt>
      <trkpt lat="44.04652" lon="5.91088">
        <ele>686.20001220703</ele>
        <time>2021-02-11T10:24:08.000Z</time>
      </trkpt>
      <trkpt lat="44.04646" lon="5.91066">
        <ele>687</ele>
        <time>2021-02-11T10:24:14.000Z</time>
      </trkpt>
      <trkpt lat="44.04645" lon="5.91063">
        <ele>687.40002441406</ele>
        <time>2021-02-11T10:24:15.000Z</time>
      </trkpt>
      <trkpt lat="44.04645" lon="5.91057">
        <ele>688</ele>
        <time>2021-02-11T10:24:17.000Z</time>
      </trkpt>
      <trkpt lat="44.04642" lon="5.91047">
        <ele>688.59997558594</ele>
        <time>2021-02-11T10:24:20.000Z</time>
      </trkpt>
      <trkpt lat="44.0464" lon="5.91046">
        <ele>689.20001220703</ele>
        <time>2021-02-11T10:24:21.000Z</time>
      </trkpt>
      <trkpt lat="44.04636" lon="5.91049">
        <ele>690.20001220703</ele>
        <time>2021-02-11T10:24:23.000Z</time>
      </trkpt>
      <trkpt lat="44.04633" lon="5.91053">
        <ele>691.40002441406</ele>
        <time>2021-02-11T10:24:25.000Z</time>
      </trkpt>
      <trkpt lat="44.04629" lon="5.91059">
        <ele>692</ele>
        <time>2021-02-11T10:24:27.000Z</time>
      </trkpt>
      <trkpt lat="44.04625" lon="5.91065">
        <ele>692.40002441406</ele>
        <time>2021-02-11T10:24:29.000Z</time>
      </trkpt>
      <trkpt lat="44.04623" lon="5.91067">
        <ele>693</ele>
        <time>2021-02-11T10:24:30.000Z</time>
      </trkpt>
      <trkpt lat="44.04615" lon="5.91079">
        <ele>694</ele>
        <time>2021-02-11T10:24:34.000Z</time>
      </trkpt>
      <trkpt lat="44.04612" lon="5.91087">
        <ele>694.20001220703</ele>
        <time>2021-02-11T10:24:36.000Z</time>
      </trkpt>
      <trkpt lat="44.04607" lon="5.91098">
        <ele>695.40002441406</ele>
        <time>2021-02-11T10:24:39.000Z</time>
      </trkpt>
      <trkpt lat="44.04602" lon="5.91108">
        <ele>696</ele>
        <time>2021-02-11T10:24:42.000Z</time>
      </trkpt>
      <trkpt lat="44.04596" lon="5.91119">
        <ele>696.59997558594</ele>
        <time>2021-02-11T10:24:45.000Z</time>
      </trkpt>
      <trkpt lat="44.04591" lon="5.91133">
        <ele>697</ele>
        <time>2021-02-11T10:24:48.000Z</time>
      </trkpt>
      <trkpt lat="44.04586" lon="5.9115">
        <ele>697.20001220703</ele>
        <time>2021-02-11T10:24:52.000Z</time>
      </trkpt>
      <trkpt lat="44.0458" lon="5.91161">
        <ele>697.40002441406</ele>
        <time>2021-02-11T10:24:55.000Z</time>
      </trkpt>
      <trkpt lat="44.04578" lon="5.91161">
        <ele>697.40002441406</ele>
        <time>2021-02-11T10:24:56.000Z</time>
      </trkpt>
      <trkpt lat="44.04575" lon="5.91158">
        <ele>697.59997558594</ele>
        <time>2021-02-11T10:24:58.000Z</time>
      </trkpt>
      <trkpt lat="44.04575" lon="5.91155">
        <ele>698.20001220703</ele>
        <time>2021-02-11T10:24:59.000Z</time>
      </trkpt>
      <trkpt lat="44.04577" lon="5.91148">
        <ele>698</ele>
        <time>2021-02-11T10:25:01.000Z</time>
      </trkpt>
      <trkpt lat="44.04578" lon="5.91135">
        <ele>698.40002441406</ele>
        <time>2021-02-11T10:25:04.000Z</time>
      </trkpt>
      <trkpt lat="44.04578" lon="5.91124">
        <ele>699</ele>
        <time>2021-02-11T10:25:07.000Z</time>
      </trkpt>
      <trkpt lat="44.04579" lon="5.9112">
        <ele>699.20001220703</ele>
        <time>2021-02-11T10:25:08.000Z</time>
      </trkpt>
      <trkpt lat="44.04581" lon="5.91117">
        <ele>699.40002441406</ele>
        <time>2021-02-11T10:25:09.000Z</time>
      </trkpt>
      <trkpt lat="44.04586" lon="5.91098">
        <ele>700</ele>
        <time>2021-02-11T10:25:14.000Z</time>
      </trkpt>
      <trkpt lat="44.04587" lon="5.91094">
        <ele>700.20001220703</ele>
        <time>2021-02-11T10:25:15.000Z</time>
      </trkpt>
      <trkpt lat="44.04591" lon="5.91072">
        <ele>700.79998779297</ele>
        <time>2021-02-11T10:25:21.000Z</time>
      </trkpt>
      <trkpt lat="44.04592" lon="5.91066">
        <ele>701.20001220703</ele>
        <time>2021-02-11T10:25:25.000Z</time>
      </trkpt>
      <trkpt lat="44.04592" lon="5.91066">
        <ele>701.40002441406</ele>
        <time>2021-02-11T10:25:26.000Z</time>
      </trkpt>
      <trkpt lat="44.04592" lon="5.91066">
        <ele>702</ele>
        <time>2021-02-11T10:25:49.000Z</time>
      </trkpt>
      <trkpt lat="44.04592" lon="5.91066">
        <ele>702.20001220703</ele>
        <time>2021-02-11T10:26:13.000Z</time>
      </trkpt>
      <trkpt lat="44.04592" lon="5.91066">
        <ele>702.20001220703</ele>
        <time>2021-02-11T10:26:24.000Z</time>
      </trkpt>
      <trkpt lat="44.04592" lon="5.91066">
        <ele>702.79998779297</ele>
        <time>2021-02-11T10:26:43.000Z</time>
      </trkpt>
      <trkpt lat="44.04592" lon="5.91066">
        <ele>702.20001220703</ele>
        <time>2021-02-11T10:27:14.000Z</time>
      </trkpt>
      <trkpt lat="44.04592" lon="5.91066">
        <ele>702.20001220703</ele>
        <time>2021-02-11T10:27:27.000Z</time>
      </trkpt>
      <trkpt lat="44.04592" lon="5.91066">
        <ele>701.79998779297</ele>
        <time>2021-02-11T10:27:49.000Z</time>
      </trkpt>
      <trkpt lat="44.04594" lon="5.91056">
        <ele>702</ele>
        <time>2021-02-11T10:27:59.000Z</time>
      </trkpt>
      <trkpt lat="44.04597" lon="5.91036">
        <ele>702</ele>
        <time>2021-02-11T10:28:04.000Z</time>
      </trkpt>
      <trkpt lat="44.04603" lon="5.91011">
        <ele>702</ele>
        <time>2021-02-11T10:28:10.000Z</time>
      </trkpt>
      <trkpt lat="44.04605" lon="5.90998">
        <ele>702</ele>
        <time>2021-02-11T10:28:13.000Z</time>
      </trkpt>
      <trkpt lat="44.04603" lon="5.90993">
        <ele>702</ele>
        <time>2021-02-11T10:28:15.000Z</time>
      </trkpt>
      <trkpt lat="44.046" lon="5.91">
        <ele>702.40002441406</ele>
        <time>2021-02-11T10:28:18.000Z</time>
      </trkpt>
      <trkpt lat="44.04594" lon="5.91016">
        <ele>703</ele>
        <time>2021-02-11T10:28:22.000Z</time>
      </trkpt>
      <trkpt lat="44.04591" lon="5.91019">
        <ele>703.40002441406</ele>
        <time>2021-02-11T10:28:23.000Z</time>
      </trkpt>
      <trkpt lat="44.04588" lon="5.91022">
        <ele>703.59997558594</ele>
        <time>2021-02-11T10:28:24.000Z</time>
      </trkpt>
      <trkpt lat="44.04585" lon="5.91026">
        <ele>704</ele>
        <time>2021-02-11T10:28:26.000Z</time>
      </trkpt>
      <trkpt lat="44.04584" lon="5.91035">
        <ele>704</ele>
        <time>2021-02-11T10:28:28.000Z</time>
      </trkpt>
      <trkpt lat="44.0458" lon="5.91047">
        <ele>704.20001220703</ele>
        <time>2021-02-11T10:28:31.000Z</time>
      </trkpt>
      <trkpt lat="44.04576" lon="5.91054">
        <ele>704.59997558594</ele>
        <time>2021-02-11T10:28:33.000Z</time>
      </trkpt>
      <trkpt lat="44.04573" lon="5.91065">
        <ele>705</ele>
        <time>2021-02-11T10:28:36.000Z</time>
      </trkpt>
      <trkpt lat="44.04568" lon="5.91082">
        <ele>705.79998779297</ele>
        <time>2021-02-11T10:28:40.000Z</time>
      </trkpt>
      <trkpt lat="44.04565" lon="5.91085">
        <ele>706.59997558594</ele>
        <time>2021-02-11T10:28:41.000Z</time>
      </trkpt>
      <trkpt lat="44.04563" lon="5.91089">
        <ele>707.20001220703</ele>
        <time>2021-02-11T10:28:42.000Z</time>
      </trkpt>
      <trkpt lat="44.04559" lon="5.91102">
        <ele>708</ele>
        <time>2021-02-11T10:28:45.000Z</time>
      </trkpt>
      <trkpt lat="44.04556" lon="5.9111">
        <ele>708.20001220703</ele>
        <time>2021-02-11T10:28:47.000Z</time>
      </trkpt>
      <trkpt lat="44.04551" lon="5.91112">
        <ele>708.79998779297</ele>
        <time>2021-02-11T10:28:49.000Z</time>
      </trkpt>
      <trkpt lat="44.0455" lon="5.91106">
        <ele>709.20001220703</ele>
        <time>2021-02-11T10:28:52.000Z</time>
      </trkpt>
      <trkpt lat="44.04551" lon="5.91097">
        <ele>709.40002441406</ele>
        <time>2021-02-11T10:28:55.000Z</time>
      </trkpt>
      <trkpt lat="44.04551" lon="5.91094">
        <ele>709.59997558594</ele>
        <time>2021-02-11T10:28:56.000Z</time>
      </trkpt>
      <trkpt lat="44.04551" lon="5.91091">
        <ele>710.20001220703</ele>
        <time>2021-02-11T10:28:57.000Z</time>
      </trkpt>
      <trkpt lat="44.04551" lon="5.91087">
        <ele>710.40002441406</ele>
        <time>2021-02-11T10:28:58.000Z</time>
      </trkpt>
      <trkpt lat="44.04553" lon="5.91068">
        <ele>710.79998779297</ele>
        <time>2021-02-11T10:29:03.000Z</time>
      </trkpt>
      <trkpt lat="44.04554" lon="5.91053">
        <ele>711.59997558594</ele>
        <time>2021-02-11T10:29:07.000Z</time>
      </trkpt>
      <trkpt lat="44.04554" lon="5.91049">
        <ele>712</ele>
        <time>2021-02-11T10:29:08.000Z</time>
      </trkpt>
      <trkpt lat="44.04557" lon="5.91031">
        <ele>712.79998779297</ele>
        <time>2021-02-11T10:29:12.000Z</time>
      </trkpt>
      <trkpt lat="44.04558" lon="5.91027">
        <ele>713</ele>
        <time>2021-02-11T10:29:13.000Z</time>
      </trkpt>
      <trkpt lat="44.04562" lon="5.91004">
        <ele>713.40002441406</ele>
        <time>2021-02-11T10:29:19.000Z</time>
      </trkpt>
      <trkpt lat="44.04564" lon="5.90977">
        <ele>713.79998779297</ele>
        <time>2021-02-11T10:29:25.000Z</time>
      </trkpt>
      <trkpt lat="44.04562" lon="5.9097">
        <ele>713.79998779297</ele>
        <time>2021-02-11T10:29:27.000Z</time>
      </trkpt>
      <trkpt lat="44.0456" lon="5.90959">
        <ele>714.40002441406</ele>
        <time>2021-02-11T10:29:30.000Z</time>
      </trkpt>
      <trkpt lat="44.04561" lon="5.9095">
        <ele>714.79998779297</ele>
        <time>2021-02-11T10:29:32.000Z</time>
      </trkpt>
      <trkpt lat="44.04563" lon="5.90938">
        <ele>715.40002441406</ele>
        <time>2021-02-11T10:29:35.000Z</time>
      </trkpt>
      <trkpt lat="44.04564" lon="5.90929">
        <ele>715.79998779297</ele>
        <time>2021-02-11T10:29:37.000Z</time>
      </trkpt>
      <trkpt lat="44.04565" lon="5.90918">
        <ele>716.40002441406</ele>
        <time>2021-02-11T10:29:40.000Z</time>
      </trkpt>
      <trkpt lat="44.04564" lon="5.90906">
        <ele>716.40002441406</ele>
        <time>2021-02-11T10:29:44.000Z</time>
      </trkpt>
      <trkpt lat="44.04561" lon="5.90909">
        <ele>716.59997558594</ele>
        <time>2021-02-11T10:29:47.000Z</time>
      </trkpt>
      <trkpt lat="44.04557" lon="5.90916">
        <ele>716.79998779297</ele>
        <time>2021-02-11T10:29:50.000Z</time>
      </trkpt>
      <trkpt lat="44.04556" lon="5.90923">
        <ele>716.79998779297</ele>
        <time>2021-02-11T10:29:52.000Z</time>
      </trkpt>
      <trkpt lat="44.04555" lon="5.90927">
        <ele>717</ele>
        <time>2021-02-11T10:29:53.000Z</time>
      </trkpt>
      <trkpt lat="44.0455" lon="5.90942">
        <ele>718.20001220703</ele>
        <time>2021-02-11T10:29:57.000Z</time>
      </trkpt>
      <trkpt lat="44.04547" lon="5.90954">
        <ele>719.40002441406</ele>
        <time>2021-02-11T10:30:00.000Z</time>
      </trkpt>
      <trkpt lat="44.0454" lon="5.90972">
        <ele>720</ele>
        <time>2021-02-11T10:30:05.000Z</time>
      </trkpt>
      <trkpt lat="44.04538" lon="5.90973">
        <ele>720.20001220703</ele>
        <time>2021-02-11T10:30:06.000Z</time>
      </trkpt>
      <trkpt lat="44.04538" lon="5.90969">
        <ele>720.59997558594</ele>
        <time>2021-02-11T10:30:08.000Z</time>
      </trkpt>
      <trkpt lat="44.04538" lon="5.90966">
        <ele>721</ele>
        <time>2021-02-11T10:30:09.000Z</time>
      </trkpt>
      <trkpt lat="44.04539" lon="5.90962">
        <ele>721.20001220703</ele>
        <time>2021-02-11T10:30:10.000Z</time>
      </trkpt>
      <trkpt lat="44.0454" lon="5.90954">
        <ele>721.59997558594</ele>
        <time>2021-02-11T10:30:12.000Z</time>
      </trkpt>
      <trkpt lat="44.04541" lon="5.90945">
        <ele>722.20001220703</ele>
        <time>2021-02-11T10:30:14.000Z</time>
      </trkpt>
      <trkpt lat="44.04542" lon="5.90938">
        <ele>722.79998779297</ele>
        <time>2021-02-11T10:30:16.000Z</time>
      </trkpt>
      <trkpt lat="44.04542" lon="5.90926">
        <ele>723</ele>
        <time>2021-02-11T10:30:19.000Z</time>
      </trkpt>
      <trkpt lat="44.04541" lon="5.90918">
        <ele>723</ele>
        <time>2021-02-11T10:30:21.000Z</time>
      </trkpt>
      <trkpt lat="44.04538" lon="5.9091">
        <ele>723.20001220703</ele>
        <time>2021-02-11T10:30:23.000Z</time>
      </trkpt>
      <trkpt lat="44.04526" lon="5.90877">
        <ele>723.20001220703</ele>
        <time>2021-02-11T10:30:30.000Z</time>
      </trkpt>
      <trkpt lat="44.0451" lon="5.90854">
        <ele>723.79998779297</ele>
        <time>2021-02-11T10:30:37.000Z</time>
      </trkpt>
      <trkpt lat="44.04503" lon="5.90843">
        <ele>724</ele>
        <time>2021-02-11T10:30:42.000Z</time>
      </trkpt>
      <trkpt lat="44.04503" lon="5.90836">
        <ele>724</ele>
        <time>2021-02-11T10:30:44.000Z</time>
      </trkpt>
      <trkpt lat="44.04504" lon="5.90828">
        <ele>725.59997558594</ele>
        <time>2021-02-11T10:30:46.000Z</time>
      </trkpt>
      <trkpt lat="44.04505" lon="5.9082">
        <ele>727.20001220703</ele>
        <time>2021-02-11T10:30:48.000Z</time>
      </trkpt>
      <trkpt lat="44.04508" lon="5.9081">
        <ele>728.20001220703</ele>
        <time>2021-02-11T10:30:51.000Z</time>
      </trkpt>
      <trkpt lat="44.04512" lon="5.90803">
        <ele>728.40002441406</ele>
        <time>2021-02-11T10:30:53.000Z</time>
      </trkpt>
      <trkpt lat="44.04517" lon="5.90792">
        <ele>728.59997558594</ele>
        <time>2021-02-11T10:30:56.000Z</time>
      </trkpt>
      <trkpt lat="44.04531" lon="5.90773">
        <ele>729</ele>
        <time>2021-02-11T10:31:01.000Z</time>
      </trkpt>
      <trkpt lat="44.04542" lon="5.90755">
        <ele>729</ele>
        <time>2021-02-11T10:31:05.000Z</time>
      </trkpt>
      <trkpt lat="44.04544" lon="5.90751">
        <ele>729</ele>
        <time>2021-02-11T10:31:06.000Z</time>
      </trkpt>
      <trkpt lat="44.04556" lon="5.9073">
        <ele>727.40002441406</ele>
        <time>2021-02-11T10:31:11.000Z</time>
      </trkpt>
      <trkpt lat="44.04561" lon="5.90721">
        <ele>727.40002441406</ele>
        <time>2021-02-11T10:31:13.000Z</time>
      </trkpt>
      <trkpt lat="44.0457" lon="5.90711">
        <ele>727.20001220703</ele>
        <time>2021-02-11T10:31:16.000Z</time>
      </trkpt>
      <trkpt lat="44.04576" lon="5.90696">
        <ele>727.20001220703</ele>
        <time>2021-02-11T10:31:20.000Z</time>
      </trkpt>
      <trkpt lat="44.04584" lon="5.90674">
        <ele>727.59997558594</ele>
        <time>2021-02-11T10:31:26.000Z</time>
      </trkpt>
      <trkpt lat="44.04592" lon="5.90663">
        <ele>728.40002441406</ele>
        <time>2021-02-11T10:31:29.000Z</time>
      </trkpt>
      <trkpt lat="44.04596" lon="5.90652">
        <ele>729</ele>
        <time>2021-02-11T10:31:32.000Z</time>
      </trkpt>
      <trkpt lat="44.04596" lon="5.9065">
        <ele>729</ele>
        <time>2021-02-11T10:31:33.000Z</time>
      </trkpt>
      <trkpt lat="44.04594" lon="5.90647">
        <ele>729.40002441406</ele>
        <time>2021-02-11T10:31:36.000Z</time>
      </trkpt>
      <trkpt lat="44.04594" lon="5.90647">
        <ele>729.59997558594</ele>
        <time>2021-02-11T10:31:37.000Z</time>
      </trkpt>
      <trkpt lat="44.04594" lon="5.90649">
        <ele>730.79998779297</ele>
        <time>2021-02-11T10:31:41.000Z</time>
      </trkpt>
      <trkpt lat="44.04593" lon="5.90651">
        <ele>731.20001220703</ele>
        <time>2021-02-11T10:31:42.000Z</time>
      </trkpt>
      <trkpt lat="44.04593" lon="5.90652">
        <ele>731.20001220703</ele>
        <time>2021-02-11T10:31:43.000Z</time>
      </trkpt>
      <trkpt lat="44.0459" lon="5.90654">
        <ele>731.59997558594</ele>
        <time>2021-02-11T10:31:46.000Z</time>
      </trkpt>
      <trkpt lat="44.04588" lon="5.90655">
        <ele>731.59997558594</ele>
        <time>2021-02-11T10:31:48.000Z</time>
      </trkpt>
      <trkpt lat="44.04588" lon="5.90656">
        <ele>731.79998779297</ele>
        <time>2021-02-11T10:31:49.000Z</time>
      </trkpt>
      <trkpt lat="44.04585" lon="5.90658">
        <ele>732.20001220703</ele>
        <time>2021-02-11T10:31:53.000Z</time>
      </trkpt>
      <trkpt lat="44.04582" lon="5.90659">
        <ele>732.79998779297</ele>
        <time>2021-02-11T10:31:55.000Z</time>
      </trkpt>
      <trkpt lat="44.04581" lon="5.90659">
        <ele>733.20001220703</ele>
        <time>2021-02-11T10:31:56.000Z</time>
      </trkpt>
      <trkpt lat="44.04577" lon="5.90661">
        <ele>733.79998779297</ele>
        <time>2021-02-11T10:31:59.000Z</time>
      </trkpt>
      <trkpt lat="44.04573" lon="5.90663">
        <ele>734.40002441406</ele>
        <time>2021-02-11T10:32:01.000Z</time>
      </trkpt>
      <trkpt lat="44.0457" lon="5.90665">
        <ele>735.20001220703</ele>
        <time>2021-02-11T10:32:03.000Z</time>
      </trkpt>
      <trkpt lat="44.04565" lon="5.9067">
        <ele>736.20001220703</ele>
        <time>2021-02-11T10:32:06.000Z</time>
      </trkpt>
      <trkpt lat="44.04563" lon="5.90671">
        <ele>736.59997558594</ele>
        <time>2021-02-11T10:32:07.000Z</time>
      </trkpt>
      <trkpt lat="44.0456" lon="5.90675">
        <ele>737.40002441406</ele>
        <time>2021-02-11T10:32:09.000Z</time>
      </trkpt>
      <trkpt lat="44.04552" lon="5.90679">
        <ele>738.59997558594</ele>
        <time>2021-02-11T10:32:13.000Z</time>
      </trkpt>
      <trkpt lat="44.04549" lon="5.9068">
        <ele>738.59997558594</ele>
        <time>2021-02-11T10:32:14.000Z</time>
      </trkpt>
      <trkpt lat="44.04543" lon="5.90684">
        <ele>739.79998779297</ele>
        <time>2021-02-11T10:32:17.000Z</time>
      </trkpt>
      <trkpt lat="44.04539" lon="5.90687">
        <ele>740.79998779297</ele>
        <time>2021-02-11T10:32:19.000Z</time>
      </trkpt>
      <trkpt lat="44.04537" lon="5.90689">
        <ele>741.20001220703</ele>
        <time>2021-02-11T10:32:20.000Z</time>
      </trkpt>
      <trkpt lat="44.04532" lon="5.90694">
        <ele>742</ele>
        <time>2021-02-11T10:32:22.000Z</time>
      </trkpt>
      <trkpt lat="44.04525" lon="5.90699">
        <ele>743.20001220703</ele>
        <time>2021-02-11T10:32:25.000Z</time>
      </trkpt>
      <trkpt lat="44.04522" lon="5.90702">
        <ele>743.59997558594</ele>
        <time>2021-02-11T10:32:26.000Z</time>
      </trkpt>
      <trkpt lat="44.04519" lon="5.90707">
        <ele>744.20001220703</ele>
        <time>2021-02-11T10:32:28.000Z</time>
      </trkpt>
      <trkpt lat="44.0451" lon="5.90715">
        <ele>745.20001220703</ele>
        <time>2021-02-11T10:32:32.000Z</time>
      </trkpt>
      <trkpt lat="44.04507" lon="5.90717">
        <ele>745.40002441406</ele>
        <time>2021-02-11T10:32:33.000Z</time>
      </trkpt>
      <trkpt lat="44.04495" lon="5.90727">
        <ele>746.79998779297</ele>
        <time>2021-02-11T10:32:38.000Z</time>
      </trkpt>
      <trkpt lat="44.04491" lon="5.90731">
        <ele>748.79998779297</ele>
        <time>2021-02-11T10:32:40.000Z</time>
      </trkpt>
      <trkpt lat="44.04483" lon="5.90739">
        <ele>749.79998779297</ele>
        <time>2021-02-11T10:32:43.000Z</time>
      </trkpt>
      <trkpt lat="44.04478" lon="5.90742">
        <ele>750.59997558594</ele>
        <time>2021-02-11T10:32:45.000Z</time>
      </trkpt>
      <trkpt lat="44.04476" lon="5.90744">
        <ele>751</ele>
        <time>2021-02-11T10:32:46.000Z</time>
      </trkpt>
      <trkpt lat="44.04469" lon="5.90752">
        <ele>752.40002441406</ele>
        <time>2021-02-11T10:32:49.000Z</time>
      </trkpt>
      <trkpt lat="44.04466" lon="5.90754">
        <ele>753</ele>
        <time>2021-02-11T10:32:51.000Z</time>
      </trkpt>
      <trkpt lat="44.04464" lon="5.90756">
        <ele>753.40002441406</ele>
        <time>2021-02-11T10:32:52.000Z</time>
      </trkpt>
      <trkpt lat="44.04462" lon="5.90758">
        <ele>754.40002441406</ele>
        <time>2021-02-11T10:32:54.000Z</time>
      </trkpt>
      <trkpt lat="44.0446" lon="5.90759">
        <ele>755.40002441406</ele>
        <time>2021-02-11T10:32:56.000Z</time>
      </trkpt>
      <trkpt lat="44.0446" lon="5.90759">
        <ele>755.59997558594</ele>
        <time>2021-02-11T10:32:57.000Z</time>
      </trkpt>
      <trkpt lat="44.0446" lon="5.90759">
        <ele>756.20001220703</ele>
        <time>2021-02-11T10:33:09.000Z</time>
      </trkpt>
      <trkpt lat="44.04459" lon="5.9076">
        <ele>756.20001220703</ele>
        <time>2021-02-11T10:33:28.000Z</time>
      </trkpt>
      <trkpt lat="44.04458" lon="5.90762">
        <ele>755.79998779297</ele>
        <time>2021-02-11T10:33:44.000Z</time>
      </trkpt>
      <trkpt lat="44.04455" lon="5.90767">
        <ele>755.59997558594</ele>
        <time>2021-02-11T10:33:49.000Z</time>
      </trkpt>
      <trkpt lat="44.04448" lon="5.9078">
        <ele>755.59997558594</ele>
        <time>2021-02-11T10:33:54.000Z</time>
      </trkpt>
      <trkpt lat="44.04441" lon="5.90794">
        <ele>755.20001220703</ele>
        <time>2021-02-11T10:34:00.000Z</time>
      </trkpt>
      <trkpt lat="44.04435" lon="5.9081">
        <ele>755.20001220703</ele>
        <time>2021-02-11T10:34:05.000Z</time>
      </trkpt>
      <trkpt lat="44.04435" lon="5.90827">
        <ele>754.79998779297</ele>
        <time>2021-02-11T10:34:08.000Z</time>
      </trkpt>
      <trkpt lat="44.04435" lon="5.90835">
        <ele>754.59997558594</ele>
        <time>2021-02-11T10:34:09.000Z</time>
      </trkpt>
      <trkpt lat="44.04439" lon="5.90853">
        <ele>753.79998779297</ele>
        <time>2021-02-11T10:34:12.000Z</time>
      </trkpt>
      <trkpt lat="44.0444" lon="5.90858">
        <ele>753.79998779297</ele>
        <time>2021-02-11T10:34:13.000Z</time>
      </trkpt>
      <trkpt lat="44.04448" lon="5.90884">
        <ele>752.79998779297</ele>
        <time>2021-02-11T10:34:18.000Z</time>
      </trkpt>
      <trkpt lat="44.04459" lon="5.90909">
        <ele>752.40002441406</ele>
        <time>2021-02-11T10:34:23.000Z</time>
      </trkpt>
      <trkpt lat="44.04464" lon="5.90924">
        <ele>752.40002441406</ele>
        <time>2021-02-11T10:34:26.000Z</time>
      </trkpt>
      <trkpt lat="44.04466" lon="5.90936">
        <ele>752.20001220703</ele>
        <time>2021-02-11T10:34:28.000Z</time>
      </trkpt>
      <trkpt lat="44.04469" lon="5.9096">
        <ele>752.20001220703</ele>
        <time>2021-02-11T10:34:32.000Z</time>
      </trkpt>
      <trkpt lat="44.04469" lon="5.90966">
        <ele>752.20001220703</ele>
        <time>2021-02-11T10:34:33.000Z</time>
      </trkpt>
      <trkpt lat="44.04468" lon="5.90991">
        <ele>751.20001220703</ele>
        <time>2021-02-11T10:34:38.000Z</time>
      </trkpt>
      <trkpt lat="44.04466" lon="5.91003">
        <ele>750.40002441406</ele>
        <time>2021-02-11T10:34:40.000Z</time>
      </trkpt>
      <trkpt lat="44.04462" lon="5.91014">
        <ele>750.20001220703</ele>
        <time>2021-02-11T10:34:42.000Z</time>
      </trkpt>
      <trkpt lat="44.04459" lon="5.91037">
        <ele>749.40002441406</ele>
        <time>2021-02-11T10:34:46.000Z</time>
      </trkpt>
      <trkpt lat="44.04457" lon="5.91042">
        <ele>749</ele>
        <time>2021-02-11T10:34:47.000Z</time>
      </trkpt>
      <trkpt lat="44.04448" lon="5.91064">
        <ele>748.20001220703</ele>
        <time>2021-02-11T10:34:52.000Z</time>
      </trkpt>
      <trkpt lat="44.04447" lon="5.91068">
        <ele>748</ele>
        <time>2021-02-11T10:34:53.000Z</time>
      </trkpt>
      <trkpt lat="44.04444" lon="5.91072">
        <ele>748</ele>
        <time>2021-02-11T10:34:54.000Z</time>
      </trkpt>
      <trkpt lat="44.04438" lon="5.91082">
        <ele>747.79998779297</ele>
        <time>2021-02-11T10:34:57.000Z</time>
      </trkpt>
      <trkpt lat="44.04435" lon="5.91084">
        <ele>747.79998779297</ele>
        <time>2021-02-11T10:34:58.000Z</time>
      </trkpt>
      <trkpt lat="44.04427" lon="5.91089">
        <ele>747.59997558594</ele>
        <time>2021-02-11T10:35:01.000Z</time>
      </trkpt>
      <trkpt lat="44.04413" lon="5.91103">
        <ele>748</ele>
        <time>2021-02-11T10:35:06.000Z</time>
      </trkpt>
      <trkpt lat="44.044" lon="5.9111">
        <ele>749</ele>
        <time>2021-02-11T10:35:11.000Z</time>
      </trkpt>
      <trkpt lat="44.04397" lon="5.91111">
        <ele>749</ele>
        <time>2021-02-11T10:35:12.000Z</time>
      </trkpt>
      <trkpt lat="44.04386" lon="5.91117">
        <ele>749.40002441406</ele>
        <time>2021-02-11T10:35:16.000Z</time>
      </trkpt>
      <trkpt lat="44.0438" lon="5.91118">
        <ele>750</ele>
        <time>2021-02-11T10:35:19.000Z</time>
      </trkpt>
      <trkpt lat="44.04378" lon="5.91119">
        <ele>750.20001220703</ele>
        <time>2021-02-11T10:35:20.000Z</time>
      </trkpt>
      <trkpt lat="44.04375" lon="5.91121">
        <ele>750.59997558594</ele>
        <time>2021-02-11T10:35:21.000Z</time>
      </trkpt>
      <trkpt lat="44.04369" lon="5.91124">
        <ele>751.20001220703</ele>
        <time>2021-02-11T10:35:23.000Z</time>
      </trkpt>
      <trkpt lat="44.04366" lon="5.91125">
        <ele>751.79998779297</ele>
        <time>2021-02-11T10:35:24.000Z</time>
      </trkpt>
      <trkpt lat="44.04363" lon="5.91126">
        <ele>752.40002441406</ele>
        <time>2021-02-11T10:35:25.000Z</time>
      </trkpt>
      <trkpt lat="44.04361" lon="5.91127">
        <ele>752.79998779297</ele>
        <time>2021-02-11T10:35:26.000Z</time>
      </trkpt>
      <trkpt lat="44.04355" lon="5.91135">
        <ele>753.20001220703</ele>
        <time>2021-02-11T10:35:29.000Z</time>
      </trkpt>
      <trkpt lat="44.04352" lon="5.91138">
        <ele>753.40002441406</ele>
        <time>2021-02-11T10:35:30.000Z</time>
      </trkpt>
      <trkpt lat="44.04344" lon="5.9115">
        <ele>754</ele>
        <time>2021-02-11T10:35:33.000Z</time>
      </trkpt>
      <trkpt lat="44.04343" lon="5.91154">
        <ele>754</ele>
        <time>2021-02-11T10:35:34.000Z</time>
      </trkpt>
      <trkpt lat="44.04335" lon="5.91178">
        <ele>754.40002441406</ele>
        <time>2021-02-11T10:35:40.000Z</time>
      </trkpt>
      <trkpt lat="44.04332" lon="5.91185">
        <ele>754.59997558594</ele>
        <time>2021-02-11T10:35:42.000Z</time>
      </trkpt>
      <trkpt lat="44.04328" lon="5.91188">
        <ele>754.59997558594</ele>
        <time>2021-02-11T10:35:44.000Z</time>
      </trkpt>
      <trkpt lat="44.04325" lon="5.91185">
        <ele>754.79998779297</ele>
        <time>2021-02-11T10:35:46.000Z</time>
      </trkpt>
      <trkpt lat="44.04322" lon="5.91179">
        <ele>755.20001220703</ele>
        <time>2021-02-11T10:35:49.000Z</time>
      </trkpt>
      <trkpt lat="44.04321" lon="5.91177">
        <ele>755.79998779297</ele>
        <time>2021-02-11T10:35:50.000Z</time>
      </trkpt>
      <trkpt lat="44.04318" lon="5.91172">
        <ele>756.79998779297</ele>
        <time>2021-02-11T10:35:53.000Z</time>
      </trkpt>
      <trkpt lat="44.04316" lon="5.91168">
        <ele>757.40002441406</ele>
        <time>2021-02-11T10:35:55.000Z</time>
      </trkpt>
      <trkpt lat="44.04314" lon="5.91164">
        <ele>758.20001220703</ele>
        <time>2021-02-11T10:35:57.000Z</time>
      </trkpt>
      <trkpt lat="44.04312" lon="5.91157">
        <ele>759.40002441406</ele>
        <time>2021-02-11T10:36:00.000Z</time>
      </trkpt>
      <trkpt lat="44.04313" lon="5.91155">
        <ele>759.79998779297</ele>
        <time>2021-02-11T10:36:01.000Z</time>
      </trkpt>
      <trkpt lat="44.04313" lon="5.91152">
        <ele>761</ele>
        <time>2021-02-11T10:36:02.000Z</time>
      </trkpt>
      <trkpt lat="44.04314" lon="5.91147">
        <ele>762</ele>
        <time>2021-02-11T10:36:04.000Z</time>
      </trkpt>
      <trkpt lat="44.04315" lon="5.91142">
        <ele>763</ele>
        <time>2021-02-11T10:36:06.000Z</time>
      </trkpt>
      <trkpt lat="44.04316" lon="5.91135">
        <ele>764.40002441406</ele>
        <time>2021-02-11T10:36:09.000Z</time>
      </trkpt>
      <trkpt lat="44.04317" lon="5.91125">
        <ele>765.20001220703</ele>
        <time>2021-02-11T10:36:13.000Z</time>
      </trkpt>
      <trkpt lat="44.04318" lon="5.91123">
        <ele>765.59997558594</ele>
        <time>2021-02-11T10:36:14.000Z</time>
      </trkpt>
      <trkpt lat="44.04319" lon="5.9111">
        <ele>766.59997558594</ele>
        <time>2021-02-11T10:36:19.000Z</time>
      </trkpt>
      <trkpt lat="44.0432" lon="5.91103">
        <ele>767.79998779297</ele>
        <time>2021-02-11T10:36:22.000Z</time>
      </trkpt>
      <trkpt lat="44.04321" lon="5.91095">
        <ele>768.79998779297</ele>
        <time>2021-02-11T10:36:25.000Z</time>
      </trkpt>
      <trkpt lat="44.04322" lon="5.91085">
        <ele>770.20001220703</ele>
        <time>2021-02-11T10:36:29.000Z</time>
      </trkpt>
      <trkpt lat="44.04322" lon="5.91079">
        <ele>771.40002441406</ele>
        <time>2021-02-11T10:36:31.000Z</time>
      </trkpt>
      <trkpt lat="44.04322" lon="5.91077">
        <ele>771.79998779297</ele>
        <time>2021-02-11T10:36:32.000Z</time>
      </trkpt>
      <trkpt lat="44.04322" lon="5.91072">
        <ele>772.79998779297</ele>
        <time>2021-02-11T10:36:34.000Z</time>
      </trkpt>
      <trkpt lat="44.04322" lon="5.91067">
        <ele>774</ele>
        <time>2021-02-11T10:36:36.000Z</time>
      </trkpt>
      <trkpt lat="44.04321" lon="5.91062">
        <ele>774.79998779297</ele>
        <time>2021-02-11T10:36:38.000Z</time>
      </trkpt>
      <trkpt lat="44.04321" lon="5.91059">
        <ele>775.20001220703</ele>
        <time>2021-02-11T10:36:39.000Z</time>
      </trkpt>
      <trkpt lat="44.0432" lon="5.91051">
        <ele>776.40002441406</ele>
        <time>2021-02-11T10:36:42.000Z</time>
      </trkpt>
      <trkpt lat="44.0432" lon="5.91044">
        <ele>777.59997558594</ele>
        <time>2021-02-11T10:36:45.000Z</time>
      </trkpt>
      <trkpt lat="44.0432" lon="5.91036">
        <ele>779</ele>
        <time>2021-02-11T10:36:48.000Z</time>
      </trkpt>
      <trkpt lat="44.04321" lon="5.91031">
        <ele>779.79998779297</ele>
        <time>2021-02-11T10:36:50.000Z</time>
      </trkpt>
      <trkpt lat="44.04322" lon="5.9103">
        <ele>780.20001220703</ele>
        <time>2021-02-11T10:36:51.000Z</time>
      </trkpt>
      <trkpt lat="44.04321" lon="5.91029">
        <ele>780.79998779297</ele>
        <time>2021-02-11T10:36:54.000Z</time>
      </trkpt>
      <trkpt lat="44.04321" lon="5.91029">
        <ele>780.59997558594</ele>
        <time>2021-02-11T10:37:11.000Z</time>
      </trkpt>
      <trkpt lat="44.04321" lon="5.91029">
        <ele>779.79998779297</ele>
        <time>2021-02-11T10:37:44.000Z</time>
      </trkpt>
      <trkpt lat="44.04321" lon="5.91029">
        <ele>779.79998779297</ele>
        <time>2021-02-11T10:38:12.000Z</time>
      </trkpt>
      <trkpt lat="44.04323" lon="5.91027">
        <ele>779.59997558594</ele>
        <time>2021-02-11T10:38:24.000Z</time>
      </trkpt>
      <trkpt lat="44.04324" lon="5.91026">
        <ele>779.59997558594</ele>
        <time>2021-02-11T10:38:25.000Z</time>
      </trkpt>
      <trkpt lat="44.0433" lon="5.9102">
        <ele>779.59997558594</ele>
        <time>2021-02-11T10:38:30.000Z</time>
      </trkpt>
      <trkpt lat="44.04331" lon="5.9102">
        <ele>779.59997558594</ele>
        <time>2021-02-11T10:38:31.000Z</time>
      </trkpt>
      <trkpt lat="44.04334" lon="5.91017">
        <ele>779.79998779297</ele>
        <time>2021-02-11T10:38:34.000Z</time>
      </trkpt>
      <trkpt lat="44.04337" lon="5.91013">
        <ele>780.59997558594</ele>
        <time>2021-02-11T10:38:37.000Z</time>
      </trkpt>
      <trkpt lat="44.04339" lon="5.91009">
        <ele>781.59997558594</ele>
        <time>2021-02-11T10:38:39.000Z</time>
      </trkpt>
      <trkpt lat="44.04341" lon="5.91004">
        <ele>783</ele>
        <time>2021-02-11T10:38:41.000Z</time>
      </trkpt>
      <trkpt lat="44.04343" lon="5.90999">
        <ele>783.79998779297</ele>
        <time>2021-02-11T10:38:43.000Z</time>
      </trkpt>
      <trkpt lat="44.04345" lon="5.90991">
        <ele>785</ele>
        <time>2021-02-11T10:38:46.000Z</time>
      </trkpt>
      <trkpt lat="44.04349" lon="5.90984">
        <ele>786.20001220703</ele>
        <time>2021-02-11T10:38:49.000Z</time>
      </trkpt>
      <trkpt lat="44.0435" lon="5.90982">
        <ele>786.59997558594</ele>
        <time>2021-02-11T10:38:50.000Z</time>
      </trkpt>
      <trkpt lat="44.04351" lon="5.90977">
        <ele>787.79998779297</ele>
        <time>2021-02-11T10:38:52.000Z</time>
      </trkpt>
      <trkpt lat="44.04352" lon="5.90967">
        <ele>789</ele>
        <time>2021-02-11T10:38:56.000Z</time>
      </trkpt>
      <trkpt lat="44.04355" lon="5.90965">
        <ele>790.20001220703</ele>
        <time>2021-02-11T10:38:59.000Z</time>
      </trkpt>
      <trkpt lat="44.04356" lon="5.90967">
        <ele>790.79998779297</ele>
        <time>2021-02-11T10:39:01.000Z</time>
      </trkpt>
      <trkpt lat="44.04358" lon="5.90978">
        <ele>791.20001220703</ele>
        <time>2021-02-11T10:39:07.000Z</time>
      </trkpt>
      <trkpt lat="44.04359" lon="5.9098">
        <ele>791.40002441406</ele>
        <time>2021-02-11T10:39:08.000Z</time>
      </trkpt>
      <trkpt lat="44.0436" lon="5.90988">
        <ele>792.79998779297</ele>
        <time>2021-02-11T10:39:11.000Z</time>
      </trkpt>
      <trkpt lat="44.0436" lon="5.90996">
        <ele>793.79998779297</ele>
        <time>2021-02-11T10:39:14.000Z</time>
      </trkpt>
      <trkpt lat="44.0436" lon="5.90997">
        <ele>794.20001220703</ele>
        <time>2021-02-11T10:39:15.000Z</time>
      </trkpt>
      <trkpt lat="44.0436" lon="5.90998">
        <ele>795.20001220703</ele>
        <time>2021-02-11T10:39:18.000Z</time>
      </trkpt>
      <trkpt lat="44.04361" lon="5.90999">
        <ele>796</ele>
        <time>2021-02-11T10:39:21.000Z</time>
      </trkpt>
      <trkpt lat="44.04361" lon="5.90999">
        <ele>796.20001220703</ele>
        <time>2021-02-11T10:39:22.000Z</time>
      </trkpt>
      <trkpt lat="44.04361" lon="5.90999">
        <ele>796.59997558594</ele>
        <time>2021-02-11T10:39:41.000Z</time>
      </trkpt>
      <trkpt lat="44.04361" lon="5.90999">
        <ele>796.79998779297</ele>
        <time>2021-02-11T10:40:16.000Z</time>
      </trkpt>
      <trkpt lat="44.04361" lon="5.90999">
        <ele>796.79998779297</ele>
        <time>2021-02-11T10:40:51.000Z</time>
      </trkpt>
      <trkpt lat="44.04361" lon="5.90999">
        <ele>796.59997558594</ele>
        <time>2021-02-11T10:41:08.000Z</time>
      </trkpt>
      <trkpt lat="44.04361" lon="5.90999">
        <ele>796.20001220703</ele>
        <time>2021-02-11T10:42:10.000Z</time>
      </trkpt>
      <trkpt lat="44.04361" lon="5.90999">
        <ele>796</ele>
        <time>2021-02-11T10:42:13.000Z</time>
      </trkpt>
      <trkpt lat="44.04361" lon="5.90999">
        <ele>795.79998779297</ele>
        <time>2021-02-11T10:42:18.000Z</time>
      </trkpt>
      <trkpt lat="44.04361" lon="5.90999">
        <ele>795.59997558594</ele>
        <time>2021-02-11T10:42:56.000Z</time>
      </trkpt>
      <trkpt lat="44.04361" lon="5.90999">
        <ele>795.79998779297</ele>
        <time>2021-02-11T10:43:30.000Z</time>
      </trkpt>
      <trkpt lat="44.04361" lon="5.90999">
        <ele>795.79998779297</ele>
        <time>2021-02-11T10:44:25.000Z</time>
      </trkpt>
      <trkpt lat="44.04361" lon="5.90999">
        <ele>795.79998779297</ele>
        <time>2021-02-11T10:44:38.000Z</time>
      </trkpt>
      <trkpt lat="44.04361" lon="5.90999">
        <ele>795.79998779297</ele>
        <time>2021-02-11T10:45:45.000Z</time>
      </trkpt>
      <trkpt lat="44.04361" lon="5.90999">
        <ele>795.59997558594</ele>
        <time>2021-02-11T10:46:00.000Z</time>
      </trkpt>
      <trkpt lat="44.04361" lon="5.90999">
        <ele>795.59997558594</ele>
        <time>2021-02-11T10:46:13.000Z</time>
      </trkpt>
      <trkpt lat="44.04361" lon="5.90999">
        <ele>795.40002441406</ele>
        <time>2021-02-11T10:46:50.000Z</time>
      </trkpt>
      <trkpt lat="44.04361" lon="5.90999">
        <ele>795</ele>
        <time>2021-02-11T10:47:20.000Z</time>
      </trkpt>
      <trkpt lat="44.04361" lon="5.90999">
        <ele>794.79998779297</ele>
        <time>2021-02-11T10:48:12.000Z</time>
      </trkpt>
      <trkpt lat="44.04361" lon="5.90999">
        <ele>794.59997558594</ele>
        <time>2021-02-11T10:49:03.000Z</time>
      </trkpt>
      <trkpt lat="44.04361" lon="5.90999">
        <ele>794.59997558594</ele>
        <time>2021-02-11T10:49:04.000Z</time>
      </trkpt>
      <trkpt lat="44.04361" lon="5.90998">
        <ele>794.20001220703</ele>
        <time>2021-02-11T10:49:49.000Z</time>
      </trkpt>
      <trkpt lat="44.04361" lon="5.90996">
        <ele>794.20001220703</ele>
        <time>2021-02-11T10:49:55.000Z</time>
      </trkpt>
      <trkpt lat="44.04361" lon="5.90994">
        <ele>794.20001220703</ele>
        <time>2021-02-11T10:50:04.000Z</time>
      </trkpt>
      <trkpt lat="44.04361" lon="5.90991">
        <ele>794.20001220703</ele>
        <time>2021-02-11T10:50:06.000Z</time>
      </trkpt>
      <trkpt lat="44.0436" lon="5.90979">
        <ele>794.40002441406</ele>
        <time>2021-02-11T10:50:12.000Z</time>
      </trkpt>
      <trkpt lat="44.0436" lon="5.90969">
        <ele>794.20001220703</ele>
        <time>2021-02-11T10:50:17.000Z</time>
      </trkpt>
      <trkpt lat="44.04359" lon="5.90965">
        <ele>793.79998779297</ele>
        <time>2021-02-11T10:50:20.000Z</time>
      </trkpt>
      <trkpt lat="44.04358" lon="5.90963">
        <ele>793</ele>
        <time>2021-02-11T10:50:22.000Z</time>
      </trkpt>
      <trkpt lat="44.04356" lon="5.90963">
        <ele>792</ele>
        <time>2021-02-11T10:50:26.000Z</time>
      </trkpt>
      <trkpt lat="44.04355" lon="5.90966">
        <ele>790.79998779297</ele>
        <time>2021-02-11T10:50:29.000Z</time>
      </trkpt>
      <trkpt lat="44.04355" lon="5.90973">
        <ele>789.59997558594</ele>
        <time>2021-02-11T10:50:32.000Z</time>
      </trkpt>
      <trkpt lat="44.0435" lon="5.90988">
        <ele>789.20001220703</ele>
        <time>2021-02-11T10:50:38.000Z</time>
      </trkpt>
      <trkpt lat="44.04345" lon="5.91001">
        <ele>788.59997558594</ele>
        <time>2021-02-11T10:50:43.000Z</time>
      </trkpt>
      <trkpt lat="44.04344" lon="5.91004">
        <ele>788.20001220703</ele>
        <time>2021-02-11T10:50:44.000Z</time>
      </trkpt>
      <trkpt lat="44.04341" lon="5.91008">
        <ele>787.20001220703</ele>
        <time>2021-02-11T10:50:46.000Z</time>
      </trkpt>
      <trkpt lat="44.04338" lon="5.91011">
        <ele>786.20001220703</ele>
        <time>2021-02-11T10:50:48.000Z</time>
      </trkpt>
      <trkpt lat="44.04336" lon="5.91012">
        <ele>785.40002441406</ele>
        <time>2021-02-11T10:50:49.000Z</time>
      </trkpt>
      <trkpt lat="44.04334" lon="5.91014">
        <ele>784.40002441406</ele>
        <time>2021-02-11T10:50:50.000Z</time>
      </trkpt>
      <trkpt lat="44.04329" lon="5.9102">
        <ele>783.20001220703</ele>
        <time>2021-02-11T10:50:52.000Z</time>
      </trkpt>
      <trkpt lat="44.04325" lon="5.91027">
        <ele>782.20001220703</ele>
        <time>2021-02-11T10:50:54.000Z</time>
      </trkpt>
      <trkpt lat="44.04323" lon="5.91031">
        <ele>781.79998779297</ele>
        <time>2021-02-11T10:50:55.000Z</time>
      </trkpt>
      <trkpt lat="44.04321" lon="5.91036">
        <ele>780.59997558594</ele>
        <time>2021-02-11T10:50:57.000Z</time>
      </trkpt>
      <trkpt lat="44.0432" lon="5.91038">
        <ele>778.79998779297</ele>
        <time>2021-02-11T10:50:59.000Z</time>
      </trkpt>
      <trkpt lat="44.0432" lon="5.91039">
        <ele>777.79998779297</ele>
        <time>2021-02-11T10:51:09.000Z</time>
      </trkpt>
      <trkpt lat="44.0432" lon="5.91039">
        <ele>777.59997558594</ele>
        <time>2021-02-11T10:51:11.000Z</time>
      </trkpt>
      <trkpt lat="44.0432" lon="5.91039">
        <ele>777.79998779297</ele>
        <time>2021-02-11T10:51:46.000Z</time>
      </trkpt>
      <trkpt lat="44.0432" lon="5.9104">
        <ele>777.79998779297</ele>
        <time>2021-02-11T10:52:00.000Z</time>
      </trkpt>
      <trkpt lat="44.0432" lon="5.91043">
        <ele>777.79998779297</ele>
        <time>2021-02-11T10:52:02.000Z</time>
      </trkpt>
      <trkpt lat="44.04315" lon="5.91051">
        <ele>777.59997558594</ele>
        <time>2021-02-11T10:52:06.000Z</time>
      </trkpt>
      <trkpt lat="44.04313" lon="5.91058">
        <ele>777.59997558594</ele>
        <time>2021-02-11T10:52:08.000Z</time>
      </trkpt>
      <trkpt lat="44.04309" lon="5.91069">
        <ele>777.20001220703</ele>
        <time>2021-02-11T10:52:11.000Z</time>
      </trkpt>
      <trkpt lat="44.04299" lon="5.91079">
        <ele>777</ele>
        <time>2021-02-11T10:52:15.000Z</time>
      </trkpt>
      <trkpt lat="44.04294" lon="5.91087">
        <ele>776.79998779297</ele>
        <time>2021-02-11T10:52:18.000Z</time>
      </trkpt>
      <trkpt lat="44.0429" lon="5.91094">
        <ele>776.79998779297</ele>
        <time>2021-02-11T10:52:20.000Z</time>
      </trkpt>
      <trkpt lat="44.04283" lon="5.91107">
        <ele>776.59997558594</ele>
        <time>2021-02-11T10:52:25.000Z</time>
      </trkpt>
      <trkpt lat="44.0428" lon="5.91124">
        <ele>776.40002441406</ele>
        <time>2021-02-11T10:52:29.000Z</time>
      </trkpt>
      <trkpt lat="44.04278" lon="5.91129">
        <ele>776.59997558594</ele>
        <time>2021-02-11T10:52:30.000Z</time>
      </trkpt>
      <trkpt lat="44.04275" lon="5.91141">
        <ele>776.79998779297</ele>
        <time>2021-02-11T10:52:33.000Z</time>
      </trkpt>
      <trkpt lat="44.04274" lon="5.91145">
        <ele>776.79998779297</ele>
        <time>2021-02-11T10:52:34.000Z</time>
      </trkpt>
      <trkpt lat="44.04269" lon="5.91165">
        <ele>777.20001220703</ele>
        <time>2021-02-11T10:52:39.000Z</time>
      </trkpt>
      <trkpt lat="44.04269" lon="5.91184">
        <ele>778</ele>
        <time>2021-02-11T10:52:44.000Z</time>
      </trkpt>
      <trkpt lat="44.04269" lon="5.91192">
        <ele>779.40002441406</ele>
        <time>2021-02-11T10:52:46.000Z</time>
      </trkpt>
      <trkpt lat="44.04269" lon="5.91204">
        <ele>780</ele>
        <time>2021-02-11T10:52:49.000Z</time>
      </trkpt>
      <trkpt lat="44.04268" lon="5.91211">
        <ele>780</ele>
        <time>2021-02-11T10:52:51.000Z</time>
      </trkpt>
      <trkpt lat="44.04267" lon="5.91219">
        <ele>780.59997558594</ele>
        <time>2021-02-11T10:52:53.000Z</time>
      </trkpt>
      <trkpt lat="44.04265" lon="5.91226">
        <ele>781.59997558594</ele>
        <time>2021-02-11T10:52:55.000Z</time>
      </trkpt>
      <trkpt lat="44.04262" lon="5.91234">
        <ele>782.20001220703</ele>
        <time>2021-02-11T10:52:57.000Z</time>
      </trkpt>
      <trkpt lat="44.04258" lon="5.91244">
        <ele>782.79998779297</ele>
        <time>2021-02-11T10:53:00.000Z</time>
      </trkpt>
      <trkpt lat="44.04255" lon="5.91255">
        <ele>783.59997558594</ele>
        <time>2021-02-11T10:53:03.000Z</time>
      </trkpt>
      <trkpt lat="44.04254" lon="5.91259">
        <ele>783.79998779297</ele>
        <time>2021-02-11T10:53:04.000Z</time>
      </trkpt>
      <trkpt lat="44.04251" lon="5.91267">
        <ele>785</ele>
        <time>2021-02-11T10:53:07.000Z</time>
      </trkpt>
      <trkpt lat="44.0425" lon="5.9127">
        <ele>785.59997558594</ele>
        <time>2021-02-11T10:53:08.000Z</time>
      </trkpt>
      <trkpt lat="44.04248" lon="5.91274">
        <ele>786.40002441406</ele>
        <time>2021-02-11T10:53:10.000Z</time>
      </trkpt>
      <trkpt lat="44.04243" lon="5.91281">
        <ele>787.59997558594</ele>
        <time>2021-02-11T10:53:13.000Z</time>
      </trkpt>
      <trkpt lat="44.0424" lon="5.91288">
        <ele>789</ele>
        <time>2021-02-11T10:53:16.000Z</time>
      </trkpt>
      <trkpt lat="44.04238" lon="5.91298">
        <ele>790.20001220703</ele>
        <time>2021-02-11T10:53:19.000Z</time>
      </trkpt>
      <trkpt lat="44.04236" lon="5.91302">
        <ele>791.40002441406</ele>
        <time>2021-02-11T10:53:21.000Z</time>
      </trkpt>
      <trkpt lat="44.04233" lon="5.91308">
        <ele>792.79998779297</ele>
        <time>2021-02-11T10:53:24.000Z</time>
      </trkpt>
      <trkpt lat="44.04229" lon="5.91324">
        <ele>793.59997558594</ele>
        <time>2021-02-11T10:53:31.000Z</time>
      </trkpt>
      <trkpt lat="44.04228" lon="5.91326">
        <ele>793.79998779297</ele>
        <time>2021-02-11T10:53:32.000Z</time>
      </trkpt>
      <trkpt lat="44.04221" lon="5.91333">
        <ele>795</ele>
        <time>2021-02-11T10:53:37.000Z</time>
      </trkpt>
      <trkpt lat="44.04221" lon="5.91332">
        <ele>795.40002441406</ele>
        <time>2021-02-11T10:53:39.000Z</time>
      </trkpt>
      <trkpt lat="44.0422" lon="5.91329">
        <ele>795.59997558594</ele>
        <time>2021-02-11T10:53:41.000Z</time>
      </trkpt>
      <trkpt lat="44.0422" lon="5.91328">
        <ele>796.20001220703</ele>
        <time>2021-02-11T10:53:42.000Z</time>
      </trkpt>
      <trkpt lat="44.0422" lon="5.91325">
        <ele>797.79998779297</ele>
        <time>2021-02-11T10:53:45.000Z</time>
      </trkpt>
      <trkpt lat="44.0422" lon="5.91323">
        <ele>798.40002441406</ele>
        <time>2021-02-11T10:53:47.000Z</time>
      </trkpt>
      <trkpt lat="44.0422" lon="5.91321">
        <ele>798.79998779297</ele>
        <time>2021-02-11T10:53:49.000Z</time>
      </trkpt>
      <trkpt lat="44.0422" lon="5.91317">
        <ele>799.20001220703</ele>
        <time>2021-02-11T10:53:51.000Z</time>
      </trkpt>
      <trkpt lat="44.04219" lon="5.91314">
        <ele>799.59997558594</ele>
        <time>2021-02-11T10:53:53.000Z</time>
      </trkpt>
      <trkpt lat="44.04219" lon="5.91311">
        <ele>799.79998779297</ele>
        <time>2021-02-11T10:53:54.000Z</time>
      </trkpt>
      <trkpt lat="44.0422" lon="5.91307">
        <ele>800</ele>
        <time>2021-02-11T10:53:56.000Z</time>
      </trkpt>
      <trkpt lat="44.04219" lon="5.91298">
        <ele>800.20001220703</ele>
        <time>2021-02-11T10:54:00.000Z</time>
      </trkpt>
      <trkpt lat="44.04221" lon="5.91283">
        <ele>801</ele>
        <time>2021-02-11T10:54:05.000Z</time>
      </trkpt>
      <trkpt lat="44.04218" lon="5.91262">
        <ele>801.79998779297</ele>
        <time>2021-02-11T10:54:11.000Z</time>
      </trkpt>
      <trkpt lat="44.04218" lon="5.91259">
        <ele>802</ele>
        <time>2021-02-11T10:54:12.000Z</time>
      </trkpt>
      <trkpt lat="44.04217" lon="5.91246">
        <ele>802.20001220703</ele>
        <time>2021-02-11T10:54:15.000Z</time>
      </trkpt>
      <trkpt lat="44.04214" lon="5.91232">
        <ele>803.20001220703</ele>
        <time>2021-02-11T10:54:19.000Z</time>
      </trkpt>
      <trkpt lat="44.04213" lon="5.91228">
        <ele>803.40002441406</ele>
        <time>2021-02-11T10:54:20.000Z</time>
      </trkpt>
      <trkpt lat="44.04211" lon="5.91223">
        <ele>803.59997558594</ele>
        <time>2021-02-11T10:54:22.000Z</time>
      </trkpt>
      <trkpt lat="44.04211" lon="5.91216">
        <ele>803.59997558594</ele>
        <time>2021-02-11T10:54:24.000Z</time>
      </trkpt>
      <trkpt lat="44.04205" lon="5.91198">
        <ele>804</ele>
        <time>2021-02-11T10:54:29.000Z</time>
      </trkpt>
      <trkpt lat="44.04203" lon="5.91195">
        <ele>804.20001220703</ele>
        <time>2021-02-11T10:54:30.000Z</time>
      </trkpt>
      <trkpt lat="44.042" lon="5.91186">
        <ele>804.40002441406</ele>
        <time>2021-02-11T10:54:33.000Z</time>
      </trkpt>
      <trkpt lat="44.04198" lon="5.91183">
        <ele>804.59997558594</ele>
        <time>2021-02-11T10:54:34.000Z</time>
      </trkpt>
      <trkpt lat="44.0419" lon="5.91183">
        <ele>805.40002441406</ele>
        <time>2021-02-11T10:54:37.000Z</time>
      </trkpt>
      <trkpt lat="44.04187" lon="5.91186">
        <ele>806.20001220703</ele>
        <time>2021-02-11T10:54:39.000Z</time>
      </trkpt>
      <trkpt lat="44.04186" lon="5.91188">
        <ele>806.79998779297</ele>
        <time>2021-02-11T10:54:40.000Z</time>
      </trkpt>
      <trkpt lat="44.04186" lon="5.91194">
        <ele>807.79998779297</ele>
        <time>2021-02-11T10:54:42.000Z</time>
      </trkpt>
      <trkpt lat="44.04186" lon="5.91198">
        <ele>808.20001220703</ele>
        <time>2021-02-11T10:54:43.000Z</time>
      </trkpt>
      <trkpt lat="44.04185" lon="5.9121">
        <ele>808.79998779297</ele>
        <time>2021-02-11T10:54:46.000Z</time>
      </trkpt>
      <trkpt lat="44.04187" lon="5.91218">
        <ele>809</ele>
        <time>2021-02-11T10:54:48.000Z</time>
      </trkpt>
      <trkpt lat="44.04188" lon="5.91222">
        <ele>809.20001220703</ele>
        <time>2021-02-11T10:54:49.000Z</time>
      </trkpt>
      <trkpt lat="44.04195" lon="5.91242">
        <ele>809.40002441406</ele>
        <time>2021-02-11T10:54:54.000Z</time>
      </trkpt>
      <trkpt lat="44.04196" lon="5.91246">
        <ele>809.40002441406</ele>
        <time>2021-02-11T10:54:55.000Z</time>
      </trkpt>
      <trkpt lat="44.04193" lon="5.91251">
        <ele>809.59997558594</ele>
        <time>2021-02-11T10:54:57.000Z</time>
      </trkpt>
      <trkpt lat="44.04186" lon="5.91256">
        <ele>810</ele>
        <time>2021-02-11T10:55:00.000Z</time>
      </trkpt>
      <trkpt lat="44.04186" lon="5.9126">
        <ele>810.20001220703</ele>
        <time>2021-02-11T10:55:01.000Z</time>
      </trkpt>
      <trkpt lat="44.04185" lon="5.91267">
        <ele>810.59997558594</ele>
        <time>2021-02-11T10:55:03.000Z</time>
      </trkpt>
      <trkpt lat="44.04183" lon="5.91273">
        <ele>811</ele>
        <time>2021-02-11T10:55:05.000Z</time>
      </trkpt>
      <trkpt lat="44.04181" lon="5.91277">
        <ele>812.20001220703</ele>
        <time>2021-02-11T10:55:07.000Z</time>
      </trkpt>
      <trkpt lat="44.04178" lon="5.91282">
        <ele>812.59997558594</ele>
        <time>2021-02-11T10:55:13.000Z</time>
      </trkpt>
      <trkpt lat="44.04178" lon="5.91282">
        <ele>812</ele>
        <time>2021-02-11T10:55:23.000Z</time>
      </trkpt>
      <trkpt lat="44.04178" lon="5.91282">
        <ele>811.79998779297</ele>
        <time>2021-02-11T10:55:30.000Z</time>
      </trkpt>
      <trkpt lat="44.04177" lon="5.91282">
        <ele>811.79998779297</ele>
        <time>2021-02-11T10:55:31.000Z</time>
      </trkpt>
      <trkpt lat="44.04168" lon="5.9128">
        <ele>811.79998779297</ele>
        <time>2021-02-11T10:55:35.000Z</time>
      </trkpt>
      <trkpt lat="44.04155" lon="5.91277">
        <ele>811.59997558594</ele>
        <time>2021-02-11T10:55:39.000Z</time>
      </trkpt>
      <trkpt lat="44.0415" lon="5.91272">
        <ele>811</ele>
        <time>2021-02-11T10:55:41.000Z</time>
      </trkpt>
      <trkpt lat="44.04146" lon="5.91266">
        <ele>810</ele>
        <time>2021-02-11T10:55:43.000Z</time>
      </trkpt>
      <trkpt lat="44.04143" lon="5.91266">
        <ele>809.20001220703</ele>
        <time>2021-02-11T10:55:44.000Z</time>
      </trkpt>
      <trkpt lat="44.04139" lon="5.91264">
        <ele>808</ele>
        <time>2021-02-11T10:55:46.000Z</time>
      </trkpt>
      <trkpt lat="44.04137" lon="5.91263">
        <ele>807.20001220703</ele>
        <time>2021-02-11T10:55:47.000Z</time>
      </trkpt>
      <trkpt lat="44.04134" lon="5.91262">
        <ele>806.40002441406</ele>
        <time>2021-02-11T10:55:48.000Z</time>
      </trkpt>
      <trkpt lat="44.04128" lon="5.91264">
        <ele>804.79998779297</ele>
        <time>2021-02-11T10:55:50.000Z</time>
      </trkpt>
      <trkpt lat="44.04126" lon="5.91265">
        <ele>804</ele>
        <time>2021-02-11T10:55:51.000Z</time>
      </trkpt>
      <trkpt lat="44.04125" lon="5.91266">
        <ele>803.20001220703</ele>
        <time>2021-02-11T10:55:52.000Z</time>
      </trkpt>
      <trkpt lat="44.04121" lon="5.91264">
        <ele>801.79998779297</ele>
        <time>2021-02-11T10:55:54.000Z</time>
      </trkpt>
      <trkpt lat="44.04118" lon="5.91263">
        <ele>801.20001220703</ele>
        <time>2021-02-11T10:55:55.000Z</time>
      </trkpt>
      <trkpt lat="44.04115" lon="5.9126">
        <ele>800.40002441406</ele>
        <time>2021-02-11T10:55:56.000Z</time>
      </trkpt>
      <trkpt lat="44.04112" lon="5.91256">
        <ele>799.40002441406</ele>
        <time>2021-02-11T10:55:57.000Z</time>
      </trkpt>
      <trkpt lat="44.04108" lon="5.91253">
        <ele>798.59997558594</ele>
        <time>2021-02-11T10:55:58.000Z</time>
      </trkpt>
      <trkpt lat="44.04105" lon="5.91252">
        <ele>797.79998779297</ele>
        <time>2021-02-11T10:55:59.000Z</time>
      </trkpt>
      <trkpt lat="44.04101" lon="5.91254">
        <ele>797.20001220703</ele>
        <time>2021-02-11T10:56:00.000Z</time>
      </trkpt>
      <trkpt lat="44.04098" lon="5.91259">
        <ele>796.20001220703</ele>
        <time>2021-02-11T10:56:02.000Z</time>
      </trkpt>
      <trkpt lat="44.04093" lon="5.91264">
        <ele>794.59997558594</ele>
        <time>2021-02-11T10:56:04.000Z</time>
      </trkpt>
      <trkpt lat="44.0409" lon="5.91266">
        <ele>793.20001220703</ele>
        <time>2021-02-11T10:56:05.000Z</time>
      </trkpt>
      <trkpt lat="44.04088" lon="5.91268">
        <ele>792</ele>
        <time>2021-02-11T10:56:06.000Z</time>
      </trkpt>
      <trkpt lat="44.04086" lon="5.91269">
        <ele>789.79998779297</ele>
        <time>2021-02-11T10:56:07.000Z</time>
      </trkpt>
      <trkpt lat="44.04078" lon="5.91272">
        <ele>788.59997558594</ele>
        <time>2021-02-11T10:56:10.000Z</time>
      </trkpt>
      <trkpt lat="44.04065" lon="5.91277">
        <ele>787.59997558594</ele>
        <time>2021-02-11T10:56:13.000Z</time>
      </trkpt>
      <trkpt lat="44.04062" lon="5.9128">
        <ele>787.40002441406</ele>
        <time>2021-02-11T10:56:14.000Z</time>
      </trkpt>
      <trkpt lat="44.04043" lon="5.91294">
        <ele>786.20001220703</ele>
        <time>2021-02-11T10:56:19.000Z</time>
      </trkpt>
      <trkpt lat="44.04038" lon="5.91298">
        <ele>786</ele>
        <time>2021-02-11T10:56:20.000Z</time>
      </trkpt>
      <trkpt lat="44.04033" lon="5.91302">
        <ele>785.59997558594</ele>
        <time>2021-02-11T10:56:21.000Z</time>
      </trkpt>
      <trkpt lat="44.04026" lon="5.91305">
        <ele>785.40002441406</ele>
        <time>2021-02-11T10:56:23.000Z</time>
      </trkpt>
      <trkpt lat="44.04024" lon="5.91304">
        <ele>785</ele>
        <time>2021-02-11T10:56:24.000Z</time>
      </trkpt>
      <trkpt lat="44.04024" lon="5.91299">
        <ele>784</ele>
        <time>2021-02-11T10:56:26.000Z</time>
      </trkpt>
      <trkpt lat="44.04028" lon="5.91292">
        <ele>782.59997558594</ele>
        <time>2021-02-11T10:56:28.000Z</time>
      </trkpt>
      <trkpt lat="44.04032" lon="5.9128">
        <ele>781.20001220703</ele>
        <time>2021-02-11T10:56:30.000Z</time>
      </trkpt>
      <trkpt lat="44.04041" lon="5.91263">
        <ele>780.59997558594</ele>
        <time>2021-02-11T10:56:33.000Z</time>
      </trkpt>
      <trkpt lat="44.04044" lon="5.91258">
        <ele>780.20001220703</ele>
        <time>2021-02-11T10:56:34.000Z</time>
      </trkpt>
      <trkpt lat="44.04046" lon="5.91252">
        <ele>779.59997558594</ele>
        <time>2021-02-11T10:56:35.000Z</time>
      </trkpt>
      <trkpt lat="44.04049" lon="5.91245">
        <ele>777.79998779297</ele>
        <time>2021-02-11T10:56:36.000Z</time>
      </trkpt>
      <trkpt lat="44.04048" lon="5.91235">
        <ele>776</ele>
        <time>2021-02-11T10:56:38.000Z</time>
      </trkpt>
      <trkpt lat="44.0404" lon="5.91229">
        <ele>775</ele>
        <time>2021-02-11T10:56:40.000Z</time>
      </trkpt>
      <trkpt lat="44.04036" lon="5.91226">
        <ele>774.40002441406</ele>
        <time>2021-02-11T10:56:41.000Z</time>
      </trkpt>
      <trkpt lat="44.04024" lon="5.91216">
        <ele>773.40002441406</ele>
        <time>2021-02-11T10:56:43.000Z</time>
      </trkpt>
      <trkpt lat="44.04019" lon="5.9121">
        <ele>773</ele>
        <time>2021-02-11T10:56:44.000Z</time>
      </trkpt>
      <trkpt lat="44.04015" lon="5.91206">
        <ele>772.79998779297</ele>
        <time>2021-02-11T10:56:45.000Z</time>
      </trkpt>
      <trkpt lat="44.04012" lon="5.91204">
        <ele>772.59997558594</ele>
        <time>2021-02-11T10:56:46.000Z</time>
      </trkpt>
      <trkpt lat="44.04004" lon="5.91202">
        <ele>771.59997558594</ele>
        <time>2021-02-11T10:56:48.000Z</time>
      </trkpt>
      <trkpt lat="44.03999" lon="5.912">
        <ele>770.40002441406</ele>
        <time>2021-02-11T10:56:49.000Z</time>
      </trkpt>
      <trkpt lat="44.03996" lon="5.91198">
        <ele>769.20001220703</ele>
        <time>2021-02-11T10:56:50.000Z</time>
      </trkpt>
      <trkpt lat="44.03993" lon="5.91194">
        <ele>768</ele>
        <time>2021-02-11T10:56:51.000Z</time>
      </trkpt>
      <trkpt lat="44.03992" lon="5.9119">
        <ele>767</ele>
        <time>2021-02-11T10:56:52.000Z</time>
      </trkpt>
      <trkpt lat="44.03989" lon="5.91179">
        <ele>765.20001220703</ele>
        <time>2021-02-11T10:56:54.000Z</time>
      </trkpt>
      <trkpt lat="44.03987" lon="5.91166">
        <ele>763.20001220703</ele>
        <time>2021-02-11T10:56:56.000Z</time>
      </trkpt>
      <trkpt lat="44.03986" lon="5.91159">
        <ele>762</ele>
        <time>2021-02-11T10:56:57.000Z</time>
      </trkpt>
      <trkpt lat="44.03985" lon="5.91153">
        <ele>760.79998779297</ele>
        <time>2021-02-11T10:56:58.000Z</time>
      </trkpt>
      <trkpt lat="44.03982" lon="5.91146">
        <ele>759.59997558594</ele>
        <time>2021-02-11T10:56:59.000Z</time>
      </trkpt>
      <trkpt lat="44.0398" lon="5.9114">
        <ele>758.79998779297</ele>
        <time>2021-02-11T10:57:00.000Z</time>
      </trkpt>
      <trkpt lat="44.03978" lon="5.91135">
        <ele>758</ele>
        <time>2021-02-11T10:57:01.000Z</time>
      </trkpt>
      <trkpt lat="44.03969" lon="5.91111">
        <ele>756.79998779297</ele>
        <time>2021-02-11T10:57:05.000Z</time>
      </trkpt>
      <trkpt lat="44.0396" lon="5.91098">
        <ele>756.40002441406</ele>
        <time>2021-02-11T10:57:07.000Z</time>
      </trkpt>
      <trkpt lat="44.03957" lon="5.91093">
        <ele>756.20001220703</ele>
        <time>2021-02-11T10:57:08.000Z</time>
      </trkpt>
      <trkpt lat="44.0395" lon="5.91081">
        <ele>755.40002441406</ele>
        <time>2021-02-11T10:57:11.000Z</time>
      </trkpt>
      <trkpt lat="44.03947" lon="5.91078">
        <ele>755.40002441406</ele>
        <time>2021-02-11T10:57:12.000Z</time>
      </trkpt>
      <trkpt lat="44.03943" lon="5.91074">
        <ele>755.20001220703</ele>
        <time>2021-02-11T10:57:13.000Z</time>
      </trkpt>
      <trkpt lat="44.03935" lon="5.91066">
        <ele>753.79998779297</ele>
        <time>2021-02-11T10:57:15.000Z</time>
      </trkpt>
      <trkpt lat="44.03932" lon="5.91061">
        <ele>753.40002441406</ele>
        <time>2021-02-11T10:57:16.000Z</time>
      </trkpt>
      <trkpt lat="44.03929" lon="5.91055">
        <ele>752.59997558594</ele>
        <time>2021-02-11T10:57:17.000Z</time>
      </trkpt>
      <trkpt lat="44.03926" lon="5.91042">
        <ele>751.40002441406</ele>
        <time>2021-02-11T10:57:19.000Z</time>
      </trkpt>
      <trkpt lat="44.03927" lon="5.91037">
        <ele>751</ele>
        <time>2021-02-11T10:57:20.000Z</time>
      </trkpt>
      <trkpt lat="44.03927" lon="5.91033">
        <ele>750.59997558594</ele>
        <time>2021-02-11T10:57:21.000Z</time>
      </trkpt>
      <trkpt lat="44.03927" lon="5.91028">
        <ele>749.79998779297</ele>
        <time>2021-02-11T10:57:22.000Z</time>
      </trkpt>
      <trkpt lat="44.03928" lon="5.91019">
        <ele>748</ele>
        <time>2021-02-11T10:57:24.000Z</time>
      </trkpt>
      <trkpt lat="44.03929" lon="5.91008">
        <ele>747.59997558594</ele>
        <time>2021-02-11T10:57:26.000Z</time>
      </trkpt>
      <trkpt lat="44.03931" lon="5.90998">
        <ele>747.40002441406</ele>
        <time>2021-02-11T10:57:28.000Z</time>
      </trkpt>
      <trkpt lat="44.03933" lon="5.9099">
        <ele>747.20001220703</ele>
        <time>2021-02-11T10:57:30.000Z</time>
      </trkpt>
      <trkpt lat="44.0394" lon="5.90963">
        <ele>748.20001220703</ele>
        <time>2021-02-11T10:57:36.000Z</time>
      </trkpt>
      <trkpt lat="44.03944" lon="5.90932">
        <ele>749</ele>
        <time>2021-02-11T10:57:42.000Z</time>
      </trkpt>
      <trkpt lat="44.03946" lon="5.90928">
        <ele>749.40002441406</ele>
        <time>2021-02-11T10:57:43.000Z</time>
      </trkpt>
      <trkpt lat="44.03949" lon="5.90918">
        <ele>749.79998779297</ele>
        <time>2021-02-11T10:57:46.000Z</time>
      </trkpt>
      <trkpt lat="44.03946" lon="5.90915">
        <ele>750</ele>
        <time>2021-02-11T10:57:49.000Z</time>
      </trkpt>
      <trkpt lat="44.03943" lon="5.90918">
        <ele>750</ele>
        <time>2021-02-11T10:57:52.000Z</time>
      </trkpt>
      <trkpt lat="44.03941" lon="5.90922">
        <ele>750</ele>
        <time>2021-02-11T10:57:54.000Z</time>
      </trkpt>
      <trkpt lat="44.03937" lon="5.90932">
        <ele>750</ele>
        <time>2021-02-11T10:57:59.000Z</time>
      </trkpt>
      <trkpt lat="44.03931" lon="5.90947">
        <ele>749.40002441406</ele>
        <time>2021-02-11T10:58:04.000Z</time>
      </trkpt>
      <trkpt lat="44.03928" lon="5.90967">
        <ele>748.59997558594</ele>
        <time>2021-02-11T10:58:08.000Z</time>
      </trkpt>
      <trkpt lat="44.03926" lon="5.90974">
        <ele>748.40002441406</ele>
        <time>2021-02-11T10:58:09.000Z</time>
      </trkpt>
      <trkpt lat="44.03924" lon="5.90992">
        <ele>747.20001220703</ele>
        <time>2021-02-11T10:58:12.000Z</time>
      </trkpt>
      <trkpt lat="44.03922" lon="5.91003">
        <ele>746.59997558594</ele>
        <time>2021-02-11T10:58:14.000Z</time>
      </trkpt>
      <trkpt lat="44.03922" lon="5.91009">
        <ele>746</ele>
        <time>2021-02-11T10:58:15.000Z</time>
      </trkpt>
      <trkpt lat="44.03919" lon="5.91025">
        <ele>745</ele>
        <time>2021-02-11T10:58:18.000Z</time>
      </trkpt>
      <trkpt lat="44.03919" lon="5.91028">
        <ele>744.59997558594</ele>
        <time>2021-02-11T10:58:19.000Z</time>
      </trkpt>
      <trkpt lat="44.03916" lon="5.91033">
        <ele>743.79998779297</ele>
        <time>2021-02-11T10:58:21.000Z</time>
      </trkpt>
      <trkpt lat="44.0391" lon="5.91034">
        <ele>743.20001220703</ele>
        <time>2021-02-11T10:58:23.000Z</time>
      </trkpt>
      <trkpt lat="44.03903" lon="5.91034">
        <ele>742.79998779297</ele>
        <time>2021-02-11T10:58:25.000Z</time>
      </trkpt>
      <trkpt lat="44.03897" lon="5.91032">
        <ele>742.59997558594</ele>
        <time>2021-02-11T10:58:27.000Z</time>
      </trkpt>
      <trkpt lat="44.03894" lon="5.9102">
        <ele>741.59997558594</ele>
        <time>2021-02-11T10:58:30.000Z</time>
      </trkpt>
      <trkpt lat="44.03891" lon="5.91009">
        <ele>740</ele>
        <time>2021-02-11T10:58:32.000Z</time>
      </trkpt>
      <trkpt lat="44.03889" lon="5.90999">
        <ele>738.59997558594</ele>
        <time>2021-02-11T10:58:34.000Z</time>
      </trkpt>
      <trkpt lat="44.03889" lon="5.90993">
        <ele>738.20001220703</ele>
        <time>2021-02-11T10:58:35.000Z</time>
      </trkpt>
      <trkpt lat="44.03888" lon="5.90981">
        <ele>737.20001220703</ele>
        <time>2021-02-11T10:58:37.000Z</time>
      </trkpt>
      <trkpt lat="44.03887" lon="5.90967">
        <ele>736</ele>
        <time>2021-02-11T10:58:39.000Z</time>
      </trkpt>
      <trkpt lat="44.03886" lon="5.90953">
        <ele>735.40002441406</ele>
        <time>2021-02-11T10:58:41.000Z</time>
      </trkpt>
      <trkpt lat="44.03886" lon="5.90939">
        <ele>735</ele>
        <time>2021-02-11T10:58:43.000Z</time>
      </trkpt>
      <trkpt lat="44.03886" lon="5.90932">
        <ele>734.59997558594</ele>
        <time>2021-02-11T10:58:44.000Z</time>
      </trkpt>
      <trkpt lat="44.03887" lon="5.90917">
        <ele>734.40002441406</ele>
        <time>2021-02-11T10:58:46.000Z</time>
      </trkpt>
      <trkpt lat="44.03888" lon="5.90911">
        <ele>734.40002441406</ele>
        <time>2021-02-11T10:58:47.000Z</time>
      </trkpt>
      <trkpt lat="44.03892" lon="5.90882">
        <ele>734.40002441406</ele>
        <time>2021-02-11T10:58:52.000Z</time>
      </trkpt>
      <trkpt lat="44.03893" lon="5.90876">
        <ele>734.40002441406</ele>
        <time>2021-02-11T10:58:53.000Z</time>
      </trkpt>
      <trkpt lat="44.03896" lon="5.90861">
        <ele>734.79998779297</ele>
        <time>2021-02-11T10:58:56.000Z</time>
      </trkpt>
      <trkpt lat="44.03903" lon="5.90847">
        <ele>735.59997558594</ele>
        <time>2021-02-11T10:59:00.000Z</time>
      </trkpt>
      <trkpt lat="44.03904" lon="5.90841">
        <ele>735.59997558594</ele>
        <time>2021-02-11T10:59:01.000Z</time>
      </trkpt>
      <trkpt lat="44.0391" lon="5.90815">
        <ele>735.59997558594</ele>
        <time>2021-02-11T10:59:05.000Z</time>
      </trkpt>
      <trkpt lat="44.03918" lon="5.90792">
        <ele>735.59997558594</ele>
        <time>2021-02-11T10:59:10.000Z</time>
      </trkpt>
      <trkpt lat="44.03928" lon="5.9077">
        <ele>735.59997558594</ele>
        <time>2021-02-11T10:59:16.000Z</time>
      </trkpt>
      <trkpt lat="44.03932" lon="5.90761">
        <ele>736.20001220703</ele>
        <time>2021-02-11T10:59:20.000Z</time>
      </trkpt>
      <trkpt lat="44.03932" lon="5.9076">
        <ele>736.40002441406</ele>
        <time>2021-02-11T10:59:21.000Z</time>
      </trkpt>
      <trkpt lat="44.03936" lon="5.90756">
        <ele>736.40002441406</ele>
        <time>2021-02-11T10:59:30.000Z</time>
      </trkpt>
      <trkpt lat="44.03939" lon="5.90753">
        <ele>736.40002441406</ele>
        <time>2021-02-11T10:59:34.000Z</time>
      </trkpt>
      <trkpt lat="44.03943" lon="5.9075">
        <ele>736.20001220703</ele>
        <time>2021-02-11T10:59:36.000Z</time>
      </trkpt>
      <trkpt lat="44.03955" lon="5.90748">
        <ele>736</ele>
        <time>2021-02-11T10:59:40.000Z</time>
      </trkpt>
      <trkpt lat="44.03959" lon="5.90748">
        <ele>736</ele>
        <time>2021-02-11T10:59:41.000Z</time>
      </trkpt>
      <trkpt lat="44.03974" lon="5.90748">
        <ele>735.20001220703</ele>
        <time>2021-02-11T10:59:46.000Z</time>
      </trkpt>
      <trkpt lat="44.03978" lon="5.90748">
        <ele>735</ele>
        <time>2021-02-11T10:59:47.000Z</time>
      </trkpt>
      <trkpt lat="44.03988" lon="5.90749">
        <ele>734.20001220703</ele>
        <time>2021-02-11T10:59:50.000Z</time>
      </trkpt>
      <trkpt lat="44.03996" lon="5.9075">
        <ele>733</ele>
        <time>2021-02-11T10:59:52.000Z</time>
      </trkpt>
      <trkpt lat="44.04002" lon="5.90753">
        <ele>731.79998779297</ele>
        <time>2021-02-11T10:59:54.000Z</time>
      </trkpt>
      <trkpt lat="44.04005" lon="5.90754">
        <ele>731</ele>
        <time>2021-02-11T10:59:55.000Z</time>
      </trkpt>
      <trkpt lat="44.04006" lon="5.90753">
        <ele>729.79998779297</ele>
        <time>2021-02-11T10:59:56.000Z</time>
      </trkpt>
      <trkpt lat="44.04007" lon="5.90749">
        <ele>728</ele>
        <time>2021-02-11T10:59:57.000Z</time>
      </trkpt>
      <trkpt lat="44.04007" lon="5.90739">
        <ele>726</ele>
        <time>2021-02-11T10:59:59.000Z</time>
      </trkpt>
      <trkpt lat="44.04007" lon="5.90733">
        <ele>724.79998779297</ele>
        <time>2021-02-11T11:00:00.000Z</time>
      </trkpt>
      <trkpt lat="44.04008" lon="5.90723">
        <ele>723.20001220703</ele>
        <time>2021-02-11T11:00:02.000Z</time>
      </trkpt>
      <trkpt lat="44.04011" lon="5.90719">
        <ele>722.59997558594</ele>
        <time>2021-02-11T11:00:03.000Z</time>
      </trkpt>
      <trkpt lat="44.04015" lon="5.90717">
        <ele>722</ele>
        <time>2021-02-11T11:00:04.000Z</time>
      </trkpt>
      <trkpt lat="44.04023" lon="5.90721">
        <ele>720.20001220703</ele>
        <time>2021-02-11T11:00:06.000Z</time>
      </trkpt>
      <trkpt lat="44.04027" lon="5.90724">
        <ele>719.20001220703</ele>
        <time>2021-02-11T11:00:07.000Z</time>
      </trkpt>
      <trkpt lat="44.04031" lon="5.90727">
        <ele>718.20001220703</ele>
        <time>2021-02-11T11:00:08.000Z</time>
      </trkpt>
      <trkpt lat="44.04034" lon="5.90731">
        <ele>717.40002441406</ele>
        <time>2021-02-11T11:00:09.000Z</time>
      </trkpt>
      <trkpt lat="44.04037" lon="5.90736">
        <ele>716.40002441406</ele>
        <time>2021-02-11T11:00:10.000Z</time>
      </trkpt>
      <trkpt lat="44.04039" lon="5.90741">
        <ele>715.40002441406</ele>
        <time>2021-02-11T11:00:11.000Z</time>
      </trkpt>
      <trkpt lat="44.04042" lon="5.90751">
        <ele>713.59997558594</ele>
        <time>2021-02-11T11:00:13.000Z</time>
      </trkpt>
      <trkpt lat="44.04043" lon="5.90755">
        <ele>713</ele>
        <time>2021-02-11T11:00:14.000Z</time>
      </trkpt>
      <trkpt lat="44.04044" lon="5.90759">
        <ele>712.59997558594</ele>
        <time>2021-02-11T11:00:15.000Z</time>
      </trkpt>
      <trkpt lat="44.04048" lon="5.90769">
        <ele>712.20001220703</ele>
        <time>2021-02-11T11:00:18.000Z</time>
      </trkpt>
      <trkpt lat="44.0405" lon="5.90771">
        <ele>712.20001220703</ele>
        <time>2021-02-11T11:00:19.000Z</time>
      </trkpt>
      <trkpt lat="44.04066" lon="5.90772">
        <ele>712</ele>
        <time>2021-02-11T11:00:24.000Z</time>
      </trkpt>
      <trkpt lat="44.04069" lon="5.90773">
        <ele>712.40002441406</ele>
        <time>2021-02-11T11:00:25.000Z</time>
      </trkpt>
      <trkpt lat="44.04089" lon="5.90777">
        <ele>713.40002441406</ele>
        <time>2021-02-11T11:00:31.000Z</time>
      </trkpt>
      <trkpt lat="44.04092" lon="5.90777">
        <ele>713.59997558594</ele>
        <time>2021-02-11T11:00:32.000Z</time>
      </trkpt>
      <trkpt lat="44.04105" lon="5.90782">
        <ele>715</ele>
        <time>2021-02-11T11:00:37.000Z</time>
      </trkpt>
      <trkpt lat="44.04108" lon="5.90783">
        <ele>715.40002441406</ele>
        <time>2021-02-11T11:00:38.000Z</time>
      </trkpt>
      <trkpt lat="44.04114" lon="5.90787">
        <ele>716.40002441406</ele>
        <time>2021-02-11T11:00:40.000Z</time>
      </trkpt>
      <trkpt lat="44.04123" lon="5.90793">
        <ele>717.59997558594</ele>
        <time>2021-02-11T11:00:43.000Z</time>
      </trkpt>
      <trkpt lat="44.04131" lon="5.90798">
        <ele>718.59997558594</ele>
        <time>2021-02-11T11:00:46.000Z</time>
      </trkpt>
      <trkpt lat="44.04134" lon="5.90798">
        <ele>718.79998779297</ele>
        <time>2021-02-11T11:00:47.000Z</time>
      </trkpt>
      <trkpt lat="44.04143" lon="5.90794">
        <ele>719.59997558594</ele>
        <time>2021-02-11T11:00:51.000Z</time>
      </trkpt>
      <trkpt lat="44.04148" lon="5.90791">
        <ele>719.79998779297</ele>
        <time>2021-02-11T11:00:53.000Z</time>
      </trkpt>
      <trkpt lat="44.04153" lon="5.90789">
        <ele>719.79998779297</ele>
        <time>2021-02-11T11:00:55.000Z</time>
      </trkpt>
      <trkpt lat="44.04166" lon="5.90775">
        <ele>719.20001220703</ele>
        <time>2021-02-11T11:01:00.000Z</time>
      </trkpt>
      <trkpt lat="44.04169" lon="5.90769">
        <ele>718.59997558594</ele>
        <time>2021-02-11T11:01:01.000Z</time>
      </trkpt>
      <trkpt lat="44.0417" lon="5.9076">
        <ele>717.59997558594</ele>
        <time>2021-02-11T11:01:03.000Z</time>
      </trkpt>
      <trkpt lat="44.04166" lon="5.90759">
        <ele>716.40002441406</ele>
        <time>2021-02-11T11:01:05.000Z</time>
      </trkpt>
      <trkpt lat="44.04164" lon="5.9076">
        <ele>715.59997558594</ele>
        <time>2021-02-11T11:01:06.000Z</time>
      </trkpt>
      <trkpt lat="44.04162" lon="5.90761">
        <ele>714.59997558594</ele>
        <time>2021-02-11T11:01:07.000Z</time>
      </trkpt>
      <trkpt lat="44.04156" lon="5.90761">
        <ele>713.40002441406</ele>
        <time>2021-02-11T11:01:09.000Z</time>
      </trkpt>
      <trkpt lat="44.04153" lon="5.90758">
        <ele>713</ele>
        <time>2021-02-11T11:01:10.000Z</time>
      </trkpt>
      <trkpt lat="44.04148" lon="5.90745">
        <ele>712.79998779297</ele>
        <time>2021-02-11T11:01:14.000Z</time>
      </trkpt>
      <trkpt lat="44.04142" lon="5.9074">
        <ele>712.79998779297</ele>
        <time>2021-02-11T11:01:17.000Z</time>
      </trkpt>
      <trkpt lat="44.04129" lon="5.9073">
        <ele>712.79998779297</ele>
        <time>2021-02-11T11:01:22.000Z</time>
      </trkpt>
      <trkpt lat="44.04118" lon="5.90717">
        <ele>713</ele>
        <time>2021-02-11T11:01:26.000Z</time>
      </trkpt>
      <trkpt lat="44.04103" lon="5.90701">
        <ele>713.40002441406</ele>
        <time>2021-02-11T11:01:31.000Z</time>
      </trkpt>
      <trkpt lat="44.04091" lon="5.90691">
        <ele>713.40002441406</ele>
        <time>2021-02-11T11:01:35.000Z</time>
      </trkpt>
      <trkpt lat="44.04086" lon="5.90685">
        <ele>713.40002441406</ele>
        <time>2021-02-11T11:01:39.000Z</time>
      </trkpt>
      <trkpt lat="44.0408" lon="5.90687">
        <ele>712.59997558594</ele>
        <time>2021-02-11T11:01:45.000Z</time>
      </trkpt>
      <trkpt lat="44.04077" lon="5.90688">
        <ele>712.40002441406</ele>
        <time>2021-02-11T11:01:46.000Z</time>
      </trkpt>
      <trkpt lat="44.04074" lon="5.90687">
        <ele>712.20001220703</ele>
        <time>2021-02-11T11:01:49.000Z</time>
      </trkpt>
      <trkpt lat="44.04073" lon="5.90686">
        <ele>712.40002441406</ele>
        <time>2021-02-11T11:01:56.000Z</time>
      </trkpt>
      <trkpt lat="44.04073" lon="5.90684">
        <ele>712.40002441406</ele>
        <time>2021-02-11T11:02:04.000Z</time>
      </trkpt>
      <trkpt lat="44.04073" lon="5.90682">
        <ele>711</ele>
        <time>2021-02-11T11:02:09.000Z</time>
      </trkpt>
      <trkpt lat="44.04071" lon="5.90682">
        <ele>709.79998779297</ele>
        <time>2021-02-11T11:02:11.000Z</time>
      </trkpt>
      <trkpt lat="44.0407" lon="5.90681">
        <ele>709.40002441406</ele>
        <time>2021-02-11T11:02:14.000Z</time>
      </trkpt>
      <trkpt lat="44.0407" lon="5.90681">
        <ele>710.79998779297</ele>
        <time>2021-02-11T11:02:35.000Z</time>
      </trkpt>
      <trkpt lat="44.0407" lon="5.90678">
        <ele>711.20001220703</ele>
        <time>2021-02-11T11:02:39.000Z</time>
      </trkpt>
      <trkpt lat="44.0407" lon="5.90675">
        <ele>711.20001220703</ele>
        <time>2021-02-11T11:02:41.000Z</time>
      </trkpt>
      <trkpt lat="44.04073" lon="5.90663">
        <ele>711.79998779297</ele>
        <time>2021-02-11T11:02:46.000Z</time>
      </trkpt>
      <trkpt lat="44.0407" lon="5.90651">
        <ele>712</ele>
        <time>2021-02-11T11:02:49.000Z</time>
      </trkpt>
      <trkpt lat="44.04069" lon="5.90639">
        <ele>712.40002441406</ele>
        <time>2021-02-11T11:02:52.000Z</time>
      </trkpt>
      <trkpt lat="44.04069" lon="5.9062">
        <ele>713.20001220703</ele>
        <time>2021-02-11T11:02:58.000Z</time>
      </trkpt>
      <trkpt lat="44.04069" lon="5.90613">
        <ele>713.40002441406</ele>
        <time>2021-02-11T11:03:00.000Z</time>
      </trkpt>
      <trkpt lat="44.04068" lon="5.90597">
        <ele>714.59997558594</ele>
        <time>2021-02-11T11:03:04.000Z</time>
      </trkpt>
      <trkpt lat="44.04069" lon="5.90592">
        <ele>715</ele>
        <time>2021-02-11T11:03:05.000Z</time>
      </trkpt>
      <trkpt lat="44.04072" lon="5.90562">
        <ele>715.40002441406</ele>
        <time>2021-02-11T11:03:13.000Z</time>
      </trkpt>
      <trkpt lat="44.04072" lon="5.90528">
        <ele>715.59997558594</ele>
        <time>2021-02-11T11:03:22.000Z</time>
      </trkpt>
      <trkpt lat="44.04081" lon="5.9051">
        <ele>715.40002441406</ele>
        <time>2021-02-11T11:03:28.000Z</time>
      </trkpt>
      <trkpt lat="44.04094" lon="5.9049">
        <ele>715.20001220703</ele>
        <time>2021-02-11T11:03:35.000Z</time>
      </trkpt>
      <trkpt lat="44.04108" lon="5.90469">
        <ele>713.79998779297</ele>
        <time>2021-02-11T11:03:43.000Z</time>
      </trkpt>
      <trkpt lat="44.04112" lon="5.90463">
        <ele>712.79998779297</ele>
        <time>2021-02-11T11:03:45.000Z</time>
      </trkpt>
      <trkpt lat="44.04126" lon="5.90455">
        <ele>712.20001220703</ele>
        <time>2021-02-11T11:03:50.000Z</time>
      </trkpt>
      <trkpt lat="44.04137" lon="5.90453">
        <ele>712</ele>
        <time>2021-02-11T11:03:54.000Z</time>
      </trkpt>
      <trkpt lat="44.04138" lon="5.9045">
        <ele>712</ele>
        <time>2021-02-11T11:03:55.000Z</time>
      </trkpt>
      <trkpt lat="44.04137" lon="5.90437">
        <ele>712</ele>
        <time>2021-02-11T11:03:59.000Z</time>
      </trkpt>
      <trkpt lat="44.04136" lon="5.90433">
        <ele>712</ele>
        <time>2021-02-11T11:04:00.000Z</time>
      </trkpt>
      <trkpt lat="44.04134" lon="5.90416">
        <ele>712</ele>
        <time>2021-02-11T11:04:04.000Z</time>
      </trkpt>
      <trkpt lat="44.04142" lon="5.90398">
        <ele>711.40002441406</ele>
        <time>2021-02-11T11:04:09.000Z</time>
      </trkpt>
      <trkpt lat="44.04149" lon="5.9039">
        <ele>710.79998779297</ele>
        <time>2021-02-11T11:04:12.000Z</time>
      </trkpt>
      <trkpt lat="44.04158" lon="5.90381">
        <ele>710.79998779297</ele>
        <time>2021-02-11T11:04:16.000Z</time>
      </trkpt>
      <trkpt lat="44.04175" lon="5.90363">
        <ele>710.59997558594</ele>
        <time>2021-02-11T11:04:24.000Z</time>
      </trkpt>
      <trkpt lat="44.04186" lon="5.90347">
        <ele>710.59997558594</ele>
        <time>2021-02-11T11:04:30.000Z</time>
      </trkpt>
      <trkpt lat="44.04201" lon="5.90323">
        <ele>710.79998779297</ele>
        <time>2021-02-11T11:04:38.000Z</time>
      </trkpt>
      <trkpt lat="44.04206" lon="5.90321">
        <ele>710.79998779297</ele>
        <time>2021-02-11T11:04:40.000Z</time>
      </trkpt>
      <trkpt lat="44.04211" lon="5.90324">
        <ele>710.79998779297</ele>
        <time>2021-02-11T11:04:42.000Z</time>
      </trkpt>
      <trkpt lat="44.04214" lon="5.9034">
        <ele>711</ele>
        <time>2021-02-11T11:04:46.000Z</time>
      </trkpt>
      <trkpt lat="44.0421" lon="5.90361">
        <ele>711</ele>
        <time>2021-02-11T11:04:51.000Z</time>
      </trkpt>
      <trkpt lat="44.04209" lon="5.90364">
        <ele>711</ele>
        <time>2021-02-11T11:04:52.000Z</time>
      </trkpt>
      <trkpt lat="44.04197" lon="5.90382">
        <ele>711.20001220703</ele>
        <time>2021-02-11T11:04:58.000Z</time>
      </trkpt>
      <trkpt lat="44.04179" lon="5.90404">
        <ele>710.79998779297</ele>
        <time>2021-02-11T11:05:07.000Z</time>
      </trkpt>
      <trkpt lat="44.04177" lon="5.90414">
        <ele>710.40002441406</ele>
        <time>2021-02-11T11:05:10.000Z</time>
      </trkpt>
      <trkpt lat="44.04177" lon="5.9042">
        <ele>710.20001220703</ele>
        <time>2021-02-11T11:05:12.000Z</time>
      </trkpt>
      <trkpt lat="44.04182" lon="5.90432">
        <ele>709.59997558594</ele>
        <time>2021-02-11T11:05:16.000Z</time>
      </trkpt>
      <trkpt lat="44.04184" lon="5.90433">
        <ele>709.40002441406</ele>
        <time>2021-02-11T11:05:17.000Z</time>
      </trkpt>
      <trkpt lat="44.04186" lon="5.90433">
        <ele>709.40002441406</ele>
        <time>2021-02-11T11:05:18.000Z</time>
      </trkpt>
      <trkpt lat="44.04192" lon="5.90427">
        <ele>709</ele>
        <time>2021-02-11T11:05:21.000Z</time>
      </trkpt>
      <trkpt lat="44.04196" lon="5.90422">
        <ele>708.59997558594</ele>
        <time>2021-02-11T11:05:23.000Z</time>
      </trkpt>
      <trkpt lat="44.04205" lon="5.90411">
        <ele>708.20001220703</ele>
        <time>2021-02-11T11:05:27.000Z</time>
      </trkpt>
      <trkpt lat="44.0421" lon="5.90407">
        <ele>708</ele>
        <time>2021-02-11T11:05:29.000Z</time>
      </trkpt>
      <trkpt lat="44.04224" lon="5.90397">
        <ele>707.20001220703</ele>
        <time>2021-02-11T11:05:34.000Z</time>
      </trkpt>
      <trkpt lat="44.04228" lon="5.90395">
        <ele>707</ele>
        <time>2021-02-11T11:05:35.000Z</time>
      </trkpt>
      <trkpt lat="44.04244" lon="5.90374">
        <ele>706.79998779297</ele>
        <time>2021-02-11T11:05:41.000Z</time>
      </trkpt>
      <trkpt lat="44.0425" lon="5.90349">
        <ele>706.79998779297</ele>
        <time>2021-02-11T11:05:47.000Z</time>
      </trkpt>
      <trkpt lat="44.04256" lon="5.90319">
        <ele>707.40002441406</ele>
        <time>2021-02-11T11:05:54.000Z</time>
      </trkpt>
      <trkpt lat="44.04264" lon="5.90305">
        <ele>708.20001220703</ele>
        <time>2021-02-11T11:05:58.000Z</time>
      </trkpt>
      <trkpt lat="44.04269" lon="5.903">
        <ele>708.20001220703</ele>
        <time>2021-02-11T11:06:00.000Z</time>
      </trkpt>
      <trkpt lat="44.0429" lon="5.90287">
        <ele>708.79998779297</ele>
        <time>2021-02-11T11:06:08.000Z</time>
      </trkpt>
      <trkpt lat="44.04305" lon="5.90277">
        <ele>709</ele>
        <time>2021-02-11T11:06:14.000Z</time>
      </trkpt>
      <trkpt lat="44.04313" lon="5.90271">
        <ele>709.59997558594</ele>
        <time>2021-02-11T11:06:17.000Z</time>
      </trkpt>
      <trkpt lat="44.04318" lon="5.90271">
        <ele>709.79998779297</ele>
        <time>2021-02-11T11:06:19.000Z</time>
      </trkpt>
      <trkpt lat="44.04322" lon="5.90274">
        <ele>710.20001220703</ele>
        <time>2021-02-11T11:06:21.000Z</time>
      </trkpt>
      <trkpt lat="44.04326" lon="5.90278">
        <ele>710.59997558594</ele>
        <time>2021-02-11T11:06:23.000Z</time>
      </trkpt>
      <trkpt lat="44.0433" lon="5.90283">
        <ele>711</ele>
        <time>2021-02-11T11:06:26.000Z</time>
      </trkpt>
      <trkpt lat="44.04331" lon="5.90286">
        <ele>711</ele>
        <time>2021-02-11T11:06:27.000Z</time>
      </trkpt>
      <trkpt lat="44.04332" lon="5.90289">
        <ele>711.40002441406</ele>
        <time>2021-02-11T11:06:29.000Z</time>
      </trkpt>
      <trkpt lat="44.04335" lon="5.90293">
        <ele>711.79998779297</ele>
        <time>2021-02-11T11:06:32.000Z</time>
      </trkpt>
      <trkpt lat="44.04336" lon="5.90293">
        <ele>712</ele>
        <time>2021-02-11T11:06:39.000Z</time>
      </trkpt>
      <trkpt lat="44.04339" lon="5.90295">
        <ele>712</ele>
        <time>2021-02-11T11:06:45.000Z</time>
      </trkpt>
      <trkpt lat="44.04339" lon="5.90295">
        <ele>709.79998779297</ele>
        <time>2021-02-11T11:06:56.000Z</time>
      </trkpt>
      <trkpt lat="44.04339" lon="5.90295">
        <ele>708.79998779297</ele>
        <time>2021-02-11T11:06:59.000Z</time>
      </trkpt>
      <trkpt lat="44.04339" lon="5.90295">
        <ele>707.40002441406</ele>
        <time>2021-02-11T11:07:02.000Z</time>
      </trkpt>
      <trkpt lat="44.04339" lon="5.90295">
        <ele>705.79998779297</ele>
        <time>2021-02-11T11:07:05.000Z</time>
      </trkpt>
      <trkpt lat="44.04339" lon="5.90295">
        <ele>704.40002441406</ele>
        <time>2021-02-11T11:07:08.000Z</time>
      </trkpt>
      <trkpt lat="44.04339" lon="5.90295">
        <ele>703</ele>
        <time>2021-02-11T11:07:11.000Z</time>
      </trkpt>
      <trkpt lat="44.04339" lon="5.90295">
        <ele>702.59997558594</ele>
        <time>2021-02-11T11:07:12.000Z</time>
      </trkpt>
      <trkpt lat="44.04339" lon="5.90295">
        <ele>701.79998779297</ele>
        <time>2021-02-11T11:07:13.000Z</time>
      </trkpt>
      <trkpt lat="44.04339" lon="5.90295">
        <ele>700.79998779297</ele>
        <time>2021-02-11T11:07:15.000Z</time>
      </trkpt>
      <trkpt lat="44.04341" lon="5.90296">
        <ele>699.20001220703</ele>
        <time>2021-02-11T11:07:18.000Z</time>
      </trkpt>
      <trkpt lat="44.04345" lon="5.90298">
        <ele>698.40002441406</ele>
        <time>2021-02-11T11:07:20.000Z</time>
      </trkpt>
      <trkpt lat="44.04347" lon="5.90299">
        <ele>698</ele>
        <time>2021-02-11T11:07:21.000Z</time>
      </trkpt>
      <trkpt lat="44.04357" lon="5.90301">
        <ele>697</ele>
        <time>2021-02-11T11:07:24.000Z</time>
      </trkpt>
      <trkpt lat="44.04364" lon="5.90302">
        <ele>696.40002441406</ele>
        <time>2021-02-11T11:07:26.000Z</time>
      </trkpt>
      <trkpt lat="44.04374" lon="5.90304">
        <ele>696</ele>
        <time>2021-02-11T11:07:29.000Z</time>
      </trkpt>
      <trkpt lat="44.04389" lon="5.90308">
        <ele>695.79998779297</ele>
        <time>2021-02-11T11:07:33.000Z</time>
      </trkpt>
      <trkpt lat="44.04409" lon="5.90309">
        <ele>695.79998779297</ele>
        <time>2021-02-11T11:07:38.000Z</time>
      </trkpt>
      <trkpt lat="44.04413" lon="5.90309">
        <ele>696</ele>
        <time>2021-02-11T11:07:39.000Z</time>
      </trkpt>
      <trkpt lat="44.04429" lon="5.90303">
        <ele>696.59997558594</ele>
        <time>2021-02-11T11:07:43.000Z</time>
      </trkpt>
      <trkpt lat="44.04433" lon="5.90301">
        <ele>696.79998779297</ele>
        <time>2021-02-11T11:07:44.000Z</time>
      </trkpt>
      <trkpt lat="44.04447" lon="5.90295">
        <ele>697.79998779297</ele>
        <time>2021-02-11T11:07:48.000Z</time>
      </trkpt>
      <trkpt lat="44.04451" lon="5.90294">
        <ele>698.20001220703</ele>
        <time>2021-02-11T11:07:49.000Z</time>
      </trkpt>
      <trkpt lat="44.04457" lon="5.90295">
        <ele>699</ele>
        <time>2021-02-11T11:07:51.000Z</time>
      </trkpt>
      <trkpt lat="44.04462" lon="5.90295">
        <ele>700</ele>
        <time>2021-02-11T11:07:53.000Z</time>
      </trkpt>
      <trkpt lat="44.04468" lon="5.90295">
        <ele>700.79998779297</ele>
        <time>2021-02-11T11:07:55.000Z</time>
      </trkpt>
      <trkpt lat="44.04473" lon="5.90296">
        <ele>701.20001220703</ele>
        <time>2021-02-11T11:07:56.000Z</time>
      </trkpt>
      <trkpt lat="44.04478" lon="5.90297">
        <ele>701.40002441406</ele>
        <time>2021-02-11T11:07:57.000Z</time>
      </trkpt>
      <trkpt lat="44.04486" lon="5.90298">
        <ele>701.79998779297</ele>
        <time>2021-02-11T11:07:59.000Z</time>
      </trkpt>
      <trkpt lat="44.04494" lon="5.90298">
        <ele>702.20001220703</ele>
        <time>2021-02-11T11:08:01.000Z</time>
      </trkpt>
      <trkpt lat="44.04498" lon="5.90299">
        <ele>702.79998779297</ele>
        <time>2021-02-11T11:08:02.000Z</time>
      </trkpt>
      <trkpt lat="44.04514" lon="5.90299">
        <ele>703.40002441406</ele>
        <time>2021-02-11T11:08:06.000Z</time>
      </trkpt>
      <trkpt lat="44.04518" lon="5.90299">
        <ele>703.59997558594</ele>
        <time>2021-02-11T11:08:07.000Z</time>
      </trkpt>
      <trkpt lat="44.04532" lon="5.903">
        <ele>704.40002441406</ele>
        <time>2021-02-11T11:08:10.000Z</time>
      </trkpt>
      <trkpt lat="44.0455" lon="5.90304">
        <ele>705</ele>
        <time>2021-02-11T11:08:13.000Z</time>
      </trkpt>
      <trkpt lat="44.04561" lon="5.90311">
        <ele>705.40002441406</ele>
        <time>2021-02-11T11:08:15.000Z</time>
      </trkpt>
      <trkpt lat="44.04571" lon="5.9032">
        <ele>705.79998779297</ele>
        <time>2021-02-11T11:08:17.000Z</time>
      </trkpt>
      <trkpt lat="44.04579" lon="5.9033">
        <ele>706.40002441406</ele>
        <time>2021-02-11T11:08:19.000Z</time>
      </trkpt>
      <trkpt lat="44.04583" lon="5.90336">
        <ele>706.40002441406</ele>
        <time>2021-02-11T11:08:20.000Z</time>
      </trkpt>
      <trkpt lat="44.04587" lon="5.90342">
        <ele>706.79998779297</ele>
        <time>2021-02-11T11:08:21.000Z</time>
      </trkpt>
      <trkpt lat="44.04591" lon="5.90347">
        <ele>707</ele>
        <time>2021-02-11T11:08:22.000Z</time>
      </trkpt>
      <trkpt lat="44.04596" lon="5.90352">
        <ele>707.20001220703</ele>
        <time>2021-02-11T11:08:23.000Z</time>
      </trkpt>
      <trkpt lat="44.04602" lon="5.90356">
        <ele>707.40002441406</ele>
        <time>2021-02-11T11:08:24.000Z</time>
      </trkpt>
      <trkpt lat="44.04614" lon="5.90362">
        <ele>708</ele>
        <time>2021-02-11T11:08:26.000Z</time>
      </trkpt>
      <trkpt lat="44.04626" lon="5.90369">
        <ele>708.40002441406</ele>
        <time>2021-02-11T11:08:28.000Z</time>
      </trkpt>
      <trkpt lat="44.04642" lon="5.90385">
        <ele>709.79998779297</ele>
        <time>2021-02-11T11:08:31.000Z</time>
      </trkpt>
      <trkpt lat="44.0466" lon="5.90411">
        <ele>711</ele>
        <time>2021-02-11T11:08:35.000Z</time>
      </trkpt>
      <trkpt lat="44.04664" lon="5.90417">
        <ele>711.40002441406</ele>
        <time>2021-02-11T11:08:36.000Z</time>
      </trkpt>
      <trkpt lat="44.04677" lon="5.90433">
        <ele>712.40002441406</ele>
        <time>2021-02-11T11:08:39.000Z</time>
      </trkpt>
      <trkpt lat="44.04687" lon="5.90449">
        <ele>713.79998779297</ele>
        <time>2021-02-11T11:08:42.000Z</time>
      </trkpt>
      <trkpt lat="44.04695" lon="5.90464">
        <ele>715</ele>
        <time>2021-02-11T11:08:45.000Z</time>
      </trkpt>
      <trkpt lat="44.04701" lon="5.90476">
        <ele>716.20001220703</ele>
        <time>2021-02-11T11:08:48.000Z</time>
      </trkpt>
      <trkpt lat="44.04701" lon="5.90487">
        <ele>717.59997558594</ele>
        <time>2021-02-11T11:08:51.000Z</time>
      </trkpt>
      <trkpt lat="44.04701" lon="5.90493">
        <ele>718.59997558594</ele>
        <time>2021-02-11T11:08:53.000Z</time>
      </trkpt>
      <trkpt lat="44.04701" lon="5.90496">
        <ele>719</ele>
        <time>2021-02-11T11:08:54.000Z</time>
      </trkpt>
      <trkpt lat="44.04703" lon="5.90498">
        <ele>719.40002441406</ele>
        <time>2021-02-11T11:08:55.000Z</time>
      </trkpt>
      <trkpt lat="44.04706" lon="5.90498">
        <ele>720.20001220703</ele>
        <time>2021-02-11T11:08:57.000Z</time>
      </trkpt>
      <trkpt lat="44.04709" lon="5.90497">
        <ele>721.40002441406</ele>
        <time>2021-02-11T11:09:00.000Z</time>
      </trkpt>
      <trkpt lat="44.04709" lon="5.90497">
        <ele>722.20001220703</ele>
        <time>2021-02-11T11:09:02.000Z</time>
      </trkpt>
      <trkpt lat="44.04709" lon="5.90496">
        <ele>722.59997558594</ele>
        <time>2021-02-11T11:09:04.000Z</time>
      </trkpt>
      <trkpt lat="44.04709" lon="5.90496">
        <ele>723</ele>
        <time>2021-02-11T11:09:13.000Z</time>
      </trkpt>
      <trkpt lat="44.04709" lon="5.90496">
        <ele>721.79998779297</ele>
        <time>2021-02-11T11:09:19.000Z</time>
      </trkpt>
      <trkpt lat="44.04709" lon="5.90496">
        <ele>720.40002441406</ele>
        <time>2021-02-11T11:09:22.000Z</time>
      </trkpt>
      <trkpt lat="44.04713" lon="5.90493">
        <ele>719.40002441406</ele>
        <time>2021-02-11T11:09:25.000Z</time>
      </trkpt>
      <trkpt lat="44.04716" lon="5.9049">
        <ele>719.20001220703</ele>
        <time>2021-02-11T11:09:26.000Z</time>
      </trkpt>
      <trkpt lat="44.04722" lon="5.90482">
        <ele>718.40002441406</ele>
        <time>2021-02-11T11:09:28.000Z</time>
      </trkpt>
      <trkpt lat="44.04724" lon="5.90477">
        <ele>717.59997558594</ele>
        <time>2021-02-11T11:09:29.000Z</time>
      </trkpt>
      <trkpt lat="44.04726" lon="5.90472">
        <ele>717.20001220703</ele>
        <time>2021-02-11T11:09:30.000Z</time>
      </trkpt>
      <trkpt lat="44.04729" lon="5.90451">
        <ele>716.59997558594</ele>
        <time>2021-02-11T11:09:34.000Z</time>
      </trkpt>
      <trkpt lat="44.04723" lon="5.90442">
        <ele>716.59997558594</ele>
        <time>2021-02-11T11:09:36.000Z</time>
      </trkpt>
      <trkpt lat="44.04719" lon="5.90438">
        <ele>716.59997558594</ele>
        <time>2021-02-11T11:09:37.000Z</time>
      </trkpt>
      <trkpt lat="44.04712" lon="5.9043">
        <ele>716.59997558594</ele>
        <time>2021-02-11T11:09:39.000Z</time>
      </trkpt>
      <trkpt lat="44.04701" lon="5.90419">
        <ele>716.59997558594</ele>
        <time>2021-02-11T11:09:42.000Z</time>
      </trkpt>
      <trkpt lat="44.04696" lon="5.90411">
        <ele>716.59997558594</ele>
        <time>2021-02-11T11:09:45.000Z</time>
      </trkpt>
      <trkpt lat="44.04693" lon="5.90406">
        <ele>717</ele>
        <time>2021-02-11T11:09:50.000Z</time>
      </trkpt>
      <trkpt lat="44.04691" lon="5.90405">
        <ele>717</ele>
        <time>2021-02-11T11:09:51.000Z</time>
      </trkpt>
      <trkpt lat="44.04689" lon="5.90401">
        <ele>717.79998779297</ele>
        <time>2021-02-11T11:09:54.000Z</time>
      </trkpt>
      <trkpt lat="44.04688" lon="5.90395">
        <ele>719</ele>
        <time>2021-02-11T11:10:03.000Z</time>
      </trkpt>
      <trkpt lat="44.04688" lon="5.90394">
        <ele>719.20001220703</ele>
        <time>2021-02-11T11:10:04.000Z</time>
      </trkpt>
      <trkpt lat="44.04685" lon="5.90385">
        <ele>720</ele>
        <time>2021-02-11T11:10:12.000Z</time>
      </trkpt>
      <trkpt lat="44.04684" lon="5.90381">
        <ele>720.20001220703</ele>
        <time>2021-02-11T11:10:14.000Z</time>
      </trkpt>
      <trkpt lat="44.04678" lon="5.90371">
        <ele>720.79998779297</ele>
        <time>2021-02-11T11:10:19.000Z</time>
      </trkpt>
      <trkpt lat="44.04677" lon="5.90369">
        <ele>720.79998779297</ele>
        <time>2021-02-11T11:10:20.000Z</time>
      </trkpt>
      <trkpt lat="44.04666" lon="5.90357">
        <ele>721.40002441406</ele>
        <time>2021-02-11T11:10:24.000Z</time>
      </trkpt>
      <trkpt lat="44.04658" lon="5.90352">
        <ele>722.20001220703</ele>
        <time>2021-02-11T11:10:28.000Z</time>
      </trkpt>
      <trkpt lat="44.04653" lon="5.9035">
        <ele>722.59997558594</ele>
        <time>2021-02-11T11:10:30.000Z</time>
      </trkpt>
      <trkpt lat="44.04643" lon="5.90344">
        <ele>723.40002441406</ele>
        <time>2021-02-11T11:10:34.000Z</time>
      </trkpt>
      <trkpt lat="44.04632" lon="5.90337">
        <ele>724</ele>
        <time>2021-02-11T11:10:38.000Z</time>
      </trkpt>
      <trkpt lat="44.0463" lon="5.90335">
        <ele>724.20001220703</ele>
        <time>2021-02-11T11:10:39.000Z</time>
      </trkpt>
      <trkpt lat="44.04628" lon="5.90327">
        <ele>724.79998779297</ele>
        <time>2021-02-11T11:10:42.000Z</time>
      </trkpt>
      <trkpt lat="44.04627" lon="5.90324">
        <ele>725</ele>
        <time>2021-02-11T11:10:44.000Z</time>
      </trkpt>
      <trkpt lat="44.04626" lon="5.90322">
        <ele>725.59997558594</ele>
        <time>2021-02-11T11:10:46.000Z</time>
      </trkpt>
      <trkpt lat="44.0462" lon="5.90312">
        <ele>726.20001220703</ele>
        <time>2021-02-11T11:10:51.000Z</time>
      </trkpt>
      <trkpt lat="44.04611" lon="5.90306">
        <ele>727</ele>
        <time>2021-02-11T11:10:55.000Z</time>
      </trkpt>
      <trkpt lat="44.04609" lon="5.90301">
        <ele>727.59997558594</ele>
        <time>2021-02-11T11:10:58.000Z</time>
      </trkpt>
      <trkpt lat="44.04606" lon="5.90298">
        <ele>727.79998779297</ele>
        <time>2021-02-11T11:11:00.000Z</time>
      </trkpt>
      <trkpt lat="44.04599" lon="5.90292">
        <ele>728.20001220703</ele>
        <time>2021-02-11T11:11:03.000Z</time>
      </trkpt>
      <trkpt lat="44.04595" lon="5.90288">
        <ele>728.40002441406</ele>
        <time>2021-02-11T11:11:05.000Z</time>
      </trkpt>
      <trkpt lat="44.04593" lon="5.90283">
        <ele>728.59997558594</ele>
        <time>2021-02-11T11:11:07.000Z</time>
      </trkpt>
      <trkpt lat="44.04592" lon="5.9028">
        <ele>729</ele>
        <time>2021-02-11T11:11:08.000Z</time>
      </trkpt>
      <trkpt lat="44.04589" lon="5.90267">
        <ele>729.20001220703</ele>
        <time>2021-02-11T11:11:13.000Z</time>
      </trkpt>
      <trkpt lat="44.04587" lon="5.90263">
        <ele>725.59997558594</ele>
        <time>2021-02-11T11:11:18.000Z</time>
      </trkpt>
      <trkpt lat="44.04587" lon="5.90263">
        <ele>714</ele>
        <time>2021-02-11T11:11:19.000Z</time>
      </trkpt>
      <trkpt lat="44.04587" lon="5.90263">
        <ele>705.40002441406</ele>
        <time>2021-02-11T11:11:20.000Z</time>
      </trkpt>
      <trkpt lat="44.04587" lon="5.90263">
        <ele>700.59997558594</ele>
        <time>2021-02-11T11:11:21.000Z</time>
      </trkpt>
      <trkpt lat="44.04588" lon="5.90263">
        <ele>698.20001220703</ele>
        <time>2021-02-11T11:11:22.000Z</time>
      </trkpt>
      <trkpt lat="44.04588" lon="5.90263">
        <ele>697</ele>
        <time>2021-02-11T11:11:23.000Z</time>
      </trkpt>
      <trkpt lat="44.04588" lon="5.90263">
        <ele>696</ele>
        <time>2021-02-11T11:11:24.000Z</time>
      </trkpt>
      <trkpt lat="44.04587" lon="5.90263">
        <ele>695.59997558594</ele>
        <time>2021-02-11T11:11:36.000Z</time>
      </trkpt>
      <trkpt lat="44.04587" lon="5.90262">
        <ele>695.40002441406</ele>
        <time>2021-02-11T11:11:49.000Z</time>
      </trkpt>
      <trkpt lat="44.04587" lon="5.90256">
        <ele>695.40002441406</ele>
        <time>2021-02-11T11:11:56.000Z</time>
      </trkpt>
      <trkpt lat="44.0459" lon="5.90255">
        <ele>695.20001220703</ele>
        <time>2021-02-11T11:12:00.000Z</time>
      </trkpt>
      <trkpt lat="44.04592" lon="5.90256">
        <ele>694.79998779297</ele>
        <time>2021-02-11T11:12:02.000Z</time>
      </trkpt>
      <trkpt lat="44.04595" lon="5.90255">
        <ele>693.59997558594</ele>
        <time>2021-02-11T11:12:05.000Z</time>
      </trkpt>
      <trkpt lat="44.04596" lon="5.90253">
        <ele>693.40002441406</ele>
        <time>2021-02-11T11:12:06.000Z</time>
      </trkpt>
      <trkpt lat="44.04595" lon="5.90252">
        <ele>693.20001220703</ele>
        <time>2021-02-11T11:12:07.000Z</time>
      </trkpt>
      <trkpt lat="44.04596" lon="5.9025">
        <ele>693.20001220703</ele>
        <time>2021-02-11T11:12:08.000Z</time>
      </trkpt>
      <trkpt lat="44.046" lon="5.90249">
        <ele>693</ele>
        <time>2021-02-11T11:12:10.000Z</time>
      </trkpt>
      <trkpt lat="44.04604" lon="5.90251">
        <ele>692.59997558594</ele>
        <time>2021-02-11T11:12:12.000Z</time>
      </trkpt>
      <trkpt lat="44.04605" lon="5.90248">
        <ele>692</ele>
        <time>2021-02-11T11:12:14.000Z</time>
      </trkpt>
      <trkpt lat="44.04603" lon="5.90243">
        <ele>691.40002441406</ele>
        <time>2021-02-11T11:12:16.000Z</time>
      </trkpt>
      <trkpt lat="44.04602" lon="5.90238">
        <ele>690.59997558594</ele>
        <time>2021-02-11T11:12:18.000Z</time>
      </trkpt>
      <trkpt lat="44.04603" lon="5.90237">
        <ele>690</ele>
        <time>2021-02-11T11:12:19.000Z</time>
      </trkpt>
      <trkpt lat="44.04604" lon="5.90238">
        <ele>689.59997558594</ele>
        <time>2021-02-11T11:12:20.000Z</time>
      </trkpt>
      <trkpt lat="44.04608" lon="5.90241">
        <ele>688.79998779297</ele>
        <time>2021-02-11T11:12:22.000Z</time>
      </trkpt>
      <trkpt lat="44.04617" lon="5.90244">
        <ele>688.20001220703</ele>
        <time>2021-02-11T11:12:26.000Z</time>
      </trkpt>
      <trkpt lat="44.04618" lon="5.9024">
        <ele>687.79998779297</ele>
        <time>2021-02-11T11:12:29.000Z</time>
      </trkpt>
      <trkpt lat="44.04617" lon="5.9024">
        <ele>687.59997558594</ele>
        <time>2021-02-11T11:12:30.000Z</time>
      </trkpt>
      <trkpt lat="44.04612" lon="5.90239">
        <ele>687</ele>
        <time>2021-02-11T11:12:33.000Z</time>
      </trkpt>
      <trkpt lat="44.04611" lon="5.90236">
        <ele>686.59997558594</ele>
        <time>2021-02-11T11:12:35.000Z</time>
      </trkpt>
      <trkpt lat="44.04608" lon="5.90231">
        <ele>686.20001220703</ele>
        <time>2021-02-11T11:12:37.000Z</time>
      </trkpt>
      <trkpt lat="44.04605" lon="5.90226">
        <ele>686</ele>
        <time>2021-02-11T11:12:39.000Z</time>
      </trkpt>
      <trkpt lat="44.04601" lon="5.90223">
        <ele>685.79998779297</ele>
        <time>2021-02-11T11:12:41.000Z</time>
      </trkpt>
      <trkpt lat="44.04602" lon="5.90214">
        <ele>685.59997558594</ele>
        <time>2021-02-11T11:12:44.000Z</time>
      </trkpt>
      <trkpt lat="44.04602" lon="5.90208">
        <ele>685.59997558594</ele>
        <time>2021-02-11T11:12:45.000Z</time>
      </trkpt>
      <trkpt lat="44.04606" lon="5.90192">
        <ele>685.40002441406</ele>
        <time>2021-02-11T11:12:48.000Z</time>
      </trkpt>
      <trkpt lat="44.04618" lon="5.90188">
        <ele>684.79998779297</ele>
        <time>2021-02-11T11:12:51.000Z</time>
      </trkpt>
      <trkpt lat="44.04622" lon="5.90192">
        <ele>684.40002441406</ele>
        <time>2021-02-11T11:12:52.000Z</time>
      </trkpt>
      <trkpt lat="44.04627" lon="5.90201">
        <ele>683</ele>
        <time>2021-02-11T11:12:54.000Z</time>
      </trkpt>
      <trkpt lat="44.04632" lon="5.90208">
        <ele>681.79998779297</ele>
        <time>2021-02-11T11:12:56.000Z</time>
      </trkpt>
      <trkpt lat="44.04634" lon="5.90212">
        <ele>681</ele>
        <time>2021-02-11T11:12:57.000Z</time>
      </trkpt>
      <trkpt lat="44.04637" lon="5.90215">
        <ele>680.20001220703</ele>
        <time>2021-02-11T11:12:58.000Z</time>
      </trkpt>
      <trkpt lat="44.04642" lon="5.90223">
        <ele>679.59997558594</ele>
        <time>2021-02-11T11:13:00.000Z</time>
      </trkpt>
      <trkpt lat="44.04652" lon="5.90237">
        <ele>679.40002441406</ele>
        <time>2021-02-11T11:13:03.000Z</time>
      </trkpt>
      <trkpt lat="44.04655" lon="5.90242">
        <ele>679.40002441406</ele>
        <time>2021-02-11T11:13:04.000Z</time>
      </trkpt>
      <trkpt lat="44.04658" lon="5.90247">
        <ele>679.20001220703</ele>
        <time>2021-02-11T11:13:05.000Z</time>
      </trkpt>
      <trkpt lat="44.04661" lon="5.90258">
        <ele>679</ele>
        <time>2021-02-11T11:13:07.000Z</time>
      </trkpt>
      <trkpt lat="44.04663" lon="5.90268">
        <ele>679.20001220703</ele>
        <time>2021-02-11T11:13:09.000Z</time>
      </trkpt>
      <trkpt lat="44.04667" lon="5.90283">
        <ele>679.20001220703</ele>
        <time>2021-02-11T11:13:12.000Z</time>
      </trkpt>
      <trkpt lat="44.04678" lon="5.9029">
        <ele>679.40002441406</ele>
        <time>2021-02-11T11:13:17.000Z</time>
      </trkpt>
      <trkpt lat="44.047" lon="5.90295">
        <ele>679.20001220703</ele>
        <time>2021-02-11T11:13:23.000Z</time>
      </trkpt>
      <trkpt lat="44.04721" lon="5.90297">
        <ele>679.40002441406</ele>
        <time>2021-02-11T11:13:28.000Z</time>
      </trkpt>
      <trkpt lat="44.04729" lon="5.90297">
        <ele>679.59997558594</ele>
        <time>2021-02-11T11:13:30.000Z</time>
      </trkpt>
      <trkpt lat="44.04737" lon="5.90297">
        <ele>679.59997558594</ele>
        <time>2021-02-11T11:13:32.000Z</time>
      </trkpt>
      <trkpt lat="44.04742" lon="5.90298">
        <ele>679.79998779297</ele>
        <time>2021-02-11T11:13:33.000Z</time>
      </trkpt>
      <trkpt lat="44.04749" lon="5.90306">
        <ele>680</ele>
        <time>2021-02-11T11:13:36.000Z</time>
      </trkpt>
      <trkpt lat="44.0475" lon="5.9031">
        <ele>680</ele>
        <time>2021-02-11T11:13:37.000Z</time>
      </trkpt>
      <trkpt lat="44.04749" lon="5.90326">
        <ele>680.20001220703</ele>
        <time>2021-02-11T11:13:40.000Z</time>
      </trkpt>
      <trkpt lat="44.04746" lon="5.90338">
        <ele>680.20001220703</ele>
        <time>2021-02-11T11:13:42.000Z</time>
      </trkpt>
      <trkpt lat="44.04747" lon="5.90345">
        <ele>679.79998779297</ele>
        <time>2021-02-11T11:13:44.000Z</time>
      </trkpt>
      <trkpt lat="44.04749" lon="5.90352">
        <ele>678.79998779297</ele>
        <time>2021-02-11T11:13:46.000Z</time>
      </trkpt>
      <trkpt lat="44.04751" lon="5.90354">
        <ele>677.79998779297</ele>
        <time>2021-02-11T11:13:47.000Z</time>
      </trkpt>
      <trkpt lat="44.04757" lon="5.90357">
        <ele>677.20001220703</ele>
        <time>2021-02-11T11:13:49.000Z</time>
      </trkpt>
      <trkpt lat="44.04772" lon="5.90362">
        <ele>677</ele>
        <time>2021-02-11T11:13:54.000Z</time>
      </trkpt>
      <trkpt lat="44.04781" lon="5.90374">
        <ele>677</ele>
        <time>2021-02-11T11:13:58.000Z</time>
      </trkpt>
      <trkpt lat="44.04795" lon="5.9039">
        <ele>677.59997558594</ele>
        <time>2021-02-11T11:14:03.000Z</time>
      </trkpt>
      <trkpt lat="44.04808" lon="5.90401">
        <ele>679</ele>
        <time>2021-02-11T11:14:07.000Z</time>
      </trkpt>
      <trkpt lat="44.04829" lon="5.90414">
        <ele>679.79998779297</ele>
        <time>2021-02-11T11:14:13.000Z</time>
      </trkpt>
      <trkpt lat="44.04838" lon="5.9042">
        <ele>680.40002441406</ele>
        <time>2021-02-11T11:14:15.000Z</time>
      </trkpt>
      <trkpt lat="44.04852" lon="5.90429">
        <ele>681</ele>
        <time>2021-02-11T11:14:19.000Z</time>
      </trkpt>
      <trkpt lat="44.04868" lon="5.9044">
        <ele>681.40002441406</ele>
        <time>2021-02-11T11:14:23.000Z</time>
      </trkpt>
      <trkpt lat="44.04872" lon="5.90442">
        <ele>681.40002441406</ele>
        <time>2021-02-11T11:14:24.000Z</time>
      </trkpt>
      <trkpt lat="44.04886" lon="5.90451">
        <ele>681.59997558594</ele>
        <time>2021-02-11T11:14:27.000Z</time>
      </trkpt>
      <trkpt lat="44.04897" lon="5.90457">
        <ele>681.59997558594</ele>
        <time>2021-02-11T11:14:29.000Z</time>
      </trkpt>
      <trkpt lat="44.04899" lon="5.9046">
        <ele>681.59997558594</ele>
        <time>2021-02-11T11:14:30.000Z</time>
      </trkpt>
      <trkpt lat="44.04901" lon="5.90469">
        <ele>681.59997558594</ele>
        <time>2021-02-11T11:14:32.000Z</time>
      </trkpt>
      <trkpt lat="44.04891" lon="5.90479">
        <ele>681.59997558594</ele>
        <time>2021-02-11T11:14:35.000Z</time>
      </trkpt>
      <trkpt lat="44.04886" lon="5.90483">
        <ele>681.59997558594</ele>
        <time>2021-02-11T11:14:36.000Z</time>
      </trkpt>
      <trkpt lat="44.04877" lon="5.90496">
        <ele>681.59997558594</ele>
        <time>2021-02-11T11:14:39.000Z</time>
      </trkpt>
      <trkpt lat="44.04862" lon="5.90513">
        <ele>680</ele>
        <time>2021-02-11T11:14:43.000Z</time>
      </trkpt>
      <trkpt lat="44.04856" lon="5.90516">
        <ele>679</ele>
        <time>2021-02-11T11:14:44.000Z</time>
      </trkpt>
      <trkpt lat="44.04845" lon="5.90521">
        <ele>678</ele>
        <time>2021-02-11T11:14:46.000Z</time>
      </trkpt>
      <trkpt lat="44.04835" lon="5.90524">
        <ele>676.40002441406</ele>
        <time>2021-02-11T11:14:48.000Z</time>
      </trkpt>
      <trkpt lat="44.04831" lon="5.90525">
        <ele>675.40002441406</ele>
        <time>2021-02-11T11:14:49.000Z</time>
      </trkpt>
      <trkpt lat="44.04827" lon="5.90527">
        <ele>674.20001220703</ele>
        <time>2021-02-11T11:14:50.000Z</time>
      </trkpt>
      <trkpt lat="44.04825" lon="5.90531">
        <ele>673.20001220703</ele>
        <time>2021-02-11T11:14:51.000Z</time>
      </trkpt>
      <trkpt lat="44.04823" lon="5.90535">
        <ele>672.59997558594</ele>
        <time>2021-02-11T11:14:52.000Z</time>
      </trkpt>
      <trkpt lat="44.0482" lon="5.90546">
        <ele>671.79998779297</ele>
        <time>2021-02-11T11:14:55.000Z</time>
      </trkpt>
      <trkpt lat="44.04821" lon="5.90548">
        <ele>671.59997558594</ele>
        <time>2021-02-11T11:14:56.000Z</time>
      </trkpt>
      <trkpt lat="44.04823" lon="5.90552">
        <ele>670.40002441406</ele>
        <time>2021-02-11T11:14:59.000Z</time>
      </trkpt>
      <trkpt lat="44.04824" lon="5.90554">
        <ele>669</ele>
        <time>2021-02-11T11:15:01.000Z</time>
      </trkpt>
      <trkpt lat="44.04824" lon="5.90554">
        <ele>667.59997558594</ele>
        <time>2021-02-11T11:15:04.000Z</time>
      </trkpt>
      <trkpt lat="44.04824" lon="5.90554">
        <ele>666.59997558594</ele>
        <time>2021-02-11T11:15:08.000Z</time>
      </trkpt>
      <trkpt lat="44.04824" lon="5.90554">
        <ele>666.59997558594</ele>
        <time>2021-02-11T11:15:09.000Z</time>
      </trkpt>
      <trkpt lat="44.04826" lon="5.90558">
        <ele>666.40002441406</ele>
        <time>2021-02-11T11:15:23.000Z</time>
      </trkpt>
      <trkpt lat="44.04828" lon="5.90565">
        <ele>666.20001220703</ele>
        <time>2021-02-11T11:15:27.000Z</time>
      </trkpt>
      <trkpt lat="44.04829" lon="5.90568">
        <ele>665.40002441406</ele>
        <time>2021-02-11T11:15:31.000Z</time>
      </trkpt>
      <trkpt lat="44.04831" lon="5.9057">
        <ele>664.40002441406</ele>
        <time>2021-02-11T11:15:33.000Z</time>
      </trkpt>
      <trkpt lat="44.04833" lon="5.90571">
        <ele>664</ele>
        <time>2021-02-11T11:15:34.000Z</time>
      </trkpt>
      <trkpt lat="44.04839" lon="5.90566">
        <ele>663.40002441406</ele>
        <time>2021-02-11T11:15:38.000Z</time>
      </trkpt>
      <trkpt lat="44.04846" lon="5.90562">
        <ele>662.79998779297</ele>
        <time>2021-02-11T11:15:41.000Z</time>
      </trkpt>
      <trkpt lat="44.04848" lon="5.90562">
        <ele>662.40002441406</ele>
        <time>2021-02-11T11:15:42.000Z</time>
      </trkpt>
      <trkpt lat="44.04858" lon="5.90574">
        <ele>661.59997558594</ele>
        <time>2021-02-11T11:15:46.000Z</time>
      </trkpt>
      <trkpt lat="44.04867" lon="5.9058">
        <ele>660.20001220703</ele>
        <time>2021-02-11T11:15:50.000Z</time>
      </trkpt>
      <trkpt lat="44.04874" lon="5.90576">
        <ele>659</ele>
        <time>2021-02-11T11:15:52.000Z</time>
      </trkpt>
      <trkpt lat="44.04883" lon="5.90573">
        <ele>657.20001220703</ele>
        <time>2021-02-11T11:15:54.000Z</time>
      </trkpt>
      <trkpt lat="44.04891" lon="5.90569">
        <ele>656.20001220703</ele>
        <time>2021-02-11T11:15:56.000Z</time>
      </trkpt>
      <trkpt lat="44.04898" lon="5.90565">
        <ele>655</ele>
        <time>2021-02-11T11:15:58.000Z</time>
      </trkpt>
      <trkpt lat="44.04901" lon="5.90564">
        <ele>654.79998779297</ele>
        <time>2021-02-11T11:15:59.000Z</time>
      </trkpt>
      <trkpt lat="44.04922" lon="5.90561">
        <ele>654.40002441406</ele>
        <time>2021-02-11T11:16:04.000Z</time>
      </trkpt>
      <trkpt lat="44.04952" lon="5.90554">
        <ele>654.20001220703</ele>
        <time>2021-02-11T11:16:10.000Z</time>
      </trkpt>
      <trkpt lat="44.04972" lon="5.90549">
        <ele>654.20001220703</ele>
        <time>2021-02-11T11:16:14.000Z</time>
      </trkpt>
      <trkpt lat="44.04976" lon="5.9055">
        <ele>654.20001220703</ele>
        <time>2021-02-11T11:16:15.000Z</time>
      </trkpt>
      <trkpt lat="44.04979" lon="5.90554">
        <ele>653.79998779297</ele>
        <time>2021-02-11T11:16:16.000Z</time>
      </trkpt>
      <trkpt lat="44.04981" lon="5.90559">
        <ele>653.40002441406</ele>
        <time>2021-02-11T11:16:17.000Z</time>
      </trkpt>
      <trkpt lat="44.04984" lon="5.9057">
        <ele>652.59997558594</ele>
        <time>2021-02-11T11:16:19.000Z</time>
      </trkpt>
      <trkpt lat="44.04984" lon="5.90578">
        <ele>651.20001220703</ele>
        <time>2021-02-11T11:16:21.000Z</time>
      </trkpt>
      <trkpt lat="44.04976" lon="5.90584">
        <ele>649.79998779297</ele>
        <time>2021-02-11T11:16:24.000Z</time>
      </trkpt>
      <trkpt lat="44.04972" lon="5.90585">
        <ele>648.59997558594</ele>
        <time>2021-02-11T11:16:25.000Z</time>
      </trkpt>
      <trkpt lat="44.04964" lon="5.90586">
        <ele>647</ele>
        <time>2021-02-11T11:16:27.000Z</time>
      </trkpt>
      <trkpt lat="44.04959" lon="5.90587">
        <ele>646.40002441406</ele>
        <time>2021-02-11T11:16:28.000Z</time>
      </trkpt>
      <trkpt lat="44.04954" lon="5.90588">
        <ele>645.59997558594</ele>
        <time>2021-02-11T11:16:29.000Z</time>
      </trkpt>
      <trkpt lat="44.04949" lon="5.90588">
        <ele>644.79998779297</ele>
        <time>2021-02-11T11:16:30.000Z</time>
      </trkpt>
      <trkpt lat="44.04945" lon="5.90588">
        <ele>644.20001220703</ele>
        <time>2021-02-11T11:16:31.000Z</time>
      </trkpt>
      <trkpt lat="44.0494" lon="5.9059">
        <ele>643</ele>
        <time>2021-02-11T11:16:33.000Z</time>
      </trkpt>
      <trkpt lat="44.04938" lon="5.90594">
        <ele>641.79998779297</ele>
        <time>2021-02-11T11:16:35.000Z</time>
      </trkpt>
      <trkpt lat="44.04937" lon="5.90597">
        <ele>641.20001220703</ele>
        <time>2021-02-11T11:16:36.000Z</time>
      </trkpt>
      <trkpt lat="44.04936" lon="5.906">
        <ele>640.79998779297</ele>
        <time>2021-02-11T11:16:37.000Z</time>
      </trkpt>
      <trkpt lat="44.04936" lon="5.90603">
        <ele>640.59997558594</ele>
        <time>2021-02-11T11:16:38.000Z</time>
      </trkpt>
      <trkpt lat="44.04936" lon="5.90611">
        <ele>640.40002441406</ele>
        <time>2021-02-11T11:16:41.000Z</time>
      </trkpt>
      <trkpt lat="44.04941" lon="5.90619">
        <ele>640.40002441406</ele>
        <time>2021-02-11T11:16:44.000Z</time>
      </trkpt>
      <trkpt lat="44.04944" lon="5.90622">
        <ele>640.59997558594</ele>
        <time>2021-02-11T11:16:45.000Z</time>
      </trkpt>
      <trkpt lat="44.04951" lon="5.90635">
        <ele>641.59997558594</ele>
        <time>2021-02-11T11:16:49.000Z</time>
      </trkpt>
      <trkpt lat="44.04955" lon="5.90641">
        <ele>641.79998779297</ele>
        <time>2021-02-11T11:16:51.000Z</time>
      </trkpt>
      <trkpt lat="44.04961" lon="5.90652">
        <ele>642.40002441406</ele>
        <time>2021-02-11T11:16:54.000Z</time>
      </trkpt>
      <trkpt lat="44.04967" lon="5.90663">
        <ele>643.20001220703</ele>
        <time>2021-02-11T11:16:57.000Z</time>
      </trkpt>
      <trkpt lat="44.04969" lon="5.90671">
        <ele>643.79998779297</ele>
        <time>2021-02-11T11:16:59.000Z</time>
      </trkpt>
      <trkpt lat="44.0497" lon="5.90676">
        <ele>644.20001220703</ele>
        <time>2021-02-11T11:17:00.000Z</time>
      </trkpt>
      <trkpt lat="44.0497" lon="5.90686">
        <ele>644.79998779297</ele>
        <time>2021-02-11T11:17:02.000Z</time>
      </trkpt>
      <trkpt lat="44.04969" lon="5.9069">
        <ele>645.20001220703</ele>
        <time>2021-02-11T11:17:03.000Z</time>
      </trkpt>
      <trkpt lat="44.04962" lon="5.90696">
        <ele>646.59997558594</ele>
        <time>2021-02-11T11:17:06.000Z</time>
      </trkpt>
      <trkpt lat="44.04958" lon="5.90699">
        <ele>647.79998779297</ele>
        <time>2021-02-11T11:17:08.000Z</time>
      </trkpt>
      <trkpt lat="44.04953" lon="5.907">
        <ele>648.59997558594</ele>
        <time>2021-02-11T11:17:10.000Z</time>
      </trkpt>
      <trkpt lat="44.04951" lon="5.90701">
        <ele>648.79998779297</ele>
        <time>2021-02-11T11:17:11.000Z</time>
      </trkpt>
      <trkpt lat="44.04944" lon="5.90703">
        <ele>650</ele>
        <time>2021-02-11T11:17:14.000Z</time>
      </trkpt>
      <trkpt lat="44.04941" lon="5.90703">
        <ele>650.40002441406</ele>
        <time>2021-02-11T11:17:15.000Z</time>
      </trkpt>
      <trkpt lat="44.04932" lon="5.90706">
        <ele>651.59997558594</ele>
        <time>2021-02-11T11:17:18.000Z</time>
      </trkpt>
      <trkpt lat="44.04928" lon="5.90706">
        <ele>652</ele>
        <time>2021-02-11T11:17:19.000Z</time>
      </trkpt>
      <trkpt lat="44.04916" lon="5.90705">
        <ele>652.79998779297</ele>
        <time>2021-02-11T11:17:22.000Z</time>
      </trkpt>
      <trkpt lat="44.04903" lon="5.90707">
        <ele>653.20001220703</ele>
        <time>2021-02-11T11:17:25.000Z</time>
      </trkpt>
      <trkpt lat="44.04893" lon="5.9071">
        <ele>653.20001220703</ele>
        <time>2021-02-11T11:17:27.000Z</time>
      </trkpt>
      <trkpt lat="44.04883" lon="5.9071">
        <ele>653.20001220703</ele>
        <time>2021-02-11T11:17:29.000Z</time>
      </trkpt>
      <trkpt lat="44.04864" lon="5.90719">
        <ele>652.79998779297</ele>
        <time>2021-02-11T11:17:34.000Z</time>
      </trkpt>
      <trkpt lat="44.04849" lon="5.90741">
        <ele>652.40002441406</ele>
        <time>2021-02-11T11:17:39.000Z</time>
      </trkpt>
      <trkpt lat="44.04847" lon="5.90762">
        <ele>652.40002441406</ele>
        <time>2021-02-11T11:17:43.000Z</time>
      </trkpt>
      <trkpt lat="44.04846" lon="5.90785">
        <ele>652.40002441406</ele>
        <time>2021-02-11T11:17:48.000Z</time>
      </trkpt>
      <trkpt lat="44.04844" lon="5.90804">
        <ele>652.40002441406</ele>
        <time>2021-02-11T11:17:52.000Z</time>
      </trkpt>
      <trkpt lat="44.04855" lon="5.90822">
        <ele>652.20001220703</ele>
        <time>2021-02-11T11:17:57.000Z</time>
      </trkpt>
      <trkpt lat="44.04868" lon="5.90829">
        <ele>651.40002441406</ele>
        <time>2021-02-11T11:18:00.000Z</time>
      </trkpt>
      <trkpt lat="44.04874" lon="5.9083">
        <ele>650.79998779297</ele>
        <time>2021-02-11T11:18:01.000Z</time>
      </trkpt>
      <trkpt lat="44.04885" lon="5.90828">
        <ele>650</ele>
        <time>2021-02-11T11:18:03.000Z</time>
      </trkpt>
      <trkpt lat="44.04891" lon="5.90826">
        <ele>649.40002441406</ele>
        <time>2021-02-11T11:18:04.000Z</time>
      </trkpt>
      <trkpt lat="44.04896" lon="5.90824">
        <ele>647.20001220703</ele>
        <time>2021-02-11T11:18:05.000Z</time>
      </trkpt>
      <trkpt lat="44.04902" lon="5.90822">
        <ele>645.79998779297</ele>
        <time>2021-02-11T11:18:06.000Z</time>
      </trkpt>
      <trkpt lat="44.04906" lon="5.90818">
        <ele>644.59997558594</ele>
        <time>2021-02-11T11:18:07.000Z</time>
      </trkpt>
      <trkpt lat="44.04911" lon="5.90814">
        <ele>643.40002441406</ele>
        <time>2021-02-11T11:18:08.000Z</time>
      </trkpt>
      <trkpt lat="44.04915" lon="5.90809">
        <ele>642</ele>
        <time>2021-02-11T11:18:09.000Z</time>
      </trkpt>
      <trkpt lat="44.04921" lon="5.90797">
        <ele>640.20001220703</ele>
        <time>2021-02-11T11:18:11.000Z</time>
      </trkpt>
      <trkpt lat="44.04922" lon="5.90791">
        <ele>639.59997558594</ele>
        <time>2021-02-11T11:18:12.000Z</time>
      </trkpt>
      <trkpt lat="44.04921" lon="5.90779">
        <ele>638.79998779297</ele>
        <time>2021-02-11T11:18:14.000Z</time>
      </trkpt>
      <trkpt lat="44.04924" lon="5.9077">
        <ele>638.20001220703</ele>
        <time>2021-02-11T11:18:16.000Z</time>
      </trkpt>
      <trkpt lat="44.04927" lon="5.90767">
        <ele>637.59997558594</ele>
        <time>2021-02-11T11:18:17.000Z</time>
      </trkpt>
      <trkpt lat="44.04934" lon="5.90767">
        <ele>637.20001220703</ele>
        <time>2021-02-11T11:18:19.000Z</time>
      </trkpt>
      <trkpt lat="44.04939" lon="5.90768">
        <ele>636.79998779297</ele>
        <time>2021-02-11T11:18:21.000Z</time>
      </trkpt>
      <trkpt lat="44.04942" lon="5.90768">
        <ele>636.40002441406</ele>
        <time>2021-02-11T11:18:22.000Z</time>
      </trkpt>
      <trkpt lat="44.04946" lon="5.90769">
        <ele>636</ele>
        <time>2021-02-11T11:18:23.000Z</time>
      </trkpt>
      <trkpt lat="44.04953" lon="5.90772">
        <ele>635.40002441406</ele>
        <time>2021-02-11T11:18:25.000Z</time>
      </trkpt>
      <trkpt lat="44.04964" lon="5.90777">
        <ele>634.20001220703</ele>
        <time>2021-02-11T11:18:28.000Z</time>
      </trkpt>
      <trkpt lat="44.04976" lon="5.90778">
        <ele>633.79998779297</ele>
        <time>2021-02-11T11:18:32.000Z</time>
      </trkpt>
      <trkpt lat="44.04988" lon="5.9078">
        <ele>633.20001220703</ele>
        <time>2021-02-11T11:18:36.000Z</time>
      </trkpt>
      <trkpt lat="44.04997" lon="5.90781">
        <ele>632.79998779297</ele>
        <time>2021-02-11T11:18:38.000Z</time>
      </trkpt>
      <trkpt lat="44.05002" lon="5.90781">
        <ele>632.20001220703</ele>
        <time>2021-02-11T11:18:41.000Z</time>
      </trkpt>
      <trkpt lat="44.05002" lon="5.90781">
        <ele>632</ele>
        <time>2021-02-11T11:18:42.000Z</time>
      </trkpt>
      <trkpt lat="44.05004" lon="5.90785">
        <ele>631.20001220703</ele>
        <time>2021-02-11T11:18:47.000Z</time>
      </trkpt>
      <trkpt lat="44.05003" lon="5.90787">
        <ele>631</ele>
        <time>2021-02-11T11:18:48.000Z</time>
      </trkpt>
      <trkpt lat="44.05004" lon="5.90788">
        <ele>631</ele>
        <time>2021-02-11T11:18:50.000Z</time>
      </trkpt>
      <trkpt lat="44.05004" lon="5.90789">
        <ele>631</ele>
        <time>2021-02-11T11:18:52.000Z</time>
      </trkpt>
      <trkpt lat="44.05004" lon="5.9079">
        <ele>630.59997558594</ele>
        <time>2021-02-11T11:19:00.000Z</time>
      </trkpt>
      <trkpt lat="44.05" lon="5.90792">
        <ele>630.59997558594</ele>
        <time>2021-02-11T11:19:02.000Z</time>
      </trkpt>
      <trkpt lat="44.04988" lon="5.90798">
        <ele>630.20001220703</ele>
        <time>2021-02-11T11:19:07.000Z</time>
      </trkpt>
      <trkpt lat="44.04985" lon="5.90798">
        <ele>630</ele>
        <time>2021-02-11T11:19:08.000Z</time>
      </trkpt>
      <trkpt lat="44.04972" lon="5.90798">
        <ele>629.40002441406</ele>
        <time>2021-02-11T11:19:13.000Z</time>
      </trkpt>
      <trkpt lat="44.04965" lon="5.90797">
        <ele>629</ele>
        <time>2021-02-11T11:19:15.000Z</time>
      </trkpt>
      <trkpt lat="44.04958" lon="5.90794">
        <ele>628.40002441406</ele>
        <time>2021-02-11T11:19:18.000Z</time>
      </trkpt>
      <trkpt lat="44.04955" lon="5.90795">
        <ele>628</ele>
        <time>2021-02-11T11:19:20.000Z</time>
      </trkpt>
      <trkpt lat="44.04954" lon="5.90797">
        <ele>627.20001220703</ele>
        <time>2021-02-11T11:19:22.000Z</time>
      </trkpt>
      <trkpt lat="44.04955" lon="5.90799">
        <ele>627</ele>
        <time>2021-02-11T11:19:23.000Z</time>
      </trkpt>
      <trkpt lat="44.04956" lon="5.908">
        <ele>626.79998779297</ele>
        <time>2021-02-11T11:19:24.000Z</time>
      </trkpt>
      <trkpt lat="44.04959" lon="5.90806">
        <ele>626.40002441406</ele>
        <time>2021-02-11T11:19:26.000Z</time>
      </trkpt>
      <trkpt lat="44.04958" lon="5.90817">
        <ele>626</ele>
        <time>2021-02-11T11:19:30.000Z</time>
      </trkpt>
      <trkpt lat="44.04952" lon="5.90824">
        <ele>626</ele>
        <time>2021-02-11T11:19:33.000Z</time>
      </trkpt>
      <trkpt lat="44.04948" lon="5.9083">
        <ele>626</ele>
        <time>2021-02-11T11:19:35.000Z</time>
      </trkpt>
      <trkpt lat="44.04935" lon="5.90843">
        <ele>626</ele>
        <time>2021-02-11T11:19:39.000Z</time>
      </trkpt>
      <trkpt lat="44.04929" lon="5.90852">
        <ele>626</ele>
        <time>2021-02-11T11:19:43.000Z</time>
      </trkpt>
      <trkpt lat="44.04926" lon="5.90859">
        <ele>626.79998779297</ele>
        <time>2021-02-11T11:19:54.000Z</time>
      </trkpt>
      <trkpt lat="44.04919" lon="5.90864">
        <ele>627.40002441406</ele>
        <time>2021-02-11T11:20:04.000Z</time>
      </trkpt>
      <trkpt lat="44.04919" lon="5.90865">
        <ele>627.59997558594</ele>
        <time>2021-02-11T11:20:11.000Z</time>
      </trkpt>
      <trkpt lat="44.04919" lon="5.90866">
        <ele>627.79998779297</ele>
        <time>2021-02-11T11:20:14.000Z</time>
      </trkpt>
      <trkpt lat="44.04924" lon="5.90868">
        <ele>628</ele>
        <time>2021-02-11T11:20:23.000Z</time>
      </trkpt>
      <trkpt lat="44.04925" lon="5.90869">
        <ele>628</ele>
        <time>2021-02-11T11:20:24.000Z</time>
      </trkpt>
      <trkpt lat="44.04931" lon="5.90872">
        <ele>628.20001220703</ele>
        <time>2021-02-11T11:20:29.000Z</time>
      </trkpt>
      <trkpt lat="44.04933" lon="5.90873">
        <ele>628.40002441406</ele>
        <time>2021-02-11T11:20:31.000Z</time>
      </trkpt>
      <trkpt lat="44.04937" lon="5.90878">
        <ele>628.59997558594</ele>
        <time>2021-02-11T11:20:35.000Z</time>
      </trkpt>
      <trkpt lat="44.04941" lon="5.90883">
        <ele>628.79998779297</ele>
        <time>2021-02-11T11:20:39.000Z</time>
      </trkpt>
      <trkpt lat="44.04955" lon="5.90888">
        <ele>629.20001220703</ele>
        <time>2021-02-11T11:20:46.000Z</time>
      </trkpt>
      <trkpt lat="44.04965" lon="5.90891">
        <ele>629.59997558594</ele>
        <time>2021-02-11T11:20:50.000Z</time>
      </trkpt>
      <trkpt lat="44.04968" lon="5.9089">
        <ele>629.59997558594</ele>
        <time>2021-02-11T11:20:51.000Z</time>
      </trkpt>
      <trkpt lat="44.04978" lon="5.90889">
        <ele>630</ele>
        <time>2021-02-11T11:20:54.000Z</time>
      </trkpt>
      <trkpt lat="44.04993" lon="5.90889">
        <ele>630.20001220703</ele>
        <time>2021-02-11T11:20:59.000Z</time>
      </trkpt>
      <trkpt lat="44.0501" lon="5.90892">
        <ele>630.20001220703</ele>
        <time>2021-02-11T11:21:04.000Z</time>
      </trkpt>
      <trkpt lat="44.05025" lon="5.90897">
        <ele>630.20001220703</ele>
        <time>2021-02-11T11:21:09.000Z</time>
      </trkpt>
      <trkpt lat="44.05039" lon="5.90903">
        <ele>629.79998779297</ele>
        <time>2021-02-11T11:21:13.000Z</time>
      </trkpt>
      <trkpt lat="44.05043" lon="5.90913">
        <ele>629.79998779297</ele>
        <time>2021-02-11T11:21:17.000Z</time>
      </trkpt>
      <trkpt lat="44.05045" lon="5.90916">
        <ele>629.79998779297</ele>
        <time>2021-02-11T11:21:18.000Z</time>
      </trkpt>
      <trkpt lat="44.05052" lon="5.90927">
        <ele>629.79998779297</ele>
        <time>2021-02-11T11:21:21.000Z</time>
      </trkpt>
      <trkpt lat="44.05063" lon="5.90947">
        <ele>630.20001220703</ele>
        <time>2021-02-11T11:21:27.000Z</time>
      </trkpt>
      <trkpt lat="44.05072" lon="5.90962">
        <ele>630.59997558594</ele>
        <time>2021-02-11T11:21:31.000Z</time>
      </trkpt>
      <trkpt lat="44.05086" lon="5.90983">
        <ele>631.20001220703</ele>
        <time>2021-02-11T11:21:36.000Z</time>
      </trkpt>
      <trkpt lat="44.05092" lon="5.90996">
        <ele>631.40002441406</ele>
        <time>2021-02-11T11:21:39.000Z</time>
      </trkpt>
      <trkpt lat="44.05092" lon="5.91001">
        <ele>631.59997558594</ele>
        <time>2021-02-11T11:21:40.000Z</time>
      </trkpt>
      <trkpt lat="44.05091" lon="5.91005">
        <ele>631.79998779297</ele>
        <time>2021-02-11T11:21:41.000Z</time>
      </trkpt>
      <trkpt lat="44.05092" lon="5.91016">
        <ele>632.40002441406</ele>
        <time>2021-02-11T11:21:43.000Z</time>
      </trkpt>
      <trkpt lat="44.05092" lon="5.91027">
        <ele>632.79998779297</ele>
        <time>2021-02-11T11:21:45.000Z</time>
      </trkpt>
      <trkpt lat="44.05091" lon="5.91032">
        <ele>633</ele>
        <time>2021-02-11T11:21:46.000Z</time>
      </trkpt>
      <trkpt lat="44.05086" lon="5.91039">
        <ele>633.40002441406</ele>
        <time>2021-02-11T11:21:48.000Z</time>
      </trkpt>
      <trkpt lat="44.0508" lon="5.91048">
        <ele>633.79998779297</ele>
        <time>2021-02-11T11:21:52.000Z</time>
      </trkpt>
      <trkpt lat="44.0508" lon="5.9105">
        <ele>634</ele>
        <time>2021-02-11T11:21:53.000Z</time>
      </trkpt>
      <trkpt lat="44.05077" lon="5.91061">
        <ele>634.59997558594</ele>
        <time>2021-02-11T11:21:56.000Z</time>
      </trkpt>
      <trkpt lat="44.05073" lon="5.91091">
        <ele>634.79998779297</ele>
        <time>2021-02-11T11:22:01.000Z</time>
      </trkpt>
      <trkpt lat="44.05072" lon="5.91096">
        <ele>634.79998779297</ele>
        <time>2021-02-11T11:22:02.000Z</time>
      </trkpt>
      <trkpt lat="44.05072" lon="5.911">
        <ele>635</ele>
        <time>2021-02-11T11:22:03.000Z</time>
      </trkpt>
      <trkpt lat="44.05072" lon="5.91115">
        <ele>635</ele>
        <time>2021-02-11T11:22:06.000Z</time>
      </trkpt>
      <trkpt lat="44.05072" lon="5.91123">
        <ele>635.20001220703</ele>
        <time>2021-02-11T11:22:08.000Z</time>
      </trkpt>
      <trkpt lat="44.05074" lon="5.91132">
        <ele>635.40002441406</ele>
        <time>2021-02-11T11:22:11.000Z</time>
      </trkpt>
      <trkpt lat="44.05075" lon="5.91151">
        <ele>635.59997558594</ele>
        <time>2021-02-11T11:22:16.000Z</time>
      </trkpt>
      <trkpt lat="44.05076" lon="5.91173">
        <ele>636</ele>
        <time>2021-02-11T11:22:21.000Z</time>
      </trkpt>
      <trkpt lat="44.05079" lon="5.91196">
        <ele>636.59997558594</ele>
        <time>2021-02-11T11:22:26.000Z</time>
      </trkpt>
      <trkpt lat="44.05088" lon="5.91213">
        <ele>637.20001220703</ele>
        <time>2021-02-11T11:22:31.000Z</time>
      </trkpt>
      <trkpt lat="44.0509" lon="5.91227">
        <ele>637.20001220703</ele>
        <time>2021-02-11T11:22:36.000Z</time>
      </trkpt>
      <trkpt lat="44.0509" lon="5.91232">
        <ele>637.20001220703</ele>
        <time>2021-02-11T11:22:38.000Z</time>
      </trkpt>
      <trkpt lat="44.05089" lon="5.91238">
        <ele>637.40002441406</ele>
        <time>2021-02-11T11:22:40.000Z</time>
      </trkpt>
      <trkpt lat="44.05081" lon="5.91241">
        <ele>636.79998779297</ele>
        <time>2021-02-11T11:22:44.000Z</time>
      </trkpt>
      <trkpt lat="44.05078" lon="5.91241">
        <ele>636.79998779297</ele>
        <time>2021-02-11T11:22:45.000Z</time>
      </trkpt>
      <trkpt lat="44.05073" lon="5.91242">
        <ele>636.59997558594</ele>
        <time>2021-02-11T11:22:47.000Z</time>
      </trkpt>
      <trkpt lat="44.05069" lon="5.91249">
        <ele>636.20001220703</ele>
        <time>2021-02-11T11:22:49.000Z</time>
      </trkpt>
      <trkpt lat="44.05068" lon="5.91252">
        <ele>635.79998779297</ele>
        <time>2021-02-11T11:22:50.000Z</time>
      </trkpt>
      <trkpt lat="44.05062" lon="5.91269">
        <ele>635.20001220703</ele>
        <time>2021-02-11T11:22:54.000Z</time>
      </trkpt>
      <trkpt lat="44.05059" lon="5.91276">
        <ele>634.79998779297</ele>
        <time>2021-02-11T11:22:56.000Z</time>
      </trkpt>
      <trkpt lat="44.05056" lon="5.91281">
        <ele>634.79998779297</ele>
        <time>2021-02-11T11:22:58.000Z</time>
      </trkpt>
      <trkpt lat="44.05055" lon="5.91291">
        <ele>633.79998779297</ele>
        <time>2021-02-11T11:23:02.000Z</time>
      </trkpt>
      <trkpt lat="44.05055" lon="5.91293">
        <ele>633.59997558594</ele>
        <time>2021-02-11T11:23:03.000Z</time>
      </trkpt>
      <trkpt lat="44.05052" lon="5.913">
        <ele>632.79998779297</ele>
        <time>2021-02-11T11:23:06.000Z</time>
      </trkpt>
      <trkpt lat="44.05049" lon="5.91305">
        <ele>632.40002441406</ele>
        <time>2021-02-11T11:23:08.000Z</time>
      </trkpt>
      <trkpt lat="44.05042" lon="5.91313">
        <ele>631.79998779297</ele>
        <time>2021-02-11T11:23:13.000Z</time>
      </trkpt>
      <trkpt lat="44.05037" lon="5.91318">
        <ele>631.79998779297</ele>
        <time>2021-02-11T11:23:16.000Z</time>
      </trkpt>
      <trkpt lat="44.05034" lon="5.91327">
        <ele>631.59997558594</ele>
        <time>2021-02-11T11:23:19.000Z</time>
      </trkpt>
      <trkpt lat="44.05027" lon="5.91345">
        <ele>631.59997558594</ele>
        <time>2021-02-11T11:23:24.000Z</time>
      </trkpt>
      <trkpt lat="44.05026" lon="5.91349">
        <ele>631.59997558594</ele>
        <time>2021-02-11T11:23:25.000Z</time>
      </trkpt>
      <trkpt lat="44.05024" lon="5.91365">
        <ele>631.40002441406</ele>
        <time>2021-02-11T11:23:30.000Z</time>
      </trkpt>
      <trkpt lat="44.05028" lon="5.91377">
        <ele>631.20001220703</ele>
        <time>2021-02-11T11:23:34.000Z</time>
      </trkpt>
      <trkpt lat="44.05029" lon="5.9138">
        <ele>631</ele>
        <time>2021-02-11T11:23:35.000Z</time>
      </trkpt>
      <trkpt lat="44.05029" lon="5.91385">
        <ele>631</ele>
        <time>2021-02-11T11:23:38.000Z</time>
      </trkpt>
      <trkpt lat="44.05029" lon="5.91386">
        <ele>631</ele>
        <time>2021-02-11T11:23:54.000Z</time>
      </trkpt>
      <trkpt lat="44.05029" lon="5.91387">
        <ele>631.20001220703</ele>
        <time>2021-02-11T11:24:13.000Z</time>
      </trkpt>
      <trkpt lat="44.05033" lon="5.9139">
        <ele>631</ele>
        <time>2021-02-11T11:24:31.000Z</time>
      </trkpt>
      <trkpt lat="44.05045" lon="5.91399">
        <ele>631</ele>
        <time>2021-02-11T11:24:36.000Z</time>
      </trkpt>
      <trkpt lat="44.05059" lon="5.91405">
        <ele>631</ele>
        <time>2021-02-11T11:24:41.000Z</time>
      </trkpt>
      <trkpt lat="44.05074" lon="5.9141">
        <ele>631</ele>
        <time>2021-02-11T11:24:46.000Z</time>
      </trkpt>
      <trkpt lat="44.05097" lon="5.91427">
        <ele>631</ele>
        <time>2021-02-11T11:24:53.000Z</time>
      </trkpt>
      <trkpt lat="44.05109" lon="5.91436">
        <ele>630.40002441406</ele>
        <time>2021-02-11T11:24:56.000Z</time>
      </trkpt>
      <trkpt lat="44.05117" lon="5.91443">
        <ele>630</ele>
        <time>2021-02-11T11:24:58.000Z</time>
      </trkpt>
      <trkpt lat="44.05124" lon="5.91451">
        <ele>629.59997558594</ele>
        <time>2021-02-11T11:25:00.000Z</time>
      </trkpt>
      <trkpt lat="44.05127" lon="5.91455">
        <ele>629.40002441406</ele>
        <time>2021-02-11T11:25:01.000Z</time>
      </trkpt>
      <trkpt lat="44.05129" lon="5.91458">
        <ele>629.20001220703</ele>
        <time>2021-02-11T11:25:02.000Z</time>
      </trkpt>
      <trkpt lat="44.05137" lon="5.91465">
        <ele>628.79998779297</ele>
        <time>2021-02-11T11:25:04.000Z</time>
      </trkpt>
      <trkpt lat="44.05145" lon="5.91472">
        <ele>628.59997558594</ele>
        <time>2021-02-11T11:25:06.000Z</time>
      </trkpt>
      <trkpt lat="44.05154" lon="5.91489">
        <ele>628</ele>
        <time>2021-02-11T11:25:09.000Z</time>
      </trkpt>
      <trkpt lat="44.05153" lon="5.915">
        <ele>627.59997558594</ele>
        <time>2021-02-11T11:25:12.000Z</time>
      </trkpt>
      <trkpt lat="44.05152" lon="5.91502">
        <ele>627.20001220703</ele>
        <time>2021-02-11T11:25:13.000Z</time>
      </trkpt>
      <trkpt lat="44.05147" lon="5.91506">
        <ele>627.20001220703</ele>
        <time>2021-02-11T11:25:16.000Z</time>
      </trkpt>
      <trkpt lat="44.05144" lon="5.91508">
        <ele>627</ele>
        <time>2021-02-11T11:25:18.000Z</time>
      </trkpt>
      <trkpt lat="44.05135" lon="5.91513">
        <ele>626.20001220703</ele>
        <time>2021-02-11T11:25:24.000Z</time>
      </trkpt>
      <trkpt lat="44.05136" lon="5.91513">
        <ele>625.20001220703</ele>
        <time>2021-02-11T11:25:28.000Z</time>
      </trkpt>
      <trkpt lat="44.05136" lon="5.91513">
        <ele>623.79998779297</ele>
        <time>2021-02-11T11:25:32.000Z</time>
      </trkpt>
      <trkpt lat="44.05134" lon="5.91512">
        <ele>622.79998779297</ele>
        <time>2021-02-11T11:25:36.000Z</time>
      </trkpt>
      <trkpt lat="44.05131" lon="5.91512">
        <ele>622.40002441406</ele>
        <time>2021-02-11T11:25:38.000Z</time>
      </trkpt>
      <trkpt lat="44.05125" lon="5.91512">
        <ele>621.79998779297</ele>
        <time>2021-02-11T11:25:40.000Z</time>
      </trkpt>
      <trkpt lat="44.05117" lon="5.91511">
        <ele>621</ele>
        <time>2021-02-11T11:25:42.000Z</time>
      </trkpt>
      <trkpt lat="44.05112" lon="5.9151">
        <ele>620.59997558594</ele>
        <time>2021-02-11T11:25:43.000Z</time>
      </trkpt>
      <trkpt lat="44.05096" lon="5.91509">
        <ele>619.40002441406</ele>
        <time>2021-02-11T11:25:46.000Z</time>
      </trkpt>
      <trkpt lat="44.05087" lon="5.91509">
        <ele>618.79998779297</ele>
        <time>2021-02-11T11:25:48.000Z</time>
      </trkpt>
      <trkpt lat="44.05082" lon="5.91508">
        <ele>618.40002441406</ele>
        <time>2021-02-11T11:25:49.000Z</time>
      </trkpt>
      <trkpt lat="44.05067" lon="5.91512">
        <ele>617.20001220703</ele>
        <time>2021-02-11T11:25:53.000Z</time>
      </trkpt>
      <trkpt lat="44.05057" lon="5.91525">
        <ele>616.79998779297</ele>
        <time>2021-02-11T11:25:57.000Z</time>
      </trkpt>
      <trkpt lat="44.05055" lon="5.91534">
        <ele>616.40002441406</ele>
        <time>2021-02-11T11:25:59.000Z</time>
      </trkpt>
      <trkpt lat="44.0505" lon="5.91556">
        <ele>616</ele>
        <time>2021-02-11T11:26:03.000Z</time>
      </trkpt>
      <trkpt lat="44.05044" lon="5.91572">
        <ele>616</ele>
        <time>2021-02-11T11:26:06.000Z</time>
      </trkpt>
      <trkpt lat="44.05044" lon="5.91583">
        <ele>616.20001220703</ele>
        <time>2021-02-11T11:26:08.000Z</time>
      </trkpt>
      <trkpt lat="44.05052" lon="5.91597">
        <ele>616.20001220703</ele>
        <time>2021-02-11T11:26:12.000Z</time>
      </trkpt>
      <trkpt lat="44.05057" lon="5.91606">
        <ele>616.59997558594</ele>
        <time>2021-02-11T11:26:15.000Z</time>
      </trkpt>
      <trkpt lat="44.05062" lon="5.91616">
        <ele>617.20001220703</ele>
        <time>2021-02-11T11:26:18.000Z</time>
      </trkpt>
      <trkpt lat="44.05063" lon="5.91631">
        <ele>617.79998779297</ele>
        <time>2021-02-11T11:26:22.000Z</time>
      </trkpt>
      <trkpt lat="44.05062" lon="5.91638">
        <ele>618</ele>
        <time>2021-02-11T11:26:24.000Z</time>
      </trkpt>
      <trkpt lat="44.05055" lon="5.91651">
        <ele>618.79998779297</ele>
        <time>2021-02-11T11:26:28.000Z</time>
      </trkpt>
      <trkpt lat="44.05053" lon="5.91654">
        <ele>619</ele>
        <time>2021-02-11T11:26:29.000Z</time>
      </trkpt>
      <trkpt lat="44.05044" lon="5.91671">
        <ele>620.20001220703</ele>
        <time>2021-02-11T11:26:33.000Z</time>
      </trkpt>
      <trkpt lat="44.05042" lon="5.91676">
        <ele>620.40002441406</ele>
        <time>2021-02-11T11:26:34.000Z</time>
      </trkpt>
      <trkpt lat="44.05032" lon="5.91696">
        <ele>621.20001220703</ele>
        <time>2021-02-11T11:26:39.000Z</time>
      </trkpt>
      <trkpt lat="44.05029" lon="5.91724">
        <ele>622</ele>
        <time>2021-02-11T11:26:45.000Z</time>
      </trkpt>
      <trkpt lat="44.05029" lon="5.91737">
        <ele>622.59997558594</ele>
        <time>2021-02-11T11:26:47.000Z</time>
      </trkpt>
      <trkpt lat="44.05026" lon="5.91768">
        <ele>623.20001220703</ele>
        <time>2021-02-11T11:26:52.000Z</time>
      </trkpt>
      <trkpt lat="44.05024" lon="5.91787">
        <ele>623.59997558594</ele>
        <time>2021-02-11T11:26:55.000Z</time>
      </trkpt>
      <trkpt lat="44.05022" lon="5.91793">
        <ele>623.79998779297</ele>
        <time>2021-02-11T11:26:56.000Z</time>
      </trkpt>
      <trkpt lat="44.05017" lon="5.91811">
        <ele>624.40002441406</ele>
        <time>2021-02-11T11:26:59.000Z</time>
      </trkpt>
      <trkpt lat="44.05015" lon="5.91816">
        <ele>624.59997558594</ele>
        <time>2021-02-11T11:27:00.000Z</time>
      </trkpt>
      <trkpt lat="44.05012" lon="5.91821">
        <ele>624.79998779297</ele>
        <time>2021-02-11T11:27:01.000Z</time>
      </trkpt>
      <trkpt lat="44.05003" lon="5.91842">
        <ele>625.59997558594</ele>
        <time>2021-02-11T11:27:05.000Z</time>
      </trkpt>
      <trkpt lat="44.04985" lon="5.91874">
        <ele>625.79998779297</ele>
        <time>2021-02-11T11:27:12.000Z</time>
      </trkpt>
      <trkpt lat="44.04983" lon="5.91882">
        <ele>625.59997558594</ele>
        <time>2021-02-11T11:27:15.000Z</time>
      </trkpt>
      <trkpt lat="44.04984" lon="5.91885">
        <ele>625.59997558594</ele>
        <time>2021-02-11T11:27:16.000Z</time>
      </trkpt>
      <trkpt lat="44.04993" lon="5.91892">
        <ele>625.40002441406</ele>
        <time>2021-02-11T11:27:20.000Z</time>
      </trkpt>
      <trkpt lat="44.05" lon="5.91894">
        <ele>625.20001220703</ele>
        <time>2021-02-11T11:27:22.000Z</time>
      </trkpt>
      <trkpt lat="44.05011" lon="5.91896">
        <ele>624.79998779297</ele>
        <time>2021-02-11T11:27:24.000Z</time>
      </trkpt>
      <trkpt lat="44.05028" lon="5.91906">
        <ele>623.79998779297</ele>
        <time>2021-02-11T11:27:27.000Z</time>
      </trkpt>
      <trkpt lat="44.05033" lon="5.9191">
        <ele>623.59997558594</ele>
        <time>2021-02-11T11:27:28.000Z</time>
      </trkpt>
      <trkpt lat="44.05038" lon="5.91913">
        <ele>623.40002441406</ele>
        <time>2021-02-11T11:27:29.000Z</time>
      </trkpt>
      <trkpt lat="44.05042" lon="5.91917">
        <ele>623.20001220703</ele>
        <time>2021-02-11T11:27:30.000Z</time>
      </trkpt>
      <trkpt lat="44.05049" lon="5.91922">
        <ele>622.79998779297</ele>
        <time>2021-02-11T11:27:32.000Z</time>
      </trkpt>
      <trkpt lat="44.05056" lon="5.91928">
        <ele>622.59997558594</ele>
        <time>2021-02-11T11:27:34.000Z</time>
      </trkpt>
      <trkpt lat="44.05067" lon="5.91933">
        <ele>622.40002441406</ele>
        <time>2021-02-11T11:27:37.000Z</time>
      </trkpt>
      <trkpt lat="44.05075" lon="5.91932">
        <ele>622</ele>
        <time>2021-02-11T11:27:39.000Z</time>
      </trkpt>
      <trkpt lat="44.0509" lon="5.91928">
        <ele>621.59997558594</ele>
        <time>2021-02-11T11:27:42.000Z</time>
      </trkpt>
      <trkpt lat="44.05098" lon="5.9193">
        <ele>621.40002441406</ele>
        <time>2021-02-11T11:27:44.000Z</time>
      </trkpt>
      <trkpt lat="44.05109" lon="5.91948">
        <ele>621</ele>
        <time>2021-02-11T11:27:48.000Z</time>
      </trkpt>
      <trkpt lat="44.05111" lon="5.91954">
        <ele>621</ele>
        <time>2021-02-11T11:27:49.000Z</time>
      </trkpt>
      <trkpt lat="44.05113" lon="5.91967">
        <ele>621</ele>
        <time>2021-02-11T11:27:51.000Z</time>
      </trkpt>
      <trkpt lat="44.05113" lon="5.91973">
        <ele>621</ele>
        <time>2021-02-11T11:27:52.000Z</time>
      </trkpt>
      <trkpt lat="44.05105" lon="5.91981">
        <ele>620.79998779297</ele>
        <time>2021-02-11T11:27:54.000Z</time>
      </trkpt>
      <trkpt lat="44.05093" lon="5.91995">
        <ele>620.79998779297</ele>
        <time>2021-02-11T11:27:58.000Z</time>
      </trkpt>
      <trkpt lat="44.05098" lon="5.92012">
        <ele>620.79998779297</ele>
        <time>2021-02-11T11:28:01.000Z</time>
      </trkpt>
      <trkpt lat="44.0511" lon="5.9202">
        <ele>620.79998779297</ele>
        <time>2021-02-11T11:28:04.000Z</time>
      </trkpt>
      <trkpt lat="44.05119" lon="5.9202">
        <ele>620.59997558594</ele>
        <time>2021-02-11T11:28:06.000Z</time>
      </trkpt>
      <trkpt lat="44.05127" lon="5.92017">
        <ele>620.59997558594</ele>
        <time>2021-02-11T11:28:08.000Z</time>
      </trkpt>
      <trkpt lat="44.05131" lon="5.92014">
        <ele>620.59997558594</ele>
        <time>2021-02-11T11:28:09.000Z</time>
      </trkpt>
      <trkpt lat="44.05139" lon="5.92005">
        <ele>620.59997558594</ele>
        <time>2021-02-11T11:28:11.000Z</time>
      </trkpt>
      <trkpt lat="44.05143" lon="5.92002">
        <ele>620.59997558594</ele>
        <time>2021-02-11T11:28:12.000Z</time>
      </trkpt>
      <trkpt lat="44.05157" lon="5.91994">
        <ele>620.59997558594</ele>
        <time>2021-02-11T11:28:15.000Z</time>
      </trkpt>
      <trkpt lat="44.05162" lon="5.91992">
        <ele>620.79998779297</ele>
        <time>2021-02-11T11:28:16.000Z</time>
      </trkpt>
      <trkpt lat="44.05175" lon="5.91988">
        <ele>620.79998779297</ele>
        <time>2021-02-11T11:28:18.000Z</time>
      </trkpt>
      <trkpt lat="44.05194" lon="5.91982">
        <ele>620.79998779297</ele>
        <time>2021-02-11T11:28:21.000Z</time>
      </trkpt>
      <trkpt lat="44.05215" lon="5.9198">
        <ele>620.79998779297</ele>
        <time>2021-02-11T11:28:25.000Z</time>
      </trkpt>
      <trkpt lat="44.05218" lon="5.91978">
        <ele>620.79998779297</ele>
        <time>2021-02-11T11:28:26.000Z</time>
      </trkpt>
      <trkpt lat="44.05234" lon="5.91973">
        <ele>620.79998779297</ele>
        <time>2021-02-11T11:28:30.000Z</time>
      </trkpt>
      <trkpt lat="44.05258" lon="5.91966">
        <ele>620.79998779297</ele>
        <time>2021-02-11T11:28:35.000Z</time>
      </trkpt>
      <trkpt lat="44.05275" lon="5.91965">
        <ele>620.59997558594</ele>
        <time>2021-02-11T11:28:39.000Z</time>
      </trkpt>
      <trkpt lat="44.05284" lon="5.91961">
        <ele>620.40002441406</ele>
        <time>2021-02-11T11:28:41.000Z</time>
      </trkpt>
      <trkpt lat="44.05288" lon="5.9196">
        <ele>620.40002441406</ele>
        <time>2021-02-11T11:28:42.000Z</time>
      </trkpt>
      <trkpt lat="44.05303" lon="5.91963">
        <ele>620.20001220703</ele>
        <time>2021-02-11T11:28:45.000Z</time>
      </trkpt>
      <trkpt lat="44.05317" lon="5.91961">
        <ele>620.20001220703</ele>
        <time>2021-02-11T11:28:48.000Z</time>
      </trkpt>
      <trkpt lat="44.05323" lon="5.91961">
        <ele>620.20001220703</ele>
        <time>2021-02-11T11:28:49.000Z</time>
      </trkpt>
      <trkpt lat="44.05341" lon="5.9196">
        <ele>620</ele>
        <time>2021-02-11T11:28:52.000Z</time>
      </trkpt>
      <trkpt lat="44.05357" lon="5.91957">
        <ele>620.20001220703</ele>
        <time>2021-02-11T11:28:55.000Z</time>
      </trkpt>
      <trkpt lat="44.05371" lon="5.91961">
        <ele>620</ele>
        <time>2021-02-11T11:28:58.000Z</time>
      </trkpt>
      <trkpt lat="44.05374" lon="5.91964">
        <ele>620</ele>
        <time>2021-02-11T11:28:59.000Z</time>
      </trkpt>
      <trkpt lat="44.05388" lon="5.91977">
        <ele>619.59997558594</ele>
        <time>2021-02-11T11:29:03.000Z</time>
      </trkpt>
      <trkpt lat="44.05391" lon="5.91994">
        <ele>619.59997558594</ele>
        <time>2021-02-11T11:29:07.000Z</time>
      </trkpt>
      <trkpt lat="44.05391" lon="5.91999">
        <ele>619.40002441406</ele>
        <time>2021-02-11T11:29:08.000Z</time>
      </trkpt>
      <trkpt lat="44.05393" lon="5.92004">
        <ele>619.40002441406</ele>
        <time>2021-02-11T11:29:09.000Z</time>
      </trkpt>
      <trkpt lat="44.05397" lon="5.92015">
        <ele>619.40002441406</ele>
        <time>2021-02-11T11:29:11.000Z</time>
      </trkpt>
      <trkpt lat="44.05398" lon="5.92023">
        <ele>618.79998779297</ele>
        <time>2021-02-11T11:29:13.000Z</time>
      </trkpt>
      <trkpt lat="44.05398" lon="5.92031">
        <ele>618.40002441406</ele>
        <time>2021-02-11T11:29:15.000Z</time>
      </trkpt>
      <trkpt lat="44.05399" lon="5.92034">
        <ele>618.20001220703</ele>
        <time>2021-02-11T11:29:16.000Z</time>
      </trkpt>
      <trkpt lat="44.054" lon="5.92037">
        <ele>618</ele>
        <time>2021-02-11T11:29:17.000Z</time>
      </trkpt>
      <trkpt lat="44.05413" lon="5.92048">
        <ele>617</ele>
        <time>2021-02-11T11:29:21.000Z</time>
      </trkpt>
      <trkpt lat="44.05419" lon="5.92058">
        <ele>616</ele>
        <time>2021-02-11T11:29:24.000Z</time>
      </trkpt>
      <trkpt lat="44.05419" lon="5.9206">
        <ele>615.79998779297</ele>
        <time>2021-02-11T11:29:25.000Z</time>
      </trkpt>
      <trkpt lat="44.05418" lon="5.92067">
        <ele>614.79998779297</ele>
        <time>2021-02-11T11:29:27.000Z</time>
      </trkpt>
      <trkpt lat="44.05417" lon="5.92076">
        <ele>613.79998779297</ele>
        <time>2021-02-11T11:29:29.000Z</time>
      </trkpt>
      <trkpt lat="44.05412" lon="5.92087">
        <ele>612.79998779297</ele>
        <time>2021-02-11T11:29:32.000Z</time>
      </trkpt>
      <trkpt lat="44.05411" lon="5.92089">
        <ele>612.59997558594</ele>
        <time>2021-02-11T11:29:33.000Z</time>
      </trkpt>
      <trkpt lat="44.05408" lon="5.92104">
        <ele>611.59997558594</ele>
        <time>2021-02-11T11:29:37.000Z</time>
      </trkpt>
      <trkpt lat="44.05406" lon="5.92117">
        <ele>611</ele>
        <time>2021-02-11T11:29:40.000Z</time>
      </trkpt>
      <trkpt lat="44.05408" lon="5.9212">
        <ele>610.59997558594</ele>
        <time>2021-02-11T11:29:41.000Z</time>
      </trkpt>
      <trkpt lat="44.05421" lon="5.92137">
        <ele>609.59997558594</ele>
        <time>2021-02-11T11:29:46.000Z</time>
      </trkpt>
      <trkpt lat="44.05432" lon="5.92152">
        <ele>608.79998779297</ele>
        <time>2021-02-11T11:29:51.000Z</time>
      </trkpt>
      <trkpt lat="44.05435" lon="5.92157">
        <ele>608.40002441406</ele>
        <time>2021-02-11T11:29:53.000Z</time>
      </trkpt>
      <trkpt lat="44.05434" lon="5.92167">
        <ele>607.79998779297</ele>
        <time>2021-02-11T11:29:56.000Z</time>
      </trkpt>
      <trkpt lat="44.05436" lon="5.92178">
        <ele>607.20001220703</ele>
        <time>2021-02-11T11:29:59.000Z</time>
      </trkpt>
      <trkpt lat="44.05439" lon="5.92181">
        <ele>607</ele>
        <time>2021-02-11T11:30:00.000Z</time>
      </trkpt>
      <trkpt lat="44.05446" lon="5.92186">
        <ele>606</ele>
        <time>2021-02-11T11:30:02.000Z</time>
      </trkpt>
      <trkpt lat="44.05448" lon="5.92187">
        <ele>605.79998779297</ele>
        <time>2021-02-11T11:30:03.000Z</time>
      </trkpt>
      <trkpt lat="44.05452" lon="5.92192">
        <ele>605.40002441406</ele>
        <time>2021-02-11T11:30:05.000Z</time>
      </trkpt>
      <trkpt lat="44.05453" lon="5.92194">
        <ele>605.40002441406</ele>
        <time>2021-02-11T11:30:06.000Z</time>
      </trkpt>
      <trkpt lat="44.05454" lon="5.92199">
        <ele>605</ele>
        <time>2021-02-11T11:30:08.000Z</time>
      </trkpt>
      <trkpt lat="44.05458" lon="5.9221">
        <ele>604.40002441406</ele>
        <time>2021-02-11T11:30:11.000Z</time>
      </trkpt>
      <trkpt lat="44.0546" lon="5.92214">
        <ele>604.20001220703</ele>
        <time>2021-02-11T11:30:12.000Z</time>
      </trkpt>
      <trkpt lat="44.05465" lon="5.92231">
        <ele>603.40002441406</ele>
        <time>2021-02-11T11:30:16.000Z</time>
      </trkpt>
      <trkpt lat="44.05465" lon="5.92234">
        <ele>603.40002441406</ele>
        <time>2021-02-11T11:30:17.000Z</time>
      </trkpt>
      <trkpt lat="44.05465" lon="5.92238">
        <ele>603.20001220703</ele>
        <time>2021-02-11T11:30:18.000Z</time>
      </trkpt>
      <trkpt lat="44.05464" lon="5.92256">
        <ele>602.59997558594</ele>
        <time>2021-02-11T11:30:22.000Z</time>
      </trkpt>
      <trkpt lat="44.05465" lon="5.92266">
        <ele>602.20001220703</ele>
        <time>2021-02-11T11:30:25.000Z</time>
      </trkpt>
      <trkpt lat="44.05466" lon="5.92274">
        <ele>602</ele>
        <time>2021-02-11T11:30:27.000Z</time>
      </trkpt>
      <trkpt lat="44.05464" lon="5.9229">
        <ele>601.59997558594</ele>
        <time>2021-02-11T11:30:30.000Z</time>
      </trkpt>
      <trkpt lat="44.05464" lon="5.92298">
        <ele>601.59997558594</ele>
        <time>2021-02-11T11:30:32.000Z</time>
      </trkpt>
      <trkpt lat="44.05466" lon="5.92302">
        <ele>601.40002441406</ele>
        <time>2021-02-11T11:30:33.000Z</time>
      </trkpt>
      <trkpt lat="44.05464" lon="5.9231">
        <ele>601.20001220703</ele>
        <time>2021-02-11T11:30:36.000Z</time>
      </trkpt>
      <trkpt lat="44.05454" lon="5.92312">
        <ele>600.59997558594</ele>
        <time>2021-02-11T11:30:41.000Z</time>
      </trkpt>
      <trkpt lat="44.05453" lon="5.92311">
        <ele>600.59997558594</ele>
        <time>2021-02-11T11:30:42.000Z</time>
      </trkpt>
      <trkpt lat="44.05451" lon="5.92311">
        <ele>600</ele>
        <time>2021-02-11T11:30:45.000Z</time>
      </trkpt>
      <trkpt lat="44.05451" lon="5.92312">
        <ele>599.40002441406</ele>
        <time>2021-02-11T11:30:46.000Z</time>
      </trkpt>
      <trkpt lat="44.05451" lon="5.92312">
        <ele>598.79998779297</ele>
        <time>2021-02-11T11:30:48.000Z</time>
      </trkpt>
      <trkpt lat="44.05451" lon="5.92313">
        <ele>597.59997558594</ele>
        <time>2021-02-11T11:30:52.000Z</time>
      </trkpt>
      <trkpt lat="44.05451" lon="5.92313">
        <ele>597.20001220703</ele>
        <time>2021-02-11T11:30:54.000Z</time>
      </trkpt>
      <trkpt lat="44.05451" lon="5.92313">
        <ele>596.59997558594</ele>
        <time>2021-02-11T11:30:56.000Z</time>
      </trkpt>
      <trkpt lat="44.05451" lon="5.92313">
        <ele>595.59997558594</ele>
        <time>2021-02-11T11:30:59.000Z</time>
      </trkpt>
      <trkpt lat="44.0545" lon="5.92313">
        <ele>595</ele>
        <time>2021-02-11T11:31:01.000Z</time>
      </trkpt>
      <trkpt lat="44.0545" lon="5.92313">
        <ele>594.59997558594</ele>
        <time>2021-02-11T11:31:02.000Z</time>
      </trkpt>
      <trkpt lat="44.0545" lon="5.92314">
        <ele>594.20001220703</ele>
        <time>2021-02-11T11:31:03.000Z</time>
      </trkpt>
      <trkpt lat="44.05449" lon="5.92315">
        <ele>593.40002441406</ele>
        <time>2021-02-11T11:31:05.000Z</time>
      </trkpt>
      <trkpt lat="44.05449" lon="5.92315">
        <ele>592.59997558594</ele>
        <time>2021-02-11T11:31:07.000Z</time>
      </trkpt>
      <trkpt lat="44.05449" lon="5.92316">
        <ele>592</ele>
        <time>2021-02-11T11:31:08.000Z</time>
      </trkpt>
      <trkpt lat="44.05449" lon="5.92316">
        <ele>590.79998779297</ele>
        <time>2021-02-11T11:31:11.000Z</time>
      </trkpt>
      <trkpt lat="44.05449" lon="5.92316">
        <ele>590</ele>
        <time>2021-02-11T11:31:13.000Z</time>
      </trkpt>
      <trkpt lat="44.05449" lon="5.92316">
        <ele>589.20001220703</ele>
        <time>2021-02-11T11:31:15.000Z</time>
      </trkpt>
      <trkpt lat="44.05449" lon="5.92316">
        <ele>588.79998779297</ele>
        <time>2021-02-11T11:31:16.000Z</time>
      </trkpt>
      <trkpt lat="44.05449" lon="5.92316">
        <ele>587.79998779297</ele>
        <time>2021-02-11T11:31:19.000Z</time>
      </trkpt>
      <trkpt lat="44.05449" lon="5.92316">
        <ele>586.79998779297</ele>
        <time>2021-02-11T11:31:22.000Z</time>
      </trkpt>
      <trkpt lat="44.05449" lon="5.92316">
        <ele>585.59997558594</ele>
        <time>2021-02-11T11:31:25.000Z</time>
      </trkpt>
      <trkpt lat="44.05449" lon="5.92316">
        <ele>584.40002441406</ele>
        <time>2021-02-11T11:31:27.000Z</time>
      </trkpt>
      <trkpt lat="44.05449" lon="5.92316">
        <ele>583.59997558594</ele>
        <time>2021-02-11T11:31:30.000Z</time>
      </trkpt>
      <trkpt lat="44.05449" lon="5.92316">
        <ele>582.59997558594</ele>
        <time>2021-02-11T11:31:34.000Z</time>
      </trkpt>
      <trkpt lat="44.05449" lon="5.92316">
        <ele>581.59997558594</ele>
        <time>2021-02-11T11:31:38.000Z</time>
      </trkpt>
      <trkpt lat="44.05449" lon="5.92316">
        <ele>580.59997558594</ele>
        <time>2021-02-11T11:31:42.000Z</time>
      </trkpt>
      <trkpt lat="44.05449" lon="5.92316">
        <ele>579.79998779297</ele>
        <time>2021-02-11T11:31:46.000Z</time>
      </trkpt>
      <trkpt lat="44.05449" lon="5.92316">
        <ele>578.59997558594</ele>
        <time>2021-02-11T11:31:50.000Z</time>
      </trkpt>
      <trkpt lat="44.05449" lon="5.92316">
        <ele>577.40002441406</ele>
        <time>2021-02-11T11:31:55.000Z</time>
      </trkpt>
      <trkpt lat="44.05449" lon="5.92316">
        <ele>577.40002441406</ele>
        <time>2021-02-11T11:31:56.000Z</time>
      </trkpt>
      <trkpt lat="44.05449" lon="5.92317">
        <ele>576.40002441406</ele>
        <time>2021-02-11T11:31:59.000Z</time>
      </trkpt>
      <trkpt lat="44.05449" lon="5.92317">
        <ele>575.20001220703</ele>
        <time>2021-02-11T11:32:03.000Z</time>
      </trkpt>
      <trkpt lat="44.05449" lon="5.92317">
        <ele>574.20001220703</ele>
        <time>2021-02-11T11:32:08.000Z</time>
      </trkpt>
      <trkpt lat="44.05449" lon="5.92317">
        <ele>574.20001220703</ele>
        <time>2021-02-11T11:32:09.000Z</time>
      </trkpt>
      <trkpt lat="44.05449" lon="5.92317">
        <ele>573.40002441406</ele>
        <time>2021-02-11T11:32:13.000Z</time>
      </trkpt>
      <trkpt lat="44.05449" lon="5.92317">
        <ele>572.40002441406</ele>
        <time>2021-02-11T11:32:19.000Z</time>
      </trkpt>
      <trkpt lat="44.05449" lon="5.92317">
        <ele>571.59997558594</ele>
        <time>2021-02-11T11:32:25.000Z</time>
      </trkpt>
      <trkpt lat="44.05449" lon="5.92317">
        <ele>571.20001220703</ele>
        <time>2021-02-11T11:32:29.000Z</time>
      </trkpt>
      <trkpt lat="44.05449" lon="5.92316">
        <ele>570.59997558594</ele>
        <time>2021-02-11T11:32:35.000Z</time>
      </trkpt>
      <trkpt lat="44.0545" lon="5.92316">
        <ele>570.59997558594</ele>
        <time>2021-02-11T11:32:36.000Z</time>
      </trkpt>
      <trkpt lat="44.05452" lon="5.92314">
        <ele>569.59997558594</ele>
        <time>2021-02-11T11:32:41.000Z</time>
      </trkpt>
      <trkpt lat="44.05452" lon="5.92314">
        <ele>569.59997558594</ele>
        <time>2021-02-11T11:32:42.000Z</time>
      </trkpt>
      <trkpt lat="44.05452" lon="5.92314">
        <ele>568.79998779297</ele>
        <time>2021-02-11T11:32:46.000Z</time>
      </trkpt>
      <trkpt lat="44.05452" lon="5.92314">
        <ele>567.79998779297</ele>
        <time>2021-02-11T11:32:50.000Z</time>
      </trkpt>
      <trkpt lat="44.05452" lon="5.92314">
        <ele>567.59997558594</ele>
        <time>2021-02-11T11:32:51.000Z</time>
      </trkpt>
      <trkpt lat="44.05452" lon="5.92314">
        <ele>566.40002441406</ele>
        <time>2021-02-11T11:32:55.000Z</time>
      </trkpt>
      <trkpt lat="44.05452" lon="5.92314">
        <ele>565.40002441406</ele>
        <time>2021-02-11T11:32:59.000Z</time>
      </trkpt>
      <trkpt lat="44.05452" lon="5.92314">
        <ele>565</ele>
        <time>2021-02-11T11:33:00.000Z</time>
      </trkpt>
      <trkpt lat="44.05452" lon="5.92314">
        <ele>564.20001220703</ele>
        <time>2021-02-11T11:33:02.000Z</time>
      </trkpt>
      <trkpt lat="44.05452" lon="5.92314">
        <ele>563</ele>
        <time>2021-02-11T11:33:05.000Z</time>
      </trkpt>
      <trkpt lat="44.05451" lon="5.92315">
        <ele>561.79998779297</ele>
        <time>2021-02-11T11:33:08.000Z</time>
      </trkpt>
      <trkpt lat="44.0545" lon="5.92316">
        <ele>561.59997558594</ele>
        <time>2021-02-11T11:33:09.000Z</time>
      </trkpt>
      <trkpt lat="44.05448" lon="5.9232">
        <ele>560.59997558594</ele>
        <time>2021-02-11T11:33:11.000Z</time>
      </trkpt>
      <trkpt lat="44.05444" lon="5.92325">
        <ele>559.59997558594</ele>
        <time>2021-02-11T11:33:14.000Z</time>
      </trkpt>
      <trkpt lat="44.05442" lon="5.92326">
        <ele>558.79998779297</ele>
        <time>2021-02-11T11:33:17.000Z</time>
      </trkpt>
      <trkpt lat="44.05442" lon="5.92326">
        <ele>558.40002441406</ele>
        <time>2021-02-11T11:33:18.000Z</time>
      </trkpt>
      <trkpt lat="44.05442" lon="5.92326">
        <ele>557.59997558594</ele>
        <time>2021-02-11T11:33:20.000Z</time>
      </trkpt>
      <trkpt lat="44.05442" lon="5.92326">
        <ele>556.40002441406</ele>
        <time>2021-02-11T11:33:22.000Z</time>
      </trkpt>
      <trkpt lat="44.05442" lon="5.92326">
        <ele>555.40002441406</ele>
        <time>2021-02-11T11:33:28.000Z</time>
      </trkpt>
      <trkpt lat="44.05442" lon="5.92326">
        <ele>555.20001220703</ele>
        <time>2021-02-11T11:33:30.000Z</time>
      </trkpt>
      <trkpt lat="44.05442" lon="5.92326">
        <ele>554.40002441406</ele>
        <time>2021-02-11T11:33:34.000Z</time>
      </trkpt>
      <trkpt lat="44.05442" lon="5.92326">
        <ele>553.59997558594</ele>
        <time>2021-02-11T11:33:46.000Z</time>
      </trkpt>
      <trkpt lat="44.05442" lon="5.92326">
        <ele>553.59997558594</ele>
        <time>2021-02-11T11:33:47.000Z</time>
      </trkpt>
      <trkpt lat="44.05442" lon="5.92327">
        <ele>552.59997558594</ele>
        <time>2021-02-11T11:33:56.000Z</time>
      </trkpt>
      <trkpt lat="44.05442" lon="5.92327">
        <ele>552.40002441406</ele>
        <time>2021-02-11T11:34:01.000Z</time>
      </trkpt>
      <trkpt lat="44.05442" lon="5.92327">
        <ele>551.59997558594</ele>
        <time>2021-02-11T11:34:07.000Z</time>
      </trkpt>
      <trkpt lat="44.05442" lon="5.92327">
        <ele>550.59997558594</ele>
        <time>2021-02-11T11:34:11.000Z</time>
      </trkpt>
      <trkpt lat="44.05442" lon="5.92327">
        <ele>549.59997558594</ele>
        <time>2021-02-11T11:34:15.000Z</time>
      </trkpt>
      <trkpt lat="44.05442" lon="5.92327">
        <ele>548.40002441406</ele>
        <time>2021-02-11T11:34:19.000Z</time>
      </trkpt>
      <trkpt lat="44.05442" lon="5.92327">
        <ele>547.20001220703</ele>
        <time>2021-02-11T11:34:25.000Z</time>
      </trkpt>
      <trkpt lat="44.05442" lon="5.92327">
        <ele>546.40002441406</ele>
        <time>2021-02-11T11:34:30.000Z</time>
      </trkpt>
      <trkpt lat="44.05442" lon="5.92327">
        <ele>545.20001220703</ele>
        <time>2021-02-11T11:34:36.000Z</time>
      </trkpt>
      <trkpt lat="44.05442" lon="5.92327">
        <ele>544.20001220703</ele>
        <time>2021-02-11T11:34:41.000Z</time>
      </trkpt>
      <trkpt lat="44.05442" lon="5.92327">
        <ele>543</ele>
        <time>2021-02-11T11:34:45.000Z</time>
      </trkpt>
      <trkpt lat="44.05442" lon="5.92327">
        <ele>542</ele>
        <time>2021-02-11T11:34:48.000Z</time>
      </trkpt>
      <trkpt lat="44.05442" lon="5.92327">
        <ele>540.79998779297</ele>
        <time>2021-02-11T11:34:52.000Z</time>
      </trkpt>
      <trkpt lat="44.05442" lon="5.92327">
        <ele>540</ele>
        <time>2021-02-11T11:34:56.000Z</time>
      </trkpt>
      <trkpt lat="44.05442" lon="5.92327">
        <ele>538.79998779297</ele>
        <time>2021-02-11T11:35:00.000Z</time>
      </trkpt>
      <trkpt lat="44.05442" lon="5.92327">
        <ele>538.40002441406</ele>
        <time>2021-02-11T11:35:02.000Z</time>
      </trkpt>
      <trkpt lat="44.05442" lon="5.92327">
        <ele>537.79998779297</ele>
        <time>2021-02-11T11:35:04.000Z</time>
      </trkpt>
      <trkpt lat="44.05441" lon="5.92327">
        <ele>536.79998779297</ele>
        <time>2021-02-11T11:35:08.000Z</time>
      </trkpt>
      <trkpt lat="44.05441" lon="5.92327">
        <ele>536.59997558594</ele>
        <time>2021-02-11T11:35:09.000Z</time>
      </trkpt>
      <trkpt lat="44.0544" lon="5.92326">
        <ele>536.40002441406</ele>
        <time>2021-02-11T11:35:10.000Z</time>
      </trkpt>
      <trkpt lat="44.05436" lon="5.92326">
        <ele>535.59997558594</ele>
        <time>2021-02-11T11:35:13.000Z</time>
      </trkpt>
      <trkpt lat="44.05435" lon="5.92326">
        <ele>535</ele>
        <time>2021-02-11T11:35:14.000Z</time>
      </trkpt>
      <trkpt lat="44.05435" lon="5.92326">
        <ele>534.59997558594</ele>
        <time>2021-02-11T11:35:17.000Z</time>
      </trkpt>
      <trkpt lat="44.05434" lon="5.92326">
        <ele>534.40002441406</ele>
        <time>2021-02-11T11:35:19.000Z</time>
      </trkpt>
      <trkpt lat="44.05424" lon="5.92327">
        <ele>534.20001220703</ele>
        <time>2021-02-11T11:35:26.000Z</time>
      </trkpt>
      <trkpt lat="44.05414" lon="5.92329">
        <ele>533.59997558594</ele>
        <time>2021-02-11T11:35:30.000Z</time>
      </trkpt>
      <trkpt lat="44.05412" lon="5.92331">
        <ele>533.40002441406</ele>
        <time>2021-02-11T11:35:31.000Z</time>
      </trkpt>
      <trkpt lat="44.05408" lon="5.92346">
        <ele>532.79998779297</ele>
        <time>2021-02-11T11:35:35.000Z</time>
      </trkpt>
      <trkpt lat="44.05408" lon="5.92352">
        <ele>532.59997558594</ele>
        <time>2021-02-11T11:35:37.000Z</time>
      </trkpt>
      <trkpt lat="44.0541" lon="5.92359">
        <ele>532.20001220703</ele>
        <time>2021-02-11T11:35:40.000Z</time>
      </trkpt>
      <trkpt lat="44.0541" lon="5.9237">
        <ele>532.20001220703</ele>
        <time>2021-02-11T11:35:45.000Z</time>
      </trkpt>
      <trkpt lat="44.05411" lon="5.92376">
        <ele>532.40002441406</ele>
        <time>2021-02-11T11:35:49.000Z</time>
      </trkpt>
      <trkpt lat="44.05412" lon="5.92378">
        <ele>532.59997558594</ele>
        <time>2021-02-11T11:35:50.000Z</time>
      </trkpt>
      <trkpt lat="44.05423" lon="5.9239">
        <ele>533.20001220703</ele>
        <time>2021-02-11T11:35:55.000Z</time>
      </trkpt>
      <trkpt lat="44.05433" lon="5.92399">
        <ele>533.59997558594</ele>
        <time>2021-02-11T11:36:00.000Z</time>
      </trkpt>
      <trkpt lat="44.05434" lon="5.92402">
        <ele>533.79998779297</ele>
        <time>2021-02-11T11:36:01.000Z</time>
      </trkpt>
      <trkpt lat="44.05439" lon="5.9241">
        <ele>535</ele>
        <time>2021-02-11T11:36:05.000Z</time>
      </trkpt>
      <trkpt lat="44.05448" lon="5.92422">
        <ele>536</ele>
        <time>2021-02-11T11:36:10.000Z</time>
      </trkpt>
      <trkpt lat="44.05449" lon="5.92426">
        <ele>536.40002441406</ele>
        <time>2021-02-11T11:36:11.000Z</time>
      </trkpt>
      <trkpt lat="44.0545" lon="5.92435">
        <ele>537.20001220703</ele>
        <time>2021-02-11T11:36:14.000Z</time>
      </trkpt>
      <trkpt lat="44.05453" lon="5.92441">
        <ele>538.20001220703</ele>
        <time>2021-02-11T11:36:16.000Z</time>
      </trkpt>
      <trkpt lat="44.05455" lon="5.92446">
        <ele>538.59997558594</ele>
        <time>2021-02-11T11:36:18.000Z</time>
      </trkpt>
      <trkpt lat="44.05462" lon="5.92454">
        <ele>539.40002441406</ele>
        <time>2021-02-11T11:36:21.000Z</time>
      </trkpt>
      <trkpt lat="44.05467" lon="5.92459">
        <ele>539.59997558594</ele>
        <time>2021-02-11T11:36:23.000Z</time>
      </trkpt>
      <trkpt lat="44.05475" lon="5.92466">
        <ele>540</ele>
        <time>2021-02-11T11:36:27.000Z</time>
      </trkpt>
      <trkpt lat="44.05478" lon="5.92476">
        <ele>540.59997558594</ele>
        <time>2021-02-11T11:36:31.000Z</time>
      </trkpt>
      <trkpt lat="44.05479" lon="5.92478">
        <ele>540.79998779297</ele>
        <time>2021-02-11T11:36:32.000Z</time>
      </trkpt>
      <trkpt lat="44.0548" lon="5.92479">
        <ele>541.20001220703</ele>
        <time>2021-02-11T11:36:35.000Z</time>
      </trkpt>
      <trkpt lat="44.0548" lon="5.92479">
        <ele>541.79998779297</ele>
        <time>2021-02-11T11:36:47.000Z</time>
      </trkpt>
      <trkpt lat="44.0548" lon="5.9248">
        <ele>540</ele>
        <time>2021-02-11T11:36:59.000Z</time>
      </trkpt>
      <trkpt lat="44.05483" lon="5.92489">
        <ele>538.59997558594</ele>
        <time>2021-02-11T11:37:03.000Z</time>
      </trkpt>
      <trkpt lat="44.05484" lon="5.92492">
        <ele>538.40002441406</ele>
        <time>2021-02-11T11:37:04.000Z</time>
      </trkpt>
      <trkpt lat="44.05491" lon="5.92511">
        <ele>537.59997558594</ele>
        <time>2021-02-11T11:37:10.000Z</time>
      </trkpt>
      <trkpt lat="44.05491" lon="5.92515">
        <ele>537.59997558594</ele>
        <time>2021-02-11T11:37:11.000Z</time>
      </trkpt>
      <trkpt lat="44.05489" lon="5.92522">
        <ele>537.59997558594</ele>
        <time>2021-02-11T11:37:13.000Z</time>
      </trkpt>
      <trkpt lat="44.0548" lon="5.92532">
        <ele>538.40002441406</ele>
        <time>2021-02-11T11:37:19.000Z</time>
      </trkpt>
      <trkpt lat="44.05479" lon="5.92532">
        <ele>538.79998779297</ele>
        <time>2021-02-11T11:37:22.000Z</time>
      </trkpt>
      <trkpt lat="44.0548" lon="5.92532">
        <ele>539.40002441406</ele>
        <time>2021-02-11T11:37:29.000Z</time>
      </trkpt>
      <trkpt lat="44.0548" lon="5.92532">
        <ele>539.40002441406</ele>
        <time>2021-02-11T11:37:39.000Z</time>
      </trkpt>
      <trkpt lat="44.05479" lon="5.92534">
        <ele>539</ele>
        <time>2021-02-11T11:37:41.000Z</time>
      </trkpt>
      <trkpt lat="44.05475" lon="5.92543">
        <ele>538.40002441406</ele>
        <time>2021-02-11T11:37:45.000Z</time>
      </trkpt>
      <trkpt lat="44.05473" lon="5.92547">
        <ele>538</ele>
        <time>2021-02-11T11:37:47.000Z</time>
      </trkpt>
      <trkpt lat="44.05473" lon="5.9255">
        <ele>537.59997558594</ele>
        <time>2021-02-11T11:37:48.000Z</time>
      </trkpt>
      <trkpt lat="44.05473" lon="5.92552">
        <ele>537.40002441406</ele>
        <time>2021-02-11T11:37:49.000Z</time>
      </trkpt>
      <trkpt lat="44.05479" lon="5.92555">
        <ele>536.59997558594</ele>
        <time>2021-02-11T11:37:52.000Z</time>
      </trkpt>
      <trkpt lat="44.05481" lon="5.92556">
        <ele>536.20001220703</ele>
        <time>2021-02-11T11:37:53.000Z</time>
      </trkpt>
      <trkpt lat="44.05489" lon="5.92556">
        <ele>536</ele>
        <time>2021-02-11T11:37:57.000Z</time>
      </trkpt>
      <trkpt lat="44.05495" lon="5.92558">
        <ele>536</ele>
        <time>2021-02-11T11:38:00.000Z</time>
      </trkpt>
      <trkpt lat="44.05509" lon="5.92563">
        <ele>536.79998779297</ele>
        <time>2021-02-11T11:38:08.000Z</time>
      </trkpt>
      <trkpt lat="44.05522" lon="5.9257">
        <ele>537.59997558594</ele>
        <time>2021-02-11T11:38:15.000Z</time>
      </trkpt>
      <trkpt lat="44.05524" lon="5.92572">
        <ele>537.79998779297</ele>
        <time>2021-02-11T11:38:16.000Z</time>
      </trkpt>
      <trkpt lat="44.05535" lon="5.92582">
        <ele>538.59997558594</ele>
        <time>2021-02-11T11:38:22.000Z</time>
      </trkpt>
      <trkpt lat="44.05537" lon="5.92585">
        <ele>538.59997558594</ele>
        <time>2021-02-11T11:38:23.000Z</time>
      </trkpt>
      <trkpt lat="44.05545" lon="5.92596">
        <ele>539.20001220703</ele>
        <time>2021-02-11T11:38:28.000Z</time>
      </trkpt>
      <trkpt lat="44.05554" lon="5.92614">
        <ele>539.40002441406</ele>
        <time>2021-02-11T11:38:35.000Z</time>
      </trkpt>
      <trkpt lat="44.0556" lon="5.92628">
        <ele>539.59997558594</ele>
        <time>2021-02-11T11:38:41.000Z</time>
      </trkpt>
      <trkpt lat="44.05564" lon="5.92643">
        <ele>539.79998779297</ele>
        <time>2021-02-11T11:38:45.000Z</time>
      </trkpt>
      <trkpt lat="44.05566" lon="5.92646">
        <ele>539.79998779297</ele>
        <time>2021-02-11T11:38:46.000Z</time>
      </trkpt>
      <trkpt lat="44.05565" lon="5.92661">
        <ele>540</ele>
        <time>2021-02-11T11:38:50.000Z</time>
      </trkpt>
      <trkpt lat="44.05565" lon="5.92664">
        <ele>540</ele>
        <time>2021-02-11T11:38:51.000Z</time>
      </trkpt>
      <trkpt lat="44.05571" lon="5.92672">
        <ele>540.20001220703</ele>
        <time>2021-02-11T11:38:54.000Z</time>
      </trkpt>
      <trkpt lat="44.05572" lon="5.92674">
        <ele>540.40002441406</ele>
        <time>2021-02-11T11:38:55.000Z</time>
      </trkpt>
      <trkpt lat="44.05572" lon="5.92676">
        <ele>540.79998779297</ele>
        <time>2021-02-11T11:38:56.000Z</time>
      </trkpt>
      <trkpt lat="44.05571" lon="5.92679">
        <ele>540.79998779297</ele>
        <time>2021-02-11T11:38:57.000Z</time>
      </trkpt>
      <trkpt lat="44.05568" lon="5.92689">
        <ele>542</ele>
        <time>2021-02-11T11:39:01.000Z</time>
      </trkpt>
      <trkpt lat="44.05568" lon="5.92691">
        <ele>542</ele>
        <time>2021-02-11T11:39:02.000Z</time>
      </trkpt>
      <trkpt lat="44.05573" lon="5.92695">
        <ele>542.59997558594</ele>
        <time>2021-02-11T11:39:05.000Z</time>
      </trkpt>
      <trkpt lat="44.05575" lon="5.92696">
        <ele>543</ele>
        <time>2021-02-11T11:39:06.000Z</time>
      </trkpt>
      <trkpt lat="44.05577" lon="5.92697">
        <ele>543.20001220703</ele>
        <time>2021-02-11T11:39:07.000Z</time>
      </trkpt>
      <trkpt lat="44.05581" lon="5.92697">
        <ele>544</ele>
        <time>2021-02-11T11:39:10.000Z</time>
      </trkpt>
      <trkpt lat="44.05584" lon="5.92694">
        <ele>544.20001220703</ele>
        <time>2021-02-11T11:39:12.000Z</time>
      </trkpt>
      <trkpt lat="44.05587" lon="5.92692">
        <ele>545.20001220703</ele>
        <time>2021-02-11T11:39:16.000Z</time>
      </trkpt>
      <trkpt lat="44.05589" lon="5.92692">
        <ele>545.40002441406</ele>
        <time>2021-02-11T11:39:17.000Z</time>
      </trkpt>
      <trkpt lat="44.0559" lon="5.92692">
        <ele>545.59997558594</ele>
        <time>2021-02-11T11:39:18.000Z</time>
      </trkpt>
      <trkpt lat="44.05594" lon="5.92691">
        <ele>546.20001220703</ele>
        <time>2021-02-11T11:39:20.000Z</time>
      </trkpt>
      <trkpt lat="44.05597" lon="5.92689">
        <ele>546.59997558594</ele>
        <time>2021-02-11T11:39:22.000Z</time>
      </trkpt>
      <trkpt lat="44.05599" lon="5.92688">
        <ele>546.79998779297</ele>
        <time>2021-02-11T11:39:23.000Z</time>
      </trkpt>
      <trkpt lat="44.05606" lon="5.92688">
        <ele>547.20001220703</ele>
        <time>2021-02-11T11:39:26.000Z</time>
      </trkpt>
      <trkpt lat="44.0561" lon="5.92689">
        <ele>547.59997558594</ele>
        <time>2021-02-11T11:39:28.000Z</time>
      </trkpt>
      <trkpt lat="44.05616" lon="5.92689">
        <ele>548.20001220703</ele>
        <time>2021-02-11T11:39:31.000Z</time>
      </trkpt>
      <trkpt lat="44.05621" lon="5.92693">
        <ele>548.79998779297</ele>
        <time>2021-02-11T11:39:34.000Z</time>
      </trkpt>
      <trkpt lat="44.05626" lon="5.92699">
        <ele>549.20001220703</ele>
        <time>2021-02-11T11:39:37.000Z</time>
      </trkpt>
      <trkpt lat="44.05626" lon="5.92702">
        <ele>549.40002441406</ele>
        <time>2021-02-11T11:39:38.000Z</time>
      </trkpt>
      <trkpt lat="44.05625" lon="5.92704">
        <ele>549.59997558594</ele>
        <time>2021-02-11T11:39:39.000Z</time>
      </trkpt>
      <trkpt lat="44.05628" lon="5.9271">
        <ele>550.40002441406</ele>
        <time>2021-02-11T11:39:42.000Z</time>
      </trkpt>
      <trkpt lat="44.0563" lon="5.92711">
        <ele>550.40002441406</ele>
        <time>2021-02-11T11:39:43.000Z</time>
      </trkpt>
      <trkpt lat="44.05638" lon="5.92712">
        <ele>550.59997558594</ele>
        <time>2021-02-11T11:39:46.000Z</time>
      </trkpt>
      <trkpt lat="44.05643" lon="5.92715">
        <ele>550.79998779297</ele>
        <time>2021-02-11T11:39:48.000Z</time>
      </trkpt>
      <trkpt lat="44.05648" lon="5.92721">
        <ele>551.20001220703</ele>
        <time>2021-02-11T11:39:51.000Z</time>
      </trkpt>
      <trkpt lat="44.05656" lon="5.92726">
        <ele>551.40002441406</ele>
        <time>2021-02-11T11:39:54.000Z</time>
      </trkpt>
      <trkpt lat="44.05663" lon="5.92727">
        <ele>551.59997558594</ele>
        <time>2021-02-11T11:39:57.000Z</time>
      </trkpt>
      <trkpt lat="44.05666" lon="5.92729">
        <ele>551.79998779297</ele>
        <time>2021-02-11T11:39:58.000Z</time>
      </trkpt>
      <trkpt lat="44.05668" lon="5.9273">
        <ele>551.79998779297</ele>
        <time>2021-02-11T11:39:59.000Z</time>
      </trkpt>
      <trkpt lat="44.05682" lon="5.92742">
        <ele>552</ele>
        <time>2021-02-11T11:40:06.000Z</time>
      </trkpt>
      <trkpt lat="44.05696" lon="5.92748">
        <ele>552</ele>
        <time>2021-02-11T11:40:12.000Z</time>
      </trkpt>
      <trkpt lat="44.05708" lon="5.92759">
        <ele>551.20001220703</ele>
        <time>2021-02-11T11:40:17.000Z</time>
      </trkpt>
      <trkpt lat="44.05713" lon="5.92768">
        <ele>551</ele>
        <time>2021-02-11T11:40:19.000Z</time>
      </trkpt>
      <trkpt lat="44.05719" lon="5.92778">
        <ele>550.79998779297</ele>
        <time>2021-02-11T11:40:21.000Z</time>
      </trkpt>
      <trkpt lat="44.05728" lon="5.92785">
        <ele>550.59997558594</ele>
        <time>2021-02-11T11:40:23.000Z</time>
      </trkpt>
      <trkpt lat="44.05736" lon="5.92792">
        <ele>550</ele>
        <time>2021-02-11T11:40:25.000Z</time>
      </trkpt>
      <trkpt lat="44.05741" lon="5.92803">
        <ele>549.20001220703</ele>
        <time>2021-02-11T11:40:27.000Z</time>
      </trkpt>
      <trkpt lat="44.05742" lon="5.92809">
        <ele>549</ele>
        <time>2021-02-11T11:40:28.000Z</time>
      </trkpt>
      <trkpt lat="44.05754" lon="5.92824">
        <ele>548</ele>
        <time>2021-02-11T11:40:31.000Z</time>
      </trkpt>
      <trkpt lat="44.05759" lon="5.92829">
        <ele>547.59997558594</ele>
        <time>2021-02-11T11:40:32.000Z</time>
      </trkpt>
      <trkpt lat="44.0577" lon="5.92837">
        <ele>547</ele>
        <time>2021-02-11T11:40:34.000Z</time>
      </trkpt>
      <trkpt lat="44.05775" lon="5.9284">
        <ele>546.79998779297</ele>
        <time>2021-02-11T11:40:35.000Z</time>
      </trkpt>
      <trkpt lat="44.0578" lon="5.92842">
        <ele>546.59997558594</ele>
        <time>2021-02-11T11:40:36.000Z</time>
      </trkpt>
      <trkpt lat="44.05787" lon="5.92847">
        <ele>546.20001220703</ele>
        <time>2021-02-11T11:40:38.000Z</time>
      </trkpt>
      <trkpt lat="44.05793" lon="5.92855">
        <ele>545.79998779297</ele>
        <time>2021-02-11T11:40:40.000Z</time>
      </trkpt>
      <trkpt lat="44.05796" lon="5.9287">
        <ele>544.59997558594</ele>
        <time>2021-02-11T11:40:43.000Z</time>
      </trkpt>
      <trkpt lat="44.05798" lon="5.92874">
        <ele>544.40002441406</ele>
        <time>2021-02-11T11:40:44.000Z</time>
      </trkpt>
      <trkpt lat="44.05802" lon="5.9288">
        <ele>544</ele>
        <time>2021-02-11T11:40:46.000Z</time>
      </trkpt>
      <trkpt lat="44.05809" lon="5.92889">
        <ele>543.59997558594</ele>
        <time>2021-02-11T11:40:49.000Z</time>
      </trkpt>
      <trkpt lat="44.05812" lon="5.92893">
        <ele>543.40002441406</ele>
        <time>2021-02-11T11:40:50.000Z</time>
      </trkpt>
      <trkpt lat="44.05819" lon="5.92903">
        <ele>543</ele>
        <time>2021-02-11T11:40:52.000Z</time>
      </trkpt>
      <trkpt lat="44.05825" lon="5.92912">
        <ele>542.40002441406</ele>
        <time>2021-02-11T11:40:54.000Z</time>
      </trkpt>
      <trkpt lat="44.05827" lon="5.92917">
        <ele>541.20001220703</ele>
        <time>2021-02-11T11:40:55.000Z</time>
      </trkpt>
      <trkpt lat="44.05828" lon="5.92923">
        <ele>540.40002441406</ele>
        <time>2021-02-11T11:40:56.000Z</time>
      </trkpt>
      <trkpt lat="44.05829" lon="5.92928">
        <ele>539.79998779297</ele>
        <time>2021-02-11T11:40:57.000Z</time>
      </trkpt>
      <trkpt lat="44.05831" lon="5.92934">
        <ele>539</ele>
        <time>2021-02-11T11:40:58.000Z</time>
      </trkpt>
      <trkpt lat="44.05833" lon="5.92938">
        <ele>538.20001220703</ele>
        <time>2021-02-11T11:40:59.000Z</time>
      </trkpt>
      <trkpt lat="44.05839" lon="5.92946">
        <ele>536.59997558594</ele>
        <time>2021-02-11T11:41:01.000Z</time>
      </trkpt>
      <trkpt lat="44.05844" lon="5.92956">
        <ele>535.40002441406</ele>
        <time>2021-02-11T11:41:03.000Z</time>
      </trkpt>
      <trkpt lat="44.05849" lon="5.92965">
        <ele>534.40002441406</ele>
        <time>2021-02-11T11:41:05.000Z</time>
      </trkpt>
      <trkpt lat="44.05852" lon="5.92972">
        <ele>533.20001220703</ele>
        <time>2021-02-11T11:41:07.000Z</time>
      </trkpt>
      <trkpt lat="44.05854" lon="5.92975">
        <ele>532.59997558594</ele>
        <time>2021-02-11T11:41:08.000Z</time>
      </trkpt>
      <trkpt lat="44.05857" lon="5.92979">
        <ele>531.79998779297</ele>
        <time>2021-02-11T11:41:10.000Z</time>
      </trkpt>
      <trkpt lat="44.05857" lon="5.92979">
        <ele>531</ele>
        <time>2021-02-11T11:41:12.000Z</time>
      </trkpt>
      <trkpt lat="44.05858" lon="5.92979">
        <ele>530.59997558594</ele>
        <time>2021-02-11T11:41:13.000Z</time>
      </trkpt>
      <trkpt lat="44.05858" lon="5.92979">
        <ele>529.40002441406</ele>
        <time>2021-02-11T11:41:17.000Z</time>
      </trkpt>
      <trkpt lat="44.05858" lon="5.92979">
        <ele>528.20001220703</ele>
        <time>2021-02-11T11:41:20.000Z</time>
      </trkpt>
      <trkpt lat="44.05858" lon="5.92979">
        <ele>527</ele>
        <time>2021-02-11T11:41:25.000Z</time>
      </trkpt>
      <trkpt lat="44.05859" lon="5.92979">
        <ele>526.59997558594</ele>
        <time>2021-02-11T11:41:29.000Z</time>
      </trkpt>
      <trkpt lat="44.05863" lon="5.92979">
        <ele>526.59997558594</ele>
        <time>2021-02-11T11:41:31.000Z</time>
      </trkpt>
      <trkpt lat="44.05878" lon="5.92978">
        <ele>526.40002441406</ele>
        <time>2021-02-11T11:41:35.000Z</time>
      </trkpt>
      <trkpt lat="44.05886" lon="5.92976">
        <ele>526.40002441406</ele>
        <time>2021-02-11T11:41:37.000Z</time>
      </trkpt>
      <trkpt lat="44.0589" lon="5.92975">
        <ele>526.20001220703</ele>
        <time>2021-02-11T11:41:38.000Z</time>
      </trkpt>
      <trkpt lat="44.05901" lon="5.92977">
        <ele>526</ele>
        <time>2021-02-11T11:41:40.000Z</time>
      </trkpt>
      <trkpt lat="44.05911" lon="5.92982">
        <ele>525.79998779297</ele>
        <time>2021-02-11T11:41:42.000Z</time>
      </trkpt>
      <trkpt lat="44.0592" lon="5.92991">
        <ele>525.40002441406</ele>
        <time>2021-02-11T11:41:44.000Z</time>
      </trkpt>
      <trkpt lat="44.05921" lon="5.93007">
        <ele>524.40002441406</ele>
        <time>2021-02-11T11:41:47.000Z</time>
      </trkpt>
      <trkpt lat="44.05918" lon="5.93011">
        <ele>523.59997558594</ele>
        <time>2021-02-11T11:41:48.000Z</time>
      </trkpt>
      <trkpt lat="44.05914" lon="5.93017">
        <ele>523</ele>
        <time>2021-02-11T11:41:49.000Z</time>
      </trkpt>
      <trkpt lat="44.0591" lon="5.93029">
        <ele>521.79998779297</ele>
        <time>2021-02-11T11:41:51.000Z</time>
      </trkpt>
      <trkpt lat="44.05906" lon="5.93038">
        <ele>520.79998779297</ele>
        <time>2021-02-11T11:41:53.000Z</time>
      </trkpt>
      <trkpt lat="44.05903" lon="5.9304">
        <ele>520.40002441406</ele>
        <time>2021-02-11T11:41:54.000Z</time>
      </trkpt>
      <trkpt lat="44.05899" lon="5.93042">
        <ele>519.79998779297</ele>
        <time>2021-02-11T11:41:56.000Z</time>
      </trkpt>
      <trkpt lat="44.05895" lon="5.93044">
        <ele>519</ele>
        <time>2021-02-11T11:41:58.000Z</time>
      </trkpt>
      <trkpt lat="44.05893" lon="5.93046">
        <ele>518.20001220703</ele>
        <time>2021-02-11T11:41:59.000Z</time>
      </trkpt>
      <trkpt lat="44.05889" lon="5.93051">
        <ele>516.79998779297</ele>
        <time>2021-02-11T11:42:01.000Z</time>
      </trkpt>
      <trkpt lat="44.05887" lon="5.93052">
        <ele>516.20001220703</ele>
        <time>2021-02-11T11:42:02.000Z</time>
      </trkpt>
      <trkpt lat="44.05884" lon="5.93052">
        <ele>515.59997558594</ele>
        <time>2021-02-11T11:42:03.000Z</time>
      </trkpt>
      <trkpt lat="44.05878" lon="5.93053">
        <ele>514.40002441406</ele>
        <time>2021-02-11T11:42:06.000Z</time>
      </trkpt>
      <trkpt lat="44.05869" lon="5.93054">
        <ele>513.59997558594</ele>
        <time>2021-02-11T11:42:09.000Z</time>
      </trkpt>
      <trkpt lat="44.05857" lon="5.93054">
        <ele>513.59997558594</ele>
        <time>2021-02-11T11:42:13.000Z</time>
      </trkpt>
      <trkpt lat="44.05853" lon="5.93052">
        <ele>513.59997558594</ele>
        <time>2021-02-11T11:42:15.000Z</time>
      </trkpt>
      <trkpt lat="44.0585" lon="5.93049">
        <ele>513.59997558594</ele>
        <time>2021-02-11T11:42:17.000Z</time>
      </trkpt>
      <trkpt lat="44.05847" lon="5.93047">
        <ele>513.59997558594</ele>
        <time>2021-02-11T11:42:19.000Z</time>
      </trkpt>
      <trkpt lat="44.05842" lon="5.93049">
        <ele>513.79998779297</ele>
        <time>2021-02-11T11:42:22.000Z</time>
      </trkpt>
      <trkpt lat="44.05835" lon="5.93052">
        <ele>514.40002441406</ele>
        <time>2021-02-11T11:42:25.000Z</time>
      </trkpt>
      <trkpt lat="44.05831" lon="5.93052">
        <ele>514.79998779297</ele>
        <time>2021-02-11T11:42:27.000Z</time>
      </trkpt>
      <trkpt lat="44.05815" lon="5.93053">
        <ele>515.40002441406</ele>
        <time>2021-02-11T11:42:33.000Z</time>
      </trkpt>
      <trkpt lat="44.05809" lon="5.93053">
        <ele>515.40002441406</ele>
        <time>2021-02-11T11:42:35.000Z</time>
      </trkpt>
      <trkpt lat="44.05796" lon="5.93051">
        <ele>515.40002441406</ele>
        <time>2021-02-11T11:42:40.000Z</time>
      </trkpt>
      <trkpt lat="44.05794" lon="5.93054">
        <ele>515.59997558594</ele>
        <time>2021-02-11T11:42:41.000Z</time>
      </trkpt>
      <trkpt lat="44.05789" lon="5.93061">
        <ele>515.79998779297</ele>
        <time>2021-02-11T11:42:44.000Z</time>
      </trkpt>
      <trkpt lat="44.05781" lon="5.93073">
        <ele>516.20001220703</ele>
        <time>2021-02-11T11:42:48.000Z</time>
      </trkpt>
      <trkpt lat="44.05782" lon="5.93075">
        <ele>516.20001220703</ele>
        <time>2021-02-11T11:42:49.000Z</time>
      </trkpt>
      <trkpt lat="44.05787" lon="5.93078">
        <ele>516.59997558594</ele>
        <time>2021-02-11T11:42:52.000Z</time>
      </trkpt>
      <trkpt lat="44.058" lon="5.93086">
        <ele>516.59997558594</ele>
        <time>2021-02-11T11:42:57.000Z</time>
      </trkpt>
      <trkpt lat="44.05805" lon="5.9309">
        <ele>516.59997558594</ele>
        <time>2021-02-11T11:42:59.000Z</time>
      </trkpt>
      <trkpt lat="44.05813" lon="5.93098">
        <ele>516.59997558594</ele>
        <time>2021-02-11T11:43:02.000Z</time>
      </trkpt>
      <trkpt lat="44.05822" lon="5.93104">
        <ele>516.59997558594</ele>
        <time>2021-02-11T11:43:07.000Z</time>
      </trkpt>
      <trkpt lat="44.05823" lon="5.93106">
        <ele>517.20001220703</ele>
        <time>2021-02-11T11:43:13.000Z</time>
      </trkpt>
      <trkpt lat="44.05823" lon="5.93106">
        <ele>517.40002441406</ele>
        <time>2021-02-11T11:43:14.000Z</time>
      </trkpt>
      <trkpt lat="44.05823" lon="5.93106">
        <ele>518.20001220703</ele>
        <time>2021-02-11T11:43:18.000Z</time>
      </trkpt>
      <trkpt lat="44.05826" lon="5.93106">
        <ele>518.59997558594</ele>
        <time>2021-02-11T11:43:20.000Z</time>
      </trkpt>
      <trkpt lat="44.0584" lon="5.93111">
        <ele>518.79998779297</ele>
        <time>2021-02-11T11:43:25.000Z</time>
      </trkpt>
      <trkpt lat="44.05853" lon="5.93124">
        <ele>518.79998779297</ele>
        <time>2021-02-11T11:43:31.000Z</time>
      </trkpt>
      <trkpt lat="44.05863" lon="5.93134">
        <ele>519</ele>
        <time>2021-02-11T11:43:36.000Z</time>
      </trkpt>
      <trkpt lat="44.0587" lon="5.93139">
        <ele>519.20001220703</ele>
        <time>2021-02-11T11:43:40.000Z</time>
      </trkpt>
      <trkpt lat="44.05877" lon="5.93143">
        <ele>520</ele>
        <time>2021-02-11T11:43:43.000Z</time>
      </trkpt>
      <trkpt lat="44.05879" lon="5.93145">
        <ele>520.40002441406</ele>
        <time>2021-02-11T11:43:44.000Z</time>
      </trkpt>
      <trkpt lat="44.05891" lon="5.93151">
        <ele>521.59997558594</ele>
        <time>2021-02-11T11:43:48.000Z</time>
      </trkpt>
      <trkpt lat="44.05895" lon="5.93152">
        <ele>522.59997558594</ele>
        <time>2021-02-11T11:43:49.000Z</time>
      </trkpt>
      <trkpt lat="44.05903" lon="5.93157">
        <ele>523.79998779297</ele>
        <time>2021-02-11T11:43:52.000Z</time>
      </trkpt>
      <trkpt lat="44.05911" lon="5.93162">
        <ele>524.59997558594</ele>
        <time>2021-02-11T11:43:55.000Z</time>
      </trkpt>
      <trkpt lat="44.05915" lon="5.93165">
        <ele>525</ele>
        <time>2021-02-11T11:43:57.000Z</time>
      </trkpt>
      <trkpt lat="44.05925" lon="5.93173">
        <ele>526</ele>
        <time>2021-02-11T11:44:01.000Z</time>
      </trkpt>
      <trkpt lat="44.05927" lon="5.93175">
        <ele>526.20001220703</ele>
        <time>2021-02-11T11:44:02.000Z</time>
      </trkpt>
      <trkpt lat="44.05937" lon="5.93181">
        <ele>526.79998779297</ele>
        <time>2021-02-11T11:44:06.000Z</time>
      </trkpt>
      <trkpt lat="44.05939" lon="5.93183">
        <ele>527</ele>
        <time>2021-02-11T11:44:07.000Z</time>
      </trkpt>
      <trkpt lat="44.05946" lon="5.93188">
        <ele>528</ele>
        <time>2021-02-11T11:44:10.000Z</time>
      </trkpt>
      <trkpt lat="44.0595" lon="5.93191">
        <ele>528.79998779297</ele>
        <time>2021-02-11T11:44:12.000Z</time>
      </trkpt>
      <trkpt lat="44.05952" lon="5.93193">
        <ele>529.20001220703</ele>
        <time>2021-02-11T11:44:13.000Z</time>
      </trkpt>
      <trkpt lat="44.05964" lon="5.93203">
        <ele>530.20001220703</ele>
        <time>2021-02-11T11:44:18.000Z</time>
      </trkpt>
      <trkpt lat="44.05966" lon="5.93205">
        <ele>530.40002441406</ele>
        <time>2021-02-11T11:44:19.000Z</time>
      </trkpt>
      <trkpt lat="44.05974" lon="5.93216">
        <ele>531.40002441406</ele>
        <time>2021-02-11T11:44:23.000Z</time>
      </trkpt>
      <trkpt lat="44.05974" lon="5.93221">
        <ele>531.79998779297</ele>
        <time>2021-02-11T11:44:25.000Z</time>
      </trkpt>
      <trkpt lat="44.05971" lon="5.93223">
        <ele>532.59997558594</ele>
        <time>2021-02-11T11:44:27.000Z</time>
      </trkpt>
      <trkpt lat="44.05967" lon="5.93226">
        <ele>533.59997558594</ele>
        <time>2021-02-11T11:44:29.000Z</time>
      </trkpt>
      <trkpt lat="44.05965" lon="5.93227">
        <ele>533.79998779297</ele>
        <time>2021-02-11T11:44:30.000Z</time>
      </trkpt>
      <trkpt lat="44.05956" lon="5.9323">
        <ele>535</ele>
        <time>2021-02-11T11:44:34.000Z</time>
      </trkpt>
      <trkpt lat="44.05954" lon="5.93231">
        <ele>535.59997558594</ele>
        <time>2021-02-11T11:44:35.000Z</time>
      </trkpt>
      <trkpt lat="44.0595" lon="5.93232">
        <ele>536.40002441406</ele>
        <time>2021-02-11T11:44:37.000Z</time>
      </trkpt>
      <trkpt lat="44.05938" lon="5.93231">
        <ele>537.40002441406</ele>
        <time>2021-02-11T11:44:41.000Z</time>
      </trkpt>
      <trkpt lat="44.05935" lon="5.9323">
        <ele>537.59997558594</ele>
        <time>2021-02-11T11:44:42.000Z</time>
      </trkpt>
      <trkpt lat="44.05925" lon="5.93229">
        <ele>538.59997558594</ele>
        <time>2021-02-11T11:44:46.000Z</time>
      </trkpt>
      <trkpt lat="44.05923" lon="5.93229">
        <ele>538.79998779297</ele>
        <time>2021-02-11T11:44:47.000Z</time>
      </trkpt>
      <trkpt lat="44.05911" lon="5.93231">
        <ele>539.40002441406</ele>
        <time>2021-02-11T11:44:52.000Z</time>
      </trkpt>
      <trkpt lat="44.05907" lon="5.93233">
        <ele>539.40002441406</ele>
        <time>2021-02-11T11:44:54.000Z</time>
      </trkpt>
      <trkpt lat="44.05907" lon="5.93236">
        <ele>539.40002441406</ele>
        <time>2021-02-11T11:44:56.000Z</time>
      </trkpt>
      <trkpt lat="44.05908" lon="5.93238">
        <ele>539.59997558594</ele>
        <time>2021-02-11T11:44:57.000Z</time>
      </trkpt>
      <trkpt lat="44.05913" lon="5.93243">
        <ele>540.20001220703</ele>
        <time>2021-02-11T11:45:00.000Z</time>
      </trkpt>
      <trkpt lat="44.05915" lon="5.93244">
        <ele>540.40002441406</ele>
        <time>2021-02-11T11:45:01.000Z</time>
      </trkpt>
      <trkpt lat="44.05917" lon="5.93246">
        <ele>540.59997558594</ele>
        <time>2021-02-11T11:45:02.000Z</time>
      </trkpt>
      <trkpt lat="44.05924" lon="5.93251">
        <ele>541.79998779297</ele>
        <time>2021-02-11T11:45:05.000Z</time>
      </trkpt>
      <trkpt lat="44.05931" lon="5.93257">
        <ele>542.59997558594</ele>
        <time>2021-02-11T11:45:08.000Z</time>
      </trkpt>
      <trkpt lat="44.05933" lon="5.93259">
        <ele>542.79998779297</ele>
        <time>2021-02-11T11:45:09.000Z</time>
      </trkpt>
      <trkpt lat="44.05945" lon="5.93267">
        <ele>544</ele>
        <time>2021-02-11T11:45:14.000Z</time>
      </trkpt>
      <trkpt lat="44.05947" lon="5.93269">
        <ele>544.20001220703</ele>
        <time>2021-02-11T11:45:15.000Z</time>
      </trkpt>
      <trkpt lat="44.05954" lon="5.93284">
        <ele>545.20001220703</ele>
        <time>2021-02-11T11:45:21.000Z</time>
      </trkpt>
      <trkpt lat="44.05949" lon="5.93286">
        <ele>545.79998779297</ele>
        <time>2021-02-11T11:45:24.000Z</time>
      </trkpt>
      <trkpt lat="44.05941" lon="5.93287">
        <ele>546.40002441406</ele>
        <time>2021-02-11T11:45:27.000Z</time>
      </trkpt>
      <trkpt lat="44.05936" lon="5.93286">
        <ele>546.59997558594</ele>
        <time>2021-02-11T11:45:29.000Z</time>
      </trkpt>
      <trkpt lat="44.0593" lon="5.93283">
        <ele>547.79998779297</ele>
        <time>2021-02-11T11:45:31.000Z</time>
      </trkpt>
      <trkpt lat="44.05923" lon="5.93281">
        <ele>548.79998779297</ele>
        <time>2021-02-11T11:45:34.000Z</time>
      </trkpt>
      <trkpt lat="44.0592" lon="5.93281">
        <ele>549</ele>
        <time>2021-02-11T11:45:35.000Z</time>
      </trkpt>
      <trkpt lat="44.05905" lon="5.9328">
        <ele>549.40002441406</ele>
        <time>2021-02-11T11:45:41.000Z</time>
      </trkpt>
      <trkpt lat="44.0589" lon="5.93276">
        <ele>549.79998779297</ele>
        <time>2021-02-11T11:45:46.000Z</time>
      </trkpt>
      <trkpt lat="44.05872" lon="5.93269">
        <ele>550.40002441406</ele>
        <time>2021-02-11T11:45:51.000Z</time>
      </trkpt>
      <trkpt lat="44.05861" lon="5.93273">
        <ele>550.20001220703</ele>
        <time>2021-02-11T11:45:55.000Z</time>
      </trkpt>
      <trkpt lat="44.05849" lon="5.93279">
        <ele>550.40002441406</ele>
        <time>2021-02-11T11:45:59.000Z</time>
      </trkpt>
      <trkpt lat="44.05848" lon="5.93282">
        <ele>550.40002441406</ele>
        <time>2021-02-11T11:46:00.000Z</time>
      </trkpt>
      <trkpt lat="44.05848" lon="5.93292">
        <ele>550.40002441406</ele>
        <time>2021-02-11T11:46:03.000Z</time>
      </trkpt>
      <trkpt lat="44.05848" lon="5.93296">
        <ele>550.40002441406</ele>
        <time>2021-02-11T11:46:04.000Z</time>
      </trkpt>
      <trkpt lat="44.05849" lon="5.93317">
        <ele>550.40002441406</ele>
        <time>2021-02-11T11:46:09.000Z</time>
      </trkpt>
      <trkpt lat="44.05851" lon="5.93342">
        <ele>550.40002441406</ele>
        <time>2021-02-11T11:46:14.000Z</time>
      </trkpt>
      <trkpt lat="44.0585" lon="5.93356">
        <ele>550.59997558594</ele>
        <time>2021-02-11T11:46:17.000Z</time>
      </trkpt>
      <trkpt lat="44.05849" lon="5.93362">
        <ele>550.59997558594</ele>
        <time>2021-02-11T11:46:18.000Z</time>
      </trkpt>
      <trkpt lat="44.05847" lon="5.93368">
        <ele>550.59997558594</ele>
        <time>2021-02-11T11:46:19.000Z</time>
      </trkpt>
      <trkpt lat="44.05838" lon="5.9339">
        <ele>550.59997558594</ele>
        <time>2021-02-11T11:46:24.000Z</time>
      </trkpt>
      <trkpt lat="44.05827" lon="5.93412">
        <ele>550.40002441406</ele>
        <time>2021-02-11T11:46:29.000Z</time>
      </trkpt>
      <trkpt lat="44.05818" lon="5.93434">
        <ele>550.20001220703</ele>
        <time>2021-02-11T11:46:34.000Z</time>
      </trkpt>
      <trkpt lat="44.05814" lon="5.93457">
        <ele>550.20001220703</ele>
        <time>2021-02-11T11:46:39.000Z</time>
      </trkpt>
      <trkpt lat="44.05813" lon="5.93459">
        <ele>550.20001220703</ele>
        <time>2021-02-11T11:46:40.000Z</time>
      </trkpt>
      <trkpt lat="44.05808" lon="5.9346">
        <ele>550.59997558594</ele>
        <time>2021-02-11T11:46:42.000Z</time>
      </trkpt>
      <trkpt lat="44.05793" lon="5.93454">
        <ele>550.79998779297</ele>
        <time>2021-02-11T11:46:47.000Z</time>
      </trkpt>
      <trkpt lat="44.0579" lon="5.93452">
        <ele>551</ele>
        <time>2021-02-11T11:46:48.000Z</time>
      </trkpt>
      <trkpt lat="44.05776" lon="5.93442">
        <ele>551.59997558594</ele>
        <time>2021-02-11T11:46:52.000Z</time>
      </trkpt>
      <trkpt lat="44.05768" lon="5.93437">
        <ele>552</ele>
        <time>2021-02-11T11:46:54.000Z</time>
      </trkpt>
      <trkpt lat="44.05756" lon="5.93425">
        <ele>552.59997558594</ele>
        <time>2021-02-11T11:46:57.000Z</time>
      </trkpt>
      <trkpt lat="44.05751" lon="5.93422">
        <ele>552.59997558594</ele>
        <time>2021-02-11T11:46:58.000Z</time>
      </trkpt>
      <trkpt lat="44.05733" lon="5.93422">
        <ele>552.79998779297</ele>
        <time>2021-02-11T11:47:01.000Z</time>
      </trkpt>
      <trkpt lat="44.0572" lon="5.93427">
        <ele>552.79998779297</ele>
        <time>2021-02-11T11:47:03.000Z</time>
      </trkpt>
      <trkpt lat="44.05713" lon="5.93429">
        <ele>553</ele>
        <time>2021-02-11T11:47:04.000Z</time>
      </trkpt>
      <trkpt lat="44.05702" lon="5.9343">
        <ele>553</ele>
        <time>2021-02-11T11:47:06.000Z</time>
      </trkpt>
      <trkpt lat="44.0569" lon="5.93423">
        <ele>552.79998779297</ele>
        <time>2021-02-11T11:47:09.000Z</time>
      </trkpt>
      <trkpt lat="44.05679" lon="5.93428">
        <ele>552.40002441406</ele>
        <time>2021-02-11T11:47:12.000Z</time>
      </trkpt>
      <trkpt lat="44.05674" lon="5.9343">
        <ele>552.40002441406</ele>
        <time>2021-02-11T11:47:13.000Z</time>
      </trkpt>
      <trkpt lat="44.05666" lon="5.93436">
        <ele>551.59997558594</ele>
        <time>2021-02-11T11:47:15.000Z</time>
      </trkpt>
      <trkpt lat="44.05658" lon="5.9344">
        <ele>551</ele>
        <time>2021-02-11T11:47:17.000Z</time>
      </trkpt>
      <trkpt lat="44.05654" lon="5.9344">
        <ele>550.79998779297</ele>
        <time>2021-02-11T11:47:18.000Z</time>
      </trkpt>
      <trkpt lat="44.0565" lon="5.93439">
        <ele>550.59997558594</ele>
        <time>2021-02-11T11:47:19.000Z</time>
      </trkpt>
      <trkpt lat="44.05646" lon="5.93439">
        <ele>550.20001220703</ele>
        <time>2021-02-11T11:47:20.000Z</time>
      </trkpt>
      <trkpt lat="44.0564" lon="5.93444">
        <ele>549.40002441406</ele>
        <time>2021-02-11T11:47:22.000Z</time>
      </trkpt>
      <trkpt lat="44.05637" lon="5.93449">
        <ele>549.20001220703</ele>
        <time>2021-02-11T11:47:23.000Z</time>
      </trkpt>
      <trkpt lat="44.05629" lon="5.93456">
        <ele>548.20001220703</ele>
        <time>2021-02-11T11:47:25.000Z</time>
      </trkpt>
      <trkpt lat="44.05624" lon="5.93458">
        <ele>548</ele>
        <time>2021-02-11T11:47:26.000Z</time>
      </trkpt>
      <trkpt lat="44.05618" lon="5.93466">
        <ele>547</ele>
        <time>2021-02-11T11:47:29.000Z</time>
      </trkpt>
      <trkpt lat="44.05614" lon="5.93473">
        <ele>546</ele>
        <time>2021-02-11T11:47:33.000Z</time>
      </trkpt>
      <trkpt lat="44.05605" lon="5.93479">
        <ele>545.20001220703</ele>
        <time>2021-02-11T11:47:37.000Z</time>
      </trkpt>
      <trkpt lat="44.05602" lon="5.93487">
        <ele>545.20001220703</ele>
        <time>2021-02-11T11:47:39.000Z</time>
      </trkpt>
      <trkpt lat="44.05597" lon="5.93497">
        <ele>545.20001220703</ele>
        <time>2021-02-11T11:47:42.000Z</time>
      </trkpt>
      <trkpt lat="44.05586" lon="5.93507">
        <ele>545.20001220703</ele>
        <time>2021-02-11T11:47:47.000Z</time>
      </trkpt>
      <trkpt lat="44.05583" lon="5.93513">
        <ele>545.59997558594</ele>
        <time>2021-02-11T11:47:50.000Z</time>
      </trkpt>
      <trkpt lat="44.05582" lon="5.93516">
        <ele>545.79998779297</ele>
        <time>2021-02-11T11:47:52.000Z</time>
      </trkpt>
      <trkpt lat="44.05581" lon="5.9352">
        <ele>547.20001220703</ele>
        <time>2021-02-11T11:47:58.000Z</time>
      </trkpt>
      <trkpt lat="44.05581" lon="5.9352">
        <ele>548.20001220703</ele>
        <time>2021-02-11T11:48:03.000Z</time>
      </trkpt>
      <trkpt lat="44.05581" lon="5.9352">
        <ele>549.40002441406</ele>
        <time>2021-02-11T11:48:07.000Z</time>
      </trkpt>
      <trkpt lat="44.05582" lon="5.9352">
        <ele>550.59997558594</ele>
        <time>2021-02-11T11:48:16.000Z</time>
      </trkpt>
      <trkpt lat="44.05581" lon="5.93521">
        <ele>551</ele>
        <time>2021-02-11T11:48:19.000Z</time>
      </trkpt>
      <trkpt lat="44.05582" lon="5.93521">
        <ele>551.79998779297</ele>
        <time>2021-02-11T11:48:23.000Z</time>
      </trkpt>
      <trkpt lat="44.05583" lon="5.93523">
        <ele>552.59997558594</ele>
        <time>2021-02-11T11:48:28.000Z</time>
      </trkpt>
      <trkpt lat="44.05584" lon="5.93523">
        <ele>552.79998779297</ele>
        <time>2021-02-11T11:48:29.000Z</time>
      </trkpt>
      <trkpt lat="44.05586" lon="5.93525">
        <ele>553.20001220703</ele>
        <time>2021-02-11T11:48:31.000Z</time>
      </trkpt>
      <trkpt lat="44.05588" lon="5.93527">
        <ele>553.79998779297</ele>
        <time>2021-02-11T11:48:34.000Z</time>
      </trkpt>
      <trkpt lat="44.05594" lon="5.93529">
        <ele>554.20001220703</ele>
        <time>2021-02-11T11:48:36.000Z</time>
      </trkpt>
      <trkpt lat="44.05608" lon="5.93541">
        <ele>555</ele>
        <time>2021-02-11T11:48:41.000Z</time>
      </trkpt>
      <trkpt lat="44.05624" lon="5.93555">
        <ele>556.40002441406</ele>
        <time>2021-02-11T11:48:46.000Z</time>
      </trkpt>
      <trkpt lat="44.0563" lon="5.9356">
        <ele>556.79998779297</ele>
        <time>2021-02-11T11:48:48.000Z</time>
      </trkpt>
      <trkpt lat="44.05636" lon="5.93567">
        <ele>557.40002441406</ele>
        <time>2021-02-11T11:48:50.000Z</time>
      </trkpt>
      <trkpt lat="44.05639" lon="5.93572">
        <ele>557.59997558594</ele>
        <time>2021-02-11T11:48:51.000Z</time>
      </trkpt>
      <trkpt lat="44.05653" lon="5.93587">
        <ele>558.59997558594</ele>
        <time>2021-02-11T11:48:55.000Z</time>
      </trkpt>
      <trkpt lat="44.05656" lon="5.93589">
        <ele>558.79998779297</ele>
        <time>2021-02-11T11:48:56.000Z</time>
      </trkpt>
      <trkpt lat="44.05668" lon="5.93599">
        <ele>559.59997558594</ele>
        <time>2021-02-11T11:48:59.000Z</time>
      </trkpt>
      <trkpt lat="44.05672" lon="5.93602">
        <ele>559.79998779297</ele>
        <time>2021-02-11T11:49:00.000Z</time>
      </trkpt>
      <trkpt lat="44.05686" lon="5.93612">
        <ele>561</ele>
        <time>2021-02-11T11:49:04.000Z</time>
      </trkpt>
      <trkpt lat="44.0569" lon="5.93615">
        <ele>561</ele>
        <time>2021-02-11T11:49:05.000Z</time>
      </trkpt>
      <trkpt lat="44.05715" lon="5.93641">
        <ele>561.59997558594</ele>
        <time>2021-02-11T11:49:12.000Z</time>
      </trkpt>
      <trkpt lat="44.05724" lon="5.93658">
        <ele>562</ele>
        <time>2021-02-11T11:49:16.000Z</time>
      </trkpt>
      <trkpt lat="44.05717" lon="5.93666">
        <ele>562.20001220703</ele>
        <time>2021-02-11T11:49:19.000Z</time>
      </trkpt>
      <trkpt lat="44.05706" lon="5.93676">
        <ele>562.20001220703</ele>
        <time>2021-02-11T11:49:23.000Z</time>
      </trkpt>
      <trkpt lat="44.0569" lon="5.93687">
        <ele>562.40002441406</ele>
        <time>2021-02-11T11:49:28.000Z</time>
      </trkpt>
      <trkpt lat="44.05679" lon="5.93684">
        <ele>562.40002441406</ele>
        <time>2021-02-11T11:49:31.000Z</time>
      </trkpt>
      <trkpt lat="44.05673" lon="5.93682">
        <ele>562.40002441406</ele>
        <time>2021-02-11T11:49:33.000Z</time>
      </trkpt>
      <trkpt lat="44.05663" lon="5.93685">
        <ele>562.40002441406</ele>
        <time>2021-02-11T11:49:36.000Z</time>
      </trkpt>
      <trkpt lat="44.05649" lon="5.93684">
        <ele>562.20001220703</ele>
        <time>2021-02-11T11:49:40.000Z</time>
      </trkpt>
      <trkpt lat="44.05637" lon="5.9369">
        <ele>561.79998779297</ele>
        <time>2021-02-11T11:49:44.000Z</time>
      </trkpt>
      <trkpt lat="44.05632" lon="5.93695">
        <ele>561.59997558594</ele>
        <time>2021-02-11T11:49:46.000Z</time>
      </trkpt>
      <trkpt lat="44.05625" lon="5.93696">
        <ele>561.40002441406</ele>
        <time>2021-02-11T11:49:48.000Z</time>
      </trkpt>
      <trkpt lat="44.05615" lon="5.937">
        <ele>561</ele>
        <time>2021-02-11T11:49:52.000Z</time>
      </trkpt>
      <trkpt lat="44.05614" lon="5.93712">
        <ele>560.20001220703</ele>
        <time>2021-02-11T11:49:57.000Z</time>
      </trkpt>
      <trkpt lat="44.05619" lon="5.93722">
        <ele>560.20001220703</ele>
        <time>2021-02-11T11:50:00.000Z</time>
      </trkpt>
      <trkpt lat="44.05622" lon="5.93728">
        <ele>560.20001220703</ele>
        <time>2021-02-11T11:50:02.000Z</time>
      </trkpt>
      <trkpt lat="44.05627" lon="5.93739">
        <ele>560</ele>
        <time>2021-02-11T11:50:06.000Z</time>
      </trkpt>
      <trkpt lat="44.05619" lon="5.93743">
        <ele>560</ele>
        <time>2021-02-11T11:50:10.000Z</time>
      </trkpt>
      <trkpt lat="44.05614" lon="5.93742">
        <ele>560</ele>
        <time>2021-02-11T11:50:12.000Z</time>
      </trkpt>
      <trkpt lat="44.05603" lon="5.93739">
        <ele>560</ele>
        <time>2021-02-11T11:50:16.000Z</time>
      </trkpt>
      <trkpt lat="44.05591" lon="5.93727">
        <ele>559.59997558594</ele>
        <time>2021-02-11T11:50:22.000Z</time>
      </trkpt>
      <trkpt lat="44.05584" lon="5.93725">
        <ele>559.20001220703</ele>
        <time>2021-02-11T11:50:25.000Z</time>
      </trkpt>
      <trkpt lat="44.0558" lon="5.93724">
        <ele>558.79998779297</ele>
        <time>2021-02-11T11:50:27.000Z</time>
      </trkpt>
      <trkpt lat="44.05568" lon="5.9372">
        <ele>558.40002441406</ele>
        <time>2021-02-11T11:50:32.000Z</time>
      </trkpt>
      <trkpt lat="44.05563" lon="5.93711">
        <ele>558.20001220703</ele>
        <time>2021-02-11T11:50:35.000Z</time>
      </trkpt>
      <trkpt lat="44.05559" lon="5.93703">
        <ele>558.20001220703</ele>
        <time>2021-02-11T11:50:37.000Z</time>
      </trkpt>
      <trkpt lat="44.05553" lon="5.93692">
        <ele>558.20001220703</ele>
        <time>2021-02-11T11:50:41.000Z</time>
      </trkpt>
      <trkpt lat="44.05557" lon="5.93677">
        <ele>557.79998779297</ele>
        <time>2021-02-11T11:50:47.000Z</time>
      </trkpt>
      <trkpt lat="44.05562" lon="5.93657">
        <ele>557.59997558594</ele>
        <time>2021-02-11T11:50:53.000Z</time>
      </trkpt>
      <trkpt lat="44.05572" lon="5.93646">
        <ele>557.40002441406</ele>
        <time>2021-02-11T11:50:58.000Z</time>
      </trkpt>
      <trkpt lat="44.0558" lon="5.93636">
        <ele>557.20001220703</ele>
        <time>2021-02-11T11:51:02.000Z</time>
      </trkpt>
      <trkpt lat="44.0558" lon="5.93633">
        <ele>557.20001220703</ele>
        <time>2021-02-11T11:51:03.000Z</time>
      </trkpt>
      <trkpt lat="44.05574" lon="5.93626">
        <ele>556.79998779297</ele>
        <time>2021-02-11T11:51:06.000Z</time>
      </trkpt>
      <trkpt lat="44.05567" lon="5.93625">
        <ele>556.40002441406</ele>
        <time>2021-02-11T11:51:09.000Z</time>
      </trkpt>
      <trkpt lat="44.05557" lon="5.93628">
        <ele>556</ele>
        <time>2021-02-11T11:51:13.000Z</time>
      </trkpt>
      <trkpt lat="44.05543" lon="5.93628">
        <ele>555.59997558594</ele>
        <time>2021-02-11T11:51:18.000Z</time>
      </trkpt>
      <trkpt lat="44.05538" lon="5.93625">
        <ele>555.20001220703</ele>
        <time>2021-02-11T11:51:20.000Z</time>
      </trkpt>
      <trkpt lat="44.05532" lon="5.93621">
        <ele>554.79998779297</ele>
        <time>2021-02-11T11:51:23.000Z</time>
      </trkpt>
      <trkpt lat="44.05526" lon="5.93621">
        <ele>554.20001220703</ele>
        <time>2021-02-11T11:51:25.000Z</time>
      </trkpt>
      <trkpt lat="44.05517" lon="5.93622">
        <ele>553.59997558594</ele>
        <time>2021-02-11T11:51:28.000Z</time>
      </trkpt>
      <trkpt lat="44.05511" lon="5.93623">
        <ele>553.20001220703</ele>
        <time>2021-02-11T11:51:30.000Z</time>
      </trkpt>
      <trkpt lat="44.05499" lon="5.93628">
        <ele>552.20001220703</ele>
        <time>2021-02-11T11:51:34.000Z</time>
      </trkpt>
      <trkpt lat="44.05497" lon="5.93629">
        <ele>552</ele>
        <time>2021-02-11T11:51:35.000Z</time>
      </trkpt>
      <trkpt lat="44.05484" lon="5.9363">
        <ele>551</ele>
        <time>2021-02-11T11:51:40.000Z</time>
      </trkpt>
      <trkpt lat="44.0547" lon="5.93637">
        <ele>549.59997558594</ele>
        <time>2021-02-11T11:51:46.000Z</time>
      </trkpt>
      <trkpt lat="44.05467" lon="5.93637">
        <ele>549.20001220703</ele>
        <time>2021-02-11T11:51:47.000Z</time>
      </trkpt>
      <trkpt lat="44.0546" lon="5.93643">
        <ele>548.59997558594</ele>
        <time>2021-02-11T11:51:50.000Z</time>
      </trkpt>
      <trkpt lat="44.05457" lon="5.93644">
        <ele>548.40002441406</ele>
        <time>2021-02-11T11:51:51.000Z</time>
      </trkpt>
      <trkpt lat="44.0545" lon="5.93642">
        <ele>547.79998779297</ele>
        <time>2021-02-11T11:51:54.000Z</time>
      </trkpt>
      <trkpt lat="44.05443" lon="5.93635">
        <ele>547.40002441406</ele>
        <time>2021-02-11T11:51:57.000Z</time>
      </trkpt>
      <trkpt lat="44.05441" lon="5.93632">
        <ele>547.20001220703</ele>
        <time>2021-02-11T11:51:58.000Z</time>
      </trkpt>
      <trkpt lat="44.05437" lon="5.93627">
        <ele>547</ele>
        <time>2021-02-11T11:52:00.000Z</time>
      </trkpt>
      <trkpt lat="44.0543" lon="5.93623">
        <ele>546.40002441406</ele>
        <time>2021-02-11T11:52:03.000Z</time>
      </trkpt>
      <trkpt lat="44.05428" lon="5.93623">
        <ele>546</ele>
        <time>2021-02-11T11:52:04.000Z</time>
      </trkpt>
      <trkpt lat="44.05414" lon="5.9362">
        <ele>545.20001220703</ele>
        <time>2021-02-11T11:52:09.000Z</time>
      </trkpt>
      <trkpt lat="44.05411" lon="5.93619">
        <ele>545</ele>
        <time>2021-02-11T11:52:10.000Z</time>
      </trkpt>
      <trkpt lat="44.05404" lon="5.93619">
        <ele>545</ele>
        <time>2021-02-11T11:52:13.000Z</time>
      </trkpt>
      <trkpt lat="44.05398" lon="5.93619">
        <ele>545</ele>
        <time>2021-02-11T11:52:15.000Z</time>
      </trkpt>
      <trkpt lat="44.05395" lon="5.93614">
        <ele>545</ele>
        <time>2021-02-11T11:52:17.000Z</time>
      </trkpt>
      <trkpt lat="44.05393" lon="5.93604">
        <ele>545</ele>
        <time>2021-02-11T11:52:20.000Z</time>
      </trkpt>
      <trkpt lat="44.05392" lon="5.93596">
        <ele>545</ele>
        <time>2021-02-11T11:52:22.000Z</time>
      </trkpt>
      <trkpt lat="44.05391" lon="5.93593">
        <ele>544.79998779297</ele>
        <time>2021-02-11T11:52:23.000Z</time>
      </trkpt>
      <trkpt lat="44.05384" lon="5.93586">
        <ele>544.79998779297</ele>
        <time>2021-02-11T11:52:26.000Z</time>
      </trkpt>
      <trkpt lat="44.05382" lon="5.93583">
        <ele>544.79998779297</ele>
        <time>2021-02-11T11:52:27.000Z</time>
      </trkpt>
      <trkpt lat="44.05367" lon="5.93567">
        <ele>544.40002441406</ele>
        <time>2021-02-11T11:52:33.000Z</time>
      </trkpt>
      <trkpt lat="44.05353" lon="5.93553">
        <ele>544</ele>
        <time>2021-02-11T11:52:39.000Z</time>
      </trkpt>
      <trkpt lat="44.05339" lon="5.93546">
        <ele>543.79998779297</ele>
        <time>2021-02-11T11:52:44.000Z</time>
      </trkpt>
      <trkpt lat="44.05325" lon="5.93535">
        <ele>543.79998779297</ele>
        <time>2021-02-11T11:52:50.000Z</time>
      </trkpt>
      <trkpt lat="44.0531" lon="5.93529">
        <ele>544</ele>
        <time>2021-02-11T11:52:55.000Z</time>
      </trkpt>
      <trkpt lat="44.05299" lon="5.93523">
        <ele>544.59997558594</ele>
        <time>2021-02-11T11:53:00.000Z</time>
      </trkpt>
      <trkpt lat="44.05284" lon="5.93518">
        <ele>544.79998779297</ele>
        <time>2021-02-11T11:53:04.000Z</time>
      </trkpt>
      <trkpt lat="44.05274" lon="5.93517">
        <ele>545</ele>
        <time>2021-02-11T11:53:06.000Z</time>
      </trkpt>
      <trkpt lat="44.05263" lon="5.93512">
        <ele>545</ele>
        <time>2021-02-11T11:53:08.000Z</time>
      </trkpt>
      <trkpt lat="44.05258" lon="5.93508">
        <ele>545</ele>
        <time>2021-02-11T11:53:09.000Z</time>
      </trkpt>
      <trkpt lat="44.05244" lon="5.93494">
        <ele>545</ele>
        <time>2021-02-11T11:53:12.000Z</time>
      </trkpt>
      <trkpt lat="44.05214" lon="5.93468">
        <ele>543.79998779297</ele>
        <time>2021-02-11T11:53:19.000Z</time>
      </trkpt>
      <trkpt lat="44.05197" lon="5.93458">
        <ele>543</ele>
        <time>2021-02-11T11:53:22.000Z</time>
      </trkpt>
      <trkpt lat="44.05191" lon="5.93457">
        <ele>542.79998779297</ele>
        <time>2021-02-11T11:53:23.000Z</time>
      </trkpt>
      <trkpt lat="44.05184" lon="5.93457">
        <ele>542.59997558594</ele>
        <time>2021-02-11T11:53:24.000Z</time>
      </trkpt>
      <trkpt lat="44.05166" lon="5.93471">
        <ele>541.79998779297</ele>
        <time>2021-02-11T11:53:27.000Z</time>
      </trkpt>
      <trkpt lat="44.0516" lon="5.93475">
        <ele>541.40002441406</ele>
        <time>2021-02-11T11:53:28.000Z</time>
      </trkpt>
      <trkpt lat="44.05149" lon="5.93476">
        <ele>540.79998779297</ele>
        <time>2021-02-11T11:53:30.000Z</time>
      </trkpt>
      <trkpt lat="44.05145" lon="5.93476">
        <ele>540.40002441406</ele>
        <time>2021-02-11T11:53:31.000Z</time>
      </trkpt>
      <trkpt lat="44.05139" lon="5.93478">
        <ele>539.79998779297</ele>
        <time>2021-02-11T11:53:33.000Z</time>
      </trkpt>
      <trkpt lat="44.05134" lon="5.93487">
        <ele>539.20001220703</ele>
        <time>2021-02-11T11:53:36.000Z</time>
      </trkpt>
      <trkpt lat="44.05133" lon="5.93489">
        <ele>539</ele>
        <time>2021-02-11T11:53:37.000Z</time>
      </trkpt>
      <trkpt lat="44.05133" lon="5.93489">
        <ele>538.20001220703</ele>
        <time>2021-02-11T11:53:40.000Z</time>
      </trkpt>
      <trkpt lat="44.05133" lon="5.93489">
        <ele>537.20001220703</ele>
        <time>2021-02-11T11:53:45.000Z</time>
      </trkpt>
      <trkpt lat="44.05133" lon="5.93489">
        <ele>536.79998779297</ele>
        <time>2021-02-11T11:53:47.000Z</time>
      </trkpt>
      <trkpt lat="44.05133" lon="5.93489">
        <ele>535.79998779297</ele>
        <time>2021-02-11T11:53:53.000Z</time>
      </trkpt>
      <trkpt lat="44.05133" lon="5.93489">
        <ele>535.40002441406</ele>
        <time>2021-02-11T11:53:54.000Z</time>
      </trkpt>
      <trkpt lat="44.05133" lon="5.93491">
        <ele>534.59997558594</ele>
        <time>2021-02-11T11:53:58.000Z</time>
      </trkpt>
      <trkpt lat="44.05132" lon="5.93497">
        <ele>533.79998779297</ele>
        <time>2021-02-11T11:54:01.000Z</time>
      </trkpt>
      <trkpt lat="44.05131" lon="5.93504">
        <ele>533.40002441406</ele>
        <time>2021-02-11T11:54:03.000Z</time>
      </trkpt>
      <trkpt lat="44.05131" lon="5.93507">
        <ele>533</ele>
        <time>2021-02-11T11:54:04.000Z</time>
      </trkpt>
      <trkpt lat="44.05129" lon="5.93508">
        <ele>532.79998779297</ele>
        <time>2021-02-11T11:54:05.000Z</time>
      </trkpt>
      <trkpt lat="44.0512" lon="5.93511">
        <ele>532.20001220703</ele>
        <time>2021-02-11T11:54:09.000Z</time>
      </trkpt>
      <trkpt lat="44.0511" lon="5.93515">
        <ele>531.59997558594</ele>
        <time>2021-02-11T11:54:12.000Z</time>
      </trkpt>
      <trkpt lat="44.05102" lon="5.93518">
        <ele>531.40002441406</ele>
        <time>2021-02-11T11:54:14.000Z</time>
      </trkpt>
      <trkpt lat="44.05087" lon="5.93528">
        <ele>531</ele>
        <time>2021-02-11T11:54:17.000Z</time>
      </trkpt>
      <trkpt lat="44.05083" lon="5.93532">
        <ele>530.79998779297</ele>
        <time>2021-02-11T11:54:18.000Z</time>
      </trkpt>
      <trkpt lat="44.05076" lon="5.93541">
        <ele>530.40002441406</ele>
        <time>2021-02-11T11:54:20.000Z</time>
      </trkpt>
      <trkpt lat="44.05072" lon="5.93553">
        <ele>530</ele>
        <time>2021-02-11T11:54:22.000Z</time>
      </trkpt>
      <trkpt lat="44.05069" lon="5.93567">
        <ele>529.59997558594</ele>
        <time>2021-02-11T11:54:24.000Z</time>
      </trkpt>
      <trkpt lat="44.05067" lon="5.93582">
        <ele>529.40002441406</ele>
        <time>2021-02-11T11:54:26.000Z</time>
      </trkpt>
      <trkpt lat="44.0506" lon="5.93603">
        <ele>528.79998779297</ele>
        <time>2021-02-11T11:54:29.000Z</time>
      </trkpt>
      <trkpt lat="44.05056" lon="5.93609">
        <ele>528.59997558594</ele>
        <time>2021-02-11T11:54:30.000Z</time>
      </trkpt>
      <trkpt lat="44.05042" lon="5.93633">
        <ele>528.40002441406</ele>
        <time>2021-02-11T11:54:34.000Z</time>
      </trkpt>
      <trkpt lat="44.05027" lon="5.93659">
        <ele>527.79998779297</ele>
        <time>2021-02-11T11:54:39.000Z</time>
      </trkpt>
      <trkpt lat="44.0502" lon="5.93673">
        <ele>527.79998779297</ele>
        <time>2021-02-11T11:54:42.000Z</time>
      </trkpt>
      <trkpt lat="44.05013" lon="5.93684">
        <ele>527.79998779297</ele>
        <time>2021-02-11T11:54:44.000Z</time>
      </trkpt>
      <trkpt lat="44.05002" lon="5.93694">
        <ele>527.79998779297</ele>
        <time>2021-02-11T11:54:47.000Z</time>
      </trkpt>
      <trkpt lat="44.04991" lon="5.93693">
        <ele>527.79998779297</ele>
        <time>2021-02-11T11:54:50.000Z</time>
      </trkpt>
      <trkpt lat="44.04984" lon="5.93682">
        <ele>527.79998779297</ele>
        <time>2021-02-11T11:54:52.000Z</time>
      </trkpt>
      <trkpt lat="44.04975" lon="5.93676">
        <ele>527.79998779297</ele>
        <time>2021-02-11T11:54:55.000Z</time>
      </trkpt>
      <trkpt lat="44.0497" lon="5.93677">
        <ele>527.79998779297</ele>
        <time>2021-02-11T11:54:56.000Z</time>
      </trkpt>
      <trkpt lat="44.04959" lon="5.93677">
        <ele>527.40002441406</ele>
        <time>2021-02-11T11:54:58.000Z</time>
      </trkpt>
      <trkpt lat="44.04953" lon="5.93678">
        <ele>527.20001220703</ele>
        <time>2021-02-11T11:54:59.000Z</time>
      </trkpt>
      <trkpt lat="44.04937" lon="5.93679">
        <ele>527</ele>
        <time>2021-02-11T11:55:02.000Z</time>
      </trkpt>
      <trkpt lat="44.04932" lon="5.9368">
        <ele>526.79998779297</ele>
        <time>2021-02-11T11:55:03.000Z</time>
      </trkpt>
      <trkpt lat="44.04916" lon="5.93687">
        <ele>526.79998779297</ele>
        <time>2021-02-11T11:55:07.000Z</time>
      </trkpt>
      <trkpt lat="44.04908" lon="5.93691">
        <ele>526.79998779297</ele>
        <time>2021-02-11T11:55:09.000Z</time>
      </trkpt>
      <trkpt lat="44.04899" lon="5.93698">
        <ele>526.79998779297</ele>
        <time>2021-02-11T11:55:11.000Z</time>
      </trkpt>
      <trkpt lat="44.04891" lon="5.93706">
        <ele>526.79998779297</ele>
        <time>2021-02-11T11:55:13.000Z</time>
      </trkpt>
      <trkpt lat="44.04879" lon="5.93719">
        <ele>527.40002441406</ele>
        <time>2021-02-11T11:55:16.000Z</time>
      </trkpt>
      <trkpt lat="44.04857" lon="5.93741">
        <ele>528.79998779297</ele>
        <time>2021-02-11T11:55:21.000Z</time>
      </trkpt>
      <trkpt lat="44.04848" lon="5.9375">
        <ele>529.59997558594</ele>
        <time>2021-02-11T11:55:23.000Z</time>
      </trkpt>
      <trkpt lat="44.04838" lon="5.93758">
        <ele>530</ele>
        <time>2021-02-11T11:55:25.000Z</time>
      </trkpt>
      <trkpt lat="44.04828" lon="5.93758">
        <ele>530.59997558594</ele>
        <time>2021-02-11T11:55:27.000Z</time>
      </trkpt>
      <trkpt lat="44.04819" lon="5.9375">
        <ele>531</ele>
        <time>2021-02-11T11:55:29.000Z</time>
      </trkpt>
      <trkpt lat="44.04814" lon="5.93744">
        <ele>531.20001220703</ele>
        <time>2021-02-11T11:55:30.000Z</time>
      </trkpt>
      <trkpt lat="44.0481" lon="5.93738">
        <ele>531.40002441406</ele>
        <time>2021-02-11T11:55:31.000Z</time>
      </trkpt>
      <trkpt lat="44.04798" lon="5.93721">
        <ele>531.79998779297</ele>
        <time>2021-02-11T11:55:34.000Z</time>
      </trkpt>
      <trkpt lat="44.04789" lon="5.93707">
        <ele>532</ele>
        <time>2021-02-11T11:55:37.000Z</time>
      </trkpt>
      <trkpt lat="44.04786" lon="5.93703">
        <ele>532.20001220703</ele>
        <time>2021-02-11T11:55:38.000Z</time>
      </trkpt>
      <trkpt lat="44.04779" lon="5.93694">
        <ele>532.20001220703</ele>
        <time>2021-02-11T11:55:40.000Z</time>
      </trkpt>
      <trkpt lat="44.04766" lon="5.93682">
        <ele>532.20001220703</ele>
        <time>2021-02-11T11:55:43.000Z</time>
      </trkpt>
      <trkpt lat="44.04748" lon="5.9367">
        <ele>532</ele>
        <time>2021-02-11T11:55:47.000Z</time>
      </trkpt>
      <trkpt lat="44.04741" lon="5.93658">
        <ele>532</ele>
        <time>2021-02-11T11:55:49.000Z</time>
      </trkpt>
      <trkpt lat="44.04739" lon="5.93653">
        <ele>531.79998779297</ele>
        <time>2021-02-11T11:55:50.000Z</time>
      </trkpt>
      <trkpt lat="44.04733" lon="5.93643">
        <ele>531.79998779297</ele>
        <time>2021-02-11T11:55:54.000Z</time>
      </trkpt>
      <trkpt lat="44.0473" lon="5.93641">
        <ele>531.79998779297</ele>
        <time>2021-02-11T11:55:56.000Z</time>
      </trkpt>
      <trkpt lat="44.04727" lon="5.93643">
        <ele>531.79998779297</ele>
        <time>2021-02-11T11:55:58.000Z</time>
      </trkpt>
      <trkpt lat="44.04723" lon="5.93646">
        <ele>531.79998779297</ele>
        <time>2021-02-11T11:56:01.000Z</time>
      </trkpt>
      <trkpt lat="44.0472" lon="5.93652">
        <ele>532</ele>
        <time>2021-02-11T11:56:04.000Z</time>
      </trkpt>
      <trkpt lat="44.04716" lon="5.93669">
        <ele>533</ele>
        <time>2021-02-11T11:56:10.000Z</time>
      </trkpt>
      <trkpt lat="44.04715" lon="5.93674">
        <ele>533.40002441406</ele>
        <time>2021-02-11T11:56:12.000Z</time>
      </trkpt>
      <trkpt lat="44.04717" lon="5.93685">
        <ele>534.20001220703</ele>
        <time>2021-02-11T11:56:16.000Z</time>
      </trkpt>
      <trkpt lat="44.04724" lon="5.937">
        <ele>534.59997558594</ele>
        <time>2021-02-11T11:56:23.000Z</time>
      </trkpt>
      <trkpt lat="44.04726" lon="5.93702">
        <ele>534.79998779297</ele>
        <time>2021-02-11T11:56:24.000Z</time>
      </trkpt>
      <trkpt lat="44.04728" lon="5.93714">
        <ele>535</ele>
        <time>2021-02-11T11:56:28.000Z</time>
      </trkpt>
      <trkpt lat="44.04727" lon="5.93716">
        <ele>535</ele>
        <time>2021-02-11T11:56:29.000Z</time>
      </trkpt>
      <trkpt lat="44.04723" lon="5.93725">
        <ele>535.40002441406</ele>
        <time>2021-02-11T11:56:33.000Z</time>
      </trkpt>
      <trkpt lat="44.04721" lon="5.93728">
        <ele>535.59997558594</ele>
        <time>2021-02-11T11:56:35.000Z</time>
      </trkpt>
      <trkpt lat="44.04719" lon="5.93729">
        <ele>535.79998779297</ele>
        <time>2021-02-11T11:56:36.000Z</time>
      </trkpt>
      <trkpt lat="44.04714" lon="5.93733">
        <ele>536</ele>
        <time>2021-02-11T11:56:41.000Z</time>
      </trkpt>
      <trkpt lat="44.04713" lon="5.93734">
        <ele>534.59997558594</ele>
        <time>2021-02-11T11:56:54.000Z</time>
      </trkpt>
      <trkpt lat="44.04711" lon="5.93735">
        <ele>534</ele>
        <time>2021-02-11T11:56:55.000Z</time>
      </trkpt>
      <trkpt lat="44.04705" lon="5.9374">
        <ele>533.40002441406</ele>
        <time>2021-02-11T11:56:58.000Z</time>
      </trkpt>
      <trkpt lat="44.04703" lon="5.93742">
        <ele>533.40002441406</ele>
        <time>2021-02-11T11:56:59.000Z</time>
      </trkpt>
      <trkpt lat="44.04691" lon="5.93756">
        <ele>532.59997558594</ele>
        <time>2021-02-11T11:57:04.000Z</time>
      </trkpt>
      <trkpt lat="44.04687" lon="5.93763">
        <ele>532.40002441406</ele>
        <time>2021-02-11T11:57:06.000Z</time>
      </trkpt>
      <trkpt lat="44.04679" lon="5.93773">
        <ele>532.40002441406</ele>
        <time>2021-02-11T11:57:09.000Z</time>
      </trkpt>
      <trkpt lat="44.04668" lon="5.93796">
        <ele>532.20001220703</ele>
        <time>2021-02-11T11:57:15.000Z</time>
      </trkpt>
      <trkpt lat="44.04667" lon="5.93802">
        <ele>532.20001220703</ele>
        <time>2021-02-11T11:57:16.000Z</time>
      </trkpt>
      <trkpt lat="44.04666" lon="5.93814">
        <ele>532.20001220703</ele>
        <time>2021-02-11T11:57:18.000Z</time>
      </trkpt>
      <trkpt lat="44.04667" lon="5.93847">
        <ele>532.40002441406</ele>
        <time>2021-02-11T11:57:24.000Z</time>
      </trkpt>
      <trkpt lat="44.04666" lon="5.93877">
        <ele>533</ele>
        <time>2021-02-11T11:57:29.000Z</time>
      </trkpt>
      <trkpt lat="44.04664" lon="5.93892">
        <ele>533.59997558594</ele>
        <time>2021-02-11T11:57:32.000Z</time>
      </trkpt>
      <trkpt lat="44.04661" lon="5.93903">
        <ele>534.20001220703</ele>
        <time>2021-02-11T11:57:34.000Z</time>
      </trkpt>
      <trkpt lat="44.04658" lon="5.93912">
        <ele>534.59997558594</ele>
        <time>2021-02-11T11:57:36.000Z</time>
      </trkpt>
      <trkpt lat="44.04647" lon="5.93935">
        <ele>535.40002441406</ele>
        <time>2021-02-11T11:57:41.000Z</time>
      </trkpt>
      <trkpt lat="44.04644" lon="5.93939">
        <ele>535.59997558594</ele>
        <time>2021-02-11T11:57:42.000Z</time>
      </trkpt>
      <trkpt lat="44.04635" lon="5.93956">
        <ele>536.79998779297</ele>
        <time>2021-02-11T11:57:47.000Z</time>
      </trkpt>
      <trkpt lat="44.04626" lon="5.93974">
        <ele>537.59997558594</ele>
        <time>2021-02-11T11:57:51.000Z</time>
      </trkpt>
      <trkpt lat="44.0462" lon="5.93987">
        <ele>538</ele>
        <time>2021-02-11T11:57:53.000Z</time>
      </trkpt>
      <trkpt lat="44.04614" lon="5.94002">
        <ele>538.59997558594</ele>
        <time>2021-02-11T11:57:55.000Z</time>
      </trkpt>
      <trkpt lat="44.046" lon="5.94044">
        <ele>539</ele>
        <time>2021-02-11T11:57:59.000Z</time>
      </trkpt>
      <trkpt lat="44.04569" lon="5.94117">
        <ele>539.20001220703</ele>
        <time>2021-02-11T11:58:05.000Z</time>
      </trkpt>
      <trkpt lat="44.04555" lon="5.94145">
        <ele>539.40002441406</ele>
        <time>2021-02-11T11:58:08.000Z</time>
      </trkpt>
      <trkpt lat="44.04536" lon="5.94159">
        <ele>539.40002441406</ele>
        <time>2021-02-11T11:58:11.000Z</time>
      </trkpt>
      <trkpt lat="44.0452" lon="5.94177">
        <ele>539.79998779297</ele>
        <time>2021-02-11T11:58:14.000Z</time>
      </trkpt>
      <trkpt lat="44.04508" lon="5.94192">
        <ele>539.79998779297</ele>
        <time>2021-02-11T11:58:17.000Z</time>
      </trkpt>
      <trkpt lat="44.04498" lon="5.94201">
        <ele>539.79998779297</ele>
        <time>2021-02-11T11:58:19.000Z</time>
      </trkpt>
      <trkpt lat="44.04465" lon="5.94232">
        <ele>539.59997558594</ele>
        <time>2021-02-11T11:58:25.000Z</time>
      </trkpt>
      <trkpt lat="44.04444" lon="5.94252">
        <ele>539.20001220703</ele>
        <time>2021-02-11T11:58:29.000Z</time>
      </trkpt>
      <trkpt lat="44.0444" lon="5.94257">
        <ele>539.20001220703</ele>
        <time>2021-02-11T11:58:30.000Z</time>
      </trkpt>
      <trkpt lat="44.04424" lon="5.94276">
        <ele>539.20001220703</ele>
        <time>2021-02-11T11:58:35.000Z</time>
      </trkpt>
      <trkpt lat="44.04413" lon="5.94283">
        <ele>539.59997558594</ele>
        <time>2021-02-11T11:58:38.000Z</time>
      </trkpt>
      <trkpt lat="44.04404" lon="5.94286">
        <ele>540</ele>
        <time>2021-02-11T11:58:40.000Z</time>
      </trkpt>
      <trkpt lat="44.04389" lon="5.94287">
        <ele>540.59997558594</ele>
        <time>2021-02-11T11:58:43.000Z</time>
      </trkpt>
      <trkpt lat="44.0438" lon="5.94285">
        <ele>541</ele>
        <time>2021-02-11T11:58:45.000Z</time>
      </trkpt>
      <trkpt lat="44.04346" lon="5.94272">
        <ele>541</ele>
        <time>2021-02-11T11:58:52.000Z</time>
      </trkpt>
      <trkpt lat="44.0432" lon="5.94257">
        <ele>541</ele>
        <time>2021-02-11T11:58:57.000Z</time>
      </trkpt>
      <trkpt lat="44.04314" lon="5.94254">
        <ele>540.79998779297</ele>
        <time>2021-02-11T11:58:58.000Z</time>
      </trkpt>
      <trkpt lat="44.04288" lon="5.94238">
        <ele>540.59997558594</ele>
        <time>2021-02-11T11:59:02.000Z</time>
      </trkpt>
      <trkpt lat="44.04256" lon="5.94221">
        <ele>540.59997558594</ele>
        <time>2021-02-11T11:59:06.000Z</time>
      </trkpt>
      <trkpt lat="44.04232" lon="5.94208">
        <ele>540</ele>
        <time>2021-02-11T11:59:10.000Z</time>
      </trkpt>
      <trkpt lat="44.04221" lon="5.94202">
        <ele>539</ele>
        <time>2021-02-11T11:59:12.000Z</time>
      </trkpt>
      <trkpt lat="44.04204" lon="5.94193">
        <ele>537.79998779297</ele>
        <time>2021-02-11T11:59:15.000Z</time>
      </trkpt>
      <trkpt lat="44.04187" lon="5.94183">
        <ele>536.59997558594</ele>
        <time>2021-02-11T11:59:18.000Z</time>
      </trkpt>
      <trkpt lat="44.04175" lon="5.94177">
        <ele>535.79998779297</ele>
        <time>2021-02-11T11:59:20.000Z</time>
      </trkpt>
      <trkpt lat="44.04169" lon="5.94174">
        <ele>535.40002441406</ele>
        <time>2021-02-11T11:59:21.000Z</time>
      </trkpt>
      <trkpt lat="44.04152" lon="5.94164">
        <ele>534</ele>
        <time>2021-02-11T11:59:24.000Z</time>
      </trkpt>
      <trkpt lat="44.04141" lon="5.94157">
        <ele>533</ele>
        <time>2021-02-11T11:59:26.000Z</time>
      </trkpt>
      <trkpt lat="44.04129" lon="5.94151">
        <ele>531.59997558594</ele>
        <time>2021-02-11T11:59:28.000Z</time>
      </trkpt>
      <trkpt lat="44.04117" lon="5.94144">
        <ele>530</ele>
        <time>2021-02-11T11:59:30.000Z</time>
      </trkpt>
      <trkpt lat="44.04105" lon="5.94138">
        <ele>528.79998779297</ele>
        <time>2021-02-11T11:59:32.000Z</time>
      </trkpt>
      <trkpt lat="44.04093" lon="5.94131">
        <ele>527.79998779297</ele>
        <time>2021-02-11T11:59:34.000Z</time>
      </trkpt>
      <trkpt lat="44.04082" lon="5.94125">
        <ele>526.79998779297</ele>
        <time>2021-02-11T11:59:36.000Z</time>
      </trkpt>
      <trkpt lat="44.04076" lon="5.94122">
        <ele>526.40002441406</ele>
        <time>2021-02-11T11:59:37.000Z</time>
      </trkpt>
      <trkpt lat="44.04065" lon="5.94116">
        <ele>525.59997558594</ele>
        <time>2021-02-11T11:59:39.000Z</time>
      </trkpt>
      <trkpt lat="44.04048" lon="5.94107">
        <ele>524.20001220703</ele>
        <time>2021-02-11T11:59:42.000Z</time>
      </trkpt>
      <trkpt lat="44.04037" lon="5.94101">
        <ele>523.40002441406</ele>
        <time>2021-02-11T11:59:44.000Z</time>
      </trkpt>
      <trkpt lat="44.04031" lon="5.94098">
        <ele>522.79998779297</ele>
        <time>2021-02-11T11:59:45.000Z</time>
      </trkpt>
      <trkpt lat="44.04013" lon="5.94088">
        <ele>521.59997558594</ele>
        <time>2021-02-11T11:59:48.000Z</time>
      </trkpt>
      <trkpt lat="44.04001" lon="5.94082">
        <ele>521</ele>
        <time>2021-02-11T11:59:50.000Z</time>
      </trkpt>
      <trkpt lat="44.03995" lon="5.94078">
        <ele>520.59997558594</ele>
        <time>2021-02-11T11:59:51.000Z</time>
      </trkpt>
      <trkpt lat="44.03978" lon="5.94069">
        <ele>519.40002441406</ele>
        <time>2021-02-11T11:59:54.000Z</time>
      </trkpt>
      <trkpt lat="44.03966" lon="5.94063">
        <ele>518.40002441406</ele>
        <time>2021-02-11T11:59:56.000Z</time>
      </trkpt>
      <trkpt lat="44.03953" lon="5.94056">
        <ele>517.40002441406</ele>
        <time>2021-02-11T11:59:58.000Z</time>
      </trkpt>
      <trkpt lat="44.03947" lon="5.94052">
        <ele>516.40002441406</ele>
        <time>2021-02-11T11:59:59.000Z</time>
      </trkpt>
      <trkpt lat="44.03941" lon="5.94049">
        <ele>516</ele>
        <time>2021-02-11T12:00:00.000Z</time>
      </trkpt>
      <trkpt lat="44.03922" lon="5.94039">
        <ele>515</ele>
        <time>2021-02-11T12:00:03.000Z</time>
      </trkpt>
      <trkpt lat="44.03904" lon="5.94029">
        <ele>513.59997558594</ele>
        <time>2021-02-11T12:00:06.000Z</time>
      </trkpt>
      <trkpt lat="44.03892" lon="5.94023">
        <ele>512.79998779297</ele>
        <time>2021-02-11T12:00:08.000Z</time>
      </trkpt>
      <trkpt lat="44.03885" lon="5.94019">
        <ele>512.40002441406</ele>
        <time>2021-02-11T12:00:09.000Z</time>
      </trkpt>
      <trkpt lat="44.03865" lon="5.9401">
        <ele>511.20001220703</ele>
        <time>2021-02-11T12:00:12.000Z</time>
      </trkpt>
      <trkpt lat="44.03845" lon="5.94">
        <ele>510.20001220703</ele>
        <time>2021-02-11T12:00:15.000Z</time>
      </trkpt>
      <trkpt lat="44.03833" lon="5.93993">
        <ele>509.39999389648</ele>
        <time>2021-02-11T12:00:17.000Z</time>
      </trkpt>
      <trkpt lat="44.03826" lon="5.9399">
        <ele>509</ele>
        <time>2021-02-11T12:00:18.000Z</time>
      </trkpt>
      <trkpt lat="44.03806" lon="5.9398">
        <ele>507.79998779297</ele>
        <time>2021-02-11T12:00:21.000Z</time>
      </trkpt>
      <trkpt lat="44.03791" lon="5.93974">
        <ele>507</ele>
        <time>2021-02-11T12:00:23.000Z</time>
      </trkpt>
      <trkpt lat="44.03783" lon="5.93971">
        <ele>506.60000610352</ele>
        <time>2021-02-11T12:00:24.000Z</time>
      </trkpt>
      <trkpt lat="44.03757" lon="5.93962">
        <ele>505.39999389648</ele>
        <time>2021-02-11T12:00:27.000Z</time>
      </trkpt>
      <trkpt lat="44.03739" lon="5.93956">
        <ele>504.79998779297</ele>
        <time>2021-02-11T12:00:29.000Z</time>
      </trkpt>
      <trkpt lat="44.03721" lon="5.9395">
        <ele>504</ele>
        <time>2021-02-11T12:00:31.000Z</time>
      </trkpt>
      <trkpt lat="44.03694" lon="5.9394">
        <ele>503</ele>
        <time>2021-02-11T12:00:34.000Z</time>
      </trkpt>
      <trkpt lat="44.03676" lon="5.93935">
        <ele>502.20001220703</ele>
        <time>2021-02-11T12:00:36.000Z</time>
      </trkpt>
      <trkpt lat="44.03667" lon="5.93932">
        <ele>501.79998779297</ele>
        <time>2021-02-11T12:00:37.000Z</time>
      </trkpt>
      <trkpt lat="44.03633" lon="5.93921">
        <ele>500.60000610352</ele>
        <time>2021-02-11T12:00:41.000Z</time>
      </trkpt>
      <trkpt lat="44.03616" lon="5.93915">
        <ele>500.20001220703</ele>
        <time>2021-02-11T12:00:43.000Z</time>
      </trkpt>
      <trkpt lat="44.036" lon="5.9391">
        <ele>499.60000610352</ele>
        <time>2021-02-11T12:00:45.000Z</time>
      </trkpt>
      <trkpt lat="44.03562" lon="5.93898">
        <ele>498.39999389648</ele>
        <time>2021-02-11T12:00:49.000Z</time>
      </trkpt>
      <trkpt lat="44.03539" lon="5.93892">
        <ele>498</ele>
        <time>2021-02-11T12:00:51.000Z</time>
      </trkpt>
      <trkpt lat="44.03517" lon="5.93896">
        <ele>497.39999389648</ele>
        <time>2021-02-11T12:00:53.000Z</time>
      </trkpt>
      <trkpt lat="44.03494" lon="5.9391">
        <ele>496.20001220703</ele>
        <time>2021-02-11T12:00:56.000Z</time>
      </trkpt>
      <trkpt lat="44.03477" lon="5.9392">
        <ele>495</ele>
        <time>2021-02-11T12:00:59.000Z</time>
      </trkpt>
      <trkpt lat="44.03466" lon="5.93924">
        <ele>494.60000610352</ele>
        <time>2021-02-11T12:01:01.000Z</time>
      </trkpt>
      <trkpt lat="44.03448" lon="5.93924">
        <ele>494.39999389648</ele>
        <time>2021-02-11T12:01:04.000Z</time>
      </trkpt>
      <trkpt lat="44.03442" lon="5.93922">
        <ele>494.20001220703</ele>
        <time>2021-02-11T12:01:05.000Z</time>
      </trkpt>
      <trkpt lat="44.03421" lon="5.93914">
        <ele>494</ele>
        <time>2021-02-11T12:01:08.000Z</time>
      </trkpt>
      <trkpt lat="44.03413" lon="5.93911">
        <ele>494</ele>
        <time>2021-02-11T12:01:09.000Z</time>
      </trkpt>
      <trkpt lat="44.03406" lon="5.93907">
        <ele>493.79998779297</ele>
        <time>2021-02-11T12:01:10.000Z</time>
      </trkpt>
      <trkpt lat="44.03374" lon="5.93894">
        <ele>492.79998779297</ele>
        <time>2021-02-11T12:01:14.000Z</time>
      </trkpt>
      <trkpt lat="44.0335" lon="5.93884">
        <ele>491.60000610352</ele>
        <time>2021-02-11T12:01:17.000Z</time>
      </trkpt>
      <trkpt lat="44.03328" lon="5.93874">
        <ele>490.60000610352</ele>
        <time>2021-02-11T12:01:20.000Z</time>
      </trkpt>
      <trkpt lat="44.03306" lon="5.93864">
        <ele>489.39999389648</ele>
        <time>2021-02-11T12:01:23.000Z</time>
      </trkpt>
      <trkpt lat="44.03292" lon="5.9386">
        <ele>488.20001220703</ele>
        <time>2021-02-11T12:01:25.000Z</time>
      </trkpt>
      <trkpt lat="44.03272" lon="5.93857">
        <ele>487</ele>
        <time>2021-02-11T12:01:28.000Z</time>
      </trkpt>
      <trkpt lat="44.03259" lon="5.93857">
        <ele>486.39999389648</ele>
        <time>2021-02-11T12:01:30.000Z</time>
      </trkpt>
      <trkpt lat="44.03247" lon="5.93857">
        <ele>485.79998779297</ele>
        <time>2021-02-11T12:01:32.000Z</time>
      </trkpt>
      <trkpt lat="44.03228" lon="5.93858">
        <ele>484.79998779297</ele>
        <time>2021-02-11T12:01:35.000Z</time>
      </trkpt>
      <trkpt lat="44.03215" lon="5.93858">
        <ele>483.79998779297</ele>
        <time>2021-02-11T12:01:37.000Z</time>
      </trkpt>
      <trkpt lat="44.03208" lon="5.93858">
        <ele>483.60000610352</ele>
        <time>2021-02-11T12:01:38.000Z</time>
      </trkpt>
      <trkpt lat="44.03186" lon="5.93855">
        <ele>482.39999389648</ele>
        <time>2021-02-11T12:01:41.000Z</time>
      </trkpt>
      <trkpt lat="44.03178" lon="5.93853">
        <ele>482</ele>
        <time>2021-02-11T12:01:42.000Z</time>
      </trkpt>
      <trkpt lat="44.03163" lon="5.93844">
        <ele>481</ele>
        <time>2021-02-11T12:01:44.000Z</time>
      </trkpt>
      <trkpt lat="44.03148" lon="5.93832">
        <ele>479.79998779297</ele>
        <time>2021-02-11T12:01:46.000Z</time>
      </trkpt>
      <trkpt lat="44.03133" lon="5.93822">
        <ele>478.79998779297</ele>
        <time>2021-02-11T12:01:48.000Z</time>
      </trkpt>
      <trkpt lat="44.03126" lon="5.93818">
        <ele>478.39999389648</ele>
        <time>2021-02-11T12:01:49.000Z</time>
      </trkpt>
      <trkpt lat="44.03118" lon="5.93816">
        <ele>477.79998779297</ele>
        <time>2021-02-11T12:01:50.000Z</time>
      </trkpt>
      <trkpt lat="44.03112" lon="5.93815">
        <ele>477.39999389648</ele>
        <time>2021-02-11T12:01:51.000Z</time>
      </trkpt>
      <trkpt lat="44.03101" lon="5.93818">
        <ele>475.60000610352</ele>
        <time>2021-02-11T12:01:53.000Z</time>
      </trkpt>
      <trkpt lat="44.03096" lon="5.9383">
        <ele>474.79998779297</ele>
        <time>2021-02-11T12:01:55.000Z</time>
      </trkpt>
      <trkpt lat="44.03094" lon="5.93836">
        <ele>474.39999389648</ele>
        <time>2021-02-11T12:01:56.000Z</time>
      </trkpt>
      <trkpt lat="44.03086" lon="5.93857">
        <ele>473.39999389648</ele>
        <time>2021-02-11T12:01:59.000Z</time>
      </trkpt>
      <trkpt lat="44.03083" lon="5.93864">
        <ele>473</ele>
        <time>2021-02-11T12:02:00.000Z</time>
      </trkpt>
      <trkpt lat="44.03078" lon="5.9387">
        <ele>472.60000610352</ele>
        <time>2021-02-11T12:02:01.000Z</time>
      </trkpt>
      <trkpt lat="44.03068" lon="5.93877">
        <ele>472</ele>
        <time>2021-02-11T12:02:03.000Z</time>
      </trkpt>
      <trkpt lat="44.03056" lon="5.93881">
        <ele>471.39999389648</ele>
        <time>2021-02-11T12:02:05.000Z</time>
      </trkpt>
      <trkpt lat="44.0305" lon="5.93881">
        <ele>471</ele>
        <time>2021-02-11T12:02:06.000Z</time>
      </trkpt>
      <trkpt lat="44.03031" lon="5.93881">
        <ele>469.79998779297</ele>
        <time>2021-02-11T12:02:09.000Z</time>
      </trkpt>
      <trkpt lat="44.03019" lon="5.93878">
        <ele>468.60000610352</ele>
        <time>2021-02-11T12:02:11.000Z</time>
      </trkpt>
      <trkpt lat="44.02999" lon="5.93874">
        <ele>467.20001220703</ele>
        <time>2021-02-11T12:02:14.000Z</time>
      </trkpt>
      <trkpt lat="44.02978" lon="5.93872">
        <ele>466</ele>
        <time>2021-02-11T12:02:17.000Z</time>
      </trkpt>
      <trkpt lat="44.02971" lon="5.93871">
        <ele>465.39999389648</ele>
        <time>2021-02-11T12:02:18.000Z</time>
      </trkpt>
      <trkpt lat="44.02957" lon="5.9387">
        <ele>464.60000610352</ele>
        <time>2021-02-11T12:02:20.000Z</time>
      </trkpt>
      <trkpt lat="44.02936" lon="5.93866">
        <ele>463.20001220703</ele>
        <time>2021-02-11T12:02:23.000Z</time>
      </trkpt>
      <trkpt lat="44.02923" lon="5.93862">
        <ele>462.60000610352</ele>
        <time>2021-02-11T12:02:25.000Z</time>
      </trkpt>
      <trkpt lat="44.02917" lon="5.93859">
        <ele>462.20001220703</ele>
        <time>2021-02-11T12:02:26.000Z</time>
      </trkpt>
      <trkpt lat="44.02911" lon="5.93858">
        <ele>461.60000610352</ele>
        <time>2021-02-11T12:02:27.000Z</time>
      </trkpt>
      <trkpt lat="44.02898" lon="5.93857">
        <ele>461</ele>
        <time>2021-02-11T12:02:29.000Z</time>
      </trkpt>
      <trkpt lat="44.02893" lon="5.93858">
        <ele>460.60000610352</ele>
        <time>2021-02-11T12:02:30.000Z</time>
      </trkpt>
      <trkpt lat="44.02881" lon="5.93857">
        <ele>459.79998779297</ele>
        <time>2021-02-11T12:02:33.000Z</time>
      </trkpt>
      <trkpt lat="44.02878" lon="5.93858">
        <ele>459.60000610352</ele>
        <time>2021-02-11T12:02:34.000Z</time>
      </trkpt>
      <trkpt lat="44.02874" lon="5.93859">
        <ele>458.79998779297</ele>
        <time>2021-02-11T12:02:37.000Z</time>
      </trkpt>
      <trkpt lat="44.02874" lon="5.9386">
        <ele>458.60000610352</ele>
        <time>2021-02-11T12:02:38.000Z</time>
      </trkpt>
      <trkpt lat="44.02877" lon="5.93857">
        <ele>457.39999389648</ele>
        <time>2021-02-11T12:02:44.000Z</time>
      </trkpt>
      <trkpt lat="44.02879" lon="5.93857">
        <ele>457.39999389648</ele>
        <time>2021-02-11T12:02:46.000Z</time>
      </trkpt>
      <trkpt lat="44.02882" lon="5.9386">
        <ele>456.39999389648</ele>
        <time>2021-02-11T12:02:50.000Z</time>
      </trkpt>
      <trkpt lat="44.02882" lon="5.9386">
        <ele>455.39999389648</ele>
        <time>2021-02-11T12:02:56.000Z</time>
      </trkpt>
      <trkpt lat="44.02882" lon="5.93861">
        <ele>455.39999389648</ele>
        <time>2021-02-11T12:02:57.000Z</time>
      </trkpt>
      <trkpt lat="44.02882" lon="5.93861">
        <ele>456.20001220703</ele>
        <time>2021-02-11T12:03:21.000Z</time>
      </trkpt>
      <trkpt lat="44.02882" lon="5.93861">
        <ele>456.60000610352</ele>
        <time>2021-02-11T12:03:31.000Z</time>
      </trkpt>
      <trkpt lat="44.02882" lon="5.93861">
        <ele>456.79998779297</ele>
        <time>2021-02-11T12:03:42.000Z</time>
      </trkpt>
      <trkpt lat="44.02882" lon="5.93861">
        <ele>457</ele>
        <time>2021-02-11T12:03:45.000Z</time>
      </trkpt>
      <trkpt lat="44.02882" lon="5.93861">
        <ele>457.79998779297</ele>
        <time>2021-02-11T12:03:58.000Z</time>
      </trkpt>
      <trkpt lat="44.02882" lon="5.93861">
        <ele>458.60000610352</ele>
        <time>2021-02-11T12:04:27.000Z</time>
      </trkpt>
      <trkpt lat="44.02883" lon="5.9386">
        <ele>458.60000610352</ele>
        <time>2021-02-11T12:06:13.000Z</time>
      </trkpt>
      <trkpt lat="44.02883" lon="5.9386">
        <ele>458.79998779297</ele>
        <time>2021-02-11T12:07:56.000Z</time>
      </trkpt>
      <trkpt lat="44.02883" lon="5.9386">
        <ele>459</ele>
        <time>2021-02-11T12:07:57.000Z</time>
      </trkpt>
      <trkpt lat="44.02883" lon="5.93861">
        <ele>457.79998779297</ele>
        <time>2021-02-11T12:10:48.000Z</time>
      </trkpt>
      <trkpt lat="44.02884" lon="5.9386">
        <ele>457.79998779297</ele>
        <time>2021-02-11T12:12:43.000Z</time>
      </trkpt>
      <trkpt lat="44.02883" lon="5.9386">
        <ele>457.79998779297</ele>
        <time>2021-02-11T12:13:10.000Z</time>
      </trkpt>
      <trkpt lat="44.02883" lon="5.9386">
        <ele>458.20001220703</ele>
        <time>2021-02-11T12:13:55.000Z</time>
      </trkpt>
      <trkpt lat="44.02883" lon="5.9386">
        <ele>457.79998779297</ele>
        <time>2021-02-11T12:15:10.000Z</time>
      </trkpt>
      <trkpt lat="44.02884" lon="5.93859">
        <ele>457.39999389648</ele>
        <time>2021-02-11T12:16:58.000Z</time>
      </trkpt>
      <trkpt lat="44.02884" lon="5.93859">
        <ele>456.60000610352</ele>
        <time>2021-02-11T12:20:06.000Z</time>
      </trkpt>
      <trkpt lat="44.02885" lon="5.93859">
        <ele>456.39999389648</ele>
        <time>2021-02-11T12:21:10.000Z</time>
      </trkpt>
      <trkpt lat="44.02884" lon="5.93859">
        <ele>456.20001220703</ele>
        <time>2021-02-11T12:21:25.000Z</time>
      </trkpt>
      <trkpt lat="44.02885" lon="5.93859">
        <ele>456.20001220703</ele>
        <time>2021-02-11T12:21:59.000Z</time>
      </trkpt>
      <trkpt lat="44.02886" lon="5.93862">
        <ele>456.20001220703</ele>
        <time>2021-02-11T12:22:03.000Z</time>
      </trkpt>
      <trkpt lat="44.02887" lon="5.93865">
        <ele>456.60000610352</ele>
        <time>2021-02-11T12:22:10.000Z</time>
      </trkpt>
      <trkpt lat="44.02886" lon="5.93863">
        <ele>456.79998779297</ele>
        <time>2021-02-11T12:22:25.000Z</time>
      </trkpt>
      <trkpt lat="44.02883" lon="5.93859">
        <ele>456.79998779297</ele>
        <time>2021-02-11T12:22:34.000Z</time>
      </trkpt>
      <trkpt lat="44.02883" lon="5.93859">
        <ele>456.60000610352</ele>
        <time>2021-02-11T12:22:40.000Z</time>
      </trkpt>
      <trkpt lat="44.02883" lon="5.9386">
        <ele>456.39999389648</ele>
        <time>2021-02-11T12:23:19.000Z</time>
      </trkpt>
      <trkpt lat="44.02883" lon="5.9386">
        <ele>456.39999389648</ele>
        <time>2021-02-11T12:23:58.000Z</time>
      </trkpt>
      <trkpt lat="44.02883" lon="5.9386">
        <ele>456.39999389648</ele>
        <time>2021-02-11T12:24:25.000Z</time>
      </trkpt>
      <trkpt lat="44.02883" lon="5.9386">
        <ele>456.60000610352</ele>
        <time>2021-02-11T12:25:02.000Z</time>
      </trkpt>
      <trkpt lat="44.02883" lon="5.9386">
        <ele>456.39999389648</ele>
        <time>2021-02-11T12:27:33.000Z</time>
      </trkpt>
      <trkpt lat="44.02883" lon="5.9386">
        <ele>456.39999389648</ele>
        <time>2021-02-11T12:27:34.000Z</time>
      </trkpt>
      <trkpt lat="44.02883" lon="5.93859">
        <ele>456.39999389648</ele>
        <time>2021-02-11T12:28:20.000Z</time>
      </trkpt>
      <trkpt lat="44.02883" lon="5.93859">
        <ele>456.20001220703</ele>
        <time>2021-02-11T12:28:48.000Z</time>
      </trkpt>
      <trkpt lat="44.02883" lon="5.93859">
        <ele>456.39999389648</ele>
        <time>2021-02-11T12:29:15.000Z</time>
      </trkpt>
      <trkpt lat="44.02883" lon="5.9386">
        <ele>456.39999389648</ele>
        <time>2021-02-11T12:29:32.000Z</time>
      </trkpt>
      <trkpt lat="44.02883" lon="5.9386">
        <ele>456.39999389648</ele>
        <time>2021-02-11T12:30:55.000Z</time>
      </trkpt>
      <trkpt lat="44.02883" lon="5.9386">
        <ele>456.39999389648</ele>
        <time>2021-02-11T12:31:01.000Z</time>
      </trkpt>
      <trkpt lat="44.02883" lon="5.93859">
        <ele>456.60000610352</ele>
        <time>2021-02-11T12:31:21.000Z</time>
      </trkpt>
      <trkpt lat="44.02883" lon="5.93859">
        <ele>455.60000610352</ele>
        <time>2021-02-11T12:31:59.000Z</time>
      </trkpt>
      <trkpt lat="44.02883" lon="5.93859">
        <ele>455.60000610352</ele>
        <time>2021-02-11T12:32:21.000Z</time>
      </trkpt>
      <trkpt lat="44.02883" lon="5.93859">
        <ele>455.79998779297</ele>
        <time>2021-02-11T12:33:24.000Z</time>
      </trkpt>
      <trkpt lat="44.02883" lon="5.93859">
        <ele>455.79998779297</ele>
        <time>2021-02-11T12:34:10.000Z</time>
      </trkpt>
      <trkpt lat="44.02883" lon="5.93859">
        <ele>456</ele>
        <time>2021-02-11T12:34:37.000Z</time>
      </trkpt>
      <trkpt lat="44.02882" lon="5.93859">
        <ele>456</ele>
        <time>2021-02-11T12:34:57.000Z</time>
      </trkpt>
      <trkpt lat="44.02882" lon="5.93859">
        <ele>456.79998779297</ele>
        <time>2021-02-11T12:35:03.000Z</time>
      </trkpt>
      <trkpt lat="44.02882" lon="5.93859">
        <ele>457</ele>
        <time>2021-02-11T12:35:06.000Z</time>
      </trkpt>
      <trkpt lat="44.02883" lon="5.9386">
        <ele>457.20001220703</ele>
        <time>2021-02-11T12:35:13.000Z</time>
      </trkpt>
      <trkpt lat="44.02883" lon="5.9386">
        <ele>457</ele>
        <time>2021-02-11T12:36:10.000Z</time>
      </trkpt>
      <trkpt lat="44.02883" lon="5.9386">
        <ele>457</ele>
        <time>2021-02-11T12:36:53.000Z</time>
      </trkpt>
      <trkpt lat="44.02883" lon="5.9386">
        <ele>457</ele>
        <time>2021-02-11T12:37:27.000Z</time>
      </trkpt>
      <trkpt lat="44.02882" lon="5.9386">
        <ele>457.20001220703</ele>
        <time>2021-02-11T12:37:43.000Z</time>
      </trkpt>
      <trkpt lat="44.02882" lon="5.93858">
        <ele>457.20001220703</ele>
        <time>2021-02-11T12:37:48.000Z</time>
      </trkpt>
      <trkpt lat="44.02877" lon="5.93848">
        <ele>457.20001220703</ele>
        <time>2021-02-11T12:37:53.000Z</time>
      </trkpt>
      <trkpt lat="44.02874" lon="5.93847">
        <ele>457.20001220703</ele>
        <time>2021-02-11T12:37:54.000Z</time>
      </trkpt>
      <trkpt lat="44.02868" lon="5.9385">
        <ele>457.20001220703</ele>
        <time>2021-02-11T12:37:58.000Z</time>
      </trkpt>
      <trkpt lat="44.02868" lon="5.9385">
        <ele>457.39999389648</ele>
        <time>2021-02-11T12:38:04.000Z</time>
      </trkpt>
      <trkpt lat="44.02869" lon="5.93853">
        <ele>457.39999389648</ele>
        <time>2021-02-11T12:38:08.000Z</time>
      </trkpt>
      <trkpt lat="44.02869" lon="5.93855">
        <ele>457.39999389648</ele>
        <time>2021-02-11T12:38:09.000Z</time>
      </trkpt>
      <trkpt lat="44.02871" lon="5.93859">
        <ele>457.39999389648</ele>
        <time>2021-02-11T12:38:11.000Z</time>
      </trkpt>
      <trkpt lat="44.02874" lon="5.9386">
        <ele>457.39999389648</ele>
        <time>2021-02-11T12:38:14.000Z</time>
      </trkpt>
      <trkpt lat="44.02874" lon="5.9386">
        <ele>457.39999389648</ele>
        <time>2021-02-11T12:38:21.000Z</time>
      </trkpt>
      <trkpt lat="44.02874" lon="5.9386">
        <ele>457.60000610352</ele>
        <time>2021-02-11T12:38:29.000Z</time>
      </trkpt>
      <trkpt lat="44.02875" lon="5.93859">
        <ele>457.60000610352</ele>
        <time>2021-02-11T12:38:45.000Z</time>
      </trkpt>
      <trkpt lat="44.02878" lon="5.93861">
        <ele>457.60000610352</ele>
        <time>2021-02-11T12:38:49.000Z</time>
      </trkpt>
      <trkpt lat="44.02878" lon="5.93861">
        <ele>458</ele>
        <time>2021-02-11T12:38:59.000Z</time>
      </trkpt>
      <trkpt lat="44.02878" lon="5.93861">
        <ele>458</ele>
        <time>2021-02-11T12:39:01.000Z</time>
      </trkpt>
      <trkpt lat="44.02878" lon="5.93861">
        <ele>457.60000610352</ele>
        <time>2021-02-11T12:40:07.000Z</time>
      </trkpt>
      <trkpt lat="44.02878" lon="5.93861">
        <ele>457.79998779297</ele>
        <time>2021-02-11T12:42:00.000Z</time>
      </trkpt>
      <trkpt lat="44.02876" lon="5.93859">
        <ele>457.79998779297</ele>
        <time>2021-02-11T12:42:03.000Z</time>
      </trkpt>
      <trkpt lat="44.02873" lon="5.93855">
        <ele>457.79998779297</ele>
        <time>2021-02-11T12:42:06.000Z</time>
      </trkpt>
      <trkpt lat="44.02871" lon="5.93843">
        <ele>457.60000610352</ele>
        <time>2021-02-11T12:42:11.000Z</time>
      </trkpt>
      <trkpt lat="44.02877" lon="5.93841">
        <ele>457.39999389648</ele>
        <time>2021-02-11T12:42:15.000Z</time>
      </trkpt>
      <trkpt lat="44.02887" lon="5.93853">
        <ele>457.39999389648</ele>
        <time>2021-02-11T12:42:21.000Z</time>
      </trkpt>
      <trkpt lat="44.02898" lon="5.93859">
        <ele>457.20001220703</ele>
        <time>2021-02-11T12:42:26.000Z</time>
      </trkpt>
      <trkpt lat="44.02906" lon="5.93856">
        <ele>457.39999389648</ele>
        <time>2021-02-11T12:42:31.000Z</time>
      </trkpt>
      <trkpt lat="44.02915" lon="5.93857">
        <ele>457.20001220703</ele>
        <time>2021-02-11T12:42:35.000Z</time>
      </trkpt>
      <trkpt lat="44.02934" lon="5.93868">
        <ele>457.39999389648</ele>
        <time>2021-02-11T12:42:41.000Z</time>
      </trkpt>
      <trkpt lat="44.02957" lon="5.93872">
        <ele>457.60000610352</ele>
        <time>2021-02-11T12:42:48.000Z</time>
      </trkpt>
      <trkpt lat="44.02979" lon="5.93874">
        <ele>458.20001220703</ele>
        <time>2021-02-11T12:42:55.000Z</time>
      </trkpt>
      <trkpt lat="44.02987" lon="5.93874">
        <ele>458.39999389648</ele>
        <time>2021-02-11T12:42:58.000Z</time>
      </trkpt>
      <trkpt lat="44.02999" lon="5.93876">
        <ele>458.79998779297</ele>
        <time>2021-02-11T12:43:02.000Z</time>
      </trkpt>
      <trkpt lat="44.03016" lon="5.93878">
        <ele>459.20001220703</ele>
        <time>2021-02-11T12:43:08.000Z</time>
      </trkpt>
      <trkpt lat="44.03031" lon="5.93882">
        <ele>459.39999389648</ele>
        <time>2021-02-11T12:43:14.000Z</time>
      </trkpt>
      <trkpt lat="44.03041" lon="5.93885">
        <ele>459.79998779297</ele>
        <time>2021-02-11T12:43:18.000Z</time>
      </trkpt>
      <trkpt lat="44.03048" lon="5.93887">
        <ele>459.79998779297</ele>
        <time>2021-02-11T12:43:20.000Z</time>
      </trkpt>
      <trkpt lat="44.03051" lon="5.93887">
        <ele>460</ele>
        <time>2021-02-11T12:43:21.000Z</time>
      </trkpt>
      <trkpt lat="44.03063" lon="5.93882">
        <ele>460.20001220703</ele>
        <time>2021-02-11T12:43:25.000Z</time>
      </trkpt>
      <trkpt lat="44.03081" lon="5.93874">
        <ele>460.39999389648</ele>
        <time>2021-02-11T12:43:32.000Z</time>
      </trkpt>
      <trkpt lat="44.03086" lon="5.93865">
        <ele>460.79998779297</ele>
        <time>2021-02-11T12:43:35.000Z</time>
      </trkpt>
      <trkpt lat="44.03087" lon="5.93862">
        <ele>461</ele>
        <time>2021-02-11T12:43:36.000Z</time>
      </trkpt>
      <trkpt lat="44.03088" lon="5.93858">
        <ele>460.79998779297</ele>
        <time>2021-02-11T12:43:37.000Z</time>
      </trkpt>
      <trkpt lat="44.03098" lon="5.93837">
        <ele>461.60000610352</ele>
        <time>2021-02-11T12:43:44.000Z</time>
      </trkpt>
      <trkpt lat="44.03114" lon="5.93818">
        <ele>462.60000610352</ele>
        <time>2021-02-11T12:43:52.000Z</time>
      </trkpt>
      <trkpt lat="44.03116" lon="5.93818">
        <ele>462.60000610352</ele>
        <time>2021-02-11T12:43:53.000Z</time>
      </trkpt>
      <trkpt lat="44.03131" lon="5.9382">
        <ele>462.79998779297</ele>
        <time>2021-02-11T12:43:58.000Z</time>
      </trkpt>
      <trkpt lat="44.03151" lon="5.93834">
        <ele>462.79998779297</ele>
        <time>2021-02-11T12:44:05.000Z</time>
      </trkpt>
      <trkpt lat="44.03172" lon="5.93851">
        <ele>462.60000610352</ele>
        <time>2021-02-11T12:44:13.000Z</time>
      </trkpt>
      <trkpt lat="44.03194" lon="5.93858">
        <ele>463.20001220703</ele>
        <time>2021-02-11T12:44:21.000Z</time>
      </trkpt>
      <trkpt lat="44.032" lon="5.93858">
        <ele>463.60000610352</ele>
        <time>2021-02-11T12:44:23.000Z</time>
      </trkpt>
      <trkpt lat="44.03214" lon="5.93859">
        <ele>464.20001220703</ele>
        <time>2021-02-11T12:44:28.000Z</time>
      </trkpt>
      <trkpt lat="44.0322" lon="5.93859">
        <ele>464.60000610352</ele>
        <time>2021-02-11T12:44:30.000Z</time>
      </trkpt>
      <trkpt lat="44.03234" lon="5.93859">
        <ele>465.79998779297</ele>
        <time>2021-02-11T12:44:35.000Z</time>
      </trkpt>
      <trkpt lat="44.03239" lon="5.93859">
        <ele>466.39999389648</ele>
        <time>2021-02-11T12:44:37.000Z</time>
      </trkpt>
      <trkpt lat="44.03251" lon="5.93854">
        <ele>466.79998779297</ele>
        <time>2021-02-11T12:44:42.000Z</time>
      </trkpt>
      <trkpt lat="44.03253" lon="5.93851">
        <ele>467</ele>
        <time>2021-02-11T12:44:43.000Z</time>
      </trkpt>
      <trkpt lat="44.03257" lon="5.93837">
        <ele>468</ele>
        <time>2021-02-11T12:44:48.000Z</time>
      </trkpt>
      <trkpt lat="44.03257" lon="5.93834">
        <ele>468.20001220703</ele>
        <time>2021-02-11T12:44:49.000Z</time>
      </trkpt>
      <trkpt lat="44.0326" lon="5.93822">
        <ele>469.20001220703</ele>
        <time>2021-02-11T12:44:53.000Z</time>
      </trkpt>
      <trkpt lat="44.03261" lon="5.93813">
        <ele>470.20001220703</ele>
        <time>2021-02-11T12:44:56.000Z</time>
      </trkpt>
      <trkpt lat="44.03263" lon="5.93807">
        <ele>470.60000610352</ele>
        <time>2021-02-11T12:44:58.000Z</time>
      </trkpt>
      <trkpt lat="44.03263" lon="5.93803">
        <ele>471</ele>
        <time>2021-02-11T12:44:59.000Z</time>
      </trkpt>
      <trkpt lat="44.03264" lon="5.93799">
        <ele>471.39999389648</ele>
        <time>2021-02-11T12:45:00.000Z</time>
      </trkpt>
      <trkpt lat="44.03267" lon="5.93785">
        <ele>472.20001220703</ele>
        <time>2021-02-11T12:45:04.000Z</time>
      </trkpt>
      <trkpt lat="44.03271" lon="5.93765">
        <ele>473.20001220703</ele>
        <time>2021-02-11T12:45:10.000Z</time>
      </trkpt>
      <trkpt lat="44.03272" lon="5.93754">
        <ele>474</ele>
        <time>2021-02-11T12:45:13.000Z</time>
      </trkpt>
      <trkpt lat="44.03273" lon="5.93751">
        <ele>474.20001220703</ele>
        <time>2021-02-11T12:45:14.000Z</time>
      </trkpt>
      <trkpt lat="44.03277" lon="5.93728">
        <ele>475.39999389648</ele>
        <time>2021-02-11T12:45:20.000Z</time>
      </trkpt>
      <trkpt lat="44.03277" lon="5.93725">
        <ele>475.60000610352</ele>
        <time>2021-02-11T12:45:21.000Z</time>
      </trkpt>
      <trkpt lat="44.03279" lon="5.93714">
        <ele>476.39999389648</ele>
        <time>2021-02-11T12:45:24.000Z</time>
      </trkpt>
      <trkpt lat="44.03284" lon="5.93692">
        <ele>477.60000610352</ele>
        <time>2021-02-11T12:45:30.000Z</time>
      </trkpt>
      <trkpt lat="44.03285" lon="5.93685">
        <ele>478</ele>
        <time>2021-02-11T12:45:32.000Z</time>
      </trkpt>
      <trkpt lat="44.03288" lon="5.9367">
        <ele>478.79998779297</ele>
        <time>2021-02-11T12:45:36.000Z</time>
      </trkpt>
      <trkpt lat="44.03292" lon="5.93651">
        <ele>479.79998779297</ele>
        <time>2021-02-11T12:45:41.000Z</time>
      </trkpt>
      <trkpt lat="44.03293" lon="5.93648">
        <ele>480.20001220703</ele>
        <time>2021-02-11T12:45:42.000Z</time>
      </trkpt>
      <trkpt lat="44.03302" lon="5.93634">
        <ele>481.39999389648</ele>
        <time>2021-02-11T12:45:47.000Z</time>
      </trkpt>
      <trkpt lat="44.03316" lon="5.93632">
        <ele>482.39999389648</ele>
        <time>2021-02-11T12:45:52.000Z</time>
      </trkpt>
      <trkpt lat="44.03321" lon="5.9363">
        <ele>482.79998779297</ele>
        <time>2021-02-11T12:45:54.000Z</time>
      </trkpt>
      <trkpt lat="44.03331" lon="5.93627">
        <ele>483.39999389648</ele>
        <time>2021-02-11T12:45:58.000Z</time>
      </trkpt>
      <trkpt lat="44.03341" lon="5.93621">
        <ele>484.20001220703</ele>
        <time>2021-02-11T12:46:02.000Z</time>
      </trkpt>
      <trkpt lat="44.03343" lon="5.93619">
        <ele>484.60000610352</ele>
        <time>2021-02-11T12:46:03.000Z</time>
      </trkpt>
      <trkpt lat="44.03356" lon="5.93604">
        <ele>485.79998779297</ele>
        <time>2021-02-11T12:46:09.000Z</time>
      </trkpt>
      <trkpt lat="44.03358" lon="5.936">
        <ele>486</ele>
        <time>2021-02-11T12:46:10.000Z</time>
      </trkpt>
      <trkpt lat="44.03363" lon="5.9359">
        <ele>486.79998779297</ele>
        <time>2021-02-11T12:46:13.000Z</time>
      </trkpt>
      <trkpt lat="44.03368" lon="5.93575">
        <ele>487.60000610352</ele>
        <time>2021-02-11T12:46:17.000Z</time>
      </trkpt>
      <trkpt lat="44.03369" lon="5.93572">
        <ele>487.79998779297</ele>
        <time>2021-02-11T12:46:18.000Z</time>
      </trkpt>
      <trkpt lat="44.03374" lon="5.93555">
        <ele>488.79998779297</ele>
        <time>2021-02-11T12:46:23.000Z</time>
      </trkpt>
      <trkpt lat="44.03376" lon="5.93548">
        <ele>489.39999389648</ele>
        <time>2021-02-11T12:46:25.000Z</time>
      </trkpt>
      <trkpt lat="44.03378" lon="5.93542">
        <ele>490</ele>
        <time>2021-02-11T12:46:27.000Z</time>
      </trkpt>
      <trkpt lat="44.03387" lon="5.93528">
        <ele>490.79998779297</ele>
        <time>2021-02-11T12:46:32.000Z</time>
      </trkpt>
      <trkpt lat="44.03399" lon="5.93529">
        <ele>491.79998779297</ele>
        <time>2021-02-11T12:46:36.000Z</time>
      </trkpt>
      <trkpt lat="44.03403" lon="5.93531">
        <ele>492</ele>
        <time>2021-02-11T12:46:37.000Z</time>
      </trkpt>
      <trkpt lat="44.03421" lon="5.93542">
        <ele>493</ele>
        <time>2021-02-11T12:46:43.000Z</time>
      </trkpt>
      <trkpt lat="44.03424" lon="5.93543">
        <ele>493</ele>
        <time>2021-02-11T12:46:44.000Z</time>
      </trkpt>
      <trkpt lat="44.03439" lon="5.93544">
        <ele>493.20001220703</ele>
        <time>2021-02-11T12:46:48.000Z</time>
      </trkpt>
      <trkpt lat="44.03448" lon="5.93545">
        <ele>493.20001220703</ele>
        <time>2021-02-11T12:46:50.000Z</time>
      </trkpt>
      <trkpt lat="44.03461" lon="5.93552">
        <ele>493.39999389648</ele>
        <time>2021-02-11T12:46:53.000Z</time>
      </trkpt>
      <trkpt lat="44.03496" lon="5.93572">
        <ele>493.60000610352</ele>
        <time>2021-02-11T12:47:01.000Z</time>
      </trkpt>
      <trkpt lat="44.03529" lon="5.93582">
        <ele>493.79998779297</ele>
        <time>2021-02-11T12:47:09.000Z</time>
      </trkpt>
      <trkpt lat="44.03544" lon="5.93584">
        <ele>494</ele>
        <time>2021-02-11T12:47:13.000Z</time>
      </trkpt>
      <trkpt lat="44.03555" lon="5.93585">
        <ele>494.79998779297</ele>
        <time>2021-02-11T12:47:16.000Z</time>
      </trkpt>
      <trkpt lat="44.03559" lon="5.93586">
        <ele>495.20001220703</ele>
        <time>2021-02-11T12:47:17.000Z</time>
      </trkpt>
      <trkpt lat="44.0357" lon="5.93585">
        <ele>496.39999389648</ele>
        <time>2021-02-11T12:47:20.000Z</time>
      </trkpt>
      <trkpt lat="44.03579" lon="5.93583">
        <ele>496.79998779297</ele>
        <time>2021-02-11T12:47:22.000Z</time>
      </trkpt>
      <trkpt lat="44.03587" lon="5.9358">
        <ele>497.39999389648</ele>
        <time>2021-02-11T12:47:24.000Z</time>
      </trkpt>
      <trkpt lat="44.03601" lon="5.93571">
        <ele>498.79998779297</ele>
        <time>2021-02-11T12:47:28.000Z</time>
      </trkpt>
      <trkpt lat="44.03613" lon="5.93556">
        <ele>499.60000610352</ele>
        <time>2021-02-11T12:47:33.000Z</time>
      </trkpt>
      <trkpt lat="44.03615" lon="5.93553">
        <ele>499.79998779297</ele>
        <time>2021-02-11T12:47:34.000Z</time>
      </trkpt>
      <trkpt lat="44.0362" lon="5.93549">
        <ele>501.20001220703</ele>
        <time>2021-02-11T12:47:36.000Z</time>
      </trkpt>
      <trkpt lat="44.03625" lon="5.93543">
        <ele>502.60000610352</ele>
        <time>2021-02-11T12:47:38.000Z</time>
      </trkpt>
      <trkpt lat="44.03629" lon="5.93538">
        <ele>503.39999389648</ele>
        <time>2021-02-11T12:47:40.000Z</time>
      </trkpt>
      <trkpt lat="44.03631" lon="5.93536">
        <ele>504</ele>
        <time>2021-02-11T12:47:41.000Z</time>
      </trkpt>
      <trkpt lat="44.03639" lon="5.93532">
        <ele>505.20001220703</ele>
        <time>2021-02-11T12:47:44.000Z</time>
      </trkpt>
      <trkpt lat="44.03642" lon="5.93531">
        <ele>505.60000610352</ele>
        <time>2021-02-11T12:47:45.000Z</time>
      </trkpt>
      <trkpt lat="44.03644" lon="5.93531">
        <ele>505.79998779297</ele>
        <time>2021-02-11T12:47:46.000Z</time>
      </trkpt>
      <trkpt lat="44.03649" lon="5.93533">
        <ele>506.20001220703</ele>
        <time>2021-02-11T12:47:48.000Z</time>
      </trkpt>
      <trkpt lat="44.0365" lon="5.93536">
        <ele>506.39999389648</ele>
        <time>2021-02-11T12:47:49.000Z</time>
      </trkpt>
      <trkpt lat="44.03654" lon="5.93553">
        <ele>506.39999389648</ele>
        <time>2021-02-11T12:47:53.000Z</time>
      </trkpt>
      <trkpt lat="44.03654" lon="5.93559">
        <ele>506.39999389648</ele>
        <time>2021-02-11T12:47:54.000Z</time>
      </trkpt>
      <trkpt lat="44.03656" lon="5.93574">
        <ele>506.39999389648</ele>
        <time>2021-02-11T12:47:58.000Z</time>
      </trkpt>
      <trkpt lat="44.03658" lon="5.93576">
        <ele>506.60000610352</ele>
        <time>2021-02-11T12:47:59.000Z</time>
      </trkpt>
      <trkpt lat="44.03663" lon="5.93583">
        <ele>506.60000610352</ele>
        <time>2021-02-11T12:48:02.000Z</time>
      </trkpt>
      <trkpt lat="44.0367" lon="5.93592">
        <ele>507.39999389648</ele>
        <time>2021-02-11T12:48:05.000Z</time>
      </trkpt>
      <trkpt lat="44.03675" lon="5.93597">
        <ele>508.60000610352</ele>
        <time>2021-02-11T12:48:07.000Z</time>
      </trkpt>
      <trkpt lat="44.03679" lon="5.93602">
        <ele>509.60000610352</ele>
        <time>2021-02-11T12:48:09.000Z</time>
      </trkpt>
      <trkpt lat="44.03682" lon="5.93608">
        <ele>510.60000610352</ele>
        <time>2021-02-11T12:48:11.000Z</time>
      </trkpt>
      <trkpt lat="44.03687" lon="5.93616">
        <ele>511.60000610352</ele>
        <time>2021-02-11T12:48:14.000Z</time>
      </trkpt>
      <trkpt lat="44.0369" lon="5.93618">
        <ele>512</ele>
        <time>2021-02-11T12:48:15.000Z</time>
      </trkpt>
      <trkpt lat="44.03694" lon="5.93623">
        <ele>513</ele>
        <time>2021-02-11T12:48:17.000Z</time>
      </trkpt>
      <trkpt lat="44.03699" lon="5.93629">
        <ele>513.79998779297</ele>
        <time>2021-02-11T12:48:19.000Z</time>
      </trkpt>
      <trkpt lat="44.037" lon="5.93632">
        <ele>514.20001220703</ele>
        <time>2021-02-11T12:48:20.000Z</time>
      </trkpt>
      <trkpt lat="44.03707" lon="5.93639">
        <ele>515.40002441406</ele>
        <time>2021-02-11T12:48:23.000Z</time>
      </trkpt>
      <trkpt lat="44.0371" lon="5.93641">
        <ele>515.59997558594</ele>
        <time>2021-02-11T12:48:24.000Z</time>
      </trkpt>
      <trkpt lat="44.03718" lon="5.93646">
        <ele>516.40002441406</ele>
        <time>2021-02-11T12:48:27.000Z</time>
      </trkpt>
      <trkpt lat="44.03726" lon="5.93653">
        <ele>517.40002441406</ele>
        <time>2021-02-11T12:48:30.000Z</time>
      </trkpt>
      <trkpt lat="44.03729" lon="5.93656">
        <ele>517.59997558594</ele>
        <time>2021-02-11T12:48:31.000Z</time>
      </trkpt>
      <trkpt lat="44.03739" lon="5.93665">
        <ele>518.79998779297</ele>
        <time>2021-02-11T12:48:35.000Z</time>
      </trkpt>
      <trkpt lat="44.03745" lon="5.93668">
        <ele>519.40002441406</ele>
        <time>2021-02-11T12:48:37.000Z</time>
      </trkpt>
      <trkpt lat="44.03747" lon="5.9367">
        <ele>519.79998779297</ele>
        <time>2021-02-11T12:48:38.000Z</time>
      </trkpt>
      <trkpt lat="44.03757" lon="5.93675">
        <ele>520.59997558594</ele>
        <time>2021-02-11T12:48:42.000Z</time>
      </trkpt>
      <trkpt lat="44.03763" lon="5.93678">
        <ele>521</ele>
        <time>2021-02-11T12:48:44.000Z</time>
      </trkpt>
      <trkpt lat="44.03773" lon="5.93684">
        <ele>521.79998779297</ele>
        <time>2021-02-11T12:48:48.000Z</time>
      </trkpt>
      <trkpt lat="44.03786" lon="5.93689">
        <ele>522.20001220703</ele>
        <time>2021-02-11T12:48:52.000Z</time>
      </trkpt>
      <trkpt lat="44.03796" lon="5.93695">
        <ele>522.59997558594</ele>
        <time>2021-02-11T12:48:55.000Z</time>
      </trkpt>
      <trkpt lat="44.03816" lon="5.93708">
        <ele>523.40002441406</ele>
        <time>2021-02-11T12:49:01.000Z</time>
      </trkpt>
      <trkpt lat="44.03819" lon="5.93711">
        <ele>523.40002441406</ele>
        <time>2021-02-11T12:49:02.000Z</time>
      </trkpt>
      <trkpt lat="44.0384" lon="5.93724">
        <ele>523.40002441406</ele>
        <time>2021-02-11T12:49:08.000Z</time>
      </trkpt>
      <trkpt lat="44.03867" lon="5.93738">
        <ele>523.20001220703</ele>
        <time>2021-02-11T12:49:15.000Z</time>
      </trkpt>
      <trkpt lat="44.03896" lon="5.93753">
        <ele>522.79998779297</ele>
        <time>2021-02-11T12:49:21.000Z</time>
      </trkpt>
      <trkpt lat="44.03916" lon="5.93766">
        <ele>522.40002441406</ele>
        <time>2021-02-11T12:49:26.000Z</time>
      </trkpt>
      <trkpt lat="44.03924" lon="5.93773">
        <ele>522.20001220703</ele>
        <time>2021-02-11T12:49:28.000Z</time>
      </trkpt>
      <trkpt lat="44.0394" lon="5.93786">
        <ele>522</ele>
        <time>2021-02-11T12:49:32.000Z</time>
      </trkpt>
      <trkpt lat="44.03966" lon="5.93811">
        <ele>521.40002441406</ele>
        <time>2021-02-11T12:49:39.000Z</time>
      </trkpt>
      <trkpt lat="44.03976" lon="5.93824">
        <ele>521.40002441406</ele>
        <time>2021-02-11T12:49:43.000Z</time>
      </trkpt>
      <trkpt lat="44.03996" lon="5.93841">
        <ele>521.59997558594</ele>
        <time>2021-02-11T12:49:49.000Z</time>
      </trkpt>
      <trkpt lat="44.0401" lon="5.93849">
        <ele>521.59997558594</ele>
        <time>2021-02-11T12:49:54.000Z</time>
      </trkpt>
      <trkpt lat="44.04023" lon="5.93855">
        <ele>521.59997558594</ele>
        <time>2021-02-11T12:49:59.000Z</time>
      </trkpt>
      <trkpt lat="44.04035" lon="5.93848">
        <ele>521.59997558594</ele>
        <time>2021-02-11T12:50:05.000Z</time>
      </trkpt>
      <trkpt lat="44.04039" lon="5.93846">
        <ele>521.59997558594</ele>
        <time>2021-02-11T12:50:07.000Z</time>
      </trkpt>
      <trkpt lat="44.04043" lon="5.93841">
        <ele>522</ele>
        <time>2021-02-11T12:50:10.000Z</time>
      </trkpt>
      <trkpt lat="44.04045" lon="5.93837">
        <ele>523.59997558594</ele>
        <time>2021-02-11T12:50:13.000Z</time>
      </trkpt>
      <trkpt lat="44.04048" lon="5.93835">
        <ele>524.59997558594</ele>
        <time>2021-02-11T12:50:15.000Z</time>
      </trkpt>
      <trkpt lat="44.0405" lon="5.93835">
        <ele>526</ele>
        <time>2021-02-11T12:50:17.000Z</time>
      </trkpt>
      <trkpt lat="44.04051" lon="5.93834">
        <ele>527.20001220703</ele>
        <time>2021-02-11T12:50:19.000Z</time>
      </trkpt>
      <trkpt lat="44.04052" lon="5.93834">
        <ele>527.79998779297</ele>
        <time>2021-02-11T12:50:20.000Z</time>
      </trkpt>
      <trkpt lat="44.04052" lon="5.93834">
        <ele>528.59997558594</ele>
        <time>2021-02-11T12:50:21.000Z</time>
      </trkpt>
      <trkpt lat="44.04052" lon="5.93835">
        <ele>530</ele>
        <time>2021-02-11T12:50:24.000Z</time>
      </trkpt>
      <trkpt lat="44.04052" lon="5.93835">
        <ele>531.20001220703</ele>
        <time>2021-02-11T12:50:27.000Z</time>
      </trkpt>
      <trkpt lat="44.04051" lon="5.93836">
        <ele>531.40002441406</ele>
        <time>2021-02-11T12:50:30.000Z</time>
      </trkpt>
      <trkpt lat="44.04047" lon="5.93839">
        <ele>531.20001220703</ele>
        <time>2021-02-11T12:50:39.000Z</time>
      </trkpt>
      <trkpt lat="44.04046" lon="5.93842">
        <ele>531.20001220703</ele>
        <time>2021-02-11T12:50:40.000Z</time>
      </trkpt>
      <trkpt lat="44.04039" lon="5.9385">
        <ele>531</ele>
        <time>2021-02-11T12:50:43.000Z</time>
      </trkpt>
      <trkpt lat="44.04031" lon="5.93856">
        <ele>530.79998779297</ele>
        <time>2021-02-11T12:50:45.000Z</time>
      </trkpt>
      <trkpt lat="44.04023" lon="5.9386">
        <ele>530.40002441406</ele>
        <time>2021-02-11T12:50:47.000Z</time>
      </trkpt>
      <trkpt lat="44.04022" lon="5.93861">
        <ele>529.59997558594</ele>
        <time>2021-02-11T12:50:48.000Z</time>
      </trkpt>
      <trkpt lat="44.04022" lon="5.93866">
        <ele>527.79998779297</ele>
        <time>2021-02-11T12:50:50.000Z</time>
      </trkpt>
      <trkpt lat="44.04027" lon="5.93868">
        <ele>525.79998779297</ele>
        <time>2021-02-11T12:50:52.000Z</time>
      </trkpt>
      <trkpt lat="44.0403" lon="5.9387">
        <ele>524.79998779297</ele>
        <time>2021-02-11T12:50:53.000Z</time>
      </trkpt>
      <trkpt lat="44.04033" lon="5.93871">
        <ele>523.59997558594</ele>
        <time>2021-02-11T12:50:54.000Z</time>
      </trkpt>
      <trkpt lat="44.0404" lon="5.93876">
        <ele>522.20001220703</ele>
        <time>2021-02-11T12:50:56.000Z</time>
      </trkpt>
      <trkpt lat="44.04049" lon="5.93884">
        <ele>521</ele>
        <time>2021-02-11T12:50:59.000Z</time>
      </trkpt>
      <trkpt lat="44.04052" lon="5.93886">
        <ele>520.79998779297</ele>
        <time>2021-02-11T12:51:00.000Z</time>
      </trkpt>
      <trkpt lat="44.04073" lon="5.93903">
        <ele>520</ele>
        <time>2021-02-11T12:51:08.000Z</time>
      </trkpt>
      <trkpt lat="44.04084" lon="5.9391">
        <ele>520</ele>
        <time>2021-02-11T12:51:12.000Z</time>
      </trkpt>
      <trkpt lat="44.04085" lon="5.93912">
        <ele>519.79998779297</ele>
        <time>2021-02-11T12:51:13.000Z</time>
      </trkpt>
      <trkpt lat="44.0409" lon="5.93912">
        <ele>519.59997558594</ele>
        <time>2021-02-11T12:51:16.000Z</time>
      </trkpt>
      <trkpt lat="44.04094" lon="5.93912">
        <ele>519.40002441406</ele>
        <time>2021-02-11T12:51:18.000Z</time>
      </trkpt>
      <trkpt lat="44.04113" lon="5.93913">
        <ele>519.59997558594</ele>
        <time>2021-02-11T12:51:26.000Z</time>
      </trkpt>
      <trkpt lat="44.04124" lon="5.9392">
        <ele>521.20001220703</ele>
        <time>2021-02-11T12:51:32.000Z</time>
      </trkpt>
      <trkpt lat="44.04139" lon="5.93924">
        <ele>522.40002441406</ele>
        <time>2021-02-11T12:51:37.000Z</time>
      </trkpt>
      <trkpt lat="44.04141" lon="5.93926">
        <ele>522.79998779297</ele>
        <time>2021-02-11T12:51:38.000Z</time>
      </trkpt>
      <trkpt lat="44.04146" lon="5.93929">
        <ele>523.59997558594</ele>
        <time>2021-02-11T12:51:40.000Z</time>
      </trkpt>
      <trkpt lat="44.0415" lon="5.93931">
        <ele>524.40002441406</ele>
        <time>2021-02-11T12:51:42.000Z</time>
      </trkpt>
      <trkpt lat="44.04152" lon="5.93932">
        <ele>524.79998779297</ele>
        <time>2021-02-11T12:51:43.000Z</time>
      </trkpt>
      <trkpt lat="44.04161" lon="5.93937">
        <ele>525.40002441406</ele>
        <time>2021-02-11T12:51:47.000Z</time>
      </trkpt>
      <trkpt lat="44.04166" lon="5.93938">
        <ele>526</ele>
        <time>2021-02-11T12:51:49.000Z</time>
      </trkpt>
      <trkpt lat="44.04173" lon="5.9394">
        <ele>527.40002441406</ele>
        <time>2021-02-11T12:51:52.000Z</time>
      </trkpt>
      <trkpt lat="44.04175" lon="5.9394">
        <ele>528</ele>
        <time>2021-02-11T12:51:53.000Z</time>
      </trkpt>
      <trkpt lat="44.04179" lon="5.93941">
        <ele>528.59997558594</ele>
        <time>2021-02-11T12:51:55.000Z</time>
      </trkpt>
      <trkpt lat="44.04183" lon="5.93942">
        <ele>529.59997558594</ele>
        <time>2021-02-11T12:51:57.000Z</time>
      </trkpt>
      <trkpt lat="44.04186" lon="5.93943">
        <ele>530</ele>
        <time>2021-02-11T12:51:58.000Z</time>
      </trkpt>
      <trkpt lat="44.04192" lon="5.93946">
        <ele>531.40002441406</ele>
        <time>2021-02-11T12:52:01.000Z</time>
      </trkpt>
      <trkpt lat="44.04195" lon="5.93948">
        <ele>531.79998779297</ele>
        <time>2021-02-11T12:52:02.000Z</time>
      </trkpt>
      <trkpt lat="44.04197" lon="5.9395">
        <ele>532.40002441406</ele>
        <time>2021-02-11T12:52:03.000Z</time>
      </trkpt>
      <trkpt lat="44.04199" lon="5.93953">
        <ele>532.59997558594</ele>
        <time>2021-02-11T12:52:04.000Z</time>
      </trkpt>
      <trkpt lat="44.04203" lon="5.93957">
        <ele>533.20001220703</ele>
        <time>2021-02-11T12:52:06.000Z</time>
      </trkpt>
      <trkpt lat="44.04208" lon="5.93962">
        <ele>534</ele>
        <time>2021-02-11T12:52:08.000Z</time>
      </trkpt>
      <trkpt lat="44.0421" lon="5.93964">
        <ele>534.20001220703</ele>
        <time>2021-02-11T12:52:09.000Z</time>
      </trkpt>
      <trkpt lat="44.04216" lon="5.93973">
        <ele>534.79998779297</ele>
        <time>2021-02-11T12:52:12.000Z</time>
      </trkpt>
      <trkpt lat="44.0422" lon="5.93981">
        <ele>535.20001220703</ele>
        <time>2021-02-11T12:52:14.000Z</time>
      </trkpt>
      <trkpt lat="44.04229" lon="5.93992">
        <ele>535.20001220703</ele>
        <time>2021-02-11T12:52:17.000Z</time>
      </trkpt>
      <trkpt lat="44.04239" lon="5.94006">
        <ele>535.59997558594</ele>
        <time>2021-02-11T12:52:21.000Z</time>
      </trkpt>
      <trkpt lat="44.04251" lon="5.94019">
        <ele>535.59997558594</ele>
        <time>2021-02-11T12:52:26.000Z</time>
      </trkpt>
      <trkpt lat="44.04266" lon="5.94032">
        <ele>535.59997558594</ele>
        <time>2021-02-11T12:52:31.000Z</time>
      </trkpt>
      <trkpt lat="44.04281" lon="5.94052">
        <ele>536.20001220703</ele>
        <time>2021-02-11T12:52:36.000Z</time>
      </trkpt>
      <trkpt lat="44.0429" lon="5.94069">
        <ele>537.20001220703</ele>
        <time>2021-02-11T12:52:40.000Z</time>
      </trkpt>
      <trkpt lat="44.04298" lon="5.94082">
        <ele>537.40002441406</ele>
        <time>2021-02-11T12:52:43.000Z</time>
      </trkpt>
      <trkpt lat="44.04301" lon="5.94086">
        <ele>537.40002441406</ele>
        <time>2021-02-11T12:52:44.000Z</time>
      </trkpt>
      <trkpt lat="44.0431" lon="5.94096">
        <ele>537.40002441406</ele>
        <time>2021-02-11T12:52:47.000Z</time>
      </trkpt>
      <trkpt lat="44.0432" lon="5.94109">
        <ele>537.40002441406</ele>
        <time>2021-02-11T12:52:50.000Z</time>
      </trkpt>
      <trkpt lat="44.04324" lon="5.94113">
        <ele>537.40002441406</ele>
        <time>2021-02-11T12:52:51.000Z</time>
      </trkpt>
      <trkpt lat="44.04339" lon="5.94121">
        <ele>537.20001220703</ele>
        <time>2021-02-11T12:52:55.000Z</time>
      </trkpt>
      <trkpt lat="44.04342" lon="5.94123">
        <ele>537.20001220703</ele>
        <time>2021-02-11T12:52:56.000Z</time>
      </trkpt>
      <trkpt lat="44.04351" lon="5.94132">
        <ele>537</ele>
        <time>2021-02-11T12:52:59.000Z</time>
      </trkpt>
      <trkpt lat="44.04358" lon="5.94136">
        <ele>537</ele>
        <time>2021-02-11T12:53:01.000Z</time>
      </trkpt>
      <trkpt lat="44.04363" lon="5.9414">
        <ele>537</ele>
        <time>2021-02-11T12:53:03.000Z</time>
      </trkpt>
      <trkpt lat="44.04372" lon="5.94146">
        <ele>537</ele>
        <time>2021-02-11T12:53:07.000Z</time>
      </trkpt>
      <trkpt lat="44.0438" lon="5.9415">
        <ele>537.20001220703</ele>
        <time>2021-02-11T12:53:10.000Z</time>
      </trkpt>
      <trkpt lat="44.04383" lon="5.94151">
        <ele>537.40002441406</ele>
        <time>2021-02-11T12:53:11.000Z</time>
      </trkpt>
      <trkpt lat="44.04386" lon="5.94152">
        <ele>537.79998779297</ele>
        <time>2021-02-11T12:53:12.000Z</time>
      </trkpt>
      <trkpt lat="44.04392" lon="5.94151">
        <ele>538.40002441406</ele>
        <time>2021-02-11T12:53:14.000Z</time>
      </trkpt>
      <trkpt lat="44.04396" lon="5.94149">
        <ele>538.79998779297</ele>
        <time>2021-02-11T12:53:15.000Z</time>
      </trkpt>
      <trkpt lat="44.04399" lon="5.94145">
        <ele>539.20001220703</ele>
        <time>2021-02-11T12:53:17.000Z</time>
      </trkpt>
      <trkpt lat="44.04403" lon="5.94143">
        <ele>539.20001220703</ele>
        <time>2021-02-11T12:53:19.000Z</time>
      </trkpt>
      <trkpt lat="44.04415" lon="5.94133">
        <ele>539.20001220703</ele>
        <time>2021-02-11T12:53:23.000Z</time>
      </trkpt>
      <trkpt lat="44.0442" lon="5.94118">
        <ele>539</ele>
        <time>2021-02-11T12:53:27.000Z</time>
      </trkpt>
      <trkpt lat="44.04422" lon="5.94096">
        <ele>537.59997558594</ele>
        <time>2021-02-11T12:53:31.000Z</time>
      </trkpt>
      <trkpt lat="44.04424" lon="5.94086">
        <ele>537.20001220703</ele>
        <time>2021-02-11T12:53:33.000Z</time>
      </trkpt>
      <trkpt lat="44.04423" lon="5.94073">
        <ele>536.79998779297</ele>
        <time>2021-02-11T12:53:36.000Z</time>
      </trkpt>
      <trkpt lat="44.04424" lon="5.94048">
        <ele>537</ele>
        <time>2021-02-11T12:53:42.000Z</time>
      </trkpt>
      <trkpt lat="44.04425" lon="5.94038">
        <ele>537</ele>
        <time>2021-02-11T12:53:47.000Z</time>
      </trkpt>
      <trkpt lat="44.04425" lon="5.94029">
        <ele>537</ele>
        <time>2021-02-11T12:53:52.000Z</time>
      </trkpt>
      <trkpt lat="44.04423" lon="5.94017">
        <ele>537</ele>
        <time>2021-02-11T12:53:55.000Z</time>
      </trkpt>
      <trkpt lat="44.04423" lon="5.94013">
        <ele>537</ele>
        <time>2021-02-11T12:53:56.000Z</time>
      </trkpt>
      <trkpt lat="44.04421" lon="5.9399">
        <ele>537</ele>
        <time>2021-02-11T12:54:01.000Z</time>
      </trkpt>
      <trkpt lat="44.0442" lon="5.93974">
        <ele>536.79998779297</ele>
        <time>2021-02-11T12:54:04.000Z</time>
      </trkpt>
      <trkpt lat="44.0442" lon="5.93968">
        <ele>536.59997558594</ele>
        <time>2021-02-11T12:54:05.000Z</time>
      </trkpt>
      <trkpt lat="44.0442" lon="5.93962">
        <ele>536.40002441406</ele>
        <time>2021-02-11T12:54:06.000Z</time>
      </trkpt>
      <trkpt lat="44.04422" lon="5.93948">
        <ele>535.59997558594</ele>
        <time>2021-02-11T12:54:09.000Z</time>
      </trkpt>
      <trkpt lat="44.04422" lon="5.93939">
        <ele>535.40002441406</ele>
        <time>2021-02-11T12:54:11.000Z</time>
      </trkpt>
      <trkpt lat="44.04422" lon="5.93935">
        <ele>535.40002441406</ele>
        <time>2021-02-11T12:54:12.000Z</time>
      </trkpt>
      <trkpt lat="44.04423" lon="5.93927">
        <ele>535.40002441406</ele>
        <time>2021-02-11T12:54:14.000Z</time>
      </trkpt>
      <trkpt lat="44.04424" lon="5.93917">
        <ele>535.40002441406</ele>
        <time>2021-02-11T12:54:16.000Z</time>
      </trkpt>
      <trkpt lat="44.04428" lon="5.93898">
        <ele>535</ele>
        <time>2021-02-11T12:54:20.000Z</time>
      </trkpt>
      <trkpt lat="44.04426" lon="5.93871">
        <ele>534.79998779297</ele>
        <time>2021-02-11T12:54:25.000Z</time>
      </trkpt>
      <trkpt lat="44.04419" lon="5.93843">
        <ele>535</ele>
        <time>2021-02-11T12:54:31.000Z</time>
      </trkpt>
      <trkpt lat="44.04415" lon="5.93825">
        <ele>535.20001220703</ele>
        <time>2021-02-11T12:54:35.000Z</time>
      </trkpt>
      <trkpt lat="44.04408" lon="5.93803">
        <ele>535.59997558594</ele>
        <time>2021-02-11T12:54:40.000Z</time>
      </trkpt>
      <trkpt lat="44.04406" lon="5.93795">
        <ele>536.40002441406</ele>
        <time>2021-02-11T12:54:42.000Z</time>
      </trkpt>
      <trkpt lat="44.04405" lon="5.93785">
        <ele>536.79998779297</ele>
        <time>2021-02-11T12:54:44.000Z</time>
      </trkpt>
      <trkpt lat="44.04401" lon="5.9377">
        <ele>537.40002441406</ele>
        <time>2021-02-11T12:54:47.000Z</time>
      </trkpt>
      <trkpt lat="44.044" lon="5.93762">
        <ele>537.59997558594</ele>
        <time>2021-02-11T12:54:49.000Z</time>
      </trkpt>
      <trkpt lat="44.04397" lon="5.9374">
        <ele>538</ele>
        <time>2021-02-11T12:54:54.000Z</time>
      </trkpt>
      <trkpt lat="44.04389" lon="5.93721">
        <ele>538.59997558594</ele>
        <time>2021-02-11T12:54:59.000Z</time>
      </trkpt>
      <trkpt lat="44.04386" lon="5.93708">
        <ele>539.20001220703</ele>
        <time>2021-02-11T12:55:02.000Z</time>
      </trkpt>
      <trkpt lat="44.04386" lon="5.93701">
        <ele>539.40002441406</ele>
        <time>2021-02-11T12:55:03.000Z</time>
      </trkpt>
      <trkpt lat="44.04385" lon="5.93695">
        <ele>539.59997558594</ele>
        <time>2021-02-11T12:55:04.000Z</time>
      </trkpt>
      <trkpt lat="44.04384" lon="5.9369">
        <ele>539.79998779297</ele>
        <time>2021-02-11T12:55:05.000Z</time>
      </trkpt>
      <trkpt lat="44.04381" lon="5.93682">
        <ele>540.20001220703</ele>
        <time>2021-02-11T12:55:07.000Z</time>
      </trkpt>
      <trkpt lat="44.04381" lon="5.93678">
        <ele>540.40002441406</ele>
        <time>2021-02-11T12:55:08.000Z</time>
      </trkpt>
      <trkpt lat="44.04381" lon="5.93666">
        <ele>540.40002441406</ele>
        <time>2021-02-11T12:55:10.000Z</time>
      </trkpt>
      <trkpt lat="44.04375" lon="5.93652">
        <ele>540.59997558594</ele>
        <time>2021-02-11T12:55:13.000Z</time>
      </trkpt>
      <trkpt lat="44.04373" lon="5.93647">
        <ele>540.59997558594</ele>
        <time>2021-02-11T12:55:14.000Z</time>
      </trkpt>
      <trkpt lat="44.04369" lon="5.9363">
        <ele>540.59997558594</ele>
        <time>2021-02-11T12:55:17.000Z</time>
      </trkpt>
      <trkpt lat="44.04358" lon="5.93607">
        <ele>540.59997558594</ele>
        <time>2021-02-11T12:55:23.000Z</time>
      </trkpt>
      <trkpt lat="44.04352" lon="5.9359">
        <ele>541.79998779297</ele>
        <time>2021-02-11T12:55:28.000Z</time>
      </trkpt>
      <trkpt lat="44.04352" lon="5.93587">
        <ele>542</ele>
        <time>2021-02-11T12:55:29.000Z</time>
      </trkpt>
      <trkpt lat="44.04349" lon="5.93578">
        <ele>543</ele>
        <time>2021-02-11T12:55:32.000Z</time>
      </trkpt>
      <trkpt lat="44.04347" lon="5.93567">
        <ele>543.79998779297</ele>
        <time>2021-02-11T12:55:35.000Z</time>
      </trkpt>
      <trkpt lat="44.04347" lon="5.93564">
        <ele>544.20001220703</ele>
        <time>2021-02-11T12:55:36.000Z</time>
      </trkpt>
      <trkpt lat="44.04347" lon="5.93554">
        <ele>545.59997558594</ele>
        <time>2021-02-11T12:55:39.000Z</time>
      </trkpt>
      <trkpt lat="44.04347" lon="5.93551">
        <ele>545.79998779297</ele>
        <time>2021-02-11T12:55:40.000Z</time>
      </trkpt>
      <trkpt lat="44.04344" lon="5.93546">
        <ele>546.20001220703</ele>
        <time>2021-02-11T12:55:42.000Z</time>
      </trkpt>
      <trkpt lat="44.04341" lon="5.9354">
        <ele>546.59997558594</ele>
        <time>2021-02-11T12:55:44.000Z</time>
      </trkpt>
      <trkpt lat="44.04339" lon="5.93534">
        <ele>547</ele>
        <time>2021-02-11T12:55:46.000Z</time>
      </trkpt>
      <trkpt lat="44.04338" lon="5.93529">
        <ele>547.79998779297</ele>
        <time>2021-02-11T12:55:48.000Z</time>
      </trkpt>
      <trkpt lat="44.04337" lon="5.93526">
        <ele>548.20001220703</ele>
        <time>2021-02-11T12:55:49.000Z</time>
      </trkpt>
      <trkpt lat="44.04336" lon="5.9352">
        <ele>548.79998779297</ele>
        <time>2021-02-11T12:55:51.000Z</time>
      </trkpt>
      <trkpt lat="44.04335" lon="5.93514">
        <ele>549.40002441406</ele>
        <time>2021-02-11T12:55:53.000Z</time>
      </trkpt>
      <trkpt lat="44.04334" lon="5.93511">
        <ele>549.59997558594</ele>
        <time>2021-02-11T12:55:54.000Z</time>
      </trkpt>
      <trkpt lat="44.04334" lon="5.93508">
        <ele>549.79998779297</ele>
        <time>2021-02-11T12:55:55.000Z</time>
      </trkpt>
      <trkpt lat="44.04333" lon="5.93505">
        <ele>550.20001220703</ele>
        <time>2021-02-11T12:55:56.000Z</time>
      </trkpt>
      <trkpt lat="44.04329" lon="5.93501">
        <ele>550.59997558594</ele>
        <time>2021-02-11T12:55:58.000Z</time>
      </trkpt>
      <trkpt lat="44.04326" lon="5.93495">
        <ele>551</ele>
        <time>2021-02-11T12:56:00.000Z</time>
      </trkpt>
      <trkpt lat="44.04321" lon="5.93489">
        <ele>551.79998779297</ele>
        <time>2021-02-11T12:56:03.000Z</time>
      </trkpt>
      <trkpt lat="44.04319" lon="5.93489">
        <ele>552.20001220703</ele>
        <time>2021-02-11T12:56:04.000Z</time>
      </trkpt>
      <trkpt lat="44.04312" lon="5.93497">
        <ele>553.40002441406</ele>
        <time>2021-02-11T12:56:08.000Z</time>
      </trkpt>
      <trkpt lat="44.0431" lon="5.93498">
        <ele>553.79998779297</ele>
        <time>2021-02-11T12:56:09.000Z</time>
      </trkpt>
      <trkpt lat="44.04307" lon="5.93494">
        <ele>554.79998779297</ele>
        <time>2021-02-11T12:56:12.000Z</time>
      </trkpt>
      <trkpt lat="44.04307" lon="5.93492">
        <ele>555</ele>
        <time>2021-02-11T12:56:13.000Z</time>
      </trkpt>
      <trkpt lat="44.04304" lon="5.93489">
        <ele>555.59997558594</ele>
        <time>2021-02-11T12:56:17.000Z</time>
      </trkpt>
      <trkpt lat="44.04303" lon="5.9349">
        <ele>555.79998779297</ele>
        <time>2021-02-11T12:56:18.000Z</time>
      </trkpt>
      <trkpt lat="44.04302" lon="5.93492">
        <ele>556.20001220703</ele>
        <time>2021-02-11T12:56:19.000Z</time>
      </trkpt>
      <trkpt lat="44.04299" lon="5.93498">
        <ele>556.79998779297</ele>
        <time>2021-02-11T12:56:22.000Z</time>
      </trkpt>
      <trkpt lat="44.04297" lon="5.935">
        <ele>557</ele>
        <time>2021-02-11T12:56:23.000Z</time>
      </trkpt>
      <trkpt lat="44.04296" lon="5.93501">
        <ele>557.40002441406</ele>
        <time>2021-02-11T12:56:24.000Z</time>
      </trkpt>
      <trkpt lat="44.04292" lon="5.93501">
        <ele>558</ele>
        <time>2021-02-11T12:56:26.000Z</time>
      </trkpt>
      <trkpt lat="44.0429" lon="5.93498">
        <ele>558.20001220703</ele>
        <time>2021-02-11T12:56:28.000Z</time>
      </trkpt>
      <trkpt lat="44.0429" lon="5.9349">
        <ele>558.79998779297</ele>
        <time>2021-02-11T12:56:31.000Z</time>
      </trkpt>
      <trkpt lat="44.0429" lon="5.93487">
        <ele>558.59997558594</ele>
        <time>2021-02-11T12:56:32.000Z</time>
      </trkpt>
      <trkpt lat="44.04291" lon="5.93484">
        <ele>559</ele>
        <time>2021-02-11T12:56:33.000Z</time>
      </trkpt>
      <trkpt lat="44.04292" lon="5.93478">
        <ele>560.40002441406</ele>
        <time>2021-02-11T12:56:35.000Z</time>
      </trkpt>
      <trkpt lat="44.04292" lon="5.93464">
        <ele>561.59997558594</ele>
        <time>2021-02-11T12:56:39.000Z</time>
      </trkpt>
      <trkpt lat="44.04289" lon="5.93454">
        <ele>562.40002441406</ele>
        <time>2021-02-11T12:56:43.000Z</time>
      </trkpt>
      <trkpt lat="44.04287" lon="5.93452">
        <ele>562.59997558594</ele>
        <time>2021-02-11T12:56:44.000Z</time>
      </trkpt>
      <trkpt lat="44.0428" lon="5.93452">
        <ele>563.40002441406</ele>
        <time>2021-02-11T12:56:47.000Z</time>
      </trkpt>
      <trkpt lat="44.04278" lon="5.93453">
        <ele>563.59997558594</ele>
        <time>2021-02-11T12:56:48.000Z</time>
      </trkpt>
      <trkpt lat="44.04276" lon="5.93454">
        <ele>563.79998779297</ele>
        <time>2021-02-11T12:56:49.000Z</time>
      </trkpt>
      <trkpt lat="44.04266" lon="5.9345">
        <ele>565</ele>
        <time>2021-02-11T12:56:52.000Z</time>
      </trkpt>
      <trkpt lat="44.04257" lon="5.93439">
        <ele>566.20001220703</ele>
        <time>2021-02-11T12:56:55.000Z</time>
      </trkpt>
      <trkpt lat="44.04251" lon="5.93429">
        <ele>567</ele>
        <time>2021-02-11T12:56:57.000Z</time>
      </trkpt>
      <trkpt lat="44.0424" lon="5.93409">
        <ele>567.20001220703</ele>
        <time>2021-02-11T12:57:01.000Z</time>
      </trkpt>
      <trkpt lat="44.04238" lon="5.93403">
        <ele>567.20001220703</ele>
        <time>2021-02-11T12:57:02.000Z</time>
      </trkpt>
      <trkpt lat="44.04234" lon="5.93381">
        <ele>567.20001220703</ele>
        <time>2021-02-11T12:57:06.000Z</time>
      </trkpt>
      <trkpt lat="44.04242" lon="5.93377">
        <ele>566.79998779297</ele>
        <time>2021-02-11T12:57:09.000Z</time>
      </trkpt>
      <trkpt lat="44.04247" lon="5.93376">
        <ele>566.59997558594</ele>
        <time>2021-02-11T12:57:11.000Z</time>
      </trkpt>
      <trkpt lat="44.04247" lon="5.93374">
        <ele>566.59997558594</ele>
        <time>2021-02-11T12:57:12.000Z</time>
      </trkpt>
      <trkpt lat="44.04246" lon="5.93364">
        <ele>566.20001220703</ele>
        <time>2021-02-11T12:57:15.000Z</time>
      </trkpt>
      <trkpt lat="44.04246" lon="5.9336">
        <ele>566.20001220703</ele>
        <time>2021-02-11T12:57:16.000Z</time>
      </trkpt>
      <trkpt lat="44.0425" lon="5.93346">
        <ele>566.20001220703</ele>
        <time>2021-02-11T12:57:20.000Z</time>
      </trkpt>
      <trkpt lat="44.04251" lon="5.93335">
        <ele>566.20001220703</ele>
        <time>2021-02-11T12:57:23.000Z</time>
      </trkpt>
      <trkpt lat="44.04251" lon="5.93332">
        <ele>566.20001220703</ele>
        <time>2021-02-11T12:57:24.000Z</time>
      </trkpt>
      <trkpt lat="44.0425" lon="5.93323">
        <ele>567.20001220703</ele>
        <time>2021-02-11T12:57:28.000Z</time>
      </trkpt>
      <trkpt lat="44.04251" lon="5.93321">
        <ele>567.59997558594</ele>
        <time>2021-02-11T12:57:29.000Z</time>
      </trkpt>
      <trkpt lat="44.04254" lon="5.93313">
        <ele>568.40002441406</ele>
        <time>2021-02-11T12:57:32.000Z</time>
      </trkpt>
      <trkpt lat="44.04257" lon="5.93316">
        <ele>568.59997558594</ele>
        <time>2021-02-11T12:57:35.000Z</time>
      </trkpt>
      <trkpt lat="44.04267" lon="5.9333">
        <ele>569</ele>
        <time>2021-02-11T12:57:39.000Z</time>
      </trkpt>
      <trkpt lat="44.04277" lon="5.93336">
        <ele>569.20001220703</ele>
        <time>2021-02-11T12:57:42.000Z</time>
      </trkpt>
      <trkpt lat="44.04282" lon="5.93337">
        <ele>569.40002441406</ele>
        <time>2021-02-11T12:57:44.000Z</time>
      </trkpt>
      <trkpt lat="44.04287" lon="5.93335">
        <ele>569.40002441406</ele>
        <time>2021-02-11T12:57:46.000Z</time>
      </trkpt>
      <trkpt lat="44.04289" lon="5.93335">
        <ele>569.40002441406</ele>
        <time>2021-02-11T12:57:47.000Z</time>
      </trkpt>
      <trkpt lat="44.04293" lon="5.93337">
        <ele>569.59997558594</ele>
        <time>2021-02-11T12:57:49.000Z</time>
      </trkpt>
      <trkpt lat="44.04295" lon="5.93338">
        <ele>569.59997558594</ele>
        <time>2021-02-11T12:57:50.000Z</time>
      </trkpt>
      <trkpt lat="44.04302" lon="5.93338">
        <ele>570</ele>
        <time>2021-02-11T12:57:53.000Z</time>
      </trkpt>
      <trkpt lat="44.04304" lon="5.9334">
        <ele>570.40002441406</ele>
        <time>2021-02-11T12:57:54.000Z</time>
      </trkpt>
      <trkpt lat="44.04312" lon="5.93344">
        <ele>571.79998779297</ele>
        <time>2021-02-11T12:57:57.000Z</time>
      </trkpt>
      <trkpt lat="44.04318" lon="5.93346">
        <ele>572.40002441406</ele>
        <time>2021-02-11T12:57:59.000Z</time>
      </trkpt>
      <trkpt lat="44.0432" lon="5.93347">
        <ele>572.79998779297</ele>
        <time>2021-02-11T12:58:00.000Z</time>
      </trkpt>
      <trkpt lat="44.04323" lon="5.93349">
        <ele>573.79998779297</ele>
        <time>2021-02-11T12:58:01.000Z</time>
      </trkpt>
      <trkpt lat="44.0433" lon="5.93357">
        <ele>574.59997558594</ele>
        <time>2021-02-11T12:58:04.000Z</time>
      </trkpt>
      <trkpt lat="44.04333" lon="5.9336">
        <ele>575</ele>
        <time>2021-02-11T12:58:05.000Z</time>
      </trkpt>
      <trkpt lat="44.04344" lon="5.93367">
        <ele>576.20001220703</ele>
        <time>2021-02-11T12:58:08.000Z</time>
      </trkpt>
      <trkpt lat="44.04347" lon="5.93368">
        <ele>576.40002441406</ele>
        <time>2021-02-11T12:58:09.000Z</time>
      </trkpt>
      <trkpt lat="44.04359" lon="5.93377">
        <ele>577</ele>
        <time>2021-02-11T12:58:14.000Z</time>
      </trkpt>
      <trkpt lat="44.04366" lon="5.9338">
        <ele>577.20001220703</ele>
        <time>2021-02-11T12:58:17.000Z</time>
      </trkpt>
      <trkpt lat="44.04376" lon="5.93382">
        <ele>577.59997558594</ele>
        <time>2021-02-11T12:58:20.000Z</time>
      </trkpt>
      <trkpt lat="44.04383" lon="5.9338">
        <ele>578.20001220703</ele>
        <time>2021-02-11T12:58:22.000Z</time>
      </trkpt>
      <trkpt lat="44.04394" lon="5.93379">
        <ele>579.20001220703</ele>
        <time>2021-02-11T12:58:25.000Z</time>
      </trkpt>
      <trkpt lat="44.04398" lon="5.93378">
        <ele>579.59997558594</ele>
        <time>2021-02-11T12:58:26.000Z</time>
      </trkpt>
      <trkpt lat="44.04408" lon="5.93371">
        <ele>580</ele>
        <time>2021-02-11T12:58:28.000Z</time>
      </trkpt>
      <trkpt lat="44.04412" lon="5.93366">
        <ele>580.20001220703</ele>
        <time>2021-02-11T12:58:29.000Z</time>
      </trkpt>
      <trkpt lat="44.04416" lon="5.93362">
        <ele>580.40002441406</ele>
        <time>2021-02-11T12:58:30.000Z</time>
      </trkpt>
      <trkpt lat="44.04425" lon="5.93354">
        <ele>580.40002441406</ele>
        <time>2021-02-11T12:58:32.000Z</time>
      </trkpt>
      <trkpt lat="44.04429" lon="5.9335">
        <ele>580.59997558594</ele>
        <time>2021-02-11T12:58:33.000Z</time>
      </trkpt>
      <trkpt lat="44.04442" lon="5.93342">
        <ele>580.59997558594</ele>
        <time>2021-02-11T12:58:37.000Z</time>
      </trkpt>
      <trkpt lat="44.0445" lon="5.93328">
        <ele>580.40002441406</ele>
        <time>2021-02-11T12:58:41.000Z</time>
      </trkpt>
      <trkpt lat="44.04448" lon="5.93324">
        <ele>580.20001220703</ele>
        <time>2021-02-11T12:58:44.000Z</time>
      </trkpt>
      <trkpt lat="44.04447" lon="5.93315">
        <ele>580.20001220703</ele>
        <time>2021-02-11T12:58:47.000Z</time>
      </trkpt>
      <trkpt lat="44.04453" lon="5.93299">
        <ele>580.20001220703</ele>
        <time>2021-02-11T12:58:51.000Z</time>
      </trkpt>
      <trkpt lat="44.04455" lon="5.93292">
        <ele>580.20001220703</ele>
        <time>2021-02-11T12:58:53.000Z</time>
      </trkpt>
      <trkpt lat="44.04456" lon="5.93279">
        <ele>580.59997558594</ele>
        <time>2021-02-11T12:58:56.000Z</time>
      </trkpt>
      <trkpt lat="44.04453" lon="5.93264">
        <ele>581</ele>
        <time>2021-02-11T12:59:01.000Z</time>
      </trkpt>
      <trkpt lat="44.04454" lon="5.93247">
        <ele>581.40002441406</ele>
        <time>2021-02-11T12:59:05.000Z</time>
      </trkpt>
      <trkpt lat="44.04455" lon="5.93243">
        <ele>581.59997558594</ele>
        <time>2021-02-11T12:59:06.000Z</time>
      </trkpt>
      <trkpt lat="44.04459" lon="5.93223">
        <ele>582</ele>
        <time>2021-02-11T12:59:11.000Z</time>
      </trkpt>
      <trkpt lat="44.04468" lon="5.93199">
        <ele>582</ele>
        <time>2021-02-11T12:59:16.000Z</time>
      </trkpt>
      <trkpt lat="44.04472" lon="5.93171">
        <ele>581.79998779297</ele>
        <time>2021-02-11T12:59:21.000Z</time>
      </trkpt>
      <trkpt lat="44.04473" lon="5.93165">
        <ele>581.79998779297</ele>
        <time>2021-02-11T12:59:22.000Z</time>
      </trkpt>
      <trkpt lat="44.04475" lon="5.93147">
        <ele>581.59997558594</ele>
        <time>2021-02-11T12:59:25.000Z</time>
      </trkpt>
      <trkpt lat="44.04475" lon="5.93142">
        <ele>581.40002441406</ele>
        <time>2021-02-11T12:59:26.000Z</time>
      </trkpt>
      <trkpt lat="44.04475" lon="5.93134">
        <ele>581.40002441406</ele>
        <time>2021-02-11T12:59:28.000Z</time>
      </trkpt>
      <trkpt lat="44.04477" lon="5.93132">
        <ele>581.40002441406</ele>
        <time>2021-02-11T12:59:29.000Z</time>
      </trkpt>
      <trkpt lat="44.04484" lon="5.93133">
        <ele>581.20001220703</ele>
        <time>2021-02-11T12:59:32.000Z</time>
      </trkpt>
      <trkpt lat="44.04487" lon="5.93143">
        <ele>581.20001220703</ele>
        <time>2021-02-11T12:59:34.000Z</time>
      </trkpt>
      <trkpt lat="44.04491" lon="5.93155">
        <ele>581</ele>
        <time>2021-02-11T12:59:36.000Z</time>
      </trkpt>
      <trkpt lat="44.04492" lon="5.93163">
        <ele>581</ele>
        <time>2021-02-11T12:59:37.000Z</time>
      </trkpt>
      <trkpt lat="44.04496" lon="5.93182">
        <ele>580.40002441406</ele>
        <time>2021-02-11T12:59:40.000Z</time>
      </trkpt>
      <trkpt lat="44.04495" lon="5.93194">
        <ele>579.20001220703</ele>
        <time>2021-02-11T12:59:42.000Z</time>
      </trkpt>
      <trkpt lat="44.04493" lon="5.93206">
        <ele>577.79998779297</ele>
        <time>2021-02-11T12:59:44.000Z</time>
      </trkpt>
      <trkpt lat="44.04491" lon="5.93212">
        <ele>577.20001220703</ele>
        <time>2021-02-11T12:59:45.000Z</time>
      </trkpt>
      <trkpt lat="44.0449" lon="5.93216">
        <ele>576.59997558594</ele>
        <time>2021-02-11T12:59:46.000Z</time>
      </trkpt>
      <trkpt lat="44.04491" lon="5.93227">
        <ele>575.20001220703</ele>
        <time>2021-02-11T12:59:48.000Z</time>
      </trkpt>
      <trkpt lat="44.04492" lon="5.93232">
        <ele>575</ele>
        <time>2021-02-11T12:59:49.000Z</time>
      </trkpt>
      <trkpt lat="44.04495" lon="5.93238">
        <ele>574.59997558594</ele>
        <time>2021-02-11T12:59:51.000Z</time>
      </trkpt>
      <trkpt lat="44.04496" lon="5.93237">
        <ele>574.40002441406</ele>
        <time>2021-02-11T12:59:52.000Z</time>
      </trkpt>
      <trkpt lat="44.04502" lon="5.93227">
        <ele>574</ele>
        <time>2021-02-11T12:59:55.000Z</time>
      </trkpt>
      <trkpt lat="44.04507" lon="5.93218">
        <ele>573.59997558594</ele>
        <time>2021-02-11T12:59:57.000Z</time>
      </trkpt>
      <trkpt lat="44.04509" lon="5.93213">
        <ele>573.20001220703</ele>
        <time>2021-02-11T12:59:58.000Z</time>
      </trkpt>
      <trkpt lat="44.04512" lon="5.93206">
        <ele>572.79998779297</ele>
        <time>2021-02-11T12:59:59.000Z</time>
      </trkpt>
      <trkpt lat="44.04514" lon="5.932">
        <ele>572.20001220703</ele>
        <time>2021-02-11T13:00:00.000Z</time>
      </trkpt>
      <trkpt lat="44.04517" lon="5.93196">
        <ele>571.79998779297</ele>
        <time>2021-02-11T13:00:01.000Z</time>
      </trkpt>
      <trkpt lat="44.04522" lon="5.93185">
        <ele>571</ele>
        <time>2021-02-11T13:00:03.000Z</time>
      </trkpt>
      <trkpt lat="44.04524" lon="5.93179">
        <ele>570.59997558594</ele>
        <time>2021-02-11T13:00:04.000Z</time>
      </trkpt>
      <trkpt lat="44.04526" lon="5.93173">
        <ele>569.79998779297</ele>
        <time>2021-02-11T13:00:05.000Z</time>
      </trkpt>
      <trkpt lat="44.04528" lon="5.93167">
        <ele>569.40002441406</ele>
        <time>2021-02-11T13:00:06.000Z</time>
      </trkpt>
      <trkpt lat="44.04531" lon="5.93164">
        <ele>568.79998779297</ele>
        <time>2021-02-11T13:00:07.000Z</time>
      </trkpt>
      <trkpt lat="44.04534" lon="5.93162">
        <ele>568.40002441406</ele>
        <time>2021-02-11T13:00:08.000Z</time>
      </trkpt>
      <trkpt lat="44.04538" lon="5.93159">
        <ele>567.79998779297</ele>
        <time>2021-02-11T13:00:09.000Z</time>
      </trkpt>
      <trkpt lat="44.0454" lon="5.93155">
        <ele>567.20001220703</ele>
        <time>2021-02-11T13:00:10.000Z</time>
      </trkpt>
      <trkpt lat="44.04542" lon="5.93152">
        <ele>566.20001220703</ele>
        <time>2021-02-11T13:00:11.000Z</time>
      </trkpt>
      <trkpt lat="44.04544" lon="5.93149">
        <ele>565.79998779297</ele>
        <time>2021-02-11T13:00:12.000Z</time>
      </trkpt>
      <trkpt lat="44.04546" lon="5.93147">
        <ele>565.40002441406</ele>
        <time>2021-02-11T13:00:13.000Z</time>
      </trkpt>
      <trkpt lat="44.04553" lon="5.93143">
        <ele>564.79998779297</ele>
        <time>2021-02-11T13:00:15.000Z</time>
      </trkpt>
      <trkpt lat="44.04561" lon="5.93135">
        <ele>564.20001220703</ele>
        <time>2021-02-11T13:00:17.000Z</time>
      </trkpt>
      <trkpt lat="44.04565" lon="5.93127">
        <ele>563.40002441406</ele>
        <time>2021-02-11T13:00:19.000Z</time>
      </trkpt>
      <trkpt lat="44.04573" lon="5.93116">
        <ele>562.40002441406</ele>
        <time>2021-02-11T13:00:23.000Z</time>
      </trkpt>
      <trkpt lat="44.04578" lon="5.93112">
        <ele>561.79998779297</ele>
        <time>2021-02-11T13:00:28.000Z</time>
      </trkpt>
      <trkpt lat="44.04579" lon="5.93112">
        <ele>561.20001220703</ele>
        <time>2021-02-11T13:00:33.000Z</time>
      </trkpt>
      <trkpt lat="44.04579" lon="5.93114">
        <ele>561.20001220703</ele>
        <time>2021-02-11T13:00:35.000Z</time>
      </trkpt>
      <trkpt lat="44.0458" lon="5.93115">
        <ele>560.59997558594</ele>
        <time>2021-02-11T13:00:42.000Z</time>
      </trkpt>
      <trkpt lat="44.04586" lon="5.93113">
        <ele>560.20001220703</ele>
        <time>2021-02-11T13:00:45.000Z</time>
      </trkpt>
      <trkpt lat="44.04588" lon="5.93109">
        <ele>560</ele>
        <time>2021-02-11T13:00:47.000Z</time>
      </trkpt>
      <trkpt lat="44.04588" lon="5.93103">
        <ele>559.79998779297</ele>
        <time>2021-02-11T13:00:49.000Z</time>
      </trkpt>
      <trkpt lat="44.04586" lon="5.93095">
        <ele>559.59997558594</ele>
        <time>2021-02-11T13:00:51.000Z</time>
      </trkpt>
      <trkpt lat="44.04581" lon="5.93075">
        <ele>559.20001220703</ele>
        <time>2021-02-11T13:00:55.000Z</time>
      </trkpt>
      <trkpt lat="44.04578" lon="5.93065">
        <ele>558.79998779297</ele>
        <time>2021-02-11T13:00:57.000Z</time>
      </trkpt>
      <trkpt lat="44.0458" lon="5.93056">
        <ele>558.79998779297</ele>
        <time>2021-02-11T13:00:59.000Z</time>
      </trkpt>
      <trkpt lat="44.04584" lon="5.93052">
        <ele>559</ele>
        <time>2021-02-11T13:01:00.000Z</time>
      </trkpt>
      <trkpt lat="44.04596" lon="5.93055">
        <ele>558.79998779297</ele>
        <time>2021-02-11T13:01:03.000Z</time>
      </trkpt>
      <trkpt lat="44.04599" lon="5.93057">
        <ele>558.59997558594</ele>
        <time>2021-02-11T13:01:04.000Z</time>
      </trkpt>
      <trkpt lat="44.04615" lon="5.93072">
        <ele>558.20001220703</ele>
        <time>2021-02-11T13:01:10.000Z</time>
      </trkpt>
      <trkpt lat="44.04629" lon="5.93083">
        <ele>558.20001220703</ele>
        <time>2021-02-11T13:01:16.000Z</time>
      </trkpt>
      <trkpt lat="44.04631" lon="5.93084">
        <ele>558.20001220703</ele>
        <time>2021-02-11T13:01:17.000Z</time>
      </trkpt>
      <trkpt lat="44.04636" lon="5.93079">
        <ele>558.79998779297</ele>
        <time>2021-02-11T13:01:20.000Z</time>
      </trkpt>
      <trkpt lat="44.04646" lon="5.93076">
        <ele>559.40002441406</ele>
        <time>2021-02-11T13:01:25.000Z</time>
      </trkpt>
      <trkpt lat="44.0465" lon="5.93075">
        <ele>559.59997558594</ele>
        <time>2021-02-11T13:01:28.000Z</time>
      </trkpt>
      <trkpt lat="44.04651" lon="5.93068">
        <ele>560.20001220703</ele>
        <time>2021-02-11T13:01:30.000Z</time>
      </trkpt>
      <trkpt lat="44.04651" lon="5.93065">
        <ele>560.40002441406</ele>
        <time>2021-02-11T13:01:31.000Z</time>
      </trkpt>
      <trkpt lat="44.04651" lon="5.93061">
        <ele>560.79998779297</ele>
        <time>2021-02-11T13:01:32.000Z</time>
      </trkpt>
      <trkpt lat="44.04651" lon="5.93054">
        <ele>561.20001220703</ele>
        <time>2021-02-11T13:01:34.000Z</time>
      </trkpt>
      <trkpt lat="44.04648" lon="5.9305">
        <ele>561.59997558594</ele>
        <time>2021-02-11T13:01:36.000Z</time>
      </trkpt>
      <trkpt lat="44.04639" lon="5.93044">
        <ele>562.40002441406</ele>
        <time>2021-02-11T13:01:40.000Z</time>
      </trkpt>
      <trkpt lat="44.04635" lon="5.9304">
        <ele>563.79998779297</ele>
        <time>2021-02-11T13:01:42.000Z</time>
      </trkpt>
      <trkpt lat="44.04634" lon="5.93037">
        <ele>564.20001220703</ele>
        <time>2021-02-11T13:01:43.000Z</time>
      </trkpt>
      <trkpt lat="44.04634" lon="5.93029">
        <ele>564.79998779297</ele>
        <time>2021-02-11T13:01:45.000Z</time>
      </trkpt>
      <trkpt lat="44.04636" lon="5.93022">
        <ele>565.20001220703</ele>
        <time>2021-02-11T13:01:47.000Z</time>
      </trkpt>
      <trkpt lat="44.04643" lon="5.93019">
        <ele>565.79998779297</ele>
        <time>2021-02-11T13:01:51.000Z</time>
      </trkpt>
      <trkpt lat="44.04648" lon="5.9302">
        <ele>566.40002441406</ele>
        <time>2021-02-11T13:01:53.000Z</time>
      </trkpt>
      <trkpt lat="44.04651" lon="5.93016">
        <ele>567.20001220703</ele>
        <time>2021-02-11T13:01:55.000Z</time>
      </trkpt>
      <trkpt lat="44.04649" lon="5.93007">
        <ele>568</ele>
        <time>2021-02-11T13:01:58.000Z</time>
      </trkpt>
      <trkpt lat="44.04647" lon="5.93004">
        <ele>568.20001220703</ele>
        <time>2021-02-11T13:01:59.000Z</time>
      </trkpt>
      <trkpt lat="44.04644" lon="5.92998">
        <ele>568.20001220703</ele>
        <time>2021-02-11T13:02:01.000Z</time>
      </trkpt>
      <trkpt lat="44.04643" lon="5.92995">
        <ele>568.20001220703</ele>
        <time>2021-02-11T13:02:02.000Z</time>
      </trkpt>
      <trkpt lat="44.04644" lon="5.92992">
        <ele>568.20001220703</ele>
        <time>2021-02-11T13:02:03.000Z</time>
      </trkpt>
      <trkpt lat="44.04645" lon="5.92986">
        <ele>568.79998779297</ele>
        <time>2021-02-11T13:02:05.000Z</time>
      </trkpt>
      <trkpt lat="44.04647" lon="5.9298">
        <ele>569.20001220703</ele>
        <time>2021-02-11T13:02:07.000Z</time>
      </trkpt>
      <trkpt lat="44.04648" lon="5.92973">
        <ele>570</ele>
        <time>2021-02-11T13:02:09.000Z</time>
      </trkpt>
      <trkpt lat="44.04648" lon="5.92969">
        <ele>570.40002441406</ele>
        <time>2021-02-11T13:02:10.000Z</time>
      </trkpt>
      <trkpt lat="44.04648" lon="5.92959">
        <ele>571.40002441406</ele>
        <time>2021-02-11T13:02:13.000Z</time>
      </trkpt>
      <trkpt lat="44.04646" lon="5.92954">
        <ele>572.40002441406</ele>
        <time>2021-02-11T13:02:15.000Z</time>
      </trkpt>
      <trkpt lat="44.04645" lon="5.92952">
        <ele>573.20001220703</ele>
        <time>2021-02-11T13:02:16.000Z</time>
      </trkpt>
      <trkpt lat="44.04641" lon="5.92946">
        <ele>574.40002441406</ele>
        <time>2021-02-11T13:02:19.000Z</time>
      </trkpt>
      <trkpt lat="44.0464" lon="5.92943">
        <ele>574.59997558594</ele>
        <time>2021-02-11T13:02:20.000Z</time>
      </trkpt>
      <trkpt lat="44.04642" lon="5.92937">
        <ele>575.59997558594</ele>
        <time>2021-02-11T13:02:23.000Z</time>
      </trkpt>
      <trkpt lat="44.04643" lon="5.92937">
        <ele>576</ele>
        <time>2021-02-11T13:02:24.000Z</time>
      </trkpt>
      <trkpt lat="44.04646" lon="5.92938">
        <ele>576.79998779297</ele>
        <time>2021-02-11T13:02:26.000Z</time>
      </trkpt>
      <trkpt lat="44.04649" lon="5.92937">
        <ele>577</ele>
        <time>2021-02-11T13:02:28.000Z</time>
      </trkpt>
      <trkpt lat="44.04659" lon="5.92939">
        <ele>577.59997558594</ele>
        <time>2021-02-11T13:02:33.000Z</time>
      </trkpt>
      <trkpt lat="44.04663" lon="5.92939">
        <ele>577.59997558594</ele>
        <time>2021-02-11T13:02:34.000Z</time>
      </trkpt>
      <trkpt lat="44.04671" lon="5.92936">
        <ele>577.59997558594</ele>
        <time>2021-02-11T13:02:36.000Z</time>
      </trkpt>
      <trkpt lat="44.04685" lon="5.92932">
        <ele>577.20001220703</ele>
        <time>2021-02-11T13:02:40.000Z</time>
      </trkpt>
      <trkpt lat="44.04698" lon="5.9293">
        <ele>575.79998779297</ele>
        <time>2021-02-11T13:02:44.000Z</time>
      </trkpt>
      <trkpt lat="44.04713" lon="5.92921">
        <ele>575.79998779297</ele>
        <time>2021-02-11T13:02:49.000Z</time>
      </trkpt>
      <trkpt lat="44.04724" lon="5.92909">
        <ele>576.40002441406</ele>
        <time>2021-02-11T13:02:54.000Z</time>
      </trkpt>
      <trkpt lat="44.04725" lon="5.92906">
        <ele>576.59997558594</ele>
        <time>2021-02-11T13:02:55.000Z</time>
      </trkpt>
      <trkpt lat="44.04726" lon="5.92898">
        <ele>577.20001220703</ele>
        <time>2021-02-11T13:02:58.000Z</time>
      </trkpt>
      <trkpt lat="44.04731" lon="5.92892">
        <ele>577.59997558594</ele>
        <time>2021-02-11T13:03:02.000Z</time>
      </trkpt>
      <trkpt lat="44.04729" lon="5.92886">
        <ele>579</ele>
        <time>2021-02-11T13:03:05.000Z</time>
      </trkpt>
      <trkpt lat="44.04727" lon="5.92879">
        <ele>580.20001220703</ele>
        <time>2021-02-11T13:03:08.000Z</time>
      </trkpt>
      <trkpt lat="44.04729" lon="5.9287">
        <ele>581.59997558594</ele>
        <time>2021-02-11T13:03:11.000Z</time>
      </trkpt>
      <trkpt lat="44.04729" lon="5.92863">
        <ele>582.79998779297</ele>
        <time>2021-02-11T13:03:13.000Z</time>
      </trkpt>
      <trkpt lat="44.04729" lon="5.9286">
        <ele>583.40002441406</ele>
        <time>2021-02-11T13:03:14.000Z</time>
      </trkpt>
      <trkpt lat="44.04728" lon="5.92856">
        <ele>584</ele>
        <time>2021-02-11T13:03:15.000Z</time>
      </trkpt>
      <trkpt lat="44.04729" lon="5.92844">
        <ele>585</ele>
        <time>2021-02-11T13:03:18.000Z</time>
      </trkpt>
      <trkpt lat="44.0473" lon="5.92841">
        <ele>585.20001220703</ele>
        <time>2021-02-11T13:03:19.000Z</time>
      </trkpt>
      <trkpt lat="44.04734" lon="5.92827">
        <ele>585.40002441406</ele>
        <time>2021-02-11T13:03:23.000Z</time>
      </trkpt>
      <trkpt lat="44.04736" lon="5.92818">
        <ele>586.40002441406</ele>
        <time>2021-02-11T13:03:26.000Z</time>
      </trkpt>
      <trkpt lat="44.04737" lon="5.92816">
        <ele>586.79998779297</ele>
        <time>2021-02-11T13:03:27.000Z</time>
      </trkpt>
      <trkpt lat="44.04736" lon="5.92812">
        <ele>587</ele>
        <time>2021-02-11T13:03:28.000Z</time>
      </trkpt>
      <trkpt lat="44.04735" lon="5.92806">
        <ele>587.40002441406</ele>
        <time>2021-02-11T13:03:30.000Z</time>
      </trkpt>
      <trkpt lat="44.04729" lon="5.92801">
        <ele>588.40002441406</ele>
        <time>2021-02-11T13:03:33.000Z</time>
      </trkpt>
      <trkpt lat="44.04727" lon="5.92799">
        <ele>588.59997558594</ele>
        <time>2021-02-11T13:03:34.000Z</time>
      </trkpt>
      <trkpt lat="44.04724" lon="5.92792">
        <ele>589</ele>
        <time>2021-02-11T13:03:36.000Z</time>
      </trkpt>
      <trkpt lat="44.04722" lon="5.92782">
        <ele>589.59997558594</ele>
        <time>2021-02-11T13:03:39.000Z</time>
      </trkpt>
      <trkpt lat="44.04722" lon="5.92778">
        <ele>590</ele>
        <time>2021-02-11T13:03:40.000Z</time>
      </trkpt>
      <trkpt lat="44.04721" lon="5.92772">
        <ele>590.40002441406</ele>
        <time>2021-02-11T13:03:42.000Z</time>
      </trkpt>
      <trkpt lat="44.04719" lon="5.92761">
        <ele>591</ele>
        <time>2021-02-11T13:03:45.000Z</time>
      </trkpt>
      <trkpt lat="44.04718" lon="5.92758">
        <ele>591.20001220703</ele>
        <time>2021-02-11T13:03:46.000Z</time>
      </trkpt>
      <trkpt lat="44.04719" lon="5.92755">
        <ele>591.59997558594</ele>
        <time>2021-02-11T13:03:47.000Z</time>
      </trkpt>
      <trkpt lat="44.0472" lon="5.92754">
        <ele>592</ele>
        <time>2021-02-11T13:03:48.000Z</time>
      </trkpt>
      <trkpt lat="44.04723" lon="5.92747">
        <ele>593.20001220703</ele>
        <time>2021-02-11T13:03:51.000Z</time>
      </trkpt>
      <trkpt lat="44.04724" lon="5.92744">
        <ele>593.40002441406</ele>
        <time>2021-02-11T13:03:52.000Z</time>
      </trkpt>
      <trkpt lat="44.04727" lon="5.92738">
        <ele>593.59997558594</ele>
        <time>2021-02-11T13:03:54.000Z</time>
      </trkpt>
      <trkpt lat="44.04731" lon="5.92739">
        <ele>593.79998779297</ele>
        <time>2021-02-11T13:03:56.000Z</time>
      </trkpt>
      <trkpt lat="44.04738" lon="5.92746">
        <ele>593.79998779297</ele>
        <time>2021-02-11T13:04:00.000Z</time>
      </trkpt>
      <trkpt lat="44.04741" lon="5.92746">
        <ele>594</ele>
        <time>2021-02-11T13:04:01.000Z</time>
      </trkpt>
      <trkpt lat="44.04743" lon="5.92748">
        <ele>594.20001220703</ele>
        <time>2021-02-11T13:04:02.000Z</time>
      </trkpt>
      <trkpt lat="44.04749" lon="5.92748">
        <ele>594.20001220703</ele>
        <time>2021-02-11T13:04:04.000Z</time>
      </trkpt>
      <trkpt lat="44.04752" lon="5.92747">
        <ele>594.20001220703</ele>
        <time>2021-02-11T13:04:05.000Z</time>
      </trkpt>
      <trkpt lat="44.04762" lon="5.92737">
        <ele>594.20001220703</ele>
        <time>2021-02-11T13:04:09.000Z</time>
      </trkpt>
      <trkpt lat="44.04768" lon="5.92731">
        <ele>594.59997558594</ele>
        <time>2021-02-11T13:04:12.000Z</time>
      </trkpt>
      <trkpt lat="44.04769" lon="5.92727">
        <ele>594.79998779297</ele>
        <time>2021-02-11T13:04:13.000Z</time>
      </trkpt>
      <trkpt lat="44.04775" lon="5.92712">
        <ele>595.20001220703</ele>
        <time>2021-02-11T13:04:17.000Z</time>
      </trkpt>
      <trkpt lat="44.04776" lon="5.92708">
        <ele>595.20001220703</ele>
        <time>2021-02-11T13:04:18.000Z</time>
      </trkpt>
      <trkpt lat="44.04782" lon="5.92691">
        <ele>595.79998779297</ele>
        <time>2021-02-11T13:04:22.000Z</time>
      </trkpt>
      <trkpt lat="44.04782" lon="5.92687">
        <ele>595.79998779297</ele>
        <time>2021-02-11T13:04:23.000Z</time>
      </trkpt>
      <trkpt lat="44.04782" lon="5.92673">
        <ele>596.20001220703</ele>
        <time>2021-02-11T13:04:27.000Z</time>
      </trkpt>
      <trkpt lat="44.04782" lon="5.9267">
        <ele>596.40002441406</ele>
        <time>2021-02-11T13:04:28.000Z</time>
      </trkpt>
      <trkpt lat="44.0478" lon="5.92666">
        <ele>597</ele>
        <time>2021-02-11T13:04:30.000Z</time>
      </trkpt>
      <trkpt lat="44.04778" lon="5.92664">
        <ele>597.20001220703</ele>
        <time>2021-02-11T13:04:31.000Z</time>
      </trkpt>
      <trkpt lat="44.04776" lon="5.92658">
        <ele>597.59997558594</ele>
        <time>2021-02-11T13:04:33.000Z</time>
      </trkpt>
      <trkpt lat="44.04771" lon="5.92652">
        <ele>598.20001220703</ele>
        <time>2021-02-11T13:04:36.000Z</time>
      </trkpt>
      <trkpt lat="44.04768" lon="5.92651">
        <ele>598.59997558594</ele>
        <time>2021-02-11T13:04:37.000Z</time>
      </trkpt>
      <trkpt lat="44.04764" lon="5.92649">
        <ele>599.40002441406</ele>
        <time>2021-02-11T13:04:39.000Z</time>
      </trkpt>
      <trkpt lat="44.04762" lon="5.92643">
        <ele>600.20001220703</ele>
        <time>2021-02-11T13:04:41.000Z</time>
      </trkpt>
      <trkpt lat="44.04762" lon="5.9264">
        <ele>600.40002441406</ele>
        <time>2021-02-11T13:04:42.000Z</time>
      </trkpt>
      <trkpt lat="44.04762" lon="5.92626">
        <ele>601.40002441406</ele>
        <time>2021-02-11T13:04:45.000Z</time>
      </trkpt>
      <trkpt lat="44.0476" lon="5.92621">
        <ele>601.59997558594</ele>
        <time>2021-02-11T13:04:46.000Z</time>
      </trkpt>
      <trkpt lat="44.04755" lon="5.92613">
        <ele>602.40002441406</ele>
        <time>2021-02-11T13:04:48.000Z</time>
      </trkpt>
      <trkpt lat="44.04752" lon="5.92606">
        <ele>603</ele>
        <time>2021-02-11T13:04:50.000Z</time>
      </trkpt>
      <trkpt lat="44.04747" lon="5.92596">
        <ele>603.20001220703</ele>
        <time>2021-02-11T13:04:53.000Z</time>
      </trkpt>
      <trkpt lat="44.04744" lon="5.92581">
        <ele>604.20001220703</ele>
        <time>2021-02-11T13:04:57.000Z</time>
      </trkpt>
      <trkpt lat="44.0474" lon="5.9257">
        <ele>605.59997558594</ele>
        <time>2021-02-11T13:05:00.000Z</time>
      </trkpt>
      <trkpt lat="44.04739" lon="5.92568">
        <ele>606.20001220703</ele>
        <time>2021-02-11T13:05:01.000Z</time>
      </trkpt>
      <trkpt lat="44.04735" lon="5.92568">
        <ele>607</ele>
        <time>2021-02-11T13:05:03.000Z</time>
      </trkpt>
      <trkpt lat="44.04733" lon="5.92571">
        <ele>607</ele>
        <time>2021-02-11T13:05:04.000Z</time>
      </trkpt>
      <trkpt lat="44.04729" lon="5.92575">
        <ele>607.79998779297</ele>
        <time>2021-02-11T13:05:06.000Z</time>
      </trkpt>
      <trkpt lat="44.04723" lon="5.92574">
        <ele>608.79998779297</ele>
        <time>2021-02-11T13:05:08.000Z</time>
      </trkpt>
      <trkpt lat="44.0472" lon="5.92574">
        <ele>609</ele>
        <time>2021-02-11T13:05:09.000Z</time>
      </trkpt>
      <trkpt lat="44.04716" lon="5.92572">
        <ele>609.59997558594</ele>
        <time>2021-02-11T13:05:11.000Z</time>
      </trkpt>
      <trkpt lat="44.04713" lon="5.92571">
        <ele>609.59997558594</ele>
        <time>2021-02-11T13:05:12.000Z</time>
      </trkpt>
      <trkpt lat="44.04709" lon="5.92561">
        <ele>610.40002441406</ele>
        <time>2021-02-11T13:05:16.000Z</time>
      </trkpt>
      <trkpt lat="44.04709" lon="5.92548">
        <ele>611.40002441406</ele>
        <time>2021-02-11T13:05:20.000Z</time>
      </trkpt>
      <trkpt lat="44.0471" lon="5.92545">
        <ele>611.79998779297</ele>
        <time>2021-02-11T13:05:21.000Z</time>
      </trkpt>
      <trkpt lat="44.04711" lon="5.9254">
        <ele>612.40002441406</ele>
        <time>2021-02-11T13:05:23.000Z</time>
      </trkpt>
      <trkpt lat="44.04714" lon="5.92528">
        <ele>613</ele>
        <time>2021-02-11T13:05:27.000Z</time>
      </trkpt>
      <trkpt lat="44.04719" lon="5.92517">
        <ele>613.79998779297</ele>
        <time>2021-02-11T13:05:31.000Z</time>
      </trkpt>
      <trkpt lat="44.0472" lon="5.92515">
        <ele>614.20001220703</ele>
        <time>2021-02-11T13:05:32.000Z</time>
      </trkpt>
      <trkpt lat="44.04723" lon="5.92509">
        <ele>614.79998779297</ele>
        <time>2021-02-11T13:05:34.000Z</time>
      </trkpt>
      <trkpt lat="44.04725" lon="5.92499">
        <ele>615.79998779297</ele>
        <time>2021-02-11T13:05:37.000Z</time>
      </trkpt>
      <trkpt lat="44.04725" lon="5.92496">
        <ele>616</ele>
        <time>2021-02-11T13:05:38.000Z</time>
      </trkpt>
      <trkpt lat="44.04726" lon="5.92492">
        <ele>616</ele>
        <time>2021-02-11T13:05:40.000Z</time>
      </trkpt>
      <trkpt lat="44.0473" lon="5.92488">
        <ele>616.40002441406</ele>
        <time>2021-02-11T13:05:42.000Z</time>
      </trkpt>
      <trkpt lat="44.04734" lon="5.92483">
        <ele>617</ele>
        <time>2021-02-11T13:05:44.000Z</time>
      </trkpt>
      <trkpt lat="44.04742" lon="5.92473">
        <ele>617.59997558594</ele>
        <time>2021-02-11T13:05:48.000Z</time>
      </trkpt>
      <trkpt lat="44.04748" lon="5.9246">
        <ele>618</ele>
        <time>2021-02-11T13:05:53.000Z</time>
      </trkpt>
      <trkpt lat="44.04763" lon="5.92452">
        <ele>618.79998779297</ele>
        <time>2021-02-11T13:05:59.000Z</time>
      </trkpt>
      <trkpt lat="44.04766" lon="5.9245">
        <ele>619.20001220703</ele>
        <time>2021-02-11T13:06:00.000Z</time>
      </trkpt>
      <trkpt lat="44.04774" lon="5.92441">
        <ele>619.59997558594</ele>
        <time>2021-02-11T13:06:04.000Z</time>
      </trkpt>
      <trkpt lat="44.04774" lon="5.92438">
        <ele>619.59997558594</ele>
        <time>2021-02-11T13:06:05.000Z</time>
      </trkpt>
      <trkpt lat="44.04767" lon="5.9243">
        <ele>619.79998779297</ele>
        <time>2021-02-11T13:06:09.000Z</time>
      </trkpt>
      <trkpt lat="44.04765" lon="5.92428">
        <ele>620</ele>
        <time>2021-02-11T13:06:10.000Z</time>
      </trkpt>
      <trkpt lat="44.04763" lon="5.92427">
        <ele>620.20001220703</ele>
        <time>2021-02-11T13:06:11.000Z</time>
      </trkpt>
      <trkpt lat="44.04757" lon="5.92425">
        <ele>621.20001220703</ele>
        <time>2021-02-11T13:06:14.000Z</time>
      </trkpt>
      <trkpt lat="44.04755" lon="5.92424">
        <ele>621.40002441406</ele>
        <time>2021-02-11T13:06:15.000Z</time>
      </trkpt>
      <trkpt lat="44.04748" lon="5.92422">
        <ele>621.79998779297</ele>
        <time>2021-02-11T13:06:18.000Z</time>
      </trkpt>
      <trkpt lat="44.04747" lon="5.9242">
        <ele>622.40002441406</ele>
        <time>2021-02-11T13:06:19.000Z</time>
      </trkpt>
      <trkpt lat="44.04747" lon="5.92417">
        <ele>622.59997558594</ele>
        <time>2021-02-11T13:06:20.000Z</time>
      </trkpt>
      <trkpt lat="44.04747" lon="5.92408">
        <ele>623.40002441406</ele>
        <time>2021-02-11T13:06:23.000Z</time>
      </trkpt>
      <trkpt lat="44.04748" lon="5.92403">
        <ele>624</ele>
        <time>2021-02-11T13:06:25.000Z</time>
      </trkpt>
      <trkpt lat="44.04748" lon="5.924">
        <ele>624</ele>
        <time>2021-02-11T13:06:26.000Z</time>
      </trkpt>
      <trkpt lat="44.04748" lon="5.92394">
        <ele>624.59997558594</ele>
        <time>2021-02-11T13:06:28.000Z</time>
      </trkpt>
      <trkpt lat="44.04747" lon="5.92384">
        <ele>626</ele>
        <time>2021-02-11T13:06:31.000Z</time>
      </trkpt>
      <trkpt lat="44.04747" lon="5.92382">
        <ele>627</ele>
        <time>2021-02-11T13:06:32.000Z</time>
      </trkpt>
      <trkpt lat="44.04743" lon="5.92374">
        <ele>628.20001220703</ele>
        <time>2021-02-11T13:06:35.000Z</time>
      </trkpt>
      <trkpt lat="44.04743" lon="5.9237">
        <ele>628.40002441406</ele>
        <time>2021-02-11T13:06:36.000Z</time>
      </trkpt>
      <trkpt lat="44.04743" lon="5.92362">
        <ele>629.20001220703</ele>
        <time>2021-02-11T13:06:38.000Z</time>
      </trkpt>
      <trkpt lat="44.0474" lon="5.92353">
        <ele>630</ele>
        <time>2021-02-11T13:06:41.000Z</time>
      </trkpt>
      <trkpt lat="44.04738" lon="5.92349">
        <ele>630.40002441406</ele>
        <time>2021-02-11T13:06:42.000Z</time>
      </trkpt>
      <trkpt lat="44.04736" lon="5.92345">
        <ele>630.59997558594</ele>
        <time>2021-02-11T13:06:43.000Z</time>
      </trkpt>
      <trkpt lat="44.04727" lon="5.92334">
        <ele>630.79998779297</ele>
        <time>2021-02-11T13:06:46.000Z</time>
      </trkpt>
      <trkpt lat="44.04716" lon="5.92325">
        <ele>631.40002441406</ele>
        <time>2021-02-11T13:06:49.000Z</time>
      </trkpt>
      <trkpt lat="44.04711" lon="5.92319">
        <ele>631.59997558594</ele>
        <time>2021-02-11T13:06:51.000Z</time>
      </trkpt>
      <trkpt lat="44.04709" lon="5.92314">
        <ele>631.79998779297</ele>
        <time>2021-02-11T13:06:53.000Z</time>
      </trkpt>
      <trkpt lat="44.04711" lon="5.92312">
        <ele>631.79998779297</ele>
        <time>2021-02-11T13:06:55.000Z</time>
      </trkpt>
      <trkpt lat="44.04713" lon="5.92307">
        <ele>631.79998779297</ele>
        <time>2021-02-11T13:06:57.000Z</time>
      </trkpt>
      <trkpt lat="44.04714" lon="5.923">
        <ele>631.79998779297</ele>
        <time>2021-02-11T13:06:59.000Z</time>
      </trkpt>
      <trkpt lat="44.04716" lon="5.92292">
        <ele>631.79998779297</ele>
        <time>2021-02-11T13:07:01.000Z</time>
      </trkpt>
      <trkpt lat="44.04721" lon="5.92284">
        <ele>631.40002441406</ele>
        <time>2021-02-11T13:07:03.000Z</time>
      </trkpt>
      <trkpt lat="44.0473" lon="5.9228">
        <ele>630.79998779297</ele>
        <time>2021-02-11T13:07:06.000Z</time>
      </trkpt>
      <trkpt lat="44.04734" lon="5.92271">
        <ele>630.59997558594</ele>
        <time>2021-02-11T13:07:09.000Z</time>
      </trkpt>
      <trkpt lat="44.04735" lon="5.92267">
        <ele>630.59997558594</ele>
        <time>2021-02-11T13:07:10.000Z</time>
      </trkpt>
      <trkpt lat="44.04739" lon="5.92246">
        <ele>630.59997558594</ele>
        <time>2021-02-11T13:07:15.000Z</time>
      </trkpt>
      <trkpt lat="44.04741" lon="5.92229">
        <ele>630.59997558594</ele>
        <time>2021-02-11T13:07:19.000Z</time>
      </trkpt>
      <trkpt lat="44.04751" lon="5.92219">
        <ele>630.59997558594</ele>
        <time>2021-02-11T13:07:23.000Z</time>
      </trkpt>
      <trkpt lat="44.0476" lon="5.92208">
        <ele>630.20001220703</ele>
        <time>2021-02-11T13:07:26.000Z</time>
      </trkpt>
      <trkpt lat="44.04763" lon="5.92204">
        <ele>629.79998779297</ele>
        <time>2021-02-11T13:07:27.000Z</time>
      </trkpt>
      <trkpt lat="44.04768" lon="5.92197">
        <ele>629</ele>
        <time>2021-02-11T13:07:29.000Z</time>
      </trkpt>
      <trkpt lat="44.04775" lon="5.92185">
        <ele>627.79998779297</ele>
        <time>2021-02-11T13:07:32.000Z</time>
      </trkpt>
      <trkpt lat="44.04776" lon="5.92177">
        <ele>626.40002441406</ele>
        <time>2021-02-11T13:07:34.000Z</time>
      </trkpt>
      <trkpt lat="44.04779" lon="5.92167">
        <ele>626</ele>
        <time>2021-02-11T13:07:36.000Z</time>
      </trkpt>
      <trkpt lat="44.04777" lon="5.92153">
        <ele>625.79998779297</ele>
        <time>2021-02-11T13:07:39.000Z</time>
      </trkpt>
      <trkpt lat="44.04778" lon="5.92151">
        <ele>625.79998779297</ele>
        <time>2021-02-11T13:07:40.000Z</time>
      </trkpt>
      <trkpt lat="44.04783" lon="5.9214">
        <ele>625.59997558594</ele>
        <time>2021-02-11T13:07:43.000Z</time>
      </trkpt>
      <trkpt lat="44.04785" lon="5.92135">
        <ele>625.40002441406</ele>
        <time>2021-02-11T13:07:44.000Z</time>
      </trkpt>
      <trkpt lat="44.04787" lon="5.92131">
        <ele>625.40002441406</ele>
        <time>2021-02-11T13:07:45.000Z</time>
      </trkpt>
      <trkpt lat="44.04787" lon="5.92123">
        <ele>625.20001220703</ele>
        <time>2021-02-11T13:07:47.000Z</time>
      </trkpt>
      <trkpt lat="44.04786" lon="5.92119">
        <ele>625.20001220703</ele>
        <time>2021-02-11T13:07:48.000Z</time>
      </trkpt>
      <trkpt lat="44.0478" lon="5.92099">
        <ele>625.20001220703</ele>
        <time>2021-02-11T13:07:53.000Z</time>
      </trkpt>
      <trkpt lat="44.0478" lon="5.92075">
        <ele>625.20001220703</ele>
        <time>2021-02-11T13:07:58.000Z</time>
      </trkpt>
      <trkpt lat="44.0478" lon="5.92068">
        <ele>625.40002441406</ele>
        <time>2021-02-11T13:08:00.000Z</time>
      </trkpt>
      <trkpt lat="44.04781" lon="5.92054">
        <ele>626</ele>
        <time>2021-02-11T13:08:03.000Z</time>
      </trkpt>
      <trkpt lat="44.04782" lon="5.92048">
        <ele>626.20001220703</ele>
        <time>2021-02-11T13:08:05.000Z</time>
      </trkpt>
      <trkpt lat="44.04782" lon="5.92047">
        <ele>626.40002441406</ele>
        <time>2021-02-11T13:08:06.000Z</time>
      </trkpt>
      <trkpt lat="44.04783" lon="5.92043">
        <ele>626.40002441406</ele>
        <time>2021-02-11T13:08:08.000Z</time>
      </trkpt>
      <trkpt lat="44.04785" lon="5.92038">
        <ele>626.59997558594</ele>
        <time>2021-02-11T13:08:10.000Z</time>
      </trkpt>
      <trkpt lat="44.04787" lon="5.92031">
        <ele>627.59997558594</ele>
        <time>2021-02-11T13:08:13.000Z</time>
      </trkpt>
      <trkpt lat="44.04786" lon="5.92028">
        <ele>628</ele>
        <time>2021-02-11T13:08:14.000Z</time>
      </trkpt>
      <trkpt lat="44.04785" lon="5.92025">
        <ele>628.20001220703</ele>
        <time>2021-02-11T13:08:15.000Z</time>
      </trkpt>
      <trkpt lat="44.04785" lon="5.92016">
        <ele>628.59997558594</ele>
        <time>2021-02-11T13:08:18.000Z</time>
      </trkpt>
      <trkpt lat="44.04786" lon="5.92014">
        <ele>629</ele>
        <time>2021-02-11T13:08:19.000Z</time>
      </trkpt>
      <trkpt lat="44.04792" lon="5.9201">
        <ele>629.79998779297</ele>
        <time>2021-02-11T13:08:22.000Z</time>
      </trkpt>
      <trkpt lat="44.04793" lon="5.92008">
        <ele>629.79998779297</ele>
        <time>2021-02-11T13:08:23.000Z</time>
      </trkpt>
      <trkpt lat="44.04793" lon="5.92003">
        <ele>629.79998779297</ele>
        <time>2021-02-11T13:08:25.000Z</time>
      </trkpt>
      <trkpt lat="44.04791" lon="5.91992">
        <ele>630</ele>
        <time>2021-02-11T13:08:29.000Z</time>
      </trkpt>
      <trkpt lat="44.04788" lon="5.91976">
        <ele>630.40002441406</ele>
        <time>2021-02-11T13:08:34.000Z</time>
      </trkpt>
      <trkpt lat="44.04781" lon="5.91954">
        <ele>630.59997558594</ele>
        <time>2021-02-11T13:08:40.000Z</time>
      </trkpt>
      <trkpt lat="44.0478" lon="5.91951">
        <ele>631</ele>
        <time>2021-02-11T13:08:41.000Z</time>
      </trkpt>
      <trkpt lat="44.04776" lon="5.91936">
        <ele>632</ele>
        <time>2021-02-11T13:08:45.000Z</time>
      </trkpt>
      <trkpt lat="44.04776" lon="5.91933">
        <ele>632.20001220703</ele>
        <time>2021-02-11T13:08:46.000Z</time>
      </trkpt>
      <trkpt lat="44.04777" lon="5.91924">
        <ele>632.79998779297</ele>
        <time>2021-02-11T13:08:49.000Z</time>
      </trkpt>
      <trkpt lat="44.04777" lon="5.91921">
        <ele>633.20001220703</ele>
        <time>2021-02-11T13:08:50.000Z</time>
      </trkpt>
      <trkpt lat="44.04774" lon="5.91915">
        <ele>633.79998779297</ele>
        <time>2021-02-11T13:08:53.000Z</time>
      </trkpt>
      <trkpt lat="44.04773" lon="5.91914">
        <ele>634.59997558594</ele>
        <time>2021-02-11T13:08:54.000Z</time>
      </trkpt>
      <trkpt lat="44.04771" lon="5.91916">
        <ele>635.40002441406</ele>
        <time>2021-02-11T13:08:57.000Z</time>
      </trkpt>
      <trkpt lat="44.04771" lon="5.91918">
        <ele>635.59997558594</ele>
        <time>2021-02-11T13:08:58.000Z</time>
      </trkpt>
      <trkpt lat="44.0477" lon="5.91921">
        <ele>635.79998779297</ele>
        <time>2021-02-11T13:08:59.000Z</time>
      </trkpt>
      <trkpt lat="44.0477" lon="5.91932">
        <ele>636.40002441406</ele>
        <time>2021-02-11T13:09:02.000Z</time>
      </trkpt>
      <trkpt lat="44.04774" lon="5.91944">
        <ele>636.40002441406</ele>
        <time>2021-02-11T13:09:05.000Z</time>
      </trkpt>
      <trkpt lat="44.04774" lon="5.91948">
        <ele>636.40002441406</ele>
        <time>2021-02-11T13:09:06.000Z</time>
      </trkpt>
      <trkpt lat="44.04771" lon="5.91956">
        <ele>636.40002441406</ele>
        <time>2021-02-11T13:09:09.000Z</time>
      </trkpt>
      <trkpt lat="44.04768" lon="5.9195">
        <ele>636.40002441406</ele>
        <time>2021-02-11T13:09:13.000Z</time>
      </trkpt>
      <trkpt lat="44.04767" lon="5.91948">
        <ele>636.40002441406</ele>
        <time>2021-02-11T13:09:14.000Z</time>
      </trkpt>
      <trkpt lat="44.04765" lon="5.9194">
        <ele>636.40002441406</ele>
        <time>2021-02-11T13:09:18.000Z</time>
      </trkpt>
      <trkpt lat="44.04763" lon="5.91939">
        <ele>636.40002441406</ele>
        <time>2021-02-11T13:09:19.000Z</time>
      </trkpt>
      <trkpt lat="44.0476" lon="5.91932">
        <ele>636.59997558594</ele>
        <time>2021-02-11T13:09:22.000Z</time>
      </trkpt>
      <trkpt lat="44.04758" lon="5.91929">
        <ele>636.79998779297</ele>
        <time>2021-02-11T13:09:23.000Z</time>
      </trkpt>
      <trkpt lat="44.04757" lon="5.91926">
        <ele>637</ele>
        <time>2021-02-11T13:09:24.000Z</time>
      </trkpt>
      <trkpt lat="44.04757" lon="5.91923">
        <ele>637.20001220703</ele>
        <time>2021-02-11T13:09:25.000Z</time>
      </trkpt>
      <trkpt lat="44.04756" lon="5.91917">
        <ele>638.20001220703</ele>
        <time>2021-02-11T13:09:27.000Z</time>
      </trkpt>
      <trkpt lat="44.04755" lon="5.91911">
        <ele>638.59997558594</ele>
        <time>2021-02-11T13:09:29.000Z</time>
      </trkpt>
      <trkpt lat="44.04754" lon="5.91905">
        <ele>639.20001220703</ele>
        <time>2021-02-11T13:09:31.000Z</time>
      </trkpt>
      <trkpt lat="44.04752" lon="5.91894">
        <ele>640</ele>
        <time>2021-02-11T13:09:35.000Z</time>
      </trkpt>
      <trkpt lat="44.04751" lon="5.9189">
        <ele>640.20001220703</ele>
        <time>2021-02-11T13:09:36.000Z</time>
      </trkpt>
      <trkpt lat="44.04747" lon="5.9188">
        <ele>640.59997558594</ele>
        <time>2021-02-11T13:09:39.000Z</time>
      </trkpt>
      <trkpt lat="44.04744" lon="5.91867">
        <ele>640.59997558594</ele>
        <time>2021-02-11T13:09:43.000Z</time>
      </trkpt>
      <trkpt lat="44.04749" lon="5.91864">
        <ele>640.59997558594</ele>
        <time>2021-02-11T13:09:47.000Z</time>
      </trkpt>
      <trkpt lat="44.04751" lon="5.91863">
        <ele>639</ele>
        <time>2021-02-11T13:09:50.000Z</time>
      </trkpt>
      <trkpt lat="44.04756" lon="5.91863">
        <ele>638.59997558594</ele>
        <time>2021-02-11T13:09:53.000Z</time>
      </trkpt>
      <trkpt lat="44.0476" lon="5.91862">
        <ele>638.59997558594</ele>
        <time>2021-02-11T13:09:55.000Z</time>
      </trkpt>
      <trkpt lat="44.04763" lon="5.91857">
        <ele>638.59997558594</ele>
        <time>2021-02-11T13:09:57.000Z</time>
      </trkpt>
      <trkpt lat="44.04773" lon="5.91853">
        <ele>639</ele>
        <time>2021-02-11T13:10:01.000Z</time>
      </trkpt>
      <trkpt lat="44.04777" lon="5.91851">
        <ele>639</ele>
        <time>2021-02-11T13:10:03.000Z</time>
      </trkpt>
      <trkpt lat="44.04781" lon="5.91849">
        <ele>639.20001220703</ele>
        <time>2021-02-11T13:10:05.000Z</time>
      </trkpt>
      <trkpt lat="44.0479" lon="5.91843">
        <ele>639.59997558594</ele>
        <time>2021-02-11T13:10:10.000Z</time>
      </trkpt>
      <trkpt lat="44.04792" lon="5.91844">
        <ele>639.59997558594</ele>
        <time>2021-02-11T13:10:11.000Z</time>
      </trkpt>
      <trkpt lat="44.04799" lon="5.91845">
        <ele>639.59997558594</ele>
        <time>2021-02-11T13:10:14.000Z</time>
      </trkpt>
      <trkpt lat="44.04802" lon="5.91844">
        <ele>639.79998779297</ele>
        <time>2021-02-11T13:10:15.000Z</time>
      </trkpt>
      <trkpt lat="44.04804" lon="5.91842">
        <ele>639.59997558594</ele>
        <time>2021-02-11T13:10:16.000Z</time>
      </trkpt>
      <trkpt lat="44.04806" lon="5.9184">
        <ele>639.79998779297</ele>
        <time>2021-02-11T13:10:17.000Z</time>
      </trkpt>
      <trkpt lat="44.04813" lon="5.91839">
        <ele>640.40002441406</ele>
        <time>2021-02-11T13:10:20.000Z</time>
      </trkpt>
      <trkpt lat="44.0482" lon="5.91834">
        <ele>640.79998779297</ele>
        <time>2021-02-11T13:10:23.000Z</time>
      </trkpt>
      <trkpt lat="44.04822" lon="5.91832">
        <ele>641.20001220703</ele>
        <time>2021-02-11T13:10:24.000Z</time>
      </trkpt>
      <trkpt lat="44.04835" lon="5.91827">
        <ele>642.20001220703</ele>
        <time>2021-02-11T13:10:29.000Z</time>
      </trkpt>
      <trkpt lat="44.04845" lon="5.91821">
        <ele>643.59997558594</ele>
        <time>2021-02-11T13:10:33.000Z</time>
      </trkpt>
      <trkpt lat="44.04849" lon="5.91818">
        <ele>643.79998779297</ele>
        <time>2021-02-11T13:10:34.000Z</time>
      </trkpt>
      <trkpt lat="44.04856" lon="5.91809">
        <ele>644.20001220703</ele>
        <time>2021-02-11T13:10:38.000Z</time>
      </trkpt>
      <trkpt lat="44.04862" lon="5.91798">
        <ele>644.40002441406</ele>
        <time>2021-02-11T13:10:42.000Z</time>
      </trkpt>
      <trkpt lat="44.04864" lon="5.91795">
        <ele>644.40002441406</ele>
        <time>2021-02-11T13:10:43.000Z</time>
      </trkpt>
      <trkpt lat="44.04873" lon="5.91779">
        <ele>644.40002441406</ele>
        <time>2021-02-11T13:10:47.000Z</time>
      </trkpt>
      <trkpt lat="44.04883" lon="5.91763">
        <ele>644.40002441406</ele>
        <time>2021-02-11T13:10:51.000Z</time>
      </trkpt>
      <trkpt lat="44.04885" lon="5.91745">
        <ele>644.20001220703</ele>
        <time>2021-02-11T13:10:55.000Z</time>
      </trkpt>
      <trkpt lat="44.04885" lon="5.91728">
        <ele>643.79998779297</ele>
        <time>2021-02-11T13:10:59.000Z</time>
      </trkpt>
      <trkpt lat="44.04885" lon="5.91724">
        <ele>643.59997558594</ele>
        <time>2021-02-11T13:11:00.000Z</time>
      </trkpt>
      <trkpt lat="44.04887" lon="5.91715">
        <ele>643.20001220703</ele>
        <time>2021-02-11T13:11:02.000Z</time>
      </trkpt>
      <trkpt lat="44.04889" lon="5.91697">
        <ele>642.59997558594</ele>
        <time>2021-02-11T13:11:06.000Z</time>
      </trkpt>
      <trkpt lat="44.04892" lon="5.9168">
        <ele>642.40002441406</ele>
        <time>2021-02-11T13:11:11.000Z</time>
      </trkpt>
      <trkpt lat="44.04894" lon="5.91677">
        <ele>642.40002441406</ele>
        <time>2021-02-11T13:11:12.000Z</time>
      </trkpt>
      <trkpt lat="44.04897" lon="5.91671">
        <ele>642.40002441406</ele>
        <time>2021-02-11T13:11:14.000Z</time>
      </trkpt>
      <trkpt lat="44.04896" lon="5.91659">
        <ele>642.20001220703</ele>
        <time>2021-02-11T13:11:17.000Z</time>
      </trkpt>
      <trkpt lat="44.04892" lon="5.91649">
        <ele>642.20001220703</ele>
        <time>2021-02-11T13:11:20.000Z</time>
      </trkpt>
      <trkpt lat="44.04888" lon="5.91642">
        <ele>642.20001220703</ele>
        <time>2021-02-11T13:11:22.000Z</time>
      </trkpt>
      <trkpt lat="44.04878" lon="5.9163">
        <ele>642.20001220703</ele>
        <time>2021-02-11T13:11:26.000Z</time>
      </trkpt>
      <trkpt lat="44.04876" lon="5.91627">
        <ele>642.20001220703</ele>
        <time>2021-02-11T13:11:27.000Z</time>
      </trkpt>
      <trkpt lat="44.04874" lon="5.9162">
        <ele>642.20001220703</ele>
        <time>2021-02-11T13:11:29.000Z</time>
      </trkpt>
      <trkpt lat="44.04876" lon="5.91616">
        <ele>642</ele>
        <time>2021-02-11T13:11:31.000Z</time>
      </trkpt>
      <trkpt lat="44.04877" lon="5.91615">
        <ele>642</ele>
        <time>2021-02-11T13:11:32.000Z</time>
      </trkpt>
      <trkpt lat="44.0488" lon="5.91615">
        <ele>641.79998779297</ele>
        <time>2021-02-11T13:11:33.000Z</time>
      </trkpt>
      <trkpt lat="44.04882" lon="5.91605">
        <ele>641.40002441406</ele>
        <time>2021-02-11T13:11:37.000Z</time>
      </trkpt>
      <trkpt lat="44.04884" lon="5.91596">
        <ele>640.20001220703</ele>
        <time>2021-02-11T13:11:41.000Z</time>
      </trkpt>
      <trkpt lat="44.0489" lon="5.91594">
        <ele>638.79998779297</ele>
        <time>2021-02-11T13:11:45.000Z</time>
      </trkpt>
      <trkpt lat="44.04891" lon="5.91592">
        <ele>638.40002441406</ele>
        <time>2021-02-11T13:11:46.000Z</time>
      </trkpt>
      <trkpt lat="44.04893" lon="5.91586">
        <ele>637.20001220703</ele>
        <time>2021-02-11T13:11:48.000Z</time>
      </trkpt>
      <trkpt lat="44.04893" lon="5.91582">
        <ele>636.79998779297</ele>
        <time>2021-02-11T13:11:50.000Z</time>
      </trkpt>
      <trkpt lat="44.04896" lon="5.91577">
        <ele>636.59997558594</ele>
        <time>2021-02-11T13:11:53.000Z</time>
      </trkpt>
      <trkpt lat="44.04897" lon="5.91575">
        <ele>636.40002441406</ele>
        <time>2021-02-11T13:11:54.000Z</time>
      </trkpt>
      <trkpt lat="44.04899" lon="5.91573">
        <ele>635.79998779297</ele>
        <time>2021-02-11T13:11:55.000Z</time>
      </trkpt>
      <trkpt lat="44.049" lon="5.91571">
        <ele>635.20001220703</ele>
        <time>2021-02-11T13:11:56.000Z</time>
      </trkpt>
      <trkpt lat="44.04901" lon="5.91569">
        <ele>634.40002441406</ele>
        <time>2021-02-11T13:11:57.000Z</time>
      </trkpt>
      <trkpt lat="44.04901" lon="5.91566">
        <ele>633.79998779297</ele>
        <time>2021-02-11T13:11:58.000Z</time>
      </trkpt>
      <trkpt lat="44.04901" lon="5.91564">
        <ele>633.40002441406</ele>
        <time>2021-02-11T13:11:59.000Z</time>
      </trkpt>
      <trkpt lat="44.04898" lon="5.91556">
        <ele>632.20001220703</ele>
        <time>2021-02-11T13:12:02.000Z</time>
      </trkpt>
      <trkpt lat="44.04897" lon="5.91549">
        <ele>631.20001220703</ele>
        <time>2021-02-11T13:12:05.000Z</time>
      </trkpt>
      <trkpt lat="44.04897" lon="5.91546">
        <ele>631</ele>
        <time>2021-02-11T13:12:06.000Z</time>
      </trkpt>
      <trkpt lat="44.04901" lon="5.91529">
        <ele>631</ele>
        <time>2021-02-11T13:12:12.000Z</time>
      </trkpt>
      <trkpt lat="44.04902" lon="5.91523">
        <ele>631.59997558594</ele>
        <time>2021-02-11T13:12:14.000Z</time>
      </trkpt>
      <trkpt lat="44.04905" lon="5.91518">
        <ele>632.40002441406</ele>
        <time>2021-02-11T13:12:16.000Z</time>
      </trkpt>
      <trkpt lat="44.04906" lon="5.91515">
        <ele>633</ele>
        <time>2021-02-11T13:12:17.000Z</time>
      </trkpt>
      <trkpt lat="44.04907" lon="5.91512">
        <ele>633.40002441406</ele>
        <time>2021-02-11T13:12:18.000Z</time>
      </trkpt>
      <trkpt lat="44.04909" lon="5.91508">
        <ele>633.59997558594</ele>
        <time>2021-02-11T13:12:19.000Z</time>
      </trkpt>
      <trkpt lat="44.04913" lon="5.91499">
        <ele>634.59997558594</ele>
        <time>2021-02-11T13:12:22.000Z</time>
      </trkpt>
      <trkpt lat="44.04914" lon="5.91496">
        <ele>635</ele>
        <time>2021-02-11T13:12:23.000Z</time>
      </trkpt>
      <trkpt lat="44.04916" lon="5.91489">
        <ele>635.79998779297</ele>
        <time>2021-02-11T13:12:25.000Z</time>
      </trkpt>
      <trkpt lat="44.04915" lon="5.91477">
        <ele>637.20001220703</ele>
        <time>2021-02-11T13:12:28.000Z</time>
      </trkpt>
      <trkpt lat="44.04914" lon="5.91465">
        <ele>638</ele>
        <time>2021-02-11T13:12:31.000Z</time>
      </trkpt>
      <trkpt lat="44.04912" lon="5.91458">
        <ele>638.20001220703</ele>
        <time>2021-02-11T13:12:33.000Z</time>
      </trkpt>
      <trkpt lat="44.0491" lon="5.91444">
        <ele>638.40002441406</ele>
        <time>2021-02-11T13:12:36.000Z</time>
      </trkpt>
      <trkpt lat="44.04908" lon="5.91438">
        <ele>638.40002441406</ele>
        <time>2021-02-11T13:12:37.000Z</time>
      </trkpt>
      <trkpt lat="44.04902" lon="5.91413">
        <ele>638.59997558594</ele>
        <time>2021-02-11T13:12:42.000Z</time>
      </trkpt>
      <trkpt lat="44.04897" lon="5.91407">
        <ele>638.59997558594</ele>
        <time>2021-02-11T13:12:44.000Z</time>
      </trkpt>
      <trkpt lat="44.04892" lon="5.91403">
        <ele>638.79998779297</ele>
        <time>2021-02-11T13:12:46.000Z</time>
      </trkpt>
      <trkpt lat="44.04888" lon="5.91395">
        <ele>638.79998779297</ele>
        <time>2021-02-11T13:12:49.000Z</time>
      </trkpt>
      <trkpt lat="44.04887" lon="5.91391">
        <ele>638.79998779297</ele>
        <time>2021-02-11T13:12:50.000Z</time>
      </trkpt>
      <trkpt lat="44.04881" lon="5.91378">
        <ele>639.20001220703</ele>
        <time>2021-02-11T13:12:54.000Z</time>
      </trkpt>
      <trkpt lat="44.04875" lon="5.91371">
        <ele>639.59997558594</ele>
        <time>2021-02-11T13:12:58.000Z</time>
      </trkpt>
      <trkpt lat="44.04869" lon="5.9136">
        <ele>640.40002441406</ele>
        <time>2021-02-11T13:13:01.000Z</time>
      </trkpt>
      <trkpt lat="44.04868" lon="5.91357">
        <ele>640.79998779297</ele>
        <time>2021-02-11T13:13:02.000Z</time>
      </trkpt>
      <trkpt lat="44.04864" lon="5.9135">
        <ele>641.59997558594</ele>
        <time>2021-02-11T13:13:05.000Z</time>
      </trkpt>
      <trkpt lat="44.04863" lon="5.91349">
        <ele>641.79998779297</ele>
        <time>2021-02-11T13:13:06.000Z</time>
      </trkpt>
      <trkpt lat="44.0486" lon="5.91341">
        <ele>642</ele>
        <time>2021-02-11T13:13:13.000Z</time>
      </trkpt>
      <trkpt lat="44.04858" lon="5.91339">
        <ele>642</ele>
        <time>2021-02-11T13:13:14.000Z</time>
      </trkpt>
      <trkpt lat="44.04852" lon="5.91334">
        <ele>642</ele>
        <time>2021-02-11T13:13:18.000Z</time>
      </trkpt>
      <trkpt lat="44.04851" lon="5.91333">
        <ele>641.79998779297</ele>
        <time>2021-02-11T13:13:19.000Z</time>
      </trkpt>
      <trkpt lat="44.04845" lon="5.91332">
        <ele>641.79998779297</ele>
        <time>2021-02-11T13:13:22.000Z</time>
      </trkpt>
      <trkpt lat="44.04843" lon="5.91328">
        <ele>641.40002441406</ele>
        <time>2021-02-11T13:13:24.000Z</time>
      </trkpt>
      <trkpt lat="44.04842" lon="5.91321">
        <ele>641.40002441406</ele>
        <time>2021-02-11T13:13:27.000Z</time>
      </trkpt>
      <trkpt lat="44.04841" lon="5.91318">
        <ele>641.40002441406</ele>
        <time>2021-02-11T13:13:28.000Z</time>
      </trkpt>
      <trkpt lat="44.04841" lon="5.91316">
        <ele>641.40002441406</ele>
        <time>2021-02-11T13:13:29.000Z</time>
      </trkpt>
      <trkpt lat="44.04836" lon="5.91307">
        <ele>642</ele>
        <time>2021-02-11T13:13:34.000Z</time>
      </trkpt>
      <trkpt lat="44.04837" lon="5.91305">
        <ele>642.40002441406</ele>
        <time>2021-02-11T13:13:35.000Z</time>
      </trkpt>
      <trkpt lat="44.04839" lon="5.91301">
        <ele>642.59997558594</ele>
        <time>2021-02-11T13:13:37.000Z</time>
      </trkpt>
      <trkpt lat="44.04841" lon="5.913">
        <ele>643</ele>
        <time>2021-02-11T13:13:39.000Z</time>
      </trkpt>
      <trkpt lat="44.04842" lon="5.913">
        <ele>643</ele>
        <time>2021-02-11T13:13:40.000Z</time>
      </trkpt>
      <trkpt lat="44.04846" lon="5.91295">
        <ele>643.59997558594</ele>
        <time>2021-02-11T13:13:44.000Z</time>
      </trkpt>
      <trkpt lat="44.04848" lon="5.91294">
        <ele>643.59997558594</ele>
        <time>2021-02-11T13:13:45.000Z</time>
      </trkpt>
      <trkpt lat="44.04859" lon="5.91287">
        <ele>644.40002441406</ele>
        <time>2021-02-11T13:13:49.000Z</time>
      </trkpt>
      <trkpt lat="44.0486" lon="5.91283">
        <ele>645</ele>
        <time>2021-02-11T13:13:50.000Z</time>
      </trkpt>
      <trkpt lat="44.04859" lon="5.91273">
        <ele>645.20001220703</ele>
        <time>2021-02-11T13:13:53.000Z</time>
      </trkpt>
      <trkpt lat="44.04853" lon="5.91268">
        <ele>645.79998779297</ele>
        <time>2021-02-11T13:13:58.000Z</time>
      </trkpt>
      <trkpt lat="44.04844" lon="5.91273">
        <ele>646.40002441406</ele>
        <time>2021-02-11T13:14:03.000Z</time>
      </trkpt>
      <trkpt lat="44.04842" lon="5.91274">
        <ele>646.79998779297</ele>
        <time>2021-02-11T13:14:04.000Z</time>
      </trkpt>
      <trkpt lat="44.04837" lon="5.91272">
        <ele>647.79998779297</ele>
        <time>2021-02-11T13:14:07.000Z</time>
      </trkpt>
      <trkpt lat="44.04834" lon="5.91269">
        <ele>649</ele>
        <time>2021-02-11T13:14:09.000Z</time>
      </trkpt>
      <trkpt lat="44.04828" lon="5.9126">
        <ele>649.79998779297</ele>
        <time>2021-02-11T13:14:13.000Z</time>
      </trkpt>
      <trkpt lat="44.04826" lon="5.91258">
        <ele>650</ele>
        <time>2021-02-11T13:14:14.000Z</time>
      </trkpt>
      <trkpt lat="44.0482" lon="5.91251">
        <ele>651</ele>
        <time>2021-02-11T13:14:18.000Z</time>
      </trkpt>
      <trkpt lat="44.04819" lon="5.9125">
        <ele>651.40002441406</ele>
        <time>2021-02-11T13:14:19.000Z</time>
      </trkpt>
      <trkpt lat="44.04816" lon="5.91247">
        <ele>652.40002441406</ele>
        <time>2021-02-11T13:14:22.000Z</time>
      </trkpt>
      <trkpt lat="44.04813" lon="5.91246">
        <ele>652.59997558594</ele>
        <time>2021-02-11T13:14:23.000Z</time>
      </trkpt>
      <trkpt lat="44.0481" lon="5.91244">
        <ele>653.20001220703</ele>
        <time>2021-02-11T13:14:25.000Z</time>
      </trkpt>
      <trkpt lat="44.04808" lon="5.91244">
        <ele>653.40002441406</ele>
        <time>2021-02-11T13:14:26.000Z</time>
      </trkpt>
      <trkpt lat="44.04799" lon="5.91242">
        <ele>654.59997558594</ele>
        <time>2021-02-11T13:14:30.000Z</time>
      </trkpt>
      <trkpt lat="44.04794" lon="5.91242">
        <ele>655.20001220703</ele>
        <time>2021-02-11T13:14:32.000Z</time>
      </trkpt>
      <trkpt lat="44.04792" lon="5.91243">
        <ele>655.59997558594</ele>
        <time>2021-02-11T13:14:33.000Z</time>
      </trkpt>
      <trkpt lat="44.04786" lon="5.91243">
        <ele>656.79998779297</ele>
        <time>2021-02-11T13:14:36.000Z</time>
      </trkpt>
      <trkpt lat="44.04785" lon="5.91242">
        <ele>657</ele>
        <time>2021-02-11T13:14:37.000Z</time>
      </trkpt>
      <trkpt lat="44.04784" lon="5.91241">
        <ele>657.40002441406</ele>
        <time>2021-02-11T13:14:38.000Z</time>
      </trkpt>
      <trkpt lat="44.04782" lon="5.91236">
        <ele>657.79998779297</ele>
        <time>2021-02-11T13:14:40.000Z</time>
      </trkpt>
      <trkpt lat="44.04777" lon="5.91226">
        <ele>658.59997558594</ele>
        <time>2021-02-11T13:14:44.000Z</time>
      </trkpt>
      <trkpt lat="44.04776" lon="5.91225">
        <ele>658.79998779297</ele>
        <time>2021-02-11T13:14:45.000Z</time>
      </trkpt>
      <trkpt lat="44.04772" lon="5.91228">
        <ele>660</ele>
        <time>2021-02-11T13:14:48.000Z</time>
      </trkpt>
      <trkpt lat="44.04767" lon="5.91229">
        <ele>661</ele>
        <time>2021-02-11T13:14:51.000Z</time>
      </trkpt>
      <trkpt lat="44.04766" lon="5.91227">
        <ele>661.40002441406</ele>
        <time>2021-02-11T13:14:52.000Z</time>
      </trkpt>
      <trkpt lat="44.04764" lon="5.91221">
        <ele>662</ele>
        <time>2021-02-11T13:14:54.000Z</time>
      </trkpt>
      <trkpt lat="44.04764" lon="5.91209">
        <ele>662.59997558594</ele>
        <time>2021-02-11T13:14:58.000Z</time>
      </trkpt>
      <trkpt lat="44.04762" lon="5.91204">
        <ele>663</ele>
        <time>2021-02-11T13:15:00.000Z</time>
      </trkpt>
      <trkpt lat="44.04759" lon="5.91199">
        <ele>664.20001220703</ele>
        <time>2021-02-11T13:15:03.000Z</time>
      </trkpt>
      <trkpt lat="44.04755" lon="5.91195">
        <ele>665.20001220703</ele>
        <time>2021-02-11T13:15:06.000Z</time>
      </trkpt>
      <trkpt lat="44.04754" lon="5.91194">
        <ele>665.40002441406</ele>
        <time>2021-02-11T13:15:07.000Z</time>
      </trkpt>
      <trkpt lat="44.04754" lon="5.91188">
        <ele>666.20001220703</ele>
        <time>2021-02-11T13:15:10.000Z</time>
      </trkpt>
      <trkpt lat="44.04753" lon="5.91184">
        <ele>666.79998779297</ele>
        <time>2021-02-11T13:15:12.000Z</time>
      </trkpt>
      <trkpt lat="44.0475" lon="5.9118">
        <ele>667.40002441406</ele>
        <time>2021-02-11T13:15:14.000Z</time>
      </trkpt>
      <trkpt lat="44.04747" lon="5.9118">
        <ele>667.59997558594</ele>
        <time>2021-02-11T13:15:16.000Z</time>
      </trkpt>
      <trkpt lat="44.0474" lon="5.91187">
        <ele>668</ele>
        <time>2021-02-11T13:15:21.000Z</time>
      </trkpt>
      <trkpt lat="44.04736" lon="5.91189">
        <ele>668.59997558594</ele>
        <time>2021-02-11T13:15:23.000Z</time>
      </trkpt>
      <trkpt lat="44.04731" lon="5.91195">
        <ele>669.79998779297</ele>
        <time>2021-02-11T13:15:27.000Z</time>
      </trkpt>
      <trkpt lat="44.04725" lon="5.91205">
        <ele>670.40002441406</ele>
        <time>2021-02-11T13:15:31.000Z</time>
      </trkpt>
      <trkpt lat="44.04724" lon="5.91208">
        <ele>670.59997558594</ele>
        <time>2021-02-11T13:15:32.000Z</time>
      </trkpt>
      <trkpt lat="44.04718" lon="5.91221">
        <ele>670.79998779297</ele>
        <time>2021-02-11T13:15:36.000Z</time>
      </trkpt>
      <trkpt lat="44.04717" lon="5.91223">
        <ele>671</ele>
        <time>2021-02-11T13:15:37.000Z</time>
      </trkpt>
      <trkpt lat="44.04712" lon="5.91225">
        <ele>671.20001220703</ele>
        <time>2021-02-11T13:15:40.000Z</time>
      </trkpt>
      <trkpt lat="44.04707" lon="5.91226">
        <ele>671.20001220703</ele>
        <time>2021-02-11T13:15:44.000Z</time>
      </trkpt>
      <trkpt lat="44.04708" lon="5.91221">
        <ele>671.40002441406</ele>
        <time>2021-02-11T13:15:46.000Z</time>
      </trkpt>
      <trkpt lat="44.04708" lon="5.91212">
        <ele>671.40002441406</ele>
        <time>2021-02-11T13:15:50.000Z</time>
      </trkpt>
      <trkpt lat="44.04708" lon="5.91208">
        <ele>672</ele>
        <time>2021-02-11T13:15:52.000Z</time>
      </trkpt>
      <trkpt lat="44.0471" lon="5.91204">
        <ele>672.59997558594</ele>
        <time>2021-02-11T13:15:54.000Z</time>
      </trkpt>
      <trkpt lat="44.04712" lon="5.91198">
        <ele>673</ele>
        <time>2021-02-11T13:15:56.000Z</time>
      </trkpt>
      <trkpt lat="44.04714" lon="5.91189">
        <ele>673.59997558594</ele>
        <time>2021-02-11T13:15:59.000Z</time>
      </trkpt>
      <trkpt lat="44.04714" lon="5.91183">
        <ele>673.79998779297</ele>
        <time>2021-02-11T13:16:01.000Z</time>
      </trkpt>
      <trkpt lat="44.04711" lon="5.91178">
        <ele>674</ele>
        <time>2021-02-11T13:16:03.000Z</time>
      </trkpt>
      <trkpt lat="44.04708" lon="5.91178">
        <ele>674</ele>
        <time>2021-02-11T13:16:06.000Z</time>
      </trkpt>
      <trkpt lat="44.04704" lon="5.91187">
        <ele>674.20001220703</ele>
        <time>2021-02-11T13:16:11.000Z</time>
      </trkpt>
      <trkpt lat="44.047" lon="5.91191">
        <ele>674.59997558594</ele>
        <time>2021-02-11T13:16:13.000Z</time>
      </trkpt>
      <trkpt lat="44.04697" lon="5.91194">
        <ele>675.20001220703</ele>
        <time>2021-02-11T13:16:15.000Z</time>
      </trkpt>
      <trkpt lat="44.04695" lon="5.91197">
        <ele>675.40002441406</ele>
        <time>2021-02-11T13:16:16.000Z</time>
      </trkpt>
      <trkpt lat="44.04688" lon="5.91207">
        <ele>675.79998779297</ele>
        <time>2021-02-11T13:16:21.000Z</time>
      </trkpt>
      <trkpt lat="44.04686" lon="5.91208">
        <ele>676</ele>
        <time>2021-02-11T13:16:22.000Z</time>
      </trkpt>
      <trkpt lat="44.04685" lon="5.91207">
        <ele>676.20001220703</ele>
        <time>2021-02-11T13:16:23.000Z</time>
      </trkpt>
      <trkpt lat="44.04685" lon="5.91203">
        <ele>676.40002441406</ele>
        <time>2021-02-11T13:16:25.000Z</time>
      </trkpt>
      <trkpt lat="44.04684" lon="5.91191">
        <ele>677</ele>
        <time>2021-02-11T13:16:30.000Z</time>
      </trkpt>
      <trkpt lat="44.04684" lon="5.91189">
        <ele>677.40002441406</ele>
        <time>2021-02-11T13:16:31.000Z</time>
      </trkpt>
      <trkpt lat="44.04682" lon="5.91185">
        <ele>678</ele>
        <time>2021-02-11T13:16:33.000Z</time>
      </trkpt>
      <trkpt lat="44.0468" lon="5.91183">
        <ele>678.20001220703</ele>
        <time>2021-02-11T13:16:34.000Z</time>
      </trkpt>
      <trkpt lat="44.04679" lon="5.91184">
        <ele>678.40002441406</ele>
        <time>2021-02-11T13:16:35.000Z</time>
      </trkpt>
      <trkpt lat="44.04668" lon="5.91191">
        <ele>679.40002441406</ele>
        <time>2021-02-11T13:16:41.000Z</time>
      </trkpt>
      <trkpt lat="44.04661" lon="5.912">
        <ele>680.20001220703</ele>
        <time>2021-02-11T13:16:45.000Z</time>
      </trkpt>
      <trkpt lat="44.04659" lon="5.912">
        <ele>680.40002441406</ele>
        <time>2021-02-11T13:16:46.000Z</time>
      </trkpt>
      <trkpt lat="44.04655" lon="5.91193">
        <ele>681.40002441406</ele>
        <time>2021-02-11T13:16:50.000Z</time>
      </trkpt>
      <trkpt lat="44.04655" lon="5.9119">
        <ele>681.59997558594</ele>
        <time>2021-02-11T13:16:51.000Z</time>
      </trkpt>
      <trkpt lat="44.04654" lon="5.91188">
        <ele>681.59997558594</ele>
        <time>2021-02-11T13:16:52.000Z</time>
      </trkpt>
      <trkpt lat="44.04655" lon="5.91177">
        <ele>682</ele>
        <time>2021-02-11T13:16:56.000Z</time>
      </trkpt>
      <trkpt lat="44.04653" lon="5.91174">
        <ele>682.40002441406</ele>
        <time>2021-02-11T13:16:57.000Z</time>
      </trkpt>
      <trkpt lat="44.04652" lon="5.91171">
        <ele>682.79998779297</ele>
        <time>2021-02-11T13:16:58.000Z</time>
      </trkpt>
      <trkpt lat="44.04649" lon="5.91161">
        <ele>683.40002441406</ele>
        <time>2021-02-11T13:17:01.000Z</time>
      </trkpt>
      <trkpt lat="44.04645" lon="5.9115">
        <ele>683.79998779297</ele>
        <time>2021-02-11T13:17:04.000Z</time>
      </trkpt>
      <trkpt lat="44.04643" lon="5.91143">
        <ele>684</ele>
        <time>2021-02-11T13:17:06.000Z</time>
      </trkpt>
      <trkpt lat="44.04642" lon="5.91122">
        <ele>684.40002441406</ele>
        <time>2021-02-11T13:17:11.000Z</time>
      </trkpt>
      <trkpt lat="44.04645" lon="5.91109">
        <ele>684.59997558594</ele>
        <time>2021-02-11T13:17:15.000Z</time>
      </trkpt>
      <trkpt lat="44.04647" lon="5.91105">
        <ele>684.79998779297</ele>
        <time>2021-02-11T13:17:17.000Z</time>
      </trkpt>
      <trkpt lat="44.04649" lon="5.91094">
        <ele>685</ele>
        <time>2021-02-11T13:17:20.000Z</time>
      </trkpt>
      <trkpt lat="44.04648" lon="5.91075">
        <ele>685.40002441406</ele>
        <time>2021-02-11T13:17:26.000Z</time>
      </trkpt>
      <trkpt lat="44.04646" lon="5.91069">
        <ele>685.79998779297</ele>
        <time>2021-02-11T13:17:28.000Z</time>
      </trkpt>
      <trkpt lat="44.04644" lon="5.91055">
        <ele>687</ele>
        <time>2021-02-11T13:17:33.000Z</time>
      </trkpt>
      <trkpt lat="44.04641" lon="5.91045">
        <ele>688.40002441406</ele>
        <time>2021-02-11T13:17:36.000Z</time>
      </trkpt>
      <trkpt lat="44.04639" lon="5.91043">
        <ele>689.40002441406</ele>
        <time>2021-02-11T13:17:38.000Z</time>
      </trkpt>
      <trkpt lat="44.04637" lon="5.91044">
        <ele>689.79998779297</ele>
        <time>2021-02-11T13:17:39.000Z</time>
      </trkpt>
      <trkpt lat="44.04631" lon="5.91052">
        <ele>691</ele>
        <time>2021-02-11T13:17:43.000Z</time>
      </trkpt>
      <trkpt lat="44.04625" lon="5.91063">
        <ele>692</ele>
        <time>2021-02-11T13:17:48.000Z</time>
      </trkpt>
      <trkpt lat="44.04621" lon="5.91068">
        <ele>692.59997558594</ele>
        <time>2021-02-11T13:17:51.000Z</time>
      </trkpt>
      <trkpt lat="44.04616" lon="5.91073">
        <ele>693.20001220703</ele>
        <time>2021-02-11T13:17:54.000Z</time>
      </trkpt>
      <trkpt lat="44.04614" lon="5.91078">
        <ele>693.59997558594</ele>
        <time>2021-02-11T13:17:57.000Z</time>
      </trkpt>
      <trkpt lat="44.04613" lon="5.91081">
        <ele>694.40002441406</ele>
        <time>2021-02-11T13:18:00.000Z</time>
      </trkpt>
      <trkpt lat="44.04613" lon="5.91082">
        <ele>694.59997558594</ele>
        <time>2021-02-11T13:18:01.000Z</time>
      </trkpt>
      <trkpt lat="44.04613" lon="5.91081">
        <ele>695.40002441406</ele>
        <time>2021-02-11T13:18:08.000Z</time>
      </trkpt>
      <trkpt lat="44.04613" lon="5.91082">
        <ele>695.59997558594</ele>
        <time>2021-02-11T13:18:09.000Z</time>
      </trkpt>
      <trkpt lat="44.04609" lon="5.91092">
        <ele>695.59997558594</ele>
        <time>2021-02-11T13:18:14.000Z</time>
      </trkpt>
      <trkpt lat="44.04599" lon="5.91113">
        <ele>696</ele>
        <time>2021-02-11T13:18:21.000Z</time>
      </trkpt>
      <trkpt lat="44.04593" lon="5.91127">
        <ele>696.59997558594</ele>
        <time>2021-02-11T13:18:27.000Z</time>
      </trkpt>
      <trkpt lat="44.04593" lon="5.91127">
        <ele>697</ele>
        <time>2021-02-11T13:18:34.000Z</time>
      </trkpt>
      <trkpt lat="44.04593" lon="5.91126">
        <ele>697</ele>
        <time>2021-02-11T13:18:44.000Z</time>
      </trkpt>
      <trkpt lat="44.04593" lon="5.91125">
        <ele>697</ele>
        <time>2021-02-11T13:18:45.000Z</time>
      </trkpt>
      <trkpt lat="44.04593" lon="5.91124">
        <ele>697.20001220703</ele>
        <time>2021-02-11T13:18:50.000Z</time>
      </trkpt>
      <trkpt lat="44.04592" lon="5.91124">
        <ele>697</ele>
        <time>2021-02-11T13:19:42.000Z</time>
      </trkpt>
      <trkpt lat="44.04592" lon="5.91125">
        <ele>697.40002441406</ele>
        <time>2021-02-11T13:20:59.000Z</time>
      </trkpt>
      <trkpt lat="44.04592" lon="5.91125">
        <ele>697.59997558594</ele>
        <time>2021-02-11T13:21:08.000Z</time>
      </trkpt>
      <trkpt lat="44.04591" lon="5.91124">
        <ele>697.59997558594</ele>
        <time>2021-02-11T13:21:19.000Z</time>
      </trkpt>
      <trkpt lat="44.04591" lon="5.91124">
        <ele>697.40002441406</ele>
        <time>2021-02-11T13:23:02.000Z</time>
      </trkpt>
      <trkpt lat="44.04591" lon="5.91125">
        <ele>697.20001220703</ele>
        <time>2021-02-11T13:24:38.000Z</time>
      </trkpt>
      <trkpt lat="44.04591" lon="5.91125">
        <ele>697.40002441406</ele>
        <time>2021-02-11T13:24:56.000Z</time>
      </trkpt>
      <trkpt lat="44.04591" lon="5.91125">
        <ele>697.40002441406</ele>
        <time>2021-02-11T13:25:11.000Z</time>
      </trkpt>
      <trkpt lat="44.04591" lon="5.91127">
        <ele>697</ele>
        <time>2021-02-11T13:26:08.000Z</time>
      </trkpt>
      <trkpt lat="44.04591" lon="5.91127">
        <ele>697.20001220703</ele>
        <time>2021-02-11T13:26:16.000Z</time>
      </trkpt>
      <trkpt lat="44.04591" lon="5.91127">
        <ele>697.20001220703</ele>
        <time>2021-02-11T13:26:32.000Z</time>
      </trkpt>
      <trkpt lat="44.04591" lon="5.91129">
        <ele>697.20001220703</ele>
        <time>2021-02-11T13:26:33.000Z</time>
      </trkpt>
      <trkpt lat="44.04589" lon="5.91138">
        <ele>697.20001220703</ele>
        <time>2021-02-11T13:26:38.000Z</time>
      </trkpt>
      <trkpt lat="44.04584" lon="5.91157">
        <ele>697.20001220703</ele>
        <time>2021-02-11T13:26:44.000Z</time>
      </trkpt>
      <trkpt lat="44.04577" lon="5.9116">
        <ele>697.20001220703</ele>
        <time>2021-02-11T13:26:48.000Z</time>
      </trkpt>
      <trkpt lat="44.04578" lon="5.91149">
        <ele>697.40002441406</ele>
        <time>2021-02-11T13:26:53.000Z</time>
      </trkpt>
      <trkpt lat="44.04578" lon="5.91146">
        <ele>697.59997558594</ele>
        <time>2021-02-11T13:26:54.000Z</time>
      </trkpt>
      <trkpt lat="44.0458" lon="5.91136">
        <ele>698.20001220703</ele>
        <time>2021-02-11T13:26:57.000Z</time>
      </trkpt>
      <trkpt lat="44.04581" lon="5.91126">
        <ele>698.59997558594</ele>
        <time>2021-02-11T13:27:00.000Z</time>
      </trkpt>
      <trkpt lat="44.04584" lon="5.91113">
        <ele>698.79998779297</ele>
        <time>2021-02-11T13:27:05.000Z</time>
      </trkpt>
      <trkpt lat="44.04588" lon="5.91103">
        <ele>699.40002441406</ele>
        <time>2021-02-11T13:27:09.000Z</time>
      </trkpt>
      <trkpt lat="44.04589" lon="5.91097">
        <ele>699.79998779297</ele>
        <time>2021-02-11T13:27:11.000Z</time>
      </trkpt>
      <trkpt lat="44.04593" lon="5.91079">
        <ele>700.20001220703</ele>
        <time>2021-02-11T13:27:17.000Z</time>
      </trkpt>
      <trkpt lat="44.04596" lon="5.91062">
        <ele>700.40002441406</ele>
        <time>2021-02-11T13:27:22.000Z</time>
      </trkpt>
      <trkpt lat="44.046" lon="5.91036">
        <ele>700.59997558594</ele>
        <time>2021-02-11T13:27:28.000Z</time>
      </trkpt>
      <trkpt lat="44.04606" lon="5.91014">
        <ele>700.59997558594</ele>
        <time>2021-02-11T13:27:33.000Z</time>
      </trkpt>
      <trkpt lat="44.04611" lon="5.90992">
        <ele>700.79998779297</ele>
        <time>2021-02-11T13:27:39.000Z</time>
      </trkpt>
      <trkpt lat="44.04611" lon="5.90989">
        <ele>701</ele>
        <time>2021-02-11T13:27:40.000Z</time>
      </trkpt>
      <trkpt lat="44.04609" lon="5.90988">
        <ele>701</ele>
        <time>2021-02-11T13:27:42.000Z</time>
      </trkpt>
      <trkpt lat="44.04606" lon="5.90994">
        <ele>701.40002441406</ele>
        <time>2021-02-11T13:27:45.000Z</time>
      </trkpt>
      <trkpt lat="44.04605" lon="5.90997">
        <ele>701.40002441406</ele>
        <time>2021-02-11T13:27:46.000Z</time>
      </trkpt>
      <trkpt lat="44.04604" lon="5.91">
        <ele>701.40002441406</ele>
        <time>2021-02-11T13:27:47.000Z</time>
      </trkpt>
      <trkpt lat="44.04601" lon="5.91009">
        <ele>702.59997558594</ele>
        <time>2021-02-11T13:27:50.000Z</time>
      </trkpt>
      <trkpt lat="44.04596" lon="5.91017">
        <ele>703</ele>
        <time>2021-02-11T13:27:53.000Z</time>
      </trkpt>
      <trkpt lat="44.0459" lon="5.91022">
        <ele>703.20001220703</ele>
        <time>2021-02-11T13:27:56.000Z</time>
      </trkpt>
      <trkpt lat="44.04589" lon="5.91026">
        <ele>703.20001220703</ele>
        <time>2021-02-11T13:27:57.000Z</time>
      </trkpt>
      <trkpt lat="44.04587" lon="5.91036">
        <ele>703.40002441406</ele>
        <time>2021-02-11T13:28:00.000Z</time>
      </trkpt>
      <trkpt lat="44.04584" lon="5.91045">
        <ele>703.59997558594</ele>
        <time>2021-02-11T13:28:03.000Z</time>
      </trkpt>
      <trkpt lat="44.04577" lon="5.9106">
        <ele>704.40002441406</ele>
        <time>2021-02-11T13:28:09.000Z</time>
      </trkpt>
      <trkpt lat="44.04575" lon="5.91071">
        <ele>704.79998779297</ele>
        <time>2021-02-11T13:28:12.000Z</time>
      </trkpt>
      <trkpt lat="44.04571" lon="5.91081">
        <ele>705.79998779297</ele>
        <time>2021-02-11T13:28:15.000Z</time>
      </trkpt>
      <trkpt lat="44.04563" lon="5.91097">
        <ele>706.79998779297</ele>
        <time>2021-02-11T13:28:20.000Z</time>
      </trkpt>
      <trkpt lat="44.04562" lon="5.911">
        <ele>707</ele>
        <time>2021-02-11T13:28:21.000Z</time>
      </trkpt>
      <trkpt lat="44.0456" lon="5.91108">
        <ele>707</ele>
        <time>2021-02-11T13:28:23.000Z</time>
      </trkpt>
      <trkpt lat="44.04555" lon="5.91111">
        <ele>707.20001220703</ele>
        <time>2021-02-11T13:28:25.000Z</time>
      </trkpt>
      <trkpt lat="44.04552" lon="5.91103">
        <ele>707.40002441406</ele>
        <time>2021-02-11T13:28:28.000Z</time>
      </trkpt>
      <trkpt lat="44.04553" lon="5.911">
        <ele>707.59997558594</ele>
        <time>2021-02-11T13:28:29.000Z</time>
      </trkpt>
      <trkpt lat="44.04554" lon="5.91088">
        <ele>707.79998779297</ele>
        <time>2021-02-11T13:28:32.000Z</time>
      </trkpt>
      <trkpt lat="44.04554" lon="5.91086">
        <ele>708</ele>
        <time>2021-02-11T13:28:33.000Z</time>
      </trkpt>
      <trkpt lat="44.04556" lon="5.9107">
        <ele>709</ele>
        <time>2021-02-11T13:28:38.000Z</time>
      </trkpt>
      <trkpt lat="44.04558" lon="5.91049">
        <ele>710</ele>
        <time>2021-02-11T13:28:44.000Z</time>
      </trkpt>
      <trkpt lat="44.0456" lon="5.91029">
        <ele>711.20001220703</ele>
        <time>2021-02-11T13:28:50.000Z</time>
      </trkpt>
      <trkpt lat="44.04566" lon="5.91009">
        <ele>711.59997558594</ele>
        <time>2021-02-11T13:28:55.000Z</time>
      </trkpt>
      <trkpt lat="44.04569" lon="5.9098">
        <ele>712.20001220703</ele>
        <time>2021-02-11T13:29:02.000Z</time>
      </trkpt>
      <trkpt lat="44.0457" lon="5.90976">
        <ele>712.20001220703</ele>
        <time>2021-02-11T13:29:03.000Z</time>
      </trkpt>
      <trkpt lat="44.04568" lon="5.90965">
        <ele>712.40002441406</ele>
        <time>2021-02-11T13:29:06.000Z</time>
      </trkpt>
      <trkpt lat="44.04565" lon="5.90953">
        <ele>713.40002441406</ele>
        <time>2021-02-11T13:29:10.000Z</time>
      </trkpt>
      <trkpt lat="44.04566" lon="5.90949">
        <ele>713.59997558594</ele>
        <time>2021-02-11T13:29:11.000Z</time>
      </trkpt>
      <trkpt lat="44.04568" lon="5.90931">
        <ele>714.59997558594</ele>
        <time>2021-02-11T13:29:15.000Z</time>
      </trkpt>
      <trkpt lat="44.04569" lon="5.90927">
        <ele>715</ele>
        <time>2021-02-11T13:29:16.000Z</time>
      </trkpt>
      <trkpt lat="44.04568" lon="5.9091">
        <ele>715.40002441406</ele>
        <time>2021-02-11T13:29:21.000Z</time>
      </trkpt>
      <trkpt lat="44.04564" lon="5.9091">
        <ele>715.59997558594</ele>
        <time>2021-02-11T13:29:24.000Z</time>
      </trkpt>
      <trkpt lat="44.0456" lon="5.90923">
        <ele>715.79998779297</ele>
        <time>2021-02-11T13:29:28.000Z</time>
      </trkpt>
      <trkpt lat="44.04559" lon="5.90927">
        <ele>716</ele>
        <time>2021-02-11T13:29:29.000Z</time>
      </trkpt>
      <trkpt lat="44.04555" lon="5.90942">
        <ele>716.79998779297</ele>
        <time>2021-02-11T13:29:33.000Z</time>
      </trkpt>
      <trkpt lat="44.04555" lon="5.90945">
        <ele>717.20001220703</ele>
        <time>2021-02-11T13:29:34.000Z</time>
      </trkpt>
      <trkpt lat="44.04551" lon="5.9096">
        <ele>717.79998779297</ele>
        <time>2021-02-11T13:29:38.000Z</time>
      </trkpt>
      <trkpt lat="44.0455" lon="5.90964">
        <ele>718</ele>
        <time>2021-02-11T13:29:39.000Z</time>
      </trkpt>
      <trkpt lat="44.04547" lon="5.90971">
        <ele>718.59997558594</ele>
        <time>2021-02-11T13:29:41.000Z</time>
      </trkpt>
      <trkpt lat="44.04546" lon="5.90972">
        <ele>719</ele>
        <time>2021-02-11T13:29:42.000Z</time>
      </trkpt>
      <trkpt lat="44.04545" lon="5.9097">
        <ele>719.20001220703</ele>
        <time>2021-02-11T13:29:43.000Z</time>
      </trkpt>
      <trkpt lat="44.04548" lon="5.90958">
        <ele>719.79998779297</ele>
        <time>2021-02-11T13:29:46.000Z</time>
      </trkpt>
      <trkpt lat="44.04549" lon="5.90953">
        <ele>720.20001220703</ele>
        <time>2021-02-11T13:29:47.000Z</time>
      </trkpt>
      <trkpt lat="44.04549" lon="5.90948">
        <ele>720.40002441406</ele>
        <time>2021-02-11T13:29:48.000Z</time>
      </trkpt>
      <trkpt lat="44.04549" lon="5.90939">
        <ele>720.79998779297</ele>
        <time>2021-02-11T13:29:50.000Z</time>
      </trkpt>
      <trkpt lat="44.04548" lon="5.90935">
        <ele>721.20001220703</ele>
        <time>2021-02-11T13:29:51.000Z</time>
      </trkpt>
      <trkpt lat="44.04547" lon="5.90921">
        <ele>721.59997558594</ele>
        <time>2021-02-11T13:29:55.000Z</time>
      </trkpt>
      <trkpt lat="44.04542" lon="5.90905">
        <ele>721.79998779297</ele>
        <time>2021-02-11T13:29:59.000Z</time>
      </trkpt>
      <trkpt lat="44.04536" lon="5.90889">
        <ele>722</ele>
        <time>2021-02-11T13:30:02.000Z</time>
      </trkpt>
      <trkpt lat="44.04531" lon="5.90877">
        <ele>722</ele>
        <time>2021-02-11T13:30:04.000Z</time>
      </trkpt>
      <trkpt lat="44.04517" lon="5.90856">
        <ele>722.20001220703</ele>
        <time>2021-02-11T13:30:09.000Z</time>
      </trkpt>
      <trkpt lat="44.04513" lon="5.90852">
        <ele>722.20001220703</ele>
        <time>2021-02-11T13:30:10.000Z</time>
      </trkpt>
      <trkpt lat="44.04506" lon="5.90844">
        <ele>722.59997558594</ele>
        <time>2021-02-11T13:30:14.000Z</time>
      </trkpt>
      <trkpt lat="44.04505" lon="5.90843">
        <ele>722.79998779297</ele>
        <time>2021-02-11T13:30:15.000Z</time>
      </trkpt>
      <trkpt lat="44.04502" lon="5.90839">
        <ele>723.20001220703</ele>
        <time>2021-02-11T13:30:19.000Z</time>
      </trkpt>
      <trkpt lat="44.04501" lon="5.90837">
        <ele>723.79998779297</ele>
        <time>2021-02-11T13:30:20.000Z</time>
      </trkpt>
      <trkpt lat="44.04501" lon="5.90834">
        <ele>724.40002441406</ele>
        <time>2021-02-11T13:30:21.000Z</time>
      </trkpt>
      <trkpt lat="44.04502" lon="5.90825">
        <ele>725.59997558594</ele>
        <time>2021-02-11T13:30:23.000Z</time>
      </trkpt>
      <trkpt lat="44.04502" lon="5.9082">
        <ele>725.79998779297</ele>
        <time>2021-02-11T13:30:24.000Z</time>
      </trkpt>
      <trkpt lat="44.0451" lon="5.90801">
        <ele>726.40002441406</ele>
        <time>2021-02-11T13:30:29.000Z</time>
      </trkpt>
      <trkpt lat="44.04512" lon="5.90797">
        <ele>726.59997558594</ele>
        <time>2021-02-11T13:30:30.000Z</time>
      </trkpt>
      <trkpt lat="44.04522" lon="5.9078">
        <ele>727</ele>
        <time>2021-02-11T13:30:35.000Z</time>
      </trkpt>
      <trkpt lat="44.04537" lon="5.90762">
        <ele>727.59997558594</ele>
        <time>2021-02-11T13:30:40.000Z</time>
      </trkpt>
      <trkpt lat="44.04547" lon="5.90746">
        <ele>727.59997558594</ele>
        <time>2021-02-11T13:30:44.000Z</time>
      </trkpt>
      <trkpt lat="44.04559" lon="5.90728">
        <ele>726.79998779297</ele>
        <time>2021-02-11T13:30:49.000Z</time>
      </trkpt>
      <trkpt lat="44.04572" lon="5.90709">
        <ele>726.59997558594</ele>
        <time>2021-02-11T13:30:54.000Z</time>
      </trkpt>
      <trkpt lat="44.04578" lon="5.90695">
        <ele>726.59997558594</ele>
        <time>2021-02-11T13:30:57.000Z</time>
      </trkpt>
      <trkpt lat="44.04588" lon="5.90672">
        <ele>727</ele>
        <time>2021-02-11T13:31:04.000Z</time>
      </trkpt>
      <trkpt lat="44.04597" lon="5.90656">
        <ele>727.59997558594</ele>
        <time>2021-02-11T13:31:08.000Z</time>
      </trkpt>
      <trkpt lat="44.04599" lon="5.90652">
        <ele>727.79998779297</ele>
        <time>2021-02-11T13:31:09.000Z</time>
      </trkpt>
      <trkpt lat="44.046" lon="5.90647">
        <ele>728.40002441406</ele>
        <time>2021-02-11T13:31:11.000Z</time>
      </trkpt>
      <trkpt lat="44.046" lon="5.90646">
        <ele>728.40002441406</ele>
        <time>2021-02-11T13:31:12.000Z</time>
      </trkpt>
      <trkpt lat="44.04599" lon="5.90647">
        <ele>728.59997558594</ele>
        <time>2021-02-11T13:31:14.000Z</time>
      </trkpt>
      <trkpt lat="44.04596" lon="5.90651">
        <ele>729</ele>
        <time>2021-02-11T13:31:17.000Z</time>
      </trkpt>
      <trkpt lat="44.04586" lon="5.90656">
        <ele>729.79998779297</ele>
        <time>2021-02-11T13:31:23.000Z</time>
      </trkpt>
      <trkpt lat="44.0458" lon="5.90658">
        <ele>730.79998779297</ele>
        <time>2021-02-11T13:31:27.000Z</time>
      </trkpt>
      <trkpt lat="44.04575" lon="5.90661">
        <ele>731.79998779297</ele>
        <time>2021-02-11T13:31:30.000Z</time>
      </trkpt>
      <trkpt lat="44.04573" lon="5.90662">
        <ele>732.20001220703</ele>
        <time>2021-02-11T13:31:31.000Z</time>
      </trkpt>
      <trkpt lat="44.0457" lon="5.90664">
        <ele>733</ele>
        <time>2021-02-11T13:31:33.000Z</time>
      </trkpt>
      <trkpt lat="44.04565" lon="5.90669">
        <ele>734.59997558594</ele>
        <time>2021-02-11T13:31:36.000Z</time>
      </trkpt>
      <trkpt lat="44.04562" lon="5.90672">
        <ele>735.20001220703</ele>
        <time>2021-02-11T13:31:38.000Z</time>
      </trkpt>
      <trkpt lat="44.04561" lon="5.90673">
        <ele>735.59997558594</ele>
        <time>2021-02-11T13:31:39.000Z</time>
      </trkpt>
      <trkpt lat="44.04555" lon="5.90679">
        <ele>736.79998779297</ele>
        <time>2021-02-11T13:31:43.000Z</time>
      </trkpt>
      <trkpt lat="44.0455" lon="5.90683">
        <ele>737.40002441406</ele>
        <time>2021-02-11T13:31:47.000Z</time>
      </trkpt>
      <trkpt lat="44.04546" lon="5.90686">
        <ele>737.79998779297</ele>
        <time>2021-02-11T13:31:49.000Z</time>
      </trkpt>
      <trkpt lat="44.0454" lon="5.9069">
        <ele>738.79998779297</ele>
        <time>2021-02-11T13:31:53.000Z</time>
      </trkpt>
      <trkpt lat="44.04539" lon="5.90692">
        <ele>739</ele>
        <time>2021-02-11T13:31:54.000Z</time>
      </trkpt>
      <trkpt lat="44.04531" lon="5.90699">
        <ele>740.20001220703</ele>
        <time>2021-02-11T13:31:59.000Z</time>
      </trkpt>
      <trkpt lat="44.04529" lon="5.907">
        <ele>740.59997558594</ele>
        <time>2021-02-11T13:32:00.000Z</time>
      </trkpt>
      <trkpt lat="44.04525" lon="5.90706">
        <ele>741.59997558594</ele>
        <time>2021-02-11T13:32:03.000Z</time>
      </trkpt>
      <trkpt lat="44.04521" lon="5.9071">
        <ele>742.59997558594</ele>
        <time>2021-02-11T13:32:06.000Z</time>
      </trkpt>
      <trkpt lat="44.04513" lon="5.9072">
        <ele>743.40002441406</ele>
        <time>2021-02-11T13:32:12.000Z</time>
      </trkpt>
      <trkpt lat="44.04511" lon="5.90721">
        <ele>743.59997558594</ele>
        <time>2021-02-11T13:32:13.000Z</time>
      </trkpt>
      <trkpt lat="44.04503" lon="5.90726">
        <ele>744.59997558594</ele>
        <time>2021-02-11T13:32:18.000Z</time>
      </trkpt>
      <trkpt lat="44.04501" lon="5.90728">
        <ele>744.79998779297</ele>
        <time>2021-02-11T13:32:19.000Z</time>
      </trkpt>
      <trkpt lat="44.04495" lon="5.90735">
        <ele>746.20001220703</ele>
        <time>2021-02-11T13:32:23.000Z</time>
      </trkpt>
      <trkpt lat="44.04491" lon="5.90738">
        <ele>746.79998779297</ele>
        <time>2021-02-11T13:32:25.000Z</time>
      </trkpt>
      <trkpt lat="44.04488" lon="5.9074">
        <ele>747.40002441406</ele>
        <time>2021-02-11T13:32:27.000Z</time>
      </trkpt>
      <trkpt lat="44.04482" lon="5.90745">
        <ele>748.20001220703</ele>
        <time>2021-02-11T13:32:30.000Z</time>
      </trkpt>
      <trkpt lat="44.0448" lon="5.90747">
        <ele>748.40002441406</ele>
        <time>2021-02-11T13:32:31.000Z</time>
      </trkpt>
      <trkpt lat="44.04475" lon="5.9075">
        <ele>749.59997558594</ele>
        <time>2021-02-11T13:32:34.000Z</time>
      </trkpt>
      <trkpt lat="44.04471" lon="5.90753">
        <ele>750.20001220703</ele>
        <time>2021-02-11T13:32:36.000Z</time>
      </trkpt>
      <trkpt lat="44.04468" lon="5.90756">
        <ele>750.79998779297</ele>
        <time>2021-02-11T13:32:38.000Z</time>
      </trkpt>
      <trkpt lat="44.04459" lon="5.90761">
        <ele>752</ele>
        <time>2021-02-11T13:32:42.000Z</time>
      </trkpt>
      <trkpt lat="44.04457" lon="5.90762">
        <ele>752.20001220703</ele>
        <time>2021-02-11T13:32:43.000Z</time>
      </trkpt>
      <trkpt lat="44.04446" lon="5.90777">
        <ele>752.79998779297</ele>
        <time>2021-02-11T13:32:48.000Z</time>
      </trkpt>
      <trkpt lat="44.04431" lon="5.90805">
        <ele>753</ele>
        <time>2021-02-11T13:32:55.000Z</time>
      </trkpt>
      <trkpt lat="44.04424" lon="5.90826">
        <ele>752.40002441406</ele>
        <time>2021-02-11T13:33:00.000Z</time>
      </trkpt>
      <trkpt lat="44.04424" lon="5.90837">
        <ele>751.59997558594</ele>
        <time>2021-02-11T13:33:03.000Z</time>
      </trkpt>
      <trkpt lat="44.04426" lon="5.90845">
        <ele>751.20001220703</ele>
        <time>2021-02-11T13:33:05.000Z</time>
      </trkpt>
      <trkpt lat="44.04429" lon="5.90858">
        <ele>751</ele>
        <time>2021-02-11T13:33:08.000Z</time>
      </trkpt>
      <trkpt lat="44.0443" lon="5.90866">
        <ele>750.79998779297</ele>
        <time>2021-02-11T13:33:10.000Z</time>
      </trkpt>
      <trkpt lat="44.0443" lon="5.9087">
        <ele>750.79998779297</ele>
        <time>2021-02-11T13:33:11.000Z</time>
      </trkpt>
      <trkpt lat="44.04435" lon="5.9088">
        <ele>750.79998779297</ele>
        <time>2021-02-11T13:33:14.000Z</time>
      </trkpt>
      <trkpt lat="44.04437" lon="5.90884">
        <ele>750.79998779297</ele>
        <time>2021-02-11T13:33:15.000Z</time>
      </trkpt>
      <trkpt lat="44.04445" lon="5.90905">
        <ele>750.59997558594</ele>
        <time>2021-02-11T13:33:20.000Z</time>
      </trkpt>
      <trkpt lat="44.04452" lon="5.90927">
        <ele>750.59997558594</ele>
        <time>2021-02-11T13:33:25.000Z</time>
      </trkpt>
      <trkpt lat="44.04458" lon="5.90955">
        <ele>750.59997558594</ele>
        <time>2021-02-11T13:33:31.000Z</time>
      </trkpt>
      <trkpt lat="44.0446" lon="5.90973">
        <ele>750.59997558594</ele>
        <time>2021-02-11T13:33:34.000Z</time>
      </trkpt>
      <trkpt lat="44.04459" lon="5.90984">
        <ele>750.59997558594</ele>
        <time>2021-02-11T13:33:36.000Z</time>
      </trkpt>
      <trkpt lat="44.04459" lon="5.90997">
        <ele>750.40002441406</ele>
        <time>2021-02-11T13:33:38.000Z</time>
      </trkpt>
      <trkpt lat="44.04458" lon="5.91009">
        <ele>750</ele>
        <time>2021-02-11T13:33:40.000Z</time>
      </trkpt>
      <trkpt lat="44.04457" lon="5.91014">
        <ele>749.59997558594</ele>
        <time>2021-02-11T13:33:41.000Z</time>
      </trkpt>
      <trkpt lat="44.04455" lon="5.91028">
        <ele>748.79998779297</ele>
        <time>2021-02-11T13:33:44.000Z</time>
      </trkpt>
      <trkpt lat="44.04455" lon="5.91039">
        <ele>748.20001220703</ele>
        <time>2021-02-11T13:33:46.000Z</time>
      </trkpt>
      <trkpt lat="44.04452" lon="5.91052">
        <ele>747.79998779297</ele>
        <time>2021-02-11T13:33:49.000Z</time>
      </trkpt>
      <trkpt lat="44.04449" lon="5.9106">
        <ele>747.59997558594</ele>
        <time>2021-02-11T13:33:51.000Z</time>
      </trkpt>
      <trkpt lat="44.04443" lon="5.91078">
        <ele>747</ele>
        <time>2021-02-11T13:33:55.000Z</time>
      </trkpt>
      <trkpt lat="44.04435" lon="5.91088">
        <ele>746.59997558594</ele>
        <time>2021-02-11T13:33:59.000Z</time>
      </trkpt>
      <trkpt lat="44.04423" lon="5.91099">
        <ele>746.59997558594</ele>
        <time>2021-02-11T13:34:04.000Z</time>
      </trkpt>
      <trkpt lat="44.04409" lon="5.91113">
        <ele>746.59997558594</ele>
        <time>2021-02-11T13:34:10.000Z</time>
      </trkpt>
      <trkpt lat="44.04407" lon="5.91115">
        <ele>746.59997558594</ele>
        <time>2021-02-11T13:34:11.000Z</time>
      </trkpt>
      <trkpt lat="44.04401" lon="5.91117">
        <ele>746.59997558594</ele>
        <time>2021-02-11T13:34:14.000Z</time>
      </trkpt>
      <trkpt lat="44.04391" lon="5.91124">
        <ele>746.79998779297</ele>
        <time>2021-02-11T13:34:19.000Z</time>
      </trkpt>
      <trkpt lat="44.04385" lon="5.91125">
        <ele>747.40002441406</ele>
        <time>2021-02-11T13:34:22.000Z</time>
      </trkpt>
      <trkpt lat="44.04381" lon="5.91128">
        <ele>747.79998779297</ele>
        <time>2021-02-11T13:34:24.000Z</time>
      </trkpt>
      <trkpt lat="44.04371" lon="5.91135">
        <ele>748.79998779297</ele>
        <time>2021-02-11T13:34:27.000Z</time>
      </trkpt>
      <trkpt lat="44.04368" lon="5.91135">
        <ele>749.20001220703</ele>
        <time>2021-02-11T13:34:28.000Z</time>
      </trkpt>
      <trkpt lat="44.04364" lon="5.91137">
        <ele>750</ele>
        <time>2021-02-11T13:34:30.000Z</time>
      </trkpt>
      <trkpt lat="44.04359" lon="5.91141">
        <ele>750.40002441406</ele>
        <time>2021-02-11T13:34:33.000Z</time>
      </trkpt>
      <trkpt lat="44.04358" lon="5.91142">
        <ele>750.79998779297</ele>
        <time>2021-02-11T13:34:37.000Z</time>
      </trkpt>
      <trkpt lat="44.04356" lon="5.91144">
        <ele>751.59997558594</ele>
        <time>2021-02-11T13:34:40.000Z</time>
      </trkpt>
      <trkpt lat="44.04348" lon="5.91152">
        <ele>751.79998779297</ele>
        <time>2021-02-11T13:34:45.000Z</time>
      </trkpt>
      <trkpt lat="44.04346" lon="5.91156">
        <ele>751.79998779297</ele>
        <time>2021-02-11T13:34:46.000Z</time>
      </trkpt>
      <trkpt lat="44.0434" lon="5.91172">
        <ele>751.79998779297</ele>
        <time>2021-02-11T13:34:51.000Z</time>
      </trkpt>
      <trkpt lat="44.04334" lon="5.91189">
        <ele>752.20001220703</ele>
        <time>2021-02-11T13:34:57.000Z</time>
      </trkpt>
      <trkpt lat="44.04333" lon="5.91189">
        <ele>752.40002441406</ele>
        <time>2021-02-11T13:34:58.000Z</time>
      </trkpt>
      <trkpt lat="44.04328" lon="5.91182">
        <ele>752.79998779297</ele>
        <time>2021-02-11T13:35:02.000Z</time>
      </trkpt>
      <trkpt lat="44.04327" lon="5.91181">
        <ele>753</ele>
        <time>2021-02-11T13:35:03.000Z</time>
      </trkpt>
      <trkpt lat="44.04326" lon="5.91179">
        <ele>753</ele>
        <time>2021-02-11T13:35:04.000Z</time>
      </trkpt>
      <trkpt lat="44.04324" lon="5.91174">
        <ele>754.20001220703</ele>
        <time>2021-02-11T13:35:07.000Z</time>
      </trkpt>
      <trkpt lat="44.04323" lon="5.91169">
        <ele>755</ele>
        <time>2021-02-11T13:35:10.000Z</time>
      </trkpt>
      <trkpt lat="44.04322" lon="5.91168">
        <ele>755.40002441406</ele>
        <time>2021-02-11T13:35:11.000Z</time>
      </trkpt>
      <trkpt lat="44.04321" lon="5.91163">
        <ele>756.59997558594</ele>
        <time>2021-02-11T13:35:14.000Z</time>
      </trkpt>
      <trkpt lat="44.04321" lon="5.91156">
        <ele>757.59997558594</ele>
        <time>2021-02-11T13:35:17.000Z</time>
      </trkpt>
      <trkpt lat="44.04322" lon="5.91148">
        <ele>758.79998779297</ele>
        <time>2021-02-11T13:35:21.000Z</time>
      </trkpt>
      <trkpt lat="44.04323" lon="5.91144">
        <ele>759.79998779297</ele>
        <time>2021-02-11T13:35:23.000Z</time>
      </trkpt>
      <trkpt lat="44.04324" lon="5.91142">
        <ele>760</ele>
        <time>2021-02-11T13:35:24.000Z</time>
      </trkpt>
      <trkpt lat="44.04327" lon="5.91132">
        <ele>761.20001220703</ele>
        <time>2021-02-11T13:35:29.000Z</time>
      </trkpt>
      <trkpt lat="44.04328" lon="5.91128">
        <ele>761.40002441406</ele>
        <time>2021-02-11T13:35:31.000Z</time>
      </trkpt>
      <trkpt lat="44.04329" lon="5.91116">
        <ele>762.20001220703</ele>
        <time>2021-02-11T13:35:36.000Z</time>
      </trkpt>
      <trkpt lat="44.04329" lon="5.91112">
        <ele>762.59997558594</ele>
        <time>2021-02-11T13:35:38.000Z</time>
      </trkpt>
      <trkpt lat="44.04329" lon="5.91109">
        <ele>763.40002441406</ele>
        <time>2021-02-11T13:35:40.000Z</time>
      </trkpt>
      <trkpt lat="44.04329" lon="5.91102">
        <ele>764.40002441406</ele>
        <time>2021-02-11T13:35:43.000Z</time>
      </trkpt>
      <trkpt lat="44.04329" lon="5.91096">
        <ele>765.20001220703</ele>
        <time>2021-02-11T13:35:45.000Z</time>
      </trkpt>
      <trkpt lat="44.04329" lon="5.91094">
        <ele>765.40002441406</ele>
        <time>2021-02-11T13:35:46.000Z</time>
      </trkpt>
      <trkpt lat="44.0433" lon="5.91083">
        <ele>767</ele>
        <time>2021-02-11T13:35:50.000Z</time>
      </trkpt>
      <trkpt lat="44.04329" lon="5.91078">
        <ele>767.79998779297</ele>
        <time>2021-02-11T13:35:52.000Z</time>
      </trkpt>
      <trkpt lat="44.04329" lon="5.91075">
        <ele>768.20001220703</ele>
        <time>2021-02-11T13:35:53.000Z</time>
      </trkpt>
      <trkpt lat="44.04328" lon="5.91068">
        <ele>769.20001220703</ele>
        <time>2021-02-11T13:35:56.000Z</time>
      </trkpt>
      <trkpt lat="44.04328" lon="5.91062">
        <ele>770.40002441406</ele>
        <time>2021-02-11T13:35:59.000Z</time>
      </trkpt>
      <trkpt lat="44.04328" lon="5.91059">
        <ele>770.79998779297</ele>
        <time>2021-02-11T13:36:00.000Z</time>
      </trkpt>
      <trkpt lat="44.04328" lon="5.91054">
        <ele>771.59997558594</ele>
        <time>2021-02-11T13:36:02.000Z</time>
      </trkpt>
      <trkpt lat="44.04327" lon="5.91047">
        <ele>772.79998779297</ele>
        <time>2021-02-11T13:36:05.000Z</time>
      </trkpt>
      <trkpt lat="44.04324" lon="5.91043">
        <ele>774</ele>
        <time>2021-02-11T13:36:08.000Z</time>
      </trkpt>
      <trkpt lat="44.0432" lon="5.91046">
        <ele>775</ele>
        <time>2021-02-11T13:36:11.000Z</time>
      </trkpt>
      <trkpt lat="44.04319" lon="5.91047">
        <ele>775.40002441406</ele>
        <time>2021-02-11T13:36:12.000Z</time>
      </trkpt>
      <trkpt lat="44.04317" lon="5.91049">
        <ele>775.79998779297</ele>
        <time>2021-02-11T13:36:13.000Z</time>
      </trkpt>
      <trkpt lat="44.04316" lon="5.91051">
        <ele>776.20001220703</ele>
        <time>2021-02-11T13:36:14.000Z</time>
      </trkpt>
      <trkpt lat="44.04316" lon="5.91055">
        <ele>777.20001220703</ele>
        <time>2021-02-11T13:36:17.000Z</time>
      </trkpt>
      <trkpt lat="44.04316" lon="5.91055">
        <ele>777.40002441406</ele>
        <time>2021-02-11T13:36:18.000Z</time>
      </trkpt>
      <trkpt lat="44.04317" lon="5.91057">
        <ele>778</ele>
        <time>2021-02-11T13:36:23.000Z</time>
      </trkpt>
      <trkpt lat="44.04318" lon="5.91062">
        <ele>778.20001220703</ele>
        <time>2021-02-11T13:36:25.000Z</time>
      </trkpt>
      <trkpt lat="44.04316" lon="5.91071">
        <ele>778.20001220703</ele>
        <time>2021-02-11T13:36:28.000Z</time>
      </trkpt>
      <trkpt lat="44.04315" lon="5.91074">
        <ele>778.20001220703</ele>
        <time>2021-02-11T13:36:29.000Z</time>
      </trkpt>
      <trkpt lat="44.04308" lon="5.91083">
        <ele>777.40002441406</ele>
        <time>2021-02-11T13:36:34.000Z</time>
      </trkpt>
      <trkpt lat="44.04297" lon="5.91096">
        <ele>776.20001220703</ele>
        <time>2021-02-11T13:36:40.000Z</time>
      </trkpt>
      <trkpt lat="44.04288" lon="5.91111">
        <ele>775.79998779297</ele>
        <time>2021-02-11T13:36:45.000Z</time>
      </trkpt>
      <trkpt lat="44.04282" lon="5.91132">
        <ele>776</ele>
        <time>2021-02-11T13:36:50.000Z</time>
      </trkpt>
      <trkpt lat="44.04277" lon="5.91143">
        <ele>776</ele>
        <time>2021-02-11T13:36:54.000Z</time>
      </trkpt>
      <trkpt lat="44.04272" lon="5.91155">
        <ele>776.20001220703</ele>
        <time>2021-02-11T13:36:59.000Z</time>
      </trkpt>
      <trkpt lat="44.04272" lon="5.91158">
        <ele>776.40002441406</ele>
        <time>2021-02-11T13:37:00.000Z</time>
      </trkpt>
      <trkpt lat="44.0427" lon="5.91177">
        <ele>776.59997558594</ele>
        <time>2021-02-11T13:37:05.000Z</time>
      </trkpt>
      <trkpt lat="44.0427" lon="5.91184">
        <ele>777.59997558594</ele>
        <time>2021-02-11T13:37:07.000Z</time>
      </trkpt>
      <trkpt lat="44.04269" lon="5.91195">
        <ele>778.59997558594</ele>
        <time>2021-02-11T13:37:10.000Z</time>
      </trkpt>
      <trkpt lat="44.04267" lon="5.91206">
        <ele>779</ele>
        <time>2021-02-11T13:37:13.000Z</time>
      </trkpt>
      <trkpt lat="44.04267" lon="5.91215">
        <ele>779.79998779297</ele>
        <time>2021-02-11T13:37:16.000Z</time>
      </trkpt>
      <trkpt lat="44.04267" lon="5.91218">
        <ele>780.20001220703</ele>
        <time>2021-02-11T13:37:17.000Z</time>
      </trkpt>
      <trkpt lat="44.04266" lon="5.91228">
        <ele>780.79998779297</ele>
        <time>2021-02-11T13:37:20.000Z</time>
      </trkpt>
      <trkpt lat="44.04263" lon="5.91236">
        <ele>781.40002441406</ele>
        <time>2021-02-11T13:37:23.000Z</time>
      </trkpt>
      <trkpt lat="44.0426" lon="5.91245">
        <ele>781.79998779297</ele>
        <time>2021-02-11T13:37:26.000Z</time>
      </trkpt>
      <trkpt lat="44.04257" lon="5.91257">
        <ele>783</ele>
        <time>2021-02-11T13:37:30.000Z</time>
      </trkpt>
      <trkpt lat="44.04255" lon="5.91263">
        <ele>783.79998779297</ele>
        <time>2021-02-11T13:37:32.000Z</time>
      </trkpt>
      <trkpt lat="44.04254" lon="5.91266">
        <ele>784.20001220703</ele>
        <time>2021-02-11T13:37:33.000Z</time>
      </trkpt>
      <trkpt lat="44.0425" lon="5.91275">
        <ele>785.59997558594</ele>
        <time>2021-02-11T13:37:37.000Z</time>
      </trkpt>
      <trkpt lat="44.04247" lon="5.91281">
        <ele>786.79998779297</ele>
        <time>2021-02-11T13:37:41.000Z</time>
      </trkpt>
      <trkpt lat="44.04245" lon="5.91287">
        <ele>788</ele>
        <time>2021-02-11T13:37:44.000Z</time>
      </trkpt>
      <trkpt lat="44.04243" lon="5.91295">
        <ele>788.79998779297</ele>
        <time>2021-02-11T13:37:47.000Z</time>
      </trkpt>
      <trkpt lat="44.04242" lon="5.913">
        <ele>789.59997558594</ele>
        <time>2021-02-11T13:37:49.000Z</time>
      </trkpt>
      <trkpt lat="44.04241" lon="5.91302">
        <ele>790</ele>
        <time>2021-02-11T13:37:50.000Z</time>
      </trkpt>
      <trkpt lat="44.04238" lon="5.91309">
        <ele>791</ele>
        <time>2021-02-11T13:37:53.000Z</time>
      </trkpt>
      <trkpt lat="44.04234" lon="5.91313">
        <ele>791.40002441406</ele>
        <time>2021-02-11T13:37:55.000Z</time>
      </trkpt>
      <trkpt lat="44.04228" lon="5.91327">
        <ele>792</ele>
        <time>2021-02-11T13:38:01.000Z</time>
      </trkpt>
      <trkpt lat="44.04227" lon="5.91329">
        <ele>792.20001220703</ele>
        <time>2021-02-11T13:38:02.000Z</time>
      </trkpt>
      <trkpt lat="44.04223" lon="5.91333">
        <ele>793</ele>
        <time>2021-02-11T13:38:05.000Z</time>
      </trkpt>
      <trkpt lat="44.04223" lon="5.91333">
        <ele>793.20001220703</ele>
        <time>2021-02-11T13:38:06.000Z</time>
      </trkpt>
      <trkpt lat="44.04223" lon="5.91332">
        <ele>793.40002441406</ele>
        <time>2021-02-11T13:38:07.000Z</time>
      </trkpt>
      <trkpt lat="44.04224" lon="5.91326">
        <ele>794.40002441406</ele>
        <time>2021-02-11T13:38:11.000Z</time>
      </trkpt>
      <trkpt lat="44.04224" lon="5.91324">
        <ele>794.79998779297</ele>
        <time>2021-02-11T13:38:12.000Z</time>
      </trkpt>
      <trkpt lat="44.04224" lon="5.91323">
        <ele>795.59997558594</ele>
        <time>2021-02-11T13:38:13.000Z</time>
      </trkpt>
      <trkpt lat="44.04224" lon="5.91319">
        <ele>796.79998779297</ele>
        <time>2021-02-11T13:38:16.000Z</time>
      </trkpt>
      <trkpt lat="44.04224" lon="5.91318">
        <ele>797</ele>
        <time>2021-02-11T13:38:17.000Z</time>
      </trkpt>
      <trkpt lat="44.04224" lon="5.91316">
        <ele>797.20001220703</ele>
        <time>2021-02-11T13:38:18.000Z</time>
      </trkpt>
      <trkpt lat="44.04224" lon="5.91314">
        <ele>797.20001220703</ele>
        <time>2021-02-11T13:38:19.000Z</time>
      </trkpt>
      <trkpt lat="44.04222" lon="5.91313">
        <ele>797.59997558594</ele>
        <time>2021-02-11T13:38:21.000Z</time>
      </trkpt>
      <trkpt lat="44.04222" lon="5.91313">
        <ele>797.79998779297</ele>
        <time>2021-02-11T13:38:22.000Z</time>
      </trkpt>
      <trkpt lat="44.04217" lon="5.91321">
        <ele>798.40002441406</ele>
        <time>2021-02-11T13:38:28.000Z</time>
      </trkpt>
      <trkpt lat="44.04217" lon="5.91323">
        <ele>798.79998779297</ele>
        <time>2021-02-11T13:38:29.000Z</time>
      </trkpt>
      <trkpt lat="44.04216" lon="5.91324">
        <ele>799.79998779297</ele>
        <time>2021-02-11T13:38:33.000Z</time>
      </trkpt>
      <trkpt lat="44.04215" lon="5.91325">
        <ele>800</ele>
        <time>2021-02-11T13:38:34.000Z</time>
      </trkpt>
      <trkpt lat="44.04215" lon="5.91325">
        <ele>801.20001220703</ele>
        <time>2021-02-11T13:38:39.000Z</time>
      </trkpt>
      <trkpt lat="44.04216" lon="5.91325">
        <ele>801.40002441406</ele>
        <time>2021-02-11T13:38:52.000Z</time>
      </trkpt>
      <trkpt lat="44.04215" lon="5.91325">
        <ele>801.20001220703</ele>
        <time>2021-02-11T13:39:17.000Z</time>
      </trkpt>
      <trkpt lat="44.04215" lon="5.91325">
        <ele>801.20001220703</ele>
        <time>2021-02-11T13:39:57.000Z</time>
      </trkpt>
      <trkpt lat="44.04215" lon="5.91325">
        <ele>801.40002441406</ele>
        <time>2021-02-11T13:40:25.000Z</time>
      </trkpt>
      <trkpt lat="44.04215" lon="5.91329">
        <ele>801.20001220703</ele>
        <time>2021-02-11T13:40:43.000Z</time>
      </trkpt>
      <trkpt lat="44.04214" lon="5.91331">
        <ele>801.20001220703</ele>
        <time>2021-02-11T13:40:44.000Z</time>
      </trkpt>
      <trkpt lat="44.0421" lon="5.91345">
        <ele>801</ele>
        <time>2021-02-11T13:40:50.000Z</time>
      </trkpt>
      <trkpt lat="44.0421" lon="5.91349">
        <ele>801.20001220703</ele>
        <time>2021-02-11T13:40:52.000Z</time>
      </trkpt>
      <trkpt lat="44.04212" lon="5.91358">
        <ele>801.20001220703</ele>
        <time>2021-02-11T13:40:56.000Z</time>
      </trkpt>
      <trkpt lat="44.04212" lon="5.91366">
        <ele>802</ele>
        <time>2021-02-11T13:41:00.000Z</time>
      </trkpt>
      <trkpt lat="44.04213" lon="5.91373">
        <ele>802.79998779297</ele>
        <time>2021-02-11T13:41:03.000Z</time>
      </trkpt>
      <trkpt lat="44.04216" lon="5.91375">
        <ele>803</ele>
        <time>2021-02-11T13:41:05.000Z</time>
      </trkpt>
      <trkpt lat="44.04219" lon="5.91378">
        <ele>803.40002441406</ele>
        <time>2021-02-11T13:41:07.000Z</time>
      </trkpt>
      <trkpt lat="44.0422" lon="5.9138">
        <ele>803.59997558594</ele>
        <time>2021-02-11T13:41:08.000Z</time>
      </trkpt>
      <trkpt lat="44.04223" lon="5.91385">
        <ele>804.20001220703</ele>
        <time>2021-02-11T13:41:11.000Z</time>
      </trkpt>
      <trkpt lat="44.04227" lon="5.91392">
        <ele>805</ele>
        <time>2021-02-11T13:41:16.000Z</time>
      </trkpt>
      <trkpt lat="44.0423" lon="5.91395">
        <ele>805.40002441406</ele>
        <time>2021-02-11T13:41:18.000Z</time>
      </trkpt>
      <trkpt lat="44.04233" lon="5.91398">
        <ele>806.40002441406</ele>
        <time>2021-02-11T13:41:21.000Z</time>
      </trkpt>
      <trkpt lat="44.04235" lon="5.914">
        <ele>806.79998779297</ele>
        <time>2021-02-11T13:41:22.000Z</time>
      </trkpt>
      <trkpt lat="44.0424" lon="5.91406">
        <ele>807.40002441406</ele>
        <time>2021-02-11T13:41:26.000Z</time>
      </trkpt>
      <trkpt lat="44.04244" lon="5.91411">
        <ele>808.59997558594</ele>
        <time>2021-02-11T13:41:30.000Z</time>
      </trkpt>
      <trkpt lat="44.04246" lon="5.91413">
        <ele>809.20001220703</ele>
        <time>2021-02-11T13:41:31.000Z</time>
      </trkpt>
      <trkpt lat="44.04248" lon="5.91416">
        <ele>809.79998779297</ele>
        <time>2021-02-11T13:41:33.000Z</time>
      </trkpt>
      <trkpt lat="44.04252" lon="5.91419">
        <ele>810.40002441406</ele>
        <time>2021-02-11T13:41:36.000Z</time>
      </trkpt>
      <trkpt lat="44.04255" lon="5.91421">
        <ele>811.20001220703</ele>
        <time>2021-02-11T13:41:38.000Z</time>
      </trkpt>
      <trkpt lat="44.04261" lon="5.91424">
        <ele>812.40002441406</ele>
        <time>2021-02-11T13:41:41.000Z</time>
      </trkpt>
      <trkpt lat="44.04267" lon="5.91427">
        <ele>813.20001220703</ele>
        <time>2021-02-11T13:41:44.000Z</time>
      </trkpt>
      <trkpt lat="44.0427" lon="5.91429">
        <ele>813.40002441406</ele>
        <time>2021-02-11T13:41:46.000Z</time>
      </trkpt>
      <trkpt lat="44.04277" lon="5.91433">
        <ele>813.59997558594</ele>
        <time>2021-02-11T13:41:50.000Z</time>
      </trkpt>
      <trkpt lat="44.0428" lon="5.91432">
        <ele>813.40002441406</ele>
        <time>2021-02-11T13:41:52.000Z</time>
      </trkpt>
      <trkpt lat="44.04285" lon="5.91427">
        <ele>813.79998779297</ele>
        <time>2021-02-11T13:41:55.000Z</time>
      </trkpt>
      <trkpt lat="44.04295" lon="5.91425">
        <ele>814.20001220703</ele>
        <time>2021-02-11T13:42:00.000Z</time>
      </trkpt>
      <trkpt lat="44.04298" lon="5.91423">
        <ele>814.59997558594</ele>
        <time>2021-02-11T13:42:02.000Z</time>
      </trkpt>
      <trkpt lat="44.04302" lon="5.91424">
        <ele>815.40002441406</ele>
        <time>2021-02-11T13:42:05.000Z</time>
      </trkpt>
      <trkpt lat="44.04304" lon="5.91422">
        <ele>816</ele>
        <time>2021-02-11T13:42:07.000Z</time>
      </trkpt>
      <trkpt lat="44.04304" lon="5.91422">
        <ele>816.40002441406</ele>
        <time>2021-02-11T13:42:19.000Z</time>
      </trkpt>
      <trkpt lat="44.04304" lon="5.91422">
        <ele>815.79998779297</ele>
        <time>2021-02-11T13:43:25.000Z</time>
      </trkpt>
      <trkpt lat="44.04304" lon="5.91422">
        <ele>816</ele>
        <time>2021-02-11T13:43:49.000Z</time>
      </trkpt>
      <trkpt lat="44.04304" lon="5.91422">
        <ele>816</ele>
        <time>2021-02-11T13:43:59.000Z</time>
      </trkpt>
      <trkpt lat="44.04304" lon="5.91422">
        <ele>815.79998779297</ele>
        <time>2021-02-11T13:44:31.000Z</time>
      </trkpt>
      <trkpt lat="44.04305" lon="5.91422">
        <ele>815.79998779297</ele>
        <time>2021-02-11T13:45:03.000Z</time>
      </trkpt>
      <trkpt lat="44.04305" lon="5.91422">
        <ele>815.79998779297</ele>
        <time>2021-02-11T13:45:35.000Z</time>
      </trkpt>
      <trkpt lat="44.04305" lon="5.91422">
        <ele>815.59997558594</ele>
        <time>2021-02-11T13:45:47.000Z</time>
      </trkpt>
      <trkpt lat="44.04305" lon="5.91423">
        <ele>815.79998779297</ele>
        <time>2021-02-11T13:46:10.000Z</time>
      </trkpt>
      <trkpt lat="44.04305" lon="5.91423">
        <ele>815.79998779297</ele>
        <time>2021-02-11T13:46:13.000Z</time>
      </trkpt>
      <trkpt lat="44.04304" lon="5.91424">
        <ele>816.40002441406</ele>
        <time>2021-02-11T13:46:28.000Z</time>
      </trkpt>
      <trkpt lat="44.04298" lon="5.91433">
        <ele>816.59997558594</ele>
        <time>2021-02-11T13:46:33.000Z</time>
      </trkpt>
      <trkpt lat="44.04291" lon="5.91448">
        <ele>816.59997558594</ele>
        <time>2021-02-11T13:46:37.000Z</time>
      </trkpt>
      <trkpt lat="44.04291" lon="5.91453">
        <ele>816.59997558594</ele>
        <time>2021-02-11T13:46:38.000Z</time>
      </trkpt>
      <trkpt lat="44.0429" lon="5.9147">
        <ele>816.40002441406</ele>
        <time>2021-02-11T13:46:41.000Z</time>
      </trkpt>
      <trkpt lat="44.04289" lon="5.91477">
        <ele>816.20001220703</ele>
        <time>2021-02-11T13:46:42.000Z</time>
      </trkpt>
      <trkpt lat="44.04285" lon="5.91505">
        <ele>814.59997558594</ele>
        <time>2021-02-11T13:46:46.000Z</time>
      </trkpt>
      <trkpt lat="44.04286" lon="5.91511">
        <ele>814</ele>
        <time>2021-02-11T13:46:47.000Z</time>
      </trkpt>
      <trkpt lat="44.04286" lon="5.91518">
        <ele>813.40002441406</ele>
        <time>2021-02-11T13:46:48.000Z</time>
      </trkpt>
      <trkpt lat="44.04286" lon="5.91528">
        <ele>811.79998779297</ele>
        <time>2021-02-11T13:46:50.000Z</time>
      </trkpt>
      <trkpt lat="44.04286" lon="5.91532">
        <ele>811.20001220703</ele>
        <time>2021-02-11T13:46:51.000Z</time>
      </trkpt>
      <trkpt lat="44.04286" lon="5.91535">
        <ele>810.59997558594</ele>
        <time>2021-02-11T13:46:52.000Z</time>
      </trkpt>
      <trkpt lat="44.04285" lon="5.91538">
        <ele>810</ele>
        <time>2021-02-11T13:46:53.000Z</time>
      </trkpt>
      <trkpt lat="44.04286" lon="5.91541">
        <ele>809.20001220703</ele>
        <time>2021-02-11T13:46:54.000Z</time>
      </trkpt>
      <trkpt lat="44.04286" lon="5.91544">
        <ele>808.79998779297</ele>
        <time>2021-02-11T13:46:55.000Z</time>
      </trkpt>
      <trkpt lat="44.04292" lon="5.91565">
        <ele>808.20001220703</ele>
        <time>2021-02-11T13:47:00.000Z</time>
      </trkpt>
      <trkpt lat="44.04294" lon="5.91573">
        <ele>808</ele>
        <time>2021-02-11T13:47:02.000Z</time>
      </trkpt>
      <trkpt lat="44.04297" lon="5.91585">
        <ele>808</ele>
        <time>2021-02-11T13:47:05.000Z</time>
      </trkpt>
      <trkpt lat="44.04302" lon="5.91602">
        <ele>808.20001220703</ele>
        <time>2021-02-11T13:47:10.000Z</time>
      </trkpt>
      <trkpt lat="44.04307" lon="5.91625">
        <ele>809.20001220703</ele>
        <time>2021-02-11T13:47:17.000Z</time>
      </trkpt>
      <trkpt lat="44.04308" lon="5.91642">
        <ele>810</ele>
        <time>2021-02-11T13:47:22.000Z</time>
      </trkpt>
      <trkpt lat="44.04309" lon="5.91646">
        <ele>810</ele>
        <time>2021-02-11T13:47:23.000Z</time>
      </trkpt>
      <trkpt lat="44.04307" lon="5.91661">
        <ele>810</ele>
        <time>2021-02-11T13:47:26.000Z</time>
      </trkpt>
      <trkpt lat="44.043" lon="5.91681">
        <ele>810</ele>
        <time>2021-02-11T13:47:31.000Z</time>
      </trkpt>
      <trkpt lat="44.04301" lon="5.91684">
        <ele>809.59997558594</ele>
        <time>2021-02-11T13:47:32.000Z</time>
      </trkpt>
      <trkpt lat="44.04302" lon="5.91691">
        <ele>808.20001220703</ele>
        <time>2021-02-11T13:47:34.000Z</time>
      </trkpt>
      <trkpt lat="44.04304" lon="5.91701">
        <ele>806.59997558594</ele>
        <time>2021-02-11T13:47:36.000Z</time>
      </trkpt>
      <trkpt lat="44.04309" lon="5.91711">
        <ele>805.59997558594</ele>
        <time>2021-02-11T13:47:38.000Z</time>
      </trkpt>
      <trkpt lat="44.04312" lon="5.91716">
        <ele>804.79998779297</ele>
        <time>2021-02-11T13:47:39.000Z</time>
      </trkpt>
      <trkpt lat="44.0432" lon="5.91723">
        <ele>803.40002441406</ele>
        <time>2021-02-11T13:47:41.000Z</time>
      </trkpt>
      <trkpt lat="44.04325" lon="5.91727">
        <ele>802.79998779297</ele>
        <time>2021-02-11T13:47:42.000Z</time>
      </trkpt>
      <trkpt lat="44.04329" lon="5.91731">
        <ele>802.20001220703</ele>
        <time>2021-02-11T13:47:43.000Z</time>
      </trkpt>
      <trkpt lat="44.04336" lon="5.9174">
        <ele>801.20001220703</ele>
        <time>2021-02-11T13:47:46.000Z</time>
      </trkpt>
      <trkpt lat="44.04337" lon="5.91743">
        <ele>801</ele>
        <time>2021-02-11T13:47:47.000Z</time>
      </trkpt>
      <trkpt lat="44.04338" lon="5.91755">
        <ele>801</ele>
        <time>2021-02-11T13:47:51.000Z</time>
      </trkpt>
      <trkpt lat="44.04339" lon="5.91758">
        <ele>801</ele>
        <time>2021-02-11T13:47:52.000Z</time>
      </trkpt>
      <trkpt lat="44.04346" lon="5.91775">
        <ele>802.20001220703</ele>
        <time>2021-02-11T13:47:59.000Z</time>
      </trkpt>
      <trkpt lat="44.04347" lon="5.91777">
        <ele>802.40002441406</ele>
        <time>2021-02-11T13:48:00.000Z</time>
      </trkpt>
      <trkpt lat="44.04349" lon="5.91786">
        <ele>803.59997558594</ele>
        <time>2021-02-11T13:48:03.000Z</time>
      </trkpt>
      <trkpt lat="44.04353" lon="5.91797">
        <ele>804.59997558594</ele>
        <time>2021-02-11T13:48:07.000Z</time>
      </trkpt>
      <trkpt lat="44.04354" lon="5.918">
        <ele>805</ele>
        <time>2021-02-11T13:48:08.000Z</time>
      </trkpt>
      <trkpt lat="44.04356" lon="5.9181">
        <ele>805.79998779297</ele>
        <time>2021-02-11T13:48:12.000Z</time>
      </trkpt>
      <trkpt lat="44.04358" lon="5.91816">
        <ele>806.40002441406</ele>
        <time>2021-02-11T13:48:14.000Z</time>
      </trkpt>
      <trkpt lat="44.04361" lon="5.91821">
        <ele>807</ele>
        <time>2021-02-11T13:48:16.000Z</time>
      </trkpt>
      <trkpt lat="44.04364" lon="5.91828">
        <ele>808.20001220703</ele>
        <time>2021-02-11T13:48:19.000Z</time>
      </trkpt>
      <trkpt lat="44.04365" lon="5.9183">
        <ele>808.59997558594</ele>
        <time>2021-02-11T13:48:20.000Z</time>
      </trkpt>
      <trkpt lat="44.04367" lon="5.91837">
        <ele>808.79998779297</ele>
        <time>2021-02-11T13:48:26.000Z</time>
      </trkpt>
      <trkpt lat="44.04367" lon="5.91838">
        <ele>808.59997558594</ele>
        <time>2021-02-11T13:48:48.000Z</time>
      </trkpt>
      <trkpt lat="44.04368" lon="5.91839">
        <ele>808.40002441406</ele>
        <time>2021-02-11T13:48:58.000Z</time>
      </trkpt>
      <trkpt lat="44.0437" lon="5.91842">
        <ele>808.40002441406</ele>
        <time>2021-02-11T13:49:00.000Z</time>
      </trkpt>
      <trkpt lat="44.04374" lon="5.91853">
        <ele>808.20001220703</ele>
        <time>2021-02-11T13:49:03.000Z</time>
      </trkpt>
      <trkpt lat="44.04375" lon="5.91859">
        <ele>808.20001220703</ele>
        <time>2021-02-11T13:49:04.000Z</time>
      </trkpt>
      <trkpt lat="44.04375" lon="5.91872">
        <ele>808.20001220703</ele>
        <time>2021-02-11T13:49:06.000Z</time>
      </trkpt>
      <trkpt lat="44.04374" lon="5.9188">
        <ele>808</ele>
        <time>2021-02-11T13:49:08.000Z</time>
      </trkpt>
      <trkpt lat="44.0438" lon="5.91885">
        <ele>806.40002441406</ele>
        <time>2021-02-11T13:49:11.000Z</time>
      </trkpt>
      <trkpt lat="44.04381" lon="5.91891">
        <ele>804.59997558594</ele>
        <time>2021-02-11T13:49:13.000Z</time>
      </trkpt>
      <trkpt lat="44.04381" lon="5.91894">
        <ele>804</ele>
        <time>2021-02-11T13:49:14.000Z</time>
      </trkpt>
      <trkpt lat="44.04379" lon="5.91897">
        <ele>803.40002441406</ele>
        <time>2021-02-11T13:49:15.000Z</time>
      </trkpt>
      <trkpt lat="44.04373" lon="5.91901">
        <ele>802.40002441406</ele>
        <time>2021-02-11T13:49:17.000Z</time>
      </trkpt>
      <trkpt lat="44.0437" lon="5.91902">
        <ele>802</ele>
        <time>2021-02-11T13:49:18.000Z</time>
      </trkpt>
      <trkpt lat="44.0436" lon="5.91907">
        <ele>801.20001220703</ele>
        <time>2021-02-11T13:49:21.000Z</time>
      </trkpt>
      <trkpt lat="44.04357" lon="5.91909">
        <ele>800.59997558594</ele>
        <time>2021-02-11T13:49:22.000Z</time>
      </trkpt>
      <trkpt lat="44.04353" lon="5.91912">
        <ele>799.79998779297</ele>
        <time>2021-02-11T13:49:23.000Z</time>
      </trkpt>
      <trkpt lat="44.0435" lon="5.91915">
        <ele>799.20001220703</ele>
        <time>2021-02-11T13:49:24.000Z</time>
      </trkpt>
      <trkpt lat="44.04344" lon="5.91922">
        <ele>798.40002441406</ele>
        <time>2021-02-11T13:49:26.000Z</time>
      </trkpt>
      <trkpt lat="44.04337" lon="5.91929">
        <ele>797.79998779297</ele>
        <time>2021-02-11T13:49:28.000Z</time>
      </trkpt>
      <trkpt lat="44.04335" lon="5.91933">
        <ele>797.40002441406</ele>
        <time>2021-02-11T13:49:29.000Z</time>
      </trkpt>
      <trkpt lat="44.04332" lon="5.91938">
        <ele>796.59997558594</ele>
        <time>2021-02-11T13:49:30.000Z</time>
      </trkpt>
      <trkpt lat="44.04329" lon="5.91943">
        <ele>796</ele>
        <time>2021-02-11T13:49:31.000Z</time>
      </trkpt>
      <trkpt lat="44.04325" lon="5.91948">
        <ele>795</ele>
        <time>2021-02-11T13:49:32.000Z</time>
      </trkpt>
      <trkpt lat="44.04321" lon="5.91952">
        <ele>794</ele>
        <time>2021-02-11T13:49:33.000Z</time>
      </trkpt>
      <trkpt lat="44.04317" lon="5.91956">
        <ele>792.40002441406</ele>
        <time>2021-02-11T13:49:34.000Z</time>
      </trkpt>
      <trkpt lat="44.04313" lon="5.9196">
        <ele>791.79998779297</ele>
        <time>2021-02-11T13:49:35.000Z</time>
      </trkpt>
      <trkpt lat="44.04309" lon="5.91964">
        <ele>791.20001220703</ele>
        <time>2021-02-11T13:49:36.000Z</time>
      </trkpt>
      <trkpt lat="44.04302" lon="5.91971">
        <ele>789.40002441406</ele>
        <time>2021-02-11T13:49:38.000Z</time>
      </trkpt>
      <trkpt lat="44.043" lon="5.91974">
        <ele>788.59997558594</ele>
        <time>2021-02-11T13:49:39.000Z</time>
      </trkpt>
      <trkpt lat="44.04299" lon="5.91977">
        <ele>787.79998779297</ele>
        <time>2021-02-11T13:49:40.000Z</time>
      </trkpt>
      <trkpt lat="44.04302" lon="5.91981">
        <ele>786.79998779297</ele>
        <time>2021-02-11T13:49:42.000Z</time>
      </trkpt>
      <trkpt lat="44.04307" lon="5.91982">
        <ele>785.20001220703</ele>
        <time>2021-02-11T13:49:44.000Z</time>
      </trkpt>
      <trkpt lat="44.04307" lon="5.91986">
        <ele>784.40002441406</ele>
        <time>2021-02-11T13:49:46.000Z</time>
      </trkpt>
      <trkpt lat="44.04303" lon="5.91989">
        <ele>784</ele>
        <time>2021-02-11T13:49:48.000Z</time>
      </trkpt>
      <trkpt lat="44.04298" lon="5.91989">
        <ele>783</ele>
        <time>2021-02-11T13:49:50.000Z</time>
      </trkpt>
      <trkpt lat="44.04291" lon="5.91988">
        <ele>782</ele>
        <time>2021-02-11T13:49:52.000Z</time>
      </trkpt>
      <trkpt lat="44.0428" lon="5.91982">
        <ele>780.59997558594</ele>
        <time>2021-02-11T13:49:55.000Z</time>
      </trkpt>
      <trkpt lat="44.04276" lon="5.91982">
        <ele>780.20001220703</ele>
        <time>2021-02-11T13:49:56.000Z</time>
      </trkpt>
      <trkpt lat="44.04274" lon="5.91988">
        <ele>779.79998779297</ele>
        <time>2021-02-11T13:49:58.000Z</time>
      </trkpt>
      <trkpt lat="44.04277" lon="5.92001">
        <ele>779.59997558594</ele>
        <time>2021-02-11T13:50:00.000Z</time>
      </trkpt>
      <trkpt lat="44.0428" lon="5.92007">
        <ele>779.40002441406</ele>
        <time>2021-02-11T13:50:01.000Z</time>
      </trkpt>
      <trkpt lat="44.04287" lon="5.92015">
        <ele>777.79998779297</ele>
        <time>2021-02-11T13:50:03.000Z</time>
      </trkpt>
      <trkpt lat="44.04289" lon="5.92017">
        <ele>777.40002441406</ele>
        <time>2021-02-11T13:50:04.000Z</time>
      </trkpt>
      <trkpt lat="44.04292" lon="5.92018">
        <ele>776.79998779297</ele>
        <time>2021-02-11T13:50:05.000Z</time>
      </trkpt>
      <trkpt lat="44.04297" lon="5.92021">
        <ele>774.59997558594</ele>
        <time>2021-02-11T13:50:07.000Z</time>
      </trkpt>
      <trkpt lat="44.043" lon="5.92024">
        <ele>773.40002441406</ele>
        <time>2021-02-11T13:50:08.000Z</time>
      </trkpt>
      <trkpt lat="44.04307" lon="5.92026">
        <ele>772.40002441406</ele>
        <time>2021-02-11T13:50:10.000Z</time>
      </trkpt>
      <trkpt lat="44.04314" lon="5.92027">
        <ele>771.79998779297</ele>
        <time>2021-02-11T13:50:13.000Z</time>
      </trkpt>
      <trkpt lat="44.04314" lon="5.92029">
        <ele>771.79998779297</ele>
        <time>2021-02-11T13:50:14.000Z</time>
      </trkpt>
      <trkpt lat="44.04311" lon="5.92036">
        <ele>771.20001220703</ele>
        <time>2021-02-11T13:50:17.000Z</time>
      </trkpt>
      <trkpt lat="44.04308" lon="5.9204">
        <ele>771.20001220703</ele>
        <time>2021-02-11T13:50:18.000Z</time>
      </trkpt>
      <trkpt lat="44.04297" lon="5.92045">
        <ele>771</ele>
        <time>2021-02-11T13:50:21.000Z</time>
      </trkpt>
      <trkpt lat="44.04284" lon="5.92044">
        <ele>769.79998779297</ele>
        <time>2021-02-11T13:50:24.000Z</time>
      </trkpt>
      <trkpt lat="44.04275" lon="5.92041">
        <ele>768.79998779297</ele>
        <time>2021-02-11T13:50:26.000Z</time>
      </trkpt>
      <trkpt lat="44.04272" lon="5.92041">
        <ele>768.20001220703</ele>
        <time>2021-02-11T13:50:27.000Z</time>
      </trkpt>
      <trkpt lat="44.04271" lon="5.92045">
        <ele>767</ele>
        <time>2021-02-11T13:50:29.000Z</time>
      </trkpt>
      <trkpt lat="44.04275" lon="5.92051">
        <ele>765.59997558594</ele>
        <time>2021-02-11T13:50:31.000Z</time>
      </trkpt>
      <trkpt lat="44.04278" lon="5.92055">
        <ele>765</ele>
        <time>2021-02-11T13:50:32.000Z</time>
      </trkpt>
      <trkpt lat="44.04281" lon="5.92058">
        <ele>764.40002441406</ele>
        <time>2021-02-11T13:50:33.000Z</time>
      </trkpt>
      <trkpt lat="44.0429" lon="5.92063">
        <ele>763</ele>
        <time>2021-02-11T13:50:36.000Z</time>
      </trkpt>
      <trkpt lat="44.04296" lon="5.92068">
        <ele>761.79998779297</ele>
        <time>2021-02-11T13:50:38.000Z</time>
      </trkpt>
      <trkpt lat="44.043" lon="5.9207">
        <ele>761.20001220703</ele>
        <time>2021-02-11T13:50:39.000Z</time>
      </trkpt>
      <trkpt lat="44.04304" lon="5.92071">
        <ele>761</ele>
        <time>2021-02-11T13:50:40.000Z</time>
      </trkpt>
      <trkpt lat="44.04308" lon="5.92072">
        <ele>760.59997558594</ele>
        <time>2021-02-11T13:50:41.000Z</time>
      </trkpt>
      <trkpt lat="44.04316" lon="5.9207">
        <ele>760.40002441406</ele>
        <time>2021-02-11T13:50:43.000Z</time>
      </trkpt>
      <trkpt lat="44.04319" lon="5.9207">
        <ele>760.20001220703</ele>
        <time>2021-02-11T13:50:44.000Z</time>
      </trkpt>
      <trkpt lat="44.04328" lon="5.92068">
        <ele>759.40002441406</ele>
        <time>2021-02-11T13:50:47.000Z</time>
      </trkpt>
      <trkpt lat="44.04333" lon="5.92064">
        <ele>758.79998779297</ele>
        <time>2021-02-11T13:50:49.000Z</time>
      </trkpt>
      <trkpt lat="44.04344" lon="5.92063">
        <ele>758.40002441406</ele>
        <time>2021-02-11T13:50:54.000Z</time>
      </trkpt>
      <trkpt lat="44.04357" lon="5.9206">
        <ele>758.20001220703</ele>
        <time>2021-02-11T13:50:58.000Z</time>
      </trkpt>
      <trkpt lat="44.0436" lon="5.92058">
        <ele>758</ele>
        <time>2021-02-11T13:50:59.000Z</time>
      </trkpt>
      <trkpt lat="44.04366" lon="5.92057">
        <ele>757.40002441406</ele>
        <time>2021-02-11T13:51:01.000Z</time>
      </trkpt>
      <trkpt lat="44.04368" lon="5.92056">
        <ele>756.79998779297</ele>
        <time>2021-02-11T13:51:02.000Z</time>
      </trkpt>
      <trkpt lat="44.04372" lon="5.92056">
        <ele>754.79998779297</ele>
        <time>2021-02-11T13:51:04.000Z</time>
      </trkpt>
      <trkpt lat="44.04373" lon="5.92057">
        <ele>753.40002441406</ele>
        <time>2021-02-11T13:51:05.000Z</time>
      </trkpt>
      <trkpt lat="44.04373" lon="5.92061">
        <ele>752.20001220703</ele>
        <time>2021-02-11T13:51:06.000Z</time>
      </trkpt>
      <trkpt lat="44.0437" lon="5.92068">
        <ele>750.79998779297</ele>
        <time>2021-02-11T13:51:08.000Z</time>
      </trkpt>
      <trkpt lat="44.04367" lon="5.92079">
        <ele>750.20001220703</ele>
        <time>2021-02-11T13:51:10.000Z</time>
      </trkpt>
      <trkpt lat="44.04364" lon="5.92091">
        <ele>749.59997558594</ele>
        <time>2021-02-11T13:51:12.000Z</time>
      </trkpt>
      <trkpt lat="44.04359" lon="5.92105">
        <ele>748.40002441406</ele>
        <time>2021-02-11T13:51:14.000Z</time>
      </trkpt>
      <trkpt lat="44.0435" lon="5.92116">
        <ele>747</ele>
        <time>2021-02-11T13:51:16.000Z</time>
      </trkpt>
      <trkpt lat="44.04343" lon="5.92128">
        <ele>745.59997558594</ele>
        <time>2021-02-11T13:51:18.000Z</time>
      </trkpt>
      <trkpt lat="44.04338" lon="5.92139">
        <ele>744.40002441406</ele>
        <time>2021-02-11T13:51:20.000Z</time>
      </trkpt>
      <trkpt lat="44.04334" lon="5.92146">
        <ele>743</ele>
        <time>2021-02-11T13:51:22.000Z</time>
      </trkpt>
      <trkpt lat="44.04332" lon="5.9215">
        <ele>741.20001220703</ele>
        <time>2021-02-11T13:51:24.000Z</time>
      </trkpt>
      <trkpt lat="44.0433" lon="5.92152">
        <ele>739.59997558594</ele>
        <time>2021-02-11T13:51:26.000Z</time>
      </trkpt>
      <trkpt lat="44.04329" lon="5.92153">
        <ele>738.40002441406</ele>
        <time>2021-02-11T13:51:27.000Z</time>
      </trkpt>
      <trkpt lat="44.04323" lon="5.92158">
        <ele>737.59997558594</ele>
        <time>2021-02-11T13:51:30.000Z</time>
      </trkpt>
      <trkpt lat="44.04321" lon="5.9216">
        <ele>737.20001220703</ele>
        <time>2021-02-11T13:51:31.000Z</time>
      </trkpt>
      <trkpt lat="44.04303" lon="5.92166">
        <ele>736.59997558594</ele>
        <time>2021-02-11T13:51:36.000Z</time>
      </trkpt>
      <trkpt lat="44.04298" lon="5.92167">
        <ele>736.40002441406</ele>
        <time>2021-02-11T13:51:37.000Z</time>
      </trkpt>
      <trkpt lat="44.04284" lon="5.92166">
        <ele>735.79998779297</ele>
        <time>2021-02-11T13:51:40.000Z</time>
      </trkpt>
      <trkpt lat="44.04276" lon="5.92162">
        <ele>735.40002441406</ele>
        <time>2021-02-11T13:51:42.000Z</time>
      </trkpt>
      <trkpt lat="44.04269" lon="5.92157">
        <ele>734.79998779297</ele>
        <time>2021-02-11T13:51:44.000Z</time>
      </trkpt>
      <trkpt lat="44.04265" lon="5.92156">
        <ele>734.40002441406</ele>
        <time>2021-02-11T13:51:45.000Z</time>
      </trkpt>
      <trkpt lat="44.04258" lon="5.9215">
        <ele>733.59997558594</ele>
        <time>2021-02-11T13:51:47.000Z</time>
      </trkpt>
      <trkpt lat="44.04252" lon="5.92142">
        <ele>733.20001220703</ele>
        <time>2021-02-11T13:51:49.000Z</time>
      </trkpt>
      <trkpt lat="44.04247" lon="5.9213">
        <ele>732.79998779297</ele>
        <time>2021-02-11T13:51:53.000Z</time>
      </trkpt>
      <trkpt lat="44.04243" lon="5.92135">
        <ele>732.20001220703</ele>
        <time>2021-02-11T13:51:56.000Z</time>
      </trkpt>
      <trkpt lat="44.04241" lon="5.92138">
        <ele>732</ele>
        <time>2021-02-11T13:51:57.000Z</time>
      </trkpt>
      <trkpt lat="44.04234" lon="5.92142">
        <ele>731.79998779297</ele>
        <time>2021-02-11T13:51:59.000Z</time>
      </trkpt>
      <trkpt lat="44.0422" lon="5.92139">
        <ele>731.20001220703</ele>
        <time>2021-02-11T13:52:03.000Z</time>
      </trkpt>
      <trkpt lat="44.04218" lon="5.92139">
        <ele>730.79998779297</ele>
        <time>2021-02-11T13:52:04.000Z</time>
      </trkpt>
      <trkpt lat="44.04216" lon="5.92142">
        <ele>729.59997558594</ele>
        <time>2021-02-11T13:52:06.000Z</time>
      </trkpt>
      <trkpt lat="44.04213" lon="5.92149">
        <ele>728.59997558594</ele>
        <time>2021-02-11T13:52:09.000Z</time>
      </trkpt>
      <trkpt lat="44.04209" lon="5.92153">
        <ele>728</ele>
        <time>2021-02-11T13:52:11.000Z</time>
      </trkpt>
      <trkpt lat="44.04196" lon="5.92163">
        <ele>727.59997558594</ele>
        <time>2021-02-11T13:52:15.000Z</time>
      </trkpt>
      <trkpt lat="44.04179" lon="5.92177">
        <ele>727.59997558594</ele>
        <time>2021-02-11T13:52:20.000Z</time>
      </trkpt>
      <trkpt lat="44.04171" lon="5.92186">
        <ele>727.40002441406</ele>
        <time>2021-02-11T13:52:24.000Z</time>
      </trkpt>
      <trkpt lat="44.04155" lon="5.92201">
        <ele>727.59997558594</ele>
        <time>2021-02-11T13:52:31.000Z</time>
      </trkpt>
      <trkpt lat="44.04142" lon="5.92216">
        <ele>728</ele>
        <time>2021-02-11T13:52:37.000Z</time>
      </trkpt>
      <trkpt lat="44.04132" lon="5.92233">
        <ele>728.59997558594</ele>
        <time>2021-02-11T13:52:42.000Z</time>
      </trkpt>
      <trkpt lat="44.04116" lon="5.92246">
        <ele>728.59997558594</ele>
        <time>2021-02-11T13:52:46.000Z</time>
      </trkpt>
      <trkpt lat="44.04099" lon="5.92247">
        <ele>728.59997558594</ele>
        <time>2021-02-11T13:52:49.000Z</time>
      </trkpt>
      <trkpt lat="44.04094" lon="5.92248">
        <ele>728.59997558594</ele>
        <time>2021-02-11T13:52:50.000Z</time>
      </trkpt>
      <trkpt lat="44.04077" lon="5.92253">
        <ele>727</ele>
        <time>2021-02-11T13:52:54.000Z</time>
      </trkpt>
      <trkpt lat="44.04072" lon="5.92254">
        <ele>726.40002441406</ele>
        <time>2021-02-11T13:52:55.000Z</time>
      </trkpt>
      <trkpt lat="44.04067" lon="5.92253">
        <ele>725.40002441406</ele>
        <time>2021-02-11T13:52:56.000Z</time>
      </trkpt>
      <trkpt lat="44.04058" lon="5.92251">
        <ele>723.20001220703</ele>
        <time>2021-02-11T13:52:58.000Z</time>
      </trkpt>
      <trkpt lat="44.04056" lon="5.9225">
        <ele>721.79998779297</ele>
        <time>2021-02-11T13:52:59.000Z</time>
      </trkpt>
      <trkpt lat="44.04055" lon="5.92249">
        <ele>720.79998779297</ele>
        <time>2021-02-11T13:53:00.000Z</time>
      </trkpt>
      <trkpt lat="44.04054" lon="5.92248">
        <ele>719.40002441406</ele>
        <time>2021-02-11T13:53:02.000Z</time>
      </trkpt>
      <trkpt lat="44.04054" lon="5.92247">
        <ele>718.59997558594</ele>
        <time>2021-02-11T13:53:03.000Z</time>
      </trkpt>
      <trkpt lat="44.04054" lon="5.92245">
        <ele>717.79998779297</ele>
        <time>2021-02-11T13:53:04.000Z</time>
      </trkpt>
      <trkpt lat="44.04049" lon="5.92241">
        <ele>716.59997558594</ele>
        <time>2021-02-11T13:53:07.000Z</time>
      </trkpt>
      <trkpt lat="44.04044" lon="5.92244">
        <ele>716</ele>
        <time>2021-02-11T13:53:14.000Z</time>
      </trkpt>
      <trkpt lat="44.04042" lon="5.92248">
        <ele>716</ele>
        <time>2021-02-11T13:53:17.000Z</time>
      </trkpt>
      <trkpt lat="44.04039" lon="5.92261">
        <ele>715.79998779297</ele>
        <time>2021-02-11T13:53:21.000Z</time>
      </trkpt>
      <trkpt lat="44.04038" lon="5.92281">
        <ele>715.79998779297</ele>
        <time>2021-02-11T13:53:26.000Z</time>
      </trkpt>
      <trkpt lat="44.04037" lon="5.92284">
        <ele>715.59997558594</ele>
        <time>2021-02-11T13:53:28.000Z</time>
      </trkpt>
      <trkpt lat="44.04035" lon="5.92289">
        <ele>715.59997558594</ele>
        <time>2021-02-11T13:53:32.000Z</time>
      </trkpt>
      <trkpt lat="44.04035" lon="5.9229">
        <ele>716</ele>
        <time>2021-02-11T13:53:47.000Z</time>
      </trkpt>
      <trkpt lat="44.04034" lon="5.92295">
        <ele>715.59997558594</ele>
        <time>2021-02-11T13:54:02.000Z</time>
      </trkpt>
      <trkpt lat="44.04031" lon="5.92312">
        <ele>715.40002441406</ele>
        <time>2021-02-11T13:54:09.000Z</time>
      </trkpt>
      <trkpt lat="44.0403" lon="5.92315">
        <ele>715.40002441406</ele>
        <time>2021-02-11T13:54:10.000Z</time>
      </trkpt>
      <trkpt lat="44.04029" lon="5.92327">
        <ele>715.40002441406</ele>
        <time>2021-02-11T13:54:14.000Z</time>
      </trkpt>
      <trkpt lat="44.04026" lon="5.92352">
        <ele>716</ele>
        <time>2021-02-11T13:54:21.000Z</time>
      </trkpt>
      <trkpt lat="44.04025" lon="5.92369">
        <ele>716.59997558594</ele>
        <time>2021-02-11T13:54:26.000Z</time>
      </trkpt>
      <trkpt lat="44.04025" lon="5.92373">
        <ele>716.79998779297</ele>
        <time>2021-02-11T13:54:27.000Z</time>
      </trkpt>
      <trkpt lat="44.04028" lon="5.92387">
        <ele>717.40002441406</ele>
        <time>2021-02-11T13:54:32.000Z</time>
      </trkpt>
      <trkpt lat="44.0403" lon="5.92392">
        <ele>717.79998779297</ele>
        <time>2021-02-11T13:54:34.000Z</time>
      </trkpt>
      <trkpt lat="44.04035" lon="5.92404">
        <ele>719</ele>
        <time>2021-02-11T13:54:38.000Z</time>
      </trkpt>
      <trkpt lat="44.04036" lon="5.92408">
        <ele>719.40002441406</ele>
        <time>2021-02-11T13:54:39.000Z</time>
      </trkpt>
      <trkpt lat="44.04037" lon="5.92414">
        <ele>720.40002441406</ele>
        <time>2021-02-11T13:54:41.000Z</time>
      </trkpt>
      <trkpt lat="44.0404" lon="5.92423">
        <ele>721.59997558594</ele>
        <time>2021-02-11T13:54:44.000Z</time>
      </trkpt>
      <trkpt lat="44.04042" lon="5.92429">
        <ele>722.20001220703</ele>
        <time>2021-02-11T13:54:46.000Z</time>
      </trkpt>
      <trkpt lat="44.04042" lon="5.92432">
        <ele>722.79998779297</ele>
        <time>2021-02-11T13:54:47.000Z</time>
      </trkpt>
      <trkpt lat="44.04043" lon="5.92441">
        <ele>724</ele>
        <time>2021-02-11T13:54:50.000Z</time>
      </trkpt>
      <trkpt lat="44.04042" lon="5.92449">
        <ele>725.20001220703</ele>
        <time>2021-02-11T13:54:53.000Z</time>
      </trkpt>
      <trkpt lat="44.04042" lon="5.92452">
        <ele>725.79998779297</ele>
        <time>2021-02-11T13:54:54.000Z</time>
      </trkpt>
      <trkpt lat="44.04041" lon="5.92454">
        <ele>726</ele>
        <time>2021-02-11T13:54:55.000Z</time>
      </trkpt>
      <trkpt lat="44.04041" lon="5.92456">
        <ele>726.40002441406</ele>
        <time>2021-02-11T13:54:56.000Z</time>
      </trkpt>
      <trkpt lat="44.04038" lon="5.92461">
        <ele>727.20001220703</ele>
        <time>2021-02-11T13:54:59.000Z</time>
      </trkpt>
      <trkpt lat="44.04036" lon="5.92461">
        <ele>727.40002441406</ele>
        <time>2021-02-11T13:55:00.000Z</time>
      </trkpt>
      <trkpt lat="44.04033" lon="5.9246">
        <ele>727.79998779297</ele>
        <time>2021-02-11T13:55:02.000Z</time>
      </trkpt>
      <trkpt lat="44.0403" lon="5.92459">
        <ele>728.40002441406</ele>
        <time>2021-02-11T13:55:04.000Z</time>
      </trkpt>
      <trkpt lat="44.04017" lon="5.92458">
        <ele>729.40002441406</ele>
        <time>2021-02-11T13:55:12.000Z</time>
      </trkpt>
      <trkpt lat="44.04009" lon="5.92461">
        <ele>730.59997558594</ele>
        <time>2021-02-11T13:55:18.000Z</time>
      </trkpt>
      <trkpt lat="44.04008" lon="5.92462">
        <ele>730.79998779297</ele>
        <time>2021-02-11T13:55:19.000Z</time>
      </trkpt>
      <trkpt lat="44.04" lon="5.92467">
        <ele>731.79998779297</ele>
        <time>2021-02-11T13:55:24.000Z</time>
      </trkpt>
      <trkpt lat="44.03993" lon="5.9247">
        <ele>732.59997558594</ele>
        <time>2021-02-11T13:55:29.000Z</time>
      </trkpt>
      <trkpt lat="44.03988" lon="5.92472">
        <ele>732.79998779297</ele>
        <time>2021-02-11T13:55:32.000Z</time>
      </trkpt>
      <trkpt lat="44.03981" lon="5.92475">
        <ele>733.79998779297</ele>
        <time>2021-02-11T13:55:37.000Z</time>
      </trkpt>
      <trkpt lat="44.03979" lon="5.92475">
        <ele>733.79998779297</ele>
        <time>2021-02-11T13:55:38.000Z</time>
      </trkpt>
      <trkpt lat="44.03968" lon="5.92484">
        <ele>734.79998779297</ele>
        <time>2021-02-11T13:55:45.000Z</time>
      </trkpt>
      <trkpt lat="44.03958" lon="5.92492">
        <ele>735.40002441406</ele>
        <time>2021-02-11T13:55:52.000Z</time>
      </trkpt>
      <trkpt lat="44.03957" lon="5.92494">
        <ele>735.40002441406</ele>
        <time>2021-02-11T13:55:53.000Z</time>
      </trkpt>
      <trkpt lat="44.03953" lon="5.92497">
        <ele>735.59997558594</ele>
        <time>2021-02-11T13:55:56.000Z</time>
      </trkpt>
      <trkpt lat="44.03946" lon="5.92501">
        <ele>735.79998779297</ele>
        <time>2021-02-11T13:56:00.000Z</time>
      </trkpt>
      <trkpt lat="44.0394" lon="5.92507">
        <ele>736</ele>
        <time>2021-02-11T13:56:04.000Z</time>
      </trkpt>
      <trkpt lat="44.03934" lon="5.92511">
        <ele>736.20001220703</ele>
        <time>2021-02-11T13:56:07.000Z</time>
      </trkpt>
      <trkpt lat="44.03926" lon="5.92515">
        <ele>737.20001220703</ele>
        <time>2021-02-11T13:56:12.000Z</time>
      </trkpt>
      <trkpt lat="44.03923" lon="5.92516">
        <ele>737.40002441406</ele>
        <time>2021-02-11T13:56:14.000Z</time>
      </trkpt>
      <trkpt lat="44.03921" lon="5.92516">
        <ele>738.20001220703</ele>
        <time>2021-02-11T13:56:19.000Z</time>
      </trkpt>
      <trkpt lat="44.03921" lon="5.92516">
        <ele>738.40002441406</ele>
        <time>2021-02-11T13:56:24.000Z</time>
      </trkpt>
      <trkpt lat="44.03921" lon="5.92517">
        <ele>738.59997558594</ele>
        <time>2021-02-11T13:56:58.000Z</time>
      </trkpt>
      <trkpt lat="44.03921" lon="5.92517">
        <ele>738.59997558594</ele>
        <time>2021-02-11T13:57:24.000Z</time>
      </trkpt>
      <trkpt lat="44.03921" lon="5.92517">
        <ele>738.59997558594</ele>
        <time>2021-02-11T13:57:51.000Z</time>
      </trkpt>
      <trkpt lat="44.03921" lon="5.92517">
        <ele>738.40002441406</ele>
        <time>2021-02-11T13:58:17.000Z</time>
      </trkpt>
      <trkpt lat="44.03921" lon="5.92517">
        <ele>738.59997558594</ele>
        <time>2021-02-11T13:58:42.000Z</time>
      </trkpt>
      <trkpt lat="44.03921" lon="5.92517">
        <ele>738.40002441406</ele>
        <time>2021-02-11T13:59:17.000Z</time>
      </trkpt>
      <trkpt lat="44.03921" lon="5.92517">
        <ele>738.40002441406</ele>
        <time>2021-02-11T13:59:45.000Z</time>
      </trkpt>
      <trkpt lat="44.0392" lon="5.92517">
        <ele>738.20001220703</ele>
        <time>2021-02-11T14:00:16.000Z</time>
      </trkpt>
      <trkpt lat="44.0392" lon="5.92517">
        <ele>738.59997558594</ele>
        <time>2021-02-11T14:01:02.000Z</time>
      </trkpt>
      <trkpt lat="44.0392" lon="5.92517">
        <ele>738.79998779297</ele>
        <time>2021-02-11T14:01:28.000Z</time>
      </trkpt>
      <trkpt lat="44.03918" lon="5.92517">
        <ele>738.79998779297</ele>
        <time>2021-02-11T14:01:56.000Z</time>
      </trkpt>
      <trkpt lat="44.0391" lon="5.92505">
        <ele>738.79998779297</ele>
        <time>2021-02-11T14:02:02.000Z</time>
      </trkpt>
      <trkpt lat="44.03905" lon="5.92493">
        <ele>738.20001220703</ele>
        <time>2021-02-11T14:02:07.000Z</time>
      </trkpt>
      <trkpt lat="44.03898" lon="5.92475">
        <ele>738</ele>
        <time>2021-02-11T14:02:15.000Z</time>
      </trkpt>
      <trkpt lat="44.0389" lon="5.92459">
        <ele>738</ele>
        <time>2021-02-11T14:02:20.000Z</time>
      </trkpt>
      <trkpt lat="44.03876" lon="5.92431">
        <ele>737.79998779297</ele>
        <time>2021-02-11T14:02:26.000Z</time>
      </trkpt>
      <trkpt lat="44.03862" lon="5.92405">
        <ele>737.59997558594</ele>
        <time>2021-02-11T14:02:32.000Z</time>
      </trkpt>
      <trkpt lat="44.03852" lon="5.92384">
        <ele>737.59997558594</ele>
        <time>2021-02-11T14:02:39.000Z</time>
      </trkpt>
      <trkpt lat="44.03841" lon="5.92369">
        <ele>738.40002441406</ele>
        <time>2021-02-11T14:02:45.000Z</time>
      </trkpt>
      <trkpt lat="44.03826" lon="5.92355">
        <ele>739.59997558594</ele>
        <time>2021-02-11T14:02:52.000Z</time>
      </trkpt>
      <trkpt lat="44.03807" lon="5.92342">
        <ele>740.20001220703</ele>
        <time>2021-02-11T14:03:00.000Z</time>
      </trkpt>
      <trkpt lat="44.03786" lon="5.92338">
        <ele>740.40002441406</ele>
        <time>2021-02-11T14:03:07.000Z</time>
      </trkpt>
      <trkpt lat="44.03764" lon="5.92331">
        <ele>740.59997558594</ele>
        <time>2021-02-11T14:03:14.000Z</time>
      </trkpt>
      <trkpt lat="44.03744" lon="5.92326">
        <ele>740.40002441406</ele>
        <time>2021-02-11T14:03:21.000Z</time>
      </trkpt>
      <trkpt lat="44.03731" lon="5.92322">
        <ele>740.40002441406</ele>
        <time>2021-02-11T14:03:24.000Z</time>
      </trkpt>
      <trkpt lat="44.03727" lon="5.92319">
        <ele>740.40002441406</ele>
        <time>2021-02-11T14:03:25.000Z</time>
      </trkpt>
      <trkpt lat="44.03706" lon="5.92304">
        <ele>739.59997558594</ele>
        <time>2021-02-11T14:03:30.000Z</time>
      </trkpt>
      <trkpt lat="44.03704" lon="5.92301">
        <ele>739.20001220703</ele>
        <time>2021-02-11T14:03:31.000Z</time>
      </trkpt>
      <trkpt lat="44.037" lon="5.92295">
        <ele>738.20001220703</ele>
        <time>2021-02-11T14:03:34.000Z</time>
      </trkpt>
      <trkpt lat="44.037" lon="5.92294">
        <ele>737</ele>
        <time>2021-02-11T14:03:36.000Z</time>
      </trkpt>
      <trkpt lat="44.03699" lon="5.92294">
        <ele>736</ele>
        <time>2021-02-11T14:03:39.000Z</time>
      </trkpt>
      <trkpt lat="44.03699" lon="5.92294">
        <ele>735.79998779297</ele>
        <time>2021-02-11T14:03:40.000Z</time>
      </trkpt>
      <trkpt lat="44.03697" lon="5.92294">
        <ele>735.20001220703</ele>
        <time>2021-02-11T14:03:58.000Z</time>
      </trkpt>
      <trkpt lat="44.03696" lon="5.92294">
        <ele>735.20001220703</ele>
        <time>2021-02-11T14:03:59.000Z</time>
      </trkpt>
      <trkpt lat="44.03681" lon="5.92294">
        <ele>735.20001220703</ele>
        <time>2021-02-11T14:04:04.000Z</time>
      </trkpt>
      <trkpt lat="44.03666" lon="5.92304">
        <ele>734.79998779297</ele>
        <time>2021-02-11T14:04:08.000Z</time>
      </trkpt>
      <trkpt lat="44.03663" lon="5.92309">
        <ele>734.40002441406</ele>
        <time>2021-02-11T14:04:09.000Z</time>
      </trkpt>
      <trkpt lat="44.03661" lon="5.92314">
        <ele>733.79998779297</ele>
        <time>2021-02-11T14:04:10.000Z</time>
      </trkpt>
      <trkpt lat="44.03659" lon="5.92319">
        <ele>733.40002441406</ele>
        <time>2021-02-11T14:04:11.000Z</time>
      </trkpt>
      <trkpt lat="44.03656" lon="5.92327">
        <ele>732</ele>
        <time>2021-02-11T14:04:13.000Z</time>
      </trkpt>
      <trkpt lat="44.03655" lon="5.92331">
        <ele>731.40002441406</ele>
        <time>2021-02-11T14:04:14.000Z</time>
      </trkpt>
      <trkpt lat="44.03654" lon="5.92335">
        <ele>730.79998779297</ele>
        <time>2021-02-11T14:04:15.000Z</time>
      </trkpt>
      <trkpt lat="44.03654" lon="5.9234">
        <ele>730.20001220703</ele>
        <time>2021-02-11T14:04:16.000Z</time>
      </trkpt>
      <trkpt lat="44.03655" lon="5.92344">
        <ele>729.79998779297</ele>
        <time>2021-02-11T14:04:17.000Z</time>
      </trkpt>
      <trkpt lat="44.03657" lon="5.92347">
        <ele>728.59997558594</ele>
        <time>2021-02-11T14:04:18.000Z</time>
      </trkpt>
      <trkpt lat="44.03663" lon="5.92354">
        <ele>727.59997558594</ele>
        <time>2021-02-11T14:04:20.000Z</time>
      </trkpt>
      <trkpt lat="44.03666" lon="5.92358">
        <ele>727</ele>
        <time>2021-02-11T14:04:21.000Z</time>
      </trkpt>
      <trkpt lat="44.03668" lon="5.92363">
        <ele>726.20001220703</ele>
        <time>2021-02-11T14:04:22.000Z</time>
      </trkpt>
      <trkpt lat="44.03673" lon="5.92376">
        <ele>724.79998779297</ele>
        <time>2021-02-11T14:04:24.000Z</time>
      </trkpt>
      <trkpt lat="44.03673" lon="5.92385">
        <ele>723.79998779297</ele>
        <time>2021-02-11T14:04:26.000Z</time>
      </trkpt>
      <trkpt lat="44.03663" lon="5.92389">
        <ele>722.59997558594</ele>
        <time>2021-02-11T14:04:29.000Z</time>
      </trkpt>
      <trkpt lat="44.03653" lon="5.92389">
        <ele>721.40002441406</ele>
        <time>2021-02-11T14:04:31.000Z</time>
      </trkpt>
      <trkpt lat="44.03644" lon="5.92387">
        <ele>720.20001220703</ele>
        <time>2021-02-11T14:04:33.000Z</time>
      </trkpt>
      <trkpt lat="44.0364" lon="5.92387">
        <ele>719.59997558594</ele>
        <time>2021-02-11T14:04:34.000Z</time>
      </trkpt>
      <trkpt lat="44.03637" lon="5.92387">
        <ele>718.79998779297</ele>
        <time>2021-02-11T14:04:35.000Z</time>
      </trkpt>
      <trkpt lat="44.0363" lon="5.92387">
        <ele>717.40002441406</ele>
        <time>2021-02-11T14:04:37.000Z</time>
      </trkpt>
      <trkpt lat="44.03623" lon="5.92386">
        <ele>717</ele>
        <time>2021-02-11T14:04:39.000Z</time>
      </trkpt>
      <trkpt lat="44.03614" lon="5.9239">
        <ele>716.79998779297</ele>
        <time>2021-02-11T14:04:42.000Z</time>
      </trkpt>
      <trkpt lat="44.03613" lon="5.92394">
        <ele>716.79998779297</ele>
        <time>2021-02-11T14:04:43.000Z</time>
      </trkpt>
      <trkpt lat="44.03612" lon="5.92405">
        <ele>716.59997558594</ele>
        <time>2021-02-11T14:04:45.000Z</time>
      </trkpt>
      <trkpt lat="44.03608" lon="5.92416">
        <ele>716.20001220703</ele>
        <time>2021-02-11T14:04:47.000Z</time>
      </trkpt>
      <trkpt lat="44.03596" lon="5.92428">
        <ele>716.20001220703</ele>
        <time>2021-02-11T14:04:50.000Z</time>
      </trkpt>
      <trkpt lat="44.03583" lon="5.92439">
        <ele>715.40002441406</ele>
        <time>2021-02-11T14:04:53.000Z</time>
      </trkpt>
      <trkpt lat="44.03578" lon="5.92441">
        <ele>714.59997558594</ele>
        <time>2021-02-11T14:04:54.000Z</time>
      </trkpt>
      <trkpt lat="44.03572" lon="5.92443">
        <ele>713</ele>
        <time>2021-02-11T14:04:56.000Z</time>
      </trkpt>
      <trkpt lat="44.0357" lon="5.92445">
        <ele>712.40002441406</ele>
        <time>2021-02-11T14:04:57.000Z</time>
      </trkpt>
      <trkpt lat="44.0357" lon="5.92448">
        <ele>711.79998779297</ele>
        <time>2021-02-11T14:04:58.000Z</time>
      </trkpt>
      <trkpt lat="44.03573" lon="5.92455">
        <ele>711</ele>
        <time>2021-02-11T14:05:00.000Z</time>
      </trkpt>
      <trkpt lat="44.03575" lon="5.92459">
        <ele>710.79998779297</ele>
        <time>2021-02-11T14:05:01.000Z</time>
      </trkpt>
      <trkpt lat="44.03583" lon="5.92468">
        <ele>710.40002441406</ele>
        <time>2021-02-11T14:05:04.000Z</time>
      </trkpt>
      <trkpt lat="44.03593" lon="5.92472">
        <ele>709.40002441406</ele>
        <time>2021-02-11T14:05:07.000Z</time>
      </trkpt>
      <trkpt lat="44.03596" lon="5.92473">
        <ele>708.20001220703</ele>
        <time>2021-02-11T14:05:08.000Z</time>
      </trkpt>
      <trkpt lat="44.03597" lon="5.92475">
        <ele>707</ele>
        <time>2021-02-11T14:05:09.000Z</time>
      </trkpt>
      <trkpt lat="44.03597" lon="5.92477">
        <ele>705.79998779297</ele>
        <time>2021-02-11T14:05:10.000Z</time>
      </trkpt>
      <trkpt lat="44.03595" lon="5.9248">
        <ele>704.40002441406</ele>
        <time>2021-02-11T14:05:11.000Z</time>
      </trkpt>
      <trkpt lat="44.03593" lon="5.92483">
        <ele>703.20001220703</ele>
        <time>2021-02-11T14:05:12.000Z</time>
      </trkpt>
      <trkpt lat="44.03589" lon="5.92485">
        <ele>702.40002441406</ele>
        <time>2021-02-11T14:05:13.000Z</time>
      </trkpt>
      <trkpt lat="44.03585" lon="5.92488">
        <ele>701.40002441406</ele>
        <time>2021-02-11T14:05:14.000Z</time>
      </trkpt>
      <trkpt lat="44.03581" lon="5.9249">
        <ele>700.20001220703</ele>
        <time>2021-02-11T14:05:15.000Z</time>
      </trkpt>
      <trkpt lat="44.03574" lon="5.92494">
        <ele>699.40002441406</ele>
        <time>2021-02-11T14:05:17.000Z</time>
      </trkpt>
      <trkpt lat="44.03571" lon="5.92497">
        <ele>698.79998779297</ele>
        <time>2021-02-11T14:05:18.000Z</time>
      </trkpt>
      <trkpt lat="44.0357" lon="5.925">
        <ele>698.40002441406</ele>
        <time>2021-02-11T14:05:19.000Z</time>
      </trkpt>
      <trkpt lat="44.03569" lon="5.92506">
        <ele>697.20001220703</ele>
        <time>2021-02-11T14:05:21.000Z</time>
      </trkpt>
      <trkpt lat="44.0357" lon="5.92512">
        <ele>695.59997558594</ele>
        <time>2021-02-11T14:05:23.000Z</time>
      </trkpt>
      <trkpt lat="44.03564" lon="5.92521">
        <ele>694.59997558594</ele>
        <time>2021-02-11T14:05:26.000Z</time>
      </trkpt>
      <trkpt lat="44.03555" lon="5.92526">
        <ele>693</ele>
        <time>2021-02-11T14:05:28.000Z</time>
      </trkpt>
      <trkpt lat="44.03547" lon="5.92528">
        <ele>691</ele>
        <time>2021-02-11T14:05:30.000Z</time>
      </trkpt>
      <trkpt lat="44.03543" lon="5.92528">
        <ele>690</ele>
        <time>2021-02-11T14:05:31.000Z</time>
      </trkpt>
      <trkpt lat="44.03539" lon="5.9253">
        <ele>689.20001220703</ele>
        <time>2021-02-11T14:05:32.000Z</time>
      </trkpt>
      <trkpt lat="44.0353" lon="5.92534">
        <ele>687</ele>
        <time>2021-02-11T14:05:34.000Z</time>
      </trkpt>
      <trkpt lat="44.03526" lon="5.92537">
        <ele>686</ele>
        <time>2021-02-11T14:05:35.000Z</time>
      </trkpt>
      <trkpt lat="44.03522" lon="5.92539">
        <ele>684.79998779297</ele>
        <time>2021-02-11T14:05:36.000Z</time>
      </trkpt>
      <trkpt lat="44.03515" lon="5.9254">
        <ele>683.59997558594</ele>
        <time>2021-02-11T14:05:38.000Z</time>
      </trkpt>
      <trkpt lat="44.03504" lon="5.92545">
        <ele>682.40002441406</ele>
        <time>2021-02-11T14:05:41.000Z</time>
      </trkpt>
      <trkpt lat="44.03499" lon="5.92547">
        <ele>682</ele>
        <time>2021-02-11T14:05:42.000Z</time>
      </trkpt>
      <trkpt lat="44.03495" lon="5.92547">
        <ele>680</ele>
        <time>2021-02-11T14:05:43.000Z</time>
      </trkpt>
      <trkpt lat="44.03487" lon="5.92546">
        <ele>678.20001220703</ele>
        <time>2021-02-11T14:05:45.000Z</time>
      </trkpt>
      <trkpt lat="44.03484" lon="5.92546">
        <ele>677.59997558594</ele>
        <time>2021-02-11T14:05:46.000Z</time>
      </trkpt>
      <trkpt lat="44.03481" lon="5.92546">
        <ele>677.20001220703</ele>
        <time>2021-02-11T14:05:47.000Z</time>
      </trkpt>
      <trkpt lat="44.03474" lon="5.9255">
        <ele>675.79998779297</ele>
        <time>2021-02-11T14:05:49.000Z</time>
      </trkpt>
      <trkpt lat="44.03457" lon="5.9255">
        <ele>674.79998779297</ele>
        <time>2021-02-11T14:05:53.000Z</time>
      </trkpt>
      <trkpt lat="44.0345" lon="5.92544">
        <ele>673.59997558594</ele>
        <time>2021-02-11T14:05:56.000Z</time>
      </trkpt>
      <trkpt lat="44.03449" lon="5.92543">
        <ele>672.79998779297</ele>
        <time>2021-02-11T14:05:57.000Z</time>
      </trkpt>
      <trkpt lat="44.03448" lon="5.92542">
        <ele>672</ele>
        <time>2021-02-11T14:05:58.000Z</time>
      </trkpt>
      <trkpt lat="44.03447" lon="5.92542">
        <ele>670.59997558594</ele>
        <time>2021-02-11T14:06:00.000Z</time>
      </trkpt>
      <trkpt lat="44.03446" lon="5.92542">
        <ele>670.20001220703</ele>
        <time>2021-02-11T14:06:03.000Z</time>
      </trkpt>
      <trkpt lat="44.03443" lon="5.92536">
        <ele>670</ele>
        <time>2021-02-11T14:06:11.000Z</time>
      </trkpt>
      <trkpt lat="44.03436" lon="5.92523">
        <ele>670.20001220703</ele>
        <time>2021-02-11T14:06:18.000Z</time>
      </trkpt>
      <trkpt lat="44.03435" lon="5.9252">
        <ele>670.40002441406</ele>
        <time>2021-02-11T14:06:20.000Z</time>
      </trkpt>
      <trkpt lat="44.03436" lon="5.92514">
        <ele>671.20001220703</ele>
        <time>2021-02-11T14:06:23.000Z</time>
      </trkpt>
      <trkpt lat="44.03435" lon="5.92508">
        <ele>672</ele>
        <time>2021-02-11T14:06:26.000Z</time>
      </trkpt>
      <trkpt lat="44.03432" lon="5.92505">
        <ele>673.40002441406</ele>
        <time>2021-02-11T14:06:29.000Z</time>
      </trkpt>
      <trkpt lat="44.03429" lon="5.92501">
        <ele>674.59997558594</ele>
        <time>2021-02-11T14:06:36.000Z</time>
      </trkpt>
      <trkpt lat="44.03428" lon="5.92498">
        <ele>675</ele>
        <time>2021-02-11T14:06:38.000Z</time>
      </trkpt>
      <trkpt lat="44.03426" lon="5.92492">
        <ele>675.20001220703</ele>
        <time>2021-02-11T14:06:42.000Z</time>
      </trkpt>
      <trkpt lat="44.03423" lon="5.92493">
        <ele>675.59997558594</ele>
        <time>2021-02-11T14:06:44.000Z</time>
      </trkpt>
      <trkpt lat="44.03422" lon="5.92495">
        <ele>675.79998779297</ele>
        <time>2021-02-11T14:06:46.000Z</time>
      </trkpt>
      <trkpt lat="44.03421" lon="5.92496">
        <ele>675.79998779297</ele>
        <time>2021-02-11T14:06:47.000Z</time>
      </trkpt>
      <trkpt lat="44.03417" lon="5.92501">
        <ele>676.40002441406</ele>
        <time>2021-02-11T14:06:52.000Z</time>
      </trkpt>
      <trkpt lat="44.03415" lon="5.92499">
        <ele>676.79998779297</ele>
        <time>2021-02-11T14:06:57.000Z</time>
      </trkpt>
      <trkpt lat="44.03415" lon="5.92499">
        <ele>677</ele>
        <time>2021-02-11T14:07:05.000Z</time>
      </trkpt>
      <trkpt lat="44.03415" lon="5.92499">
        <ele>677</ele>
        <time>2021-02-11T14:07:20.000Z</time>
      </trkpt>
      <trkpt lat="44.03414" lon="5.92504">
        <ele>677</ele>
        <time>2021-02-11T14:07:34.000Z</time>
      </trkpt>
      <trkpt lat="44.03413" lon="5.92508">
        <ele>677</ele>
        <time>2021-02-11T14:07:36.000Z</time>
      </trkpt>
      <trkpt lat="44.0341" lon="5.92514">
        <ele>677</ele>
        <time>2021-02-11T14:07:39.000Z</time>
      </trkpt>
      <trkpt lat="44.03406" lon="5.92519">
        <ele>677.20001220703</ele>
        <time>2021-02-11T14:07:43.000Z</time>
      </trkpt>
      <trkpt lat="44.03403" lon="5.9252">
        <ele>677.40002441406</ele>
        <time>2021-02-11T14:07:45.000Z</time>
      </trkpt>
      <trkpt lat="44.03389" lon="5.92529">
        <ele>677.59997558594</ele>
        <time>2021-02-11T14:07:51.000Z</time>
      </trkpt>
      <trkpt lat="44.0338" lon="5.92536">
        <ele>677.59997558594</ele>
        <time>2021-02-11T14:07:55.000Z</time>
      </trkpt>
      <trkpt lat="44.03377" lon="5.92537">
        <ele>677.59997558594</ele>
        <time>2021-02-11T14:07:56.000Z</time>
      </trkpt>
      <trkpt lat="44.03364" lon="5.92547">
        <ele>676.79998779297</ele>
        <time>2021-02-11T14:08:00.000Z</time>
      </trkpt>
      <trkpt lat="44.03355" lon="5.92553">
        <ele>676.40002441406</ele>
        <time>2021-02-11T14:08:02.000Z</time>
      </trkpt>
      <trkpt lat="44.03349" lon="5.92563">
        <ele>675.40002441406</ele>
        <time>2021-02-11T14:08:04.000Z</time>
      </trkpt>
      <trkpt lat="44.03349" lon="5.92571">
        <ele>674</ele>
        <time>2021-02-11T14:08:06.000Z</time>
      </trkpt>
      <trkpt lat="44.03351" lon="5.92573">
        <ele>673.40002441406</ele>
        <time>2021-02-11T14:08:07.000Z</time>
      </trkpt>
      <trkpt lat="44.03354" lon="5.92574">
        <ele>673</ele>
        <time>2021-02-11T14:08:08.000Z</time>
      </trkpt>
      <trkpt lat="44.03361" lon="5.92575">
        <ele>671.79998779297</ele>
        <time>2021-02-11T14:08:10.000Z</time>
      </trkpt>
      <trkpt lat="44.03365" lon="5.92576">
        <ele>671.20001220703</ele>
        <time>2021-02-11T14:08:11.000Z</time>
      </trkpt>
      <trkpt lat="44.03372" lon="5.92578">
        <ele>670.59997558594</ele>
        <time>2021-02-11T14:08:13.000Z</time>
      </trkpt>
      <trkpt lat="44.03378" lon="5.9258">
        <ele>669.20001220703</ele>
        <time>2021-02-11T14:08:15.000Z</time>
      </trkpt>
      <trkpt lat="44.03382" lon="5.92581">
        <ele>668.59997558594</ele>
        <time>2021-02-11T14:08:16.000Z</time>
      </trkpt>
      <trkpt lat="44.03385" lon="5.92581">
        <ele>668</ele>
        <time>2021-02-11T14:08:17.000Z</time>
      </trkpt>
      <trkpt lat="44.03391" lon="5.92581">
        <ele>667.40002441406</ele>
        <time>2021-02-11T14:08:19.000Z</time>
      </trkpt>
      <trkpt lat="44.03392" lon="5.92583">
        <ele>667</ele>
        <time>2021-02-11T14:08:20.000Z</time>
      </trkpt>
      <trkpt lat="44.03393" lon="5.92585">
        <ele>666.40002441406</ele>
        <time>2021-02-11T14:08:21.000Z</time>
      </trkpt>
      <trkpt lat="44.03392" lon="5.92587">
        <ele>666.20001220703</ele>
        <time>2021-02-11T14:08:22.000Z</time>
      </trkpt>
      <trkpt lat="44.0339" lon="5.92589">
        <ele>665.79998779297</ele>
        <time>2021-02-11T14:08:23.000Z</time>
      </trkpt>
      <trkpt lat="44.03388" lon="5.92593">
        <ele>665.40002441406</ele>
        <time>2021-02-11T14:08:24.000Z</time>
      </trkpt>
      <trkpt lat="44.03378" lon="5.92608">
        <ele>664.59997558594</ele>
        <time>2021-02-11T14:08:28.000Z</time>
      </trkpt>
      <trkpt lat="44.03374" lon="5.92611">
        <ele>664.40002441406</ele>
        <time>2021-02-11T14:08:29.000Z</time>
      </trkpt>
      <trkpt lat="44.03367" lon="5.92618">
        <ele>663.20001220703</ele>
        <time>2021-02-11T14:08:31.000Z</time>
      </trkpt>
      <trkpt lat="44.03359" lon="5.92624">
        <ele>662</ele>
        <time>2021-02-11T14:08:33.000Z</time>
      </trkpt>
      <trkpt lat="44.03355" lon="5.92627">
        <ele>660.20001220703</ele>
        <time>2021-02-11T14:08:34.000Z</time>
      </trkpt>
      <trkpt lat="44.03347" lon="5.92634">
        <ele>658.59997558594</ele>
        <time>2021-02-11T14:08:36.000Z</time>
      </trkpt>
      <trkpt lat="44.03343" lon="5.92637">
        <ele>658</ele>
        <time>2021-02-11T14:08:37.000Z</time>
      </trkpt>
      <trkpt lat="44.03339" lon="5.9264">
        <ele>657.40002441406</ele>
        <time>2021-02-11T14:08:38.000Z</time>
      </trkpt>
      <trkpt lat="44.03333" lon="5.92644">
        <ele>656.40002441406</ele>
        <time>2021-02-11T14:08:40.000Z</time>
      </trkpt>
      <trkpt lat="44.03328" lon="5.92648">
        <ele>655.40002441406</ele>
        <time>2021-02-11T14:08:42.000Z</time>
      </trkpt>
      <trkpt lat="44.03328" lon="5.92656">
        <ele>654</ele>
        <time>2021-02-11T14:08:45.000Z</time>
      </trkpt>
      <trkpt lat="44.03331" lon="5.92659">
        <ele>653.59997558594</ele>
        <time>2021-02-11T14:08:47.000Z</time>
      </trkpt>
      <trkpt lat="44.03339" lon="5.92662">
        <ele>652.79998779297</ele>
        <time>2021-02-11T14:08:50.000Z</time>
      </trkpt>
      <trkpt lat="44.03348" lon="5.92664">
        <ele>651.79998779297</ele>
        <time>2021-02-11T14:08:53.000Z</time>
      </trkpt>
      <trkpt lat="44.03356" lon="5.92666">
        <ele>651</ele>
        <time>2021-02-11T14:08:55.000Z</time>
      </trkpt>
      <trkpt lat="44.03359" lon="5.92667">
        <ele>650.79998779297</ele>
        <time>2021-02-11T14:08:56.000Z</time>
      </trkpt>
      <trkpt lat="44.0336" lon="5.92667">
        <ele>650.40002441406</ele>
        <time>2021-02-11T14:08:58.000Z</time>
      </trkpt>
      <trkpt lat="44.03361" lon="5.92667">
        <ele>649.79998779297</ele>
        <time>2021-02-11T14:09:00.000Z</time>
      </trkpt>
      <trkpt lat="44.03365" lon="5.92668">
        <ele>648.79998779297</ele>
        <time>2021-02-11T14:09:09.000Z</time>
      </trkpt>
      <trkpt lat="44.03375" lon="5.92668">
        <ele>648.79998779297</ele>
        <time>2021-02-11T14:09:14.000Z</time>
      </trkpt>
      <trkpt lat="44.03375" lon="5.92668">
        <ele>648.79998779297</ele>
        <time>2021-02-11T14:09:15.000Z</time>
      </trkpt>
      <trkpt lat="44.03377" lon="5.92668">
        <ele>647.59997558594</ele>
        <time>2021-02-11T14:09:21.000Z</time>
      </trkpt>
      <trkpt lat="44.03378" lon="5.92668">
        <ele>647.59997558594</ele>
        <time>2021-02-11T14:09:23.000Z</time>
      </trkpt>
      <trkpt lat="44.03382" lon="5.92673">
        <ele>647.59997558594</ele>
        <time>2021-02-11T14:09:27.000Z</time>
      </trkpt>
      <trkpt lat="44.03382" lon="5.92676">
        <ele>647.40002441406</ele>
        <time>2021-02-11T14:09:28.000Z</time>
      </trkpt>
      <trkpt lat="44.03379" lon="5.92687">
        <ele>647.20001220703</ele>
        <time>2021-02-11T14:09:31.000Z</time>
      </trkpt>
      <trkpt lat="44.03377" lon="5.9269">
        <ele>647</ele>
        <time>2021-02-11T14:09:32.000Z</time>
      </trkpt>
      <trkpt lat="44.03373" lon="5.92696">
        <ele>646.59997558594</ele>
        <time>2021-02-11T14:09:34.000Z</time>
      </trkpt>
      <trkpt lat="44.03367" lon="5.92701">
        <ele>645.59997558594</ele>
        <time>2021-02-11T14:09:36.000Z</time>
      </trkpt>
      <trkpt lat="44.03364" lon="5.92703">
        <ele>644.59997558594</ele>
        <time>2021-02-11T14:09:37.000Z</time>
      </trkpt>
      <trkpt lat="44.03361" lon="5.92706">
        <ele>643.79998779297</ele>
        <time>2021-02-11T14:09:38.000Z</time>
      </trkpt>
      <trkpt lat="44.03355" lon="5.9271">
        <ele>642.40002441406</ele>
        <time>2021-02-11T14:09:40.000Z</time>
      </trkpt>
      <trkpt lat="44.03349" lon="5.92713">
        <ele>641.20001220703</ele>
        <time>2021-02-11T14:09:42.000Z</time>
      </trkpt>
      <trkpt lat="44.03344" lon="5.92715">
        <ele>640.40002441406</ele>
        <time>2021-02-11T14:09:44.000Z</time>
      </trkpt>
      <trkpt lat="44.03337" lon="5.92718">
        <ele>639.40002441406</ele>
        <time>2021-02-11T14:09:47.000Z</time>
      </trkpt>
      <trkpt lat="44.03322" lon="5.92721">
        <ele>639.20001220703</ele>
        <time>2021-02-11T14:09:51.000Z</time>
      </trkpt>
      <trkpt lat="44.03319" lon="5.92721">
        <ele>639.20001220703</ele>
        <time>2021-02-11T14:09:52.000Z</time>
      </trkpt>
      <trkpt lat="44.0331" lon="5.92723">
        <ele>637.79998779297</ele>
        <time>2021-02-11T14:09:56.000Z</time>
      </trkpt>
      <trkpt lat="44.03307" lon="5.92724">
        <ele>637.79998779297</ele>
        <time>2021-02-11T14:09:57.000Z</time>
      </trkpt>
      <trkpt lat="44.03291" lon="5.92731">
        <ele>637.20001220703</ele>
        <time>2021-02-11T14:10:01.000Z</time>
      </trkpt>
      <trkpt lat="44.03277" lon="5.92736">
        <ele>636.79998779297</ele>
        <time>2021-02-11T14:10:04.000Z</time>
      </trkpt>
      <trkpt lat="44.03272" lon="5.92737">
        <ele>636.79998779297</ele>
        <time>2021-02-11T14:10:05.000Z</time>
      </trkpt>
      <trkpt lat="44.03268" lon="5.92738">
        <ele>636.59997558594</ele>
        <time>2021-02-11T14:10:06.000Z</time>
      </trkpt>
      <trkpt lat="44.0326" lon="5.92739">
        <ele>635.59997558594</ele>
        <time>2021-02-11T14:10:08.000Z</time>
      </trkpt>
      <trkpt lat="44.03251" lon="5.92739">
        <ele>634.59997558594</ele>
        <time>2021-02-11T14:10:10.000Z</time>
      </trkpt>
      <trkpt lat="44.03236" lon="5.92741">
        <ele>633</ele>
        <time>2021-02-11T14:10:13.000Z</time>
      </trkpt>
      <trkpt lat="44.03227" lon="5.92739">
        <ele>632.20001220703</ele>
        <time>2021-02-11T14:10:15.000Z</time>
      </trkpt>
      <trkpt lat="44.03223" lon="5.92737">
        <ele>632</ele>
        <time>2021-02-11T14:10:16.000Z</time>
      </trkpt>
      <trkpt lat="44.03215" lon="5.92734">
        <ele>631.40002441406</ele>
        <time>2021-02-11T14:10:18.000Z</time>
      </trkpt>
      <trkpt lat="44.03212" lon="5.92733">
        <ele>631</ele>
        <time>2021-02-11T14:10:19.000Z</time>
      </trkpt>
      <trkpt lat="44.03209" lon="5.92733">
        <ele>630.79998779297</ele>
        <time>2021-02-11T14:10:20.000Z</time>
      </trkpt>
      <trkpt lat="44.03202" lon="5.92735">
        <ele>629.59997558594</ele>
        <time>2021-02-11T14:10:22.000Z</time>
      </trkpt>
      <trkpt lat="44.03199" lon="5.92738">
        <ele>629.40002441406</ele>
        <time>2021-02-11T14:10:23.000Z</time>
      </trkpt>
      <trkpt lat="44.03197" lon="5.92751">
        <ele>628.79998779297</ele>
        <time>2021-02-11T14:10:27.000Z</time>
      </trkpt>
      <trkpt lat="44.03197" lon="5.92754">
        <ele>628.59997558594</ele>
        <time>2021-02-11T14:10:28.000Z</time>
      </trkpt>
      <trkpt lat="44.03195" lon="5.92768">
        <ele>627.59997558594</ele>
        <time>2021-02-11T14:10:31.000Z</time>
      </trkpt>
      <trkpt lat="44.03193" lon="5.92773">
        <ele>627</ele>
        <time>2021-02-11T14:10:32.000Z</time>
      </trkpt>
      <trkpt lat="44.0319" lon="5.92778">
        <ele>626.40002441406</ele>
        <time>2021-02-11T14:10:33.000Z</time>
      </trkpt>
      <trkpt lat="44.03187" lon="5.92783">
        <ele>625.79998779297</ele>
        <time>2021-02-11T14:10:34.000Z</time>
      </trkpt>
      <trkpt lat="44.03183" lon="5.92786">
        <ele>625.40002441406</ele>
        <time>2021-02-11T14:10:35.000Z</time>
      </trkpt>
      <trkpt lat="44.03169" lon="5.92792">
        <ele>624.59997558594</ele>
        <time>2021-02-11T14:10:38.000Z</time>
      </trkpt>
      <trkpt lat="44.03164" lon="5.92794">
        <ele>624</ele>
        <time>2021-02-11T14:10:39.000Z</time>
      </trkpt>
      <trkpt lat="44.0316" lon="5.92796">
        <ele>623.20001220703</ele>
        <time>2021-02-11T14:10:40.000Z</time>
      </trkpt>
      <trkpt lat="44.03154" lon="5.92804">
        <ele>621.59997558594</ele>
        <time>2021-02-11T14:10:42.000Z</time>
      </trkpt>
      <trkpt lat="44.03151" lon="5.92808">
        <ele>621.20001220703</ele>
        <time>2021-02-11T14:10:43.000Z</time>
      </trkpt>
      <trkpt lat="44.03145" lon="5.92814">
        <ele>620.40002441406</ele>
        <time>2021-02-11T14:10:45.000Z</time>
      </trkpt>
      <trkpt lat="44.03142" lon="5.92815">
        <ele>620</ele>
        <time>2021-02-11T14:10:46.000Z</time>
      </trkpt>
      <trkpt lat="44.03134" lon="5.92821">
        <ele>619.40002441406</ele>
        <time>2021-02-11T14:10:48.000Z</time>
      </trkpt>
      <trkpt lat="44.03129" lon="5.92824">
        <ele>619</ele>
        <time>2021-02-11T14:10:49.000Z</time>
      </trkpt>
      <trkpt lat="44.03117" lon="5.92828">
        <ele>617.40002441406</ele>
        <time>2021-02-11T14:10:51.000Z</time>
      </trkpt>
      <trkpt lat="44.03112" lon="5.92832">
        <ele>616.59997558594</ele>
        <time>2021-02-11T14:10:52.000Z</time>
      </trkpt>
      <trkpt lat="44.03108" lon="5.92836">
        <ele>616</ele>
        <time>2021-02-11T14:10:53.000Z</time>
      </trkpt>
      <trkpt lat="44.03101" lon="5.92847">
        <ele>614.59997558594</ele>
        <time>2021-02-11T14:10:55.000Z</time>
      </trkpt>
      <trkpt lat="44.03097" lon="5.92851">
        <ele>612.40002441406</ele>
        <time>2021-02-11T14:10:56.000Z</time>
      </trkpt>
      <trkpt lat="44.03092" lon="5.92854">
        <ele>611.20001220703</ele>
        <time>2021-02-11T14:10:57.000Z</time>
      </trkpt>
      <trkpt lat="44.03088" lon="5.92857">
        <ele>610</ele>
        <time>2021-02-11T14:10:58.000Z</time>
      </trkpt>
      <trkpt lat="44.03079" lon="5.92861">
        <ele>608.59997558594</ele>
        <time>2021-02-11T14:11:00.000Z</time>
      </trkpt>
      <trkpt lat="44.03072" lon="5.92863">
        <ele>606.79998779297</ele>
        <time>2021-02-11T14:11:02.000Z</time>
      </trkpt>
      <trkpt lat="44.03066" lon="5.92867">
        <ele>605.40002441406</ele>
        <time>2021-02-11T14:11:04.000Z</time>
      </trkpt>
      <trkpt lat="44.03064" lon="5.92872">
        <ele>604.20001220703</ele>
        <time>2021-02-11T14:11:06.000Z</time>
      </trkpt>
      <trkpt lat="44.03059" lon="5.92878">
        <ele>603</ele>
        <time>2021-02-11T14:11:08.000Z</time>
      </trkpt>
      <trkpt lat="44.03056" lon="5.9288">
        <ele>602.40002441406</ele>
        <time>2021-02-11T14:11:09.000Z</time>
      </trkpt>
      <trkpt lat="44.03054" lon="5.92881">
        <ele>601.59997558594</ele>
        <time>2021-02-11T14:11:10.000Z</time>
      </trkpt>
      <trkpt lat="44.03048" lon="5.92885">
        <ele>600.40002441406</ele>
        <time>2021-02-11T14:11:12.000Z</time>
      </trkpt>
      <trkpt lat="44.03046" lon="5.92887">
        <ele>599.79998779297</ele>
        <time>2021-02-11T14:11:13.000Z</time>
      </trkpt>
      <trkpt lat="44.03045" lon="5.9289">
        <ele>599.20001220703</ele>
        <time>2021-02-11T14:11:14.000Z</time>
      </trkpt>
      <trkpt lat="44.03046" lon="5.92894">
        <ele>598</ele>
        <time>2021-02-11T14:11:16.000Z</time>
      </trkpt>
      <trkpt lat="44.03046" lon="5.92897">
        <ele>597.20001220703</ele>
        <time>2021-02-11T14:11:17.000Z</time>
      </trkpt>
      <trkpt lat="44.03047" lon="5.929">
        <ele>596.40002441406</ele>
        <time>2021-02-11T14:11:18.000Z</time>
      </trkpt>
      <trkpt lat="44.03051" lon="5.92908">
        <ele>594.79998779297</ele>
        <time>2021-02-11T14:11:20.000Z</time>
      </trkpt>
      <trkpt lat="44.03054" lon="5.92911">
        <ele>594</ele>
        <time>2021-02-11T14:11:21.000Z</time>
      </trkpt>
      <trkpt lat="44.03057" lon="5.92914">
        <ele>593.40002441406</ele>
        <time>2021-02-11T14:11:22.000Z</time>
      </trkpt>
      <trkpt lat="44.03059" lon="5.9292">
        <ele>592.40002441406</ele>
        <time>2021-02-11T14:11:24.000Z</time>
      </trkpt>
      <trkpt lat="44.03059" lon="5.92923">
        <ele>592.20001220703</ele>
        <time>2021-02-11T14:11:25.000Z</time>
      </trkpt>
      <trkpt lat="44.03054" lon="5.92928">
        <ele>590.79998779297</ele>
        <time>2021-02-11T14:11:27.000Z</time>
      </trkpt>
      <trkpt lat="44.03051" lon="5.92929">
        <ele>590.20001220703</ele>
        <time>2021-02-11T14:11:28.000Z</time>
      </trkpt>
      <trkpt lat="44.03047" lon="5.9293">
        <ele>589.59997558594</ele>
        <time>2021-02-11T14:11:29.000Z</time>
      </trkpt>
      <trkpt lat="44.03036" lon="5.92931">
        <ele>589</ele>
        <time>2021-02-11T14:11:31.000Z</time>
      </trkpt>
      <trkpt lat="44.0303" lon="5.92932">
        <ele>589</ele>
        <time>2021-02-11T14:11:32.000Z</time>
      </trkpt>
      <trkpt lat="44.03024" lon="5.92936">
        <ele>588.40002441406</ele>
        <time>2021-02-11T14:11:33.000Z</time>
      </trkpt>
      <trkpt lat="44.0301" lon="5.92943">
        <ele>586.79998779297</ele>
        <time>2021-02-11T14:11:35.000Z</time>
      </trkpt>
      <trkpt lat="44.03002" lon="5.92948">
        <ele>585.20001220703</ele>
        <time>2021-02-11T14:11:37.000Z</time>
      </trkpt>
      <trkpt lat="44.02999" lon="5.9295">
        <ele>584.20001220703</ele>
        <time>2021-02-11T14:11:38.000Z</time>
      </trkpt>
      <trkpt lat="44.02998" lon="5.92953">
        <ele>583</ele>
        <time>2021-02-11T14:11:39.000Z</time>
      </trkpt>
      <trkpt lat="44.02999" lon="5.92956">
        <ele>581.40002441406</ele>
        <time>2021-02-11T14:11:40.000Z</time>
      </trkpt>
      <trkpt lat="44.03" lon="5.92958">
        <ele>579.40002441406</ele>
        <time>2021-02-11T14:11:41.000Z</time>
      </trkpt>
      <trkpt lat="44.03002" lon="5.92961">
        <ele>577.40002441406</ele>
        <time>2021-02-11T14:11:42.000Z</time>
      </trkpt>
      <trkpt lat="44.03003" lon="5.92963">
        <ele>575.79998779297</ele>
        <time>2021-02-11T14:11:43.000Z</time>
      </trkpt>
      <trkpt lat="44.03002" lon="5.92965">
        <ele>574.79998779297</ele>
        <time>2021-02-11T14:11:44.000Z</time>
      </trkpt>
      <trkpt lat="44.03001" lon="5.92967">
        <ele>574</ele>
        <time>2021-02-11T14:11:45.000Z</time>
      </trkpt>
      <trkpt lat="44.02998" lon="5.92968">
        <ele>573.40002441406</ele>
        <time>2021-02-11T14:11:46.000Z</time>
      </trkpt>
      <trkpt lat="44.02988" lon="5.92969">
        <ele>572.40002441406</ele>
        <time>2021-02-11T14:11:48.000Z</time>
      </trkpt>
      <trkpt lat="44.02983" lon="5.92969">
        <ele>571.79998779297</ele>
        <time>2021-02-11T14:11:49.000Z</time>
      </trkpt>
      <trkpt lat="44.02975" lon="5.92971">
        <ele>570.79998779297</ele>
        <time>2021-02-11T14:11:51.000Z</time>
      </trkpt>
      <trkpt lat="44.02972" lon="5.92974">
        <ele>569.79998779297</ele>
        <time>2021-02-11T14:11:52.000Z</time>
      </trkpt>
      <trkpt lat="44.02966" lon="5.92983">
        <ele>568.40002441406</ele>
        <time>2021-02-11T14:11:54.000Z</time>
      </trkpt>
      <trkpt lat="44.0296" lon="5.92994">
        <ele>566.59997558594</ele>
        <time>2021-02-11T14:11:56.000Z</time>
      </trkpt>
      <trkpt lat="44.02955" lon="5.93004">
        <ele>565</ele>
        <time>2021-02-11T14:11:58.000Z</time>
      </trkpt>
      <trkpt lat="44.02952" lon="5.93006">
        <ele>564.20001220703</ele>
        <time>2021-02-11T14:11:59.000Z</time>
      </trkpt>
      <trkpt lat="44.02949" lon="5.93007">
        <ele>563</ele>
        <time>2021-02-11T14:12:00.000Z</time>
      </trkpt>
      <trkpt lat="44.02945" lon="5.93007">
        <ele>561.59997558594</ele>
        <time>2021-02-11T14:12:01.000Z</time>
      </trkpt>
      <trkpt lat="44.0294" lon="5.93007">
        <ele>560.40002441406</ele>
        <time>2021-02-11T14:12:02.000Z</time>
      </trkpt>
      <trkpt lat="44.02936" lon="5.93007">
        <ele>559.40002441406</ele>
        <time>2021-02-11T14:12:03.000Z</time>
      </trkpt>
      <trkpt lat="44.02927" lon="5.93007">
        <ele>558.20001220703</ele>
        <time>2021-02-11T14:12:06.000Z</time>
      </trkpt>
      <trkpt lat="44.02919" lon="5.93006">
        <ele>557</ele>
        <time>2021-02-11T14:12:09.000Z</time>
      </trkpt>
      <trkpt lat="44.02916" lon="5.93004">
        <ele>556.20001220703</ele>
        <time>2021-02-11T14:12:10.000Z</time>
      </trkpt>
      <trkpt lat="44.02913" lon="5.93001">
        <ele>555.59997558594</ele>
        <time>2021-02-11T14:12:11.000Z</time>
      </trkpt>
      <trkpt lat="44.02909" lon="5.92996">
        <ele>554.40002441406</ele>
        <time>2021-02-11T14:12:13.000Z</time>
      </trkpt>
      <trkpt lat="44.02907" lon="5.92995">
        <ele>553.59997558594</ele>
        <time>2021-02-11T14:12:14.000Z</time>
      </trkpt>
      <trkpt lat="44.02905" lon="5.92995">
        <ele>552.79998779297</ele>
        <time>2021-02-11T14:12:15.000Z</time>
      </trkpt>
      <trkpt lat="44.02903" lon="5.92997">
        <ele>551.59997558594</ele>
        <time>2021-02-11T14:12:17.000Z</time>
      </trkpt>
      <trkpt lat="44.02903" lon="5.92998">
        <ele>550.59997558594</ele>
        <time>2021-02-11T14:12:19.000Z</time>
      </trkpt>
      <trkpt lat="44.02903" lon="5.93">
        <ele>550.40002441406</ele>
        <time>2021-02-11T14:12:20.000Z</time>
      </trkpt>
      <trkpt lat="44.02904" lon="5.93001">
        <ele>550.20001220703</ele>
        <time>2021-02-11T14:12:21.000Z</time>
      </trkpt>
      <trkpt lat="44.02904" lon="5.93007">
        <ele>549.59997558594</ele>
        <time>2021-02-11T14:12:23.000Z</time>
      </trkpt>
      <trkpt lat="44.02906" lon="5.93027">
        <ele>549.40002441406</ele>
        <time>2021-02-11T14:12:27.000Z</time>
      </trkpt>
      <trkpt lat="44.02909" lon="5.93032">
        <ele>549.20001220703</ele>
        <time>2021-02-11T14:12:28.000Z</time>
      </trkpt>
      <trkpt lat="44.02916" lon="5.93043">
        <ele>548.79998779297</ele>
        <time>2021-02-11T14:12:30.000Z</time>
      </trkpt>
      <trkpt lat="44.0292" lon="5.93049">
        <ele>548.40002441406</ele>
        <time>2021-02-11T14:12:31.000Z</time>
      </trkpt>
      <trkpt lat="44.02924" lon="5.93055">
        <ele>548</ele>
        <time>2021-02-11T14:12:32.000Z</time>
      </trkpt>
      <trkpt lat="44.02933" lon="5.93067">
        <ele>546.79998779297</ele>
        <time>2021-02-11T14:12:34.000Z</time>
      </trkpt>
      <trkpt lat="44.02942" lon="5.93075">
        <ele>545</ele>
        <time>2021-02-11T14:12:36.000Z</time>
      </trkpt>
      <trkpt lat="44.02951" lon="5.93082">
        <ele>543.40002441406</ele>
        <time>2021-02-11T14:12:38.000Z</time>
      </trkpt>
      <trkpt lat="44.02963" lon="5.93091">
        <ele>541.79998779297</ele>
        <time>2021-02-11T14:12:40.000Z</time>
      </trkpt>
      <trkpt lat="44.02971" lon="5.93094">
        <ele>541.20001220703</ele>
        <time>2021-02-11T14:12:41.000Z</time>
      </trkpt>
      <trkpt lat="44.02978" lon="5.93096">
        <ele>540.59997558594</ele>
        <time>2021-02-11T14:12:42.000Z</time>
      </trkpt>
      <trkpt lat="44.03007" lon="5.93105">
        <ele>539.20001220703</ele>
        <time>2021-02-11T14:12:46.000Z</time>
      </trkpt>
      <trkpt lat="44.03014" lon="5.9311">
        <ele>538.40002441406</ele>
        <time>2021-02-11T14:12:47.000Z</time>
      </trkpt>
      <trkpt lat="44.03021" lon="5.93117">
        <ele>537.79998779297</ele>
        <time>2021-02-11T14:12:48.000Z</time>
      </trkpt>
      <trkpt lat="44.03027" lon="5.93125">
        <ele>536.59997558594</ele>
        <time>2021-02-11T14:12:49.000Z</time>
      </trkpt>
      <trkpt lat="44.03032" lon="5.93132">
        <ele>535.59997558594</ele>
        <time>2021-02-11T14:12:50.000Z</time>
      </trkpt>
      <trkpt lat="44.03037" lon="5.93139">
        <ele>534.40002441406</ele>
        <time>2021-02-11T14:12:51.000Z</time>
      </trkpt>
      <trkpt lat="44.03042" lon="5.93146">
        <ele>533.40002441406</ele>
        <time>2021-02-11T14:12:52.000Z</time>
      </trkpt>
      <trkpt lat="44.03045" lon="5.93153">
        <ele>532.59997558594</ele>
        <time>2021-02-11T14:12:53.000Z</time>
      </trkpt>
      <trkpt lat="44.03047" lon="5.93161">
        <ele>531.59997558594</ele>
        <time>2021-02-11T14:12:54.000Z</time>
      </trkpt>
      <trkpt lat="44.03048" lon="5.93169">
        <ele>530.40002441406</ele>
        <time>2021-02-11T14:12:55.000Z</time>
      </trkpt>
      <trkpt lat="44.03048" lon="5.93177">
        <ele>528.79998779297</ele>
        <time>2021-02-11T14:12:56.000Z</time>
      </trkpt>
      <trkpt lat="44.0305" lon="5.93186">
        <ele>527.79998779297</ele>
        <time>2021-02-11T14:12:57.000Z</time>
      </trkpt>
      <trkpt lat="44.03057" lon="5.93203">
        <ele>525.79998779297</ele>
        <time>2021-02-11T14:12:59.000Z</time>
      </trkpt>
      <trkpt lat="44.03061" lon="5.9321">
        <ele>524.59997558594</ele>
        <time>2021-02-11T14:13:00.000Z</time>
      </trkpt>
      <trkpt lat="44.03066" lon="5.93217">
        <ele>523.59997558594</ele>
        <time>2021-02-11T14:13:01.000Z</time>
      </trkpt>
      <trkpt lat="44.03077" lon="5.9323">
        <ele>521.40002441406</ele>
        <time>2021-02-11T14:13:03.000Z</time>
      </trkpt>
      <trkpt lat="44.03083" lon="5.93236">
        <ele>520.20001220703</ele>
        <time>2021-02-11T14:13:04.000Z</time>
      </trkpt>
      <trkpt lat="44.0309" lon="5.93241">
        <ele>519</ele>
        <time>2021-02-11T14:13:05.000Z</time>
      </trkpt>
      <trkpt lat="44.03102" lon="5.93248">
        <ele>517.20001220703</ele>
        <time>2021-02-11T14:13:07.000Z</time>
      </trkpt>
      <trkpt lat="44.03108" lon="5.93251">
        <ele>516.59997558594</ele>
        <time>2021-02-11T14:13:08.000Z</time>
      </trkpt>
      <trkpt lat="44.03113" lon="5.93253">
        <ele>516.20001220703</ele>
        <time>2021-02-11T14:13:09.000Z</time>
      </trkpt>
      <trkpt lat="44.03132" lon="5.9326">
        <ele>515.20001220703</ele>
        <time>2021-02-11T14:13:14.000Z</time>
      </trkpt>
      <trkpt lat="44.03154" lon="5.93266">
        <ele>515.40002441406</ele>
        <time>2021-02-11T14:13:21.000Z</time>
      </trkpt>
      <trkpt lat="44.03171" lon="5.9327">
        <ele>516.20001220703</ele>
        <time>2021-02-11T14:13:27.000Z</time>
      </trkpt>
      <trkpt lat="44.03177" lon="5.93271">
        <ele>516.20001220703</ele>
        <time>2021-02-11T14:13:29.000Z</time>
      </trkpt>
      <trkpt lat="44.03197" lon="5.93274">
        <ele>517.20001220703</ele>
        <time>2021-02-11T14:13:36.000Z</time>
      </trkpt>
      <trkpt lat="44.03203" lon="5.93273">
        <ele>517.40002441406</ele>
        <time>2021-02-11T14:13:39.000Z</time>
      </trkpt>
      <trkpt lat="44.03209" lon="5.93273">
        <ele>518</ele>
        <time>2021-02-11T14:13:42.000Z</time>
      </trkpt>
      <trkpt lat="44.03214" lon="5.93274">
        <ele>518.40002441406</ele>
        <time>2021-02-11T14:13:44.000Z</time>
      </trkpt>
      <trkpt lat="44.03218" lon="5.93276">
        <ele>519.59997558594</ele>
        <time>2021-02-11T14:13:46.000Z</time>
      </trkpt>
      <trkpt lat="44.03224" lon="5.93279">
        <ele>520.40002441406</ele>
        <time>2021-02-11T14:13:49.000Z</time>
      </trkpt>
      <trkpt lat="44.03232" lon="5.93283">
        <ele>520.79998779297</ele>
        <time>2021-02-11T14:13:52.000Z</time>
      </trkpt>
      <trkpt lat="44.03244" lon="5.93286">
        <ele>522</ele>
        <time>2021-02-11T14:13:56.000Z</time>
      </trkpt>
      <trkpt lat="44.03257" lon="5.9328">
        <ele>523.20001220703</ele>
        <time>2021-02-11T14:14:01.000Z</time>
      </trkpt>
      <trkpt lat="44.03259" lon="5.93279">
        <ele>523.40002441406</ele>
        <time>2021-02-11T14:14:02.000Z</time>
      </trkpt>
      <trkpt lat="44.03263" lon="5.93282">
        <ele>523.79998779297</ele>
        <time>2021-02-11T14:14:04.000Z</time>
      </trkpt>
      <trkpt lat="44.03261" lon="5.93295">
        <ele>524</ele>
        <time>2021-02-11T14:14:08.000Z</time>
      </trkpt>
      <trkpt lat="44.03254" lon="5.933">
        <ele>524</ele>
        <time>2021-02-11T14:14:10.000Z</time>
      </trkpt>
      <trkpt lat="44.03247" lon="5.93306">
        <ele>524</ele>
        <time>2021-02-11T14:14:12.000Z</time>
      </trkpt>
      <trkpt lat="44.03231" lon="5.93313">
        <ele>521.59997558594</ele>
        <time>2021-02-11T14:14:17.000Z</time>
      </trkpt>
      <trkpt lat="44.03224" lon="5.93315">
        <ele>520.40002441406</ele>
        <time>2021-02-11T14:14:19.000Z</time>
      </trkpt>
      <trkpt lat="44.03218" lon="5.93317">
        <ele>519.40002441406</ele>
        <time>2021-02-11T14:14:21.000Z</time>
      </trkpt>
      <trkpt lat="44.03214" lon="5.93321">
        <ele>517.59997558594</ele>
        <time>2021-02-11T14:14:23.000Z</time>
      </trkpt>
      <trkpt lat="44.03213" lon="5.93323">
        <ele>516.40002441406</ele>
        <time>2021-02-11T14:14:24.000Z</time>
      </trkpt>
      <trkpt lat="44.0321" lon="5.93326">
        <ele>515.40002441406</ele>
        <time>2021-02-11T14:14:25.000Z</time>
      </trkpt>
      <trkpt lat="44.03208" lon="5.93331">
        <ele>514.59997558594</ele>
        <time>2021-02-11T14:14:26.000Z</time>
      </trkpt>
      <trkpt lat="44.03203" lon="5.93344">
        <ele>512.79998779297</ele>
        <time>2021-02-11T14:14:28.000Z</time>
      </trkpt>
      <trkpt lat="44.032" lon="5.9335">
        <ele>512</ele>
        <time>2021-02-11T14:14:29.000Z</time>
      </trkpt>
      <trkpt lat="44.03197" lon="5.93356">
        <ele>511.20001220703</ele>
        <time>2021-02-11T14:14:30.000Z</time>
      </trkpt>
      <trkpt lat="44.03191" lon="5.93366">
        <ele>509.79998779297</ele>
        <time>2021-02-11T14:14:32.000Z</time>
      </trkpt>
      <trkpt lat="44.03188" lon="5.93373">
        <ele>508.79998779297</ele>
        <time>2021-02-11T14:14:33.000Z</time>
      </trkpt>
      <trkpt lat="44.03183" lon="5.93381">
        <ele>507.79998779297</ele>
        <time>2021-02-11T14:14:34.000Z</time>
      </trkpt>
      <trkpt lat="44.03174" lon="5.93402">
        <ele>506.39999389648</ele>
        <time>2021-02-11T14:14:36.000Z</time>
      </trkpt>
      <trkpt lat="44.03169" lon="5.93412">
        <ele>505.60000610352</ele>
        <time>2021-02-11T14:14:37.000Z</time>
      </trkpt>
      <trkpt lat="44.03163" lon="5.93422">
        <ele>505</ele>
        <time>2021-02-11T14:14:38.000Z</time>
      </trkpt>
      <trkpt lat="44.03153" lon="5.93442">
        <ele>503.60000610352</ele>
        <time>2021-02-11T14:14:40.000Z</time>
      </trkpt>
      <trkpt lat="44.03144" lon="5.93461">
        <ele>501.39999389648</ele>
        <time>2021-02-11T14:14:42.000Z</time>
      </trkpt>
      <trkpt lat="44.0314" lon="5.93469">
        <ele>498.20001220703</ele>
        <time>2021-02-11T14:14:43.000Z</time>
      </trkpt>
      <trkpt lat="44.03136" lon="5.93478">
        <ele>496.39999389648</ele>
        <time>2021-02-11T14:14:44.000Z</time>
      </trkpt>
      <trkpt lat="44.03132" lon="5.93488">
        <ele>495</ele>
        <time>2021-02-11T14:14:45.000Z</time>
      </trkpt>
      <trkpt lat="44.03128" lon="5.93498">
        <ele>493.79998779297</ele>
        <time>2021-02-11T14:14:46.000Z</time>
      </trkpt>
      <trkpt lat="44.03124" lon="5.93507">
        <ele>492.60000610352</ele>
        <time>2021-02-11T14:14:47.000Z</time>
      </trkpt>
      <trkpt lat="44.0312" lon="5.93516">
        <ele>491.60000610352</ele>
        <time>2021-02-11T14:14:48.000Z</time>
      </trkpt>
      <trkpt lat="44.03115" lon="5.93526">
        <ele>490.20001220703</ele>
        <time>2021-02-11T14:14:49.000Z</time>
      </trkpt>
      <trkpt lat="44.03106" lon="5.93547">
        <ele>488.60000610352</ele>
        <time>2021-02-11T14:14:51.000Z</time>
      </trkpt>
      <trkpt lat="44.03101" lon="5.93556">
        <ele>487.60000610352</ele>
        <time>2021-02-11T14:14:52.000Z</time>
      </trkpt>
      <trkpt lat="44.03097" lon="5.93565">
        <ele>486.60000610352</ele>
        <time>2021-02-11T14:14:53.000Z</time>
      </trkpt>
      <trkpt lat="44.03092" lon="5.93575">
        <ele>485.39999389648</ele>
        <time>2021-02-11T14:14:54.000Z</time>
      </trkpt>
      <trkpt lat="44.03088" lon="5.93585">
        <ele>484.20001220703</ele>
        <time>2021-02-11T14:14:55.000Z</time>
      </trkpt>
      <trkpt lat="44.03085" lon="5.93596">
        <ele>483.20001220703</ele>
        <time>2021-02-11T14:14:56.000Z</time>
      </trkpt>
      <trkpt lat="44.03082" lon="5.93608">
        <ele>482</ele>
        <time>2021-02-11T14:14:57.000Z</time>
      </trkpt>
      <trkpt lat="44.03079" lon="5.9362">
        <ele>480.60000610352</ele>
        <time>2021-02-11T14:14:58.000Z</time>
      </trkpt>
      <trkpt lat="44.03076" lon="5.93632">
        <ele>479.39999389648</ele>
        <time>2021-02-11T14:14:59.000Z</time>
      </trkpt>
      <trkpt lat="44.03068" lon="5.93658">
        <ele>477.60000610352</ele>
        <time>2021-02-11T14:15:01.000Z</time>
      </trkpt>
      <trkpt lat="44.03064" lon="5.9367">
        <ele>476.60000610352</ele>
        <time>2021-02-11T14:15:02.000Z</time>
      </trkpt>
      <trkpt lat="44.0306" lon="5.93682">
        <ele>474.79998779297</ele>
        <time>2021-02-11T14:15:03.000Z</time>
      </trkpt>
      <trkpt lat="44.03057" lon="5.93694">
        <ele>473.20001220703</ele>
        <time>2021-02-11T14:15:04.000Z</time>
      </trkpt>
      <trkpt lat="44.03053" lon="5.93704">
        <ele>472</ele>
        <time>2021-02-11T14:15:05.000Z</time>
      </trkpt>
      <trkpt lat="44.0305" lon="5.93713">
        <ele>471</ele>
        <time>2021-02-11T14:15:06.000Z</time>
      </trkpt>
      <trkpt lat="44.03047" lon="5.93721">
        <ele>470.20001220703</ele>
        <time>2021-02-11T14:15:07.000Z</time>
      </trkpt>
      <trkpt lat="44.03044" lon="5.93727">
        <ele>469.20001220703</ele>
        <time>2021-02-11T14:15:08.000Z</time>
      </trkpt>
      <trkpt lat="44.0304" lon="5.93733">
        <ele>467.60000610352</ele>
        <time>2021-02-11T14:15:09.000Z</time>
      </trkpt>
      <trkpt lat="44.03035" lon="5.93738">
        <ele>465.60000610352</ele>
        <time>2021-02-11T14:15:10.000Z</time>
      </trkpt>
      <trkpt lat="44.03029" lon="5.93742">
        <ele>463.39999389648</ele>
        <time>2021-02-11T14:15:11.000Z</time>
      </trkpt>
      <trkpt lat="44.03017" lon="5.9375">
        <ele>462.39999389648</ele>
        <time>2021-02-11T14:15:13.000Z</time>
      </trkpt>
      <trkpt lat="44.03003" lon="5.93756">
        <ele>461.79998779297</ele>
        <time>2021-02-11T14:15:15.000Z</time>
      </trkpt>
      <trkpt lat="44.02985" lon="5.93765">
        <ele>461.20001220703</ele>
        <time>2021-02-11T14:15:18.000Z</time>
      </trkpt>
      <trkpt lat="44.0297" lon="5.93773">
        <ele>460</ele>
        <time>2021-02-11T14:15:21.000Z</time>
      </trkpt>
      <trkpt lat="44.02967" lon="5.93776">
        <ele>459.20001220703</ele>
        <time>2021-02-11T14:15:22.000Z</time>
      </trkpt>
      <trkpt lat="44.02963" lon="5.93778">
        <ele>458.60000610352</ele>
        <time>2021-02-11T14:15:23.000Z</time>
      </trkpt>
      <trkpt lat="44.02952" lon="5.93785">
        <ele>458.20001220703</ele>
        <time>2021-02-11T14:15:26.000Z</time>
      </trkpt>
      <trkpt lat="44.02929" lon="5.93798">
        <ele>458</ele>
        <time>2021-02-11T14:15:32.000Z</time>
      </trkpt>
      <trkpt lat="44.029" lon="5.93815">
        <ele>458</ele>
        <time>2021-02-11T14:15:39.000Z</time>
      </trkpt>
      <trkpt lat="44.02879" lon="5.9383">
        <ele>458.20001220703</ele>
        <time>2021-02-11T14:15:46.000Z</time>
      </trkpt>
      <trkpt lat="44.0287" lon="5.93841">
        <ele>459.20001220703</ele>
        <time>2021-02-11T14:15:53.000Z</time>
      </trkpt>
      <trkpt lat="44.02868" lon="5.93843">
        <ele>459.39999389648</ele>
        <time>2021-02-11T14:15:58.000Z</time>
      </trkpt>
      <trkpt lat="44.02867" lon="5.93843">
        <ele>459.39999389648</ele>
        <time>2021-02-11T14:16:07.000Z</time>
      </trkpt>
      <trkpt lat="44.02868" lon="5.93843">
        <ele>459.39999389648</ele>
        <time>2021-02-11T14:16:14.000Z</time>
      </trkpt>
    </trkseg>
  </trk>
</gpx>